<?xml version="1.0" encoding="UTF-8" standalone="no" ?>
<gpx xmlns="http://www.topografix.com/GPX/1/1" xmlns:xsi="http://www.w3.org/2001/XMLSchema-instance" xsi:schemaLocation="http://www.topografix.com/GPX/1/1 http://www.topografix.com/GPX/1/1/gpx.xsd" version="1.1" creator="VisuGPX - https://www.visugpx.com">
  <metadata>
    <name>rando aiguebelette</name>
    <desc><![CDATA[rando aiguebelette
]]></desc>
  </metadata>
  <trk>
    <name><![CDATA[RANDO AIGUEBELETTE]]></name>
    <trkseg>
      <trkpt lat="45.56456" lon="5.79566">
        <ele>332.27</ele>
        <time>2011-06-19T06:19:05Z</time>
      </trkpt>
      <trkpt lat="45.56456" lon="5.79569">
        <ele>332.27</ele>
        <time>2011-06-19T06:19:06Z</time>
      </trkpt>
      <trkpt lat="45.56456" lon="5.79567">
        <ele>336.6</ele>
        <time>2011-06-19T06:19:11Z</time>
      </trkpt>
      <trkpt lat="45.56457" lon="5.79566">
        <ele>340.44</ele>
        <time>2011-06-19T06:19:14Z</time>
      </trkpt>
      <trkpt lat="45.56456" lon="5.79567">
        <ele>344.29</ele>
        <time>2011-06-19T06:19:17Z</time>
      </trkpt>
      <trkpt lat="45.56453" lon="5.79567">
        <ele>348.13</ele>
        <time>2011-06-19T06:19:20Z</time>
      </trkpt>
      <trkpt lat="45.56453" lon="5.79567">
        <ele>351.98</ele>
        <time>2011-06-19T06:19:23Z</time>
      </trkpt>
      <trkpt lat="45.56453" lon="5.79568">
        <ele>355.34</ele>
        <time>2011-06-19T06:19:26Z</time>
      </trkpt>
      <trkpt lat="45.56453" lon="5.79568">
        <ele>359.19</ele>
        <time>2011-06-19T06:19:30Z</time>
      </trkpt>
      <trkpt lat="45.56453" lon="5.79567">
        <ele>362.55</ele>
        <time>2011-06-19T06:19:34Z</time>
      </trkpt>
      <trkpt lat="45.56453" lon="5.79566">
        <ele>364</ele>
        <time>2011-06-19T06:19:36Z</time>
      </trkpt>
      <trkpt lat="45.56459" lon="5.79564">
        <ele>368.32</ele>
        <time>2011-06-19T06:19:41Z</time>
      </trkpt>
      <trkpt lat="45.5646" lon="5.79563">
        <ele>368.8</ele>
        <time>2011-06-19T06:19:42Z</time>
      </trkpt>
      <trkpt lat="45.56464" lon="5.79565">
        <ele>370.24</ele>
        <time>2011-06-19T06:19:45Z</time>
      </trkpt>
      <trkpt lat="45.56467" lon="5.79564">
        <ele>371.69</ele>
        <time>2011-06-19T06:19:48Z</time>
      </trkpt>
      <trkpt lat="45.56467" lon="5.7956">
        <ele>375.05</ele>
        <time>2011-06-19T06:19:56Z</time>
      </trkpt>
      <trkpt lat="45.56467" lon="5.7956">
        <ele>375.05</ele>
        <time>2011-06-19T06:19:57Z</time>
      </trkpt>
      <trkpt lat="45.5647" lon="5.79557">
        <ele>378.42</ele>
        <time>2011-06-19T06:20:12Z</time>
      </trkpt>
      <trkpt lat="45.56471" lon="5.79559">
        <ele>381.3</ele>
        <time>2011-06-19T06:20:34Z</time>
      </trkpt>
      <trkpt lat="45.56471" lon="5.79558">
        <ele>381.78</ele>
        <time>2011-06-19T06:20:37Z</time>
      </trkpt>
      <trkpt lat="45.56477" lon="5.79544">
        <ele>383.22</ele>
        <time>2011-06-19T06:20:44Z</time>
      </trkpt>
      <trkpt lat="45.56485" lon="5.79503">
        <ele>385.15</ele>
        <time>2011-06-19T06:20:58Z</time>
      </trkpt>
      <trkpt lat="45.56488" lon="5.79499">
        <ele>385.15</ele>
        <time>2011-06-19T06:21:00Z</time>
      </trkpt>
      <trkpt lat="45.56478" lon="5.7947">
        <ele>388.03</ele>
        <time>2011-06-19T06:21:11Z</time>
      </trkpt>
      <trkpt lat="45.56479" lon="5.79466">
        <ele>388.51</ele>
        <time>2011-06-19T06:21:20Z</time>
      </trkpt>
      <trkpt lat="45.56467" lon="5.79461">
        <ele>388.51</ele>
        <time>2011-06-19T06:21:25Z</time>
      </trkpt>
      <trkpt lat="45.5641" lon="5.79457">
        <ele>388.99</ele>
        <time>2011-06-19T06:21:41Z</time>
      </trkpt>
      <trkpt lat="45.56371" lon="5.79436">
        <ele>389.95</ele>
        <time>2011-06-19T06:21:53Z</time>
      </trkpt>
      <trkpt lat="45.56345" lon="5.79435">
        <ele>392.84</ele>
        <time>2011-06-19T06:22:04Z</time>
      </trkpt>
      <trkpt lat="45.56319" lon="5.79458">
        <ele>396.2</ele>
        <time>2011-06-19T06:22:18Z</time>
      </trkpt>
      <trkpt lat="45.56297" lon="5.79493">
        <ele>399.08</ele>
        <time>2011-06-19T06:22:34Z</time>
      </trkpt>
      <trkpt lat="45.56273" lon="5.79486">
        <ele>401.49</ele>
        <time>2011-06-19T06:22:46Z</time>
      </trkpt>
      <trkpt lat="45.56257" lon="5.79434">
        <ele>404.37</ele>
        <time>2011-06-19T06:23:02Z</time>
      </trkpt>
      <trkpt lat="45.56246" lon="5.79362">
        <ele>407.26</ele>
        <time>2011-06-19T06:23:21Z</time>
      </trkpt>
      <trkpt lat="45.56231" lon="5.79292">
        <ele>410.14</ele>
        <time>2011-06-19T06:23:40Z</time>
      </trkpt>
      <trkpt lat="45.56208" lon="5.79245">
        <ele>413.02</ele>
        <time>2011-06-19T06:23:57Z</time>
      </trkpt>
      <trkpt lat="45.56192" lon="5.79195">
        <ele>415.43</ele>
        <time>2011-06-19T06:24:13Z</time>
      </trkpt>
      <trkpt lat="45.56205" lon="5.79132">
        <ele>418.79</ele>
        <time>2011-06-19T06:24:30Z</time>
      </trkpt>
      <trkpt lat="45.56201" lon="5.79081">
        <ele>421.19</ele>
        <time>2011-06-19T06:24:45Z</time>
      </trkpt>
      <trkpt lat="45.56202" lon="5.79035">
        <ele>424.08</ele>
        <time>2011-06-19T06:25:01Z</time>
      </trkpt>
      <trkpt lat="45.56209" lon="5.7903">
        <ele>425.52</ele>
        <time>2011-06-19T06:25:05Z</time>
      </trkpt>
      <trkpt lat="45.56212" lon="5.79031">
        <ele>426</ele>
        <time>2011-06-19T06:25:06Z</time>
      </trkpt>
      <trkpt lat="45.56213" lon="5.79032">
        <ele>426</ele>
        <time>2011-06-19T06:25:07Z</time>
      </trkpt>
      <trkpt lat="45.56216" lon="5.79033">
        <ele>426.48</ele>
        <time>2011-06-19T06:25:08Z</time>
      </trkpt>
      <trkpt lat="45.56217" lon="5.79035">
        <ele>426.48</ele>
        <time>2011-06-19T06:25:09Z</time>
      </trkpt>
      <trkpt lat="45.56219" lon="5.79036">
        <ele>426.96</ele>
        <time>2011-06-19T06:25:10Z</time>
      </trkpt>
      <trkpt lat="45.56248" lon="5.7907">
        <ele>428.89</ele>
        <time>2011-06-19T06:25:27Z</time>
      </trkpt>
      <trkpt lat="45.56255" lon="5.79079">
        <ele>430.33</ele>
        <time>2011-06-19T06:25:31Z</time>
      </trkpt>
      <trkpt lat="45.5628" lon="5.79096">
        <ele>433.69</ele>
        <time>2011-06-19T06:25:44Z</time>
      </trkpt>
      <trkpt lat="45.56311" lon="5.79102">
        <ele>435.61</ele>
        <time>2011-06-19T06:25:58Z</time>
      </trkpt>
      <trkpt lat="45.56347" lon="5.79107">
        <ele>438.5</ele>
        <time>2011-06-19T06:26:13Z</time>
      </trkpt>
      <trkpt lat="45.56381" lon="5.79109">
        <ele>441.38</ele>
        <time>2011-06-19T06:26:28Z</time>
      </trkpt>
      <trkpt lat="45.56419" lon="5.79103">
        <ele>444.27</ele>
        <time>2011-06-19T06:26:44Z</time>
      </trkpt>
      <trkpt lat="45.56467" lon="5.79093">
        <ele>447.15</ele>
        <time>2011-06-19T06:27:03Z</time>
      </trkpt>
      <trkpt lat="45.56478" lon="5.79055">
        <ele>449.55</ele>
        <time>2011-06-19T06:27:16Z</time>
      </trkpt>
      <trkpt lat="45.56476" lon="5.79052">
        <ele>450.03</ele>
        <time>2011-06-19T06:27:17Z</time>
      </trkpt>
      <trkpt lat="45.56436" lon="5.79042">
        <ele>452.44</ele>
        <time>2011-06-19T06:27:33Z</time>
      </trkpt>
      <trkpt lat="45.56408" lon="5.79042">
        <ele>455.8</ele>
        <time>2011-06-19T06:27:45Z</time>
      </trkpt>
      <trkpt lat="45.56369" lon="5.7903">
        <ele>458.69</ele>
        <time>2011-06-19T06:28:02Z</time>
      </trkpt>
      <trkpt lat="45.56347" lon="5.78982">
        <ele>462.05</ele>
        <time>2011-06-19T06:28:18Z</time>
      </trkpt>
      <trkpt lat="45.56329" lon="5.78934">
        <ele>464.93</ele>
        <time>2011-06-19T06:28:33Z</time>
      </trkpt>
      <trkpt lat="45.56309" lon="5.78888">
        <ele>467.82</ele>
        <time>2011-06-19T06:28:48Z</time>
      </trkpt>
      <trkpt lat="45.56287" lon="5.78852">
        <ele>470.7</ele>
        <time>2011-06-19T06:29:01Z</time>
      </trkpt>
      <trkpt lat="45.56265" lon="5.78809">
        <ele>474.07</ele>
        <time>2011-06-19T06:29:16Z</time>
      </trkpt>
      <trkpt lat="45.56249" lon="5.78761">
        <ele>477.43</ele>
        <time>2011-06-19T06:29:31Z</time>
      </trkpt>
      <trkpt lat="45.56226" lon="5.7869">
        <ele>479.35</ele>
        <time>2011-06-19T06:29:49Z</time>
      </trkpt>
      <trkpt lat="45.56218" lon="5.78624">
        <ele>481.76</ele>
        <time>2011-06-19T06:30:04Z</time>
      </trkpt>
      <trkpt lat="45.56209" lon="5.78552">
        <ele>484.16</ele>
        <time>2011-06-19T06:30:20Z</time>
      </trkpt>
      <trkpt lat="45.56204" lon="5.78483">
        <ele>486.56</ele>
        <time>2011-06-19T06:30:35Z</time>
      </trkpt>
      <trkpt lat="45.56197" lon="5.78417">
        <ele>488.01</ele>
        <time>2011-06-19T06:30:48Z</time>
      </trkpt>
      <trkpt lat="45.56194" lon="5.7837">
        <ele>488.01</ele>
        <time>2011-06-19T06:30:56Z</time>
      </trkpt>
      <trkpt lat="45.56192" lon="5.78342">
        <ele>488.01</ele>
        <time>2011-06-19T06:31:00Z</time>
      </trkpt>
      <trkpt lat="45.56192" lon="5.78334">
        <ele>488.01</ele>
        <time>2011-06-19T06:31:01Z</time>
      </trkpt>
      <trkpt lat="45.5618" lon="5.78279">
        <ele>486.08</ele>
        <time>2011-06-19T06:31:08Z</time>
      </trkpt>
      <trkpt lat="45.56166" lon="5.78208">
        <ele>482.72</ele>
        <time>2011-06-19T06:31:15Z</time>
      </trkpt>
      <trkpt lat="45.56133" lon="5.7804">
        <ele>480.8</ele>
        <time>2011-06-19T06:31:31Z</time>
      </trkpt>
      <trkpt lat="45.56125" lon="5.77921">
        <ele>481.76</ele>
        <time>2011-06-19T06:31:45Z</time>
      </trkpt>
      <trkpt lat="45.56118" lon="5.77767">
        <ele>478.39</ele>
        <time>2011-06-19T06:32:02Z</time>
      </trkpt>
      <trkpt lat="45.56115" lon="5.77634">
        <ele>479.35</ele>
        <time>2011-06-19T06:32:16Z</time>
      </trkpt>
      <trkpt lat="45.56113" lon="5.7754">
        <ele>482.72</ele>
        <time>2011-06-19T06:32:32Z</time>
      </trkpt>
      <trkpt lat="45.56112" lon="5.77454">
        <ele>486.08</ele>
        <time>2011-06-19T06:32:49Z</time>
      </trkpt>
      <trkpt lat="45.5611" lon="5.77391">
        <ele>488.97</ele>
        <time>2011-06-19T06:33:03Z</time>
      </trkpt>
      <trkpt lat="45.5611" lon="5.77331">
        <ele>492.33</ele>
        <time>2011-06-19T06:33:17Z</time>
      </trkpt>
      <trkpt lat="45.56125" lon="5.77294">
        <ele>492.81</ele>
        <time>2011-06-19T06:33:29Z</time>
      </trkpt>
      <trkpt lat="45.56158" lon="5.77277">
        <ele>489.45</ele>
        <time>2011-06-19T06:33:38Z</time>
      </trkpt>
      <trkpt lat="45.56203" lon="5.77276">
        <ele>489.93</ele>
        <time>2011-06-19T06:33:44Z</time>
      </trkpt>
      <trkpt lat="45.56256" lon="5.77279">
        <ele>489.93</ele>
        <time>2011-06-19T06:33:52Z</time>
      </trkpt>
      <trkpt lat="45.56262" lon="5.77278">
        <ele>490.41</ele>
        <time>2011-06-19T06:33:53Z</time>
      </trkpt>
      <trkpt lat="45.56266" lon="5.77274">
        <ele>490.41</ele>
        <time>2011-06-19T06:33:54Z</time>
      </trkpt>
      <trkpt lat="45.56271" lon="5.7727">
        <ele>490.89</ele>
        <time>2011-06-19T06:33:55Z</time>
      </trkpt>
      <trkpt lat="45.56274" lon="5.77265">
        <ele>490.41</ele>
        <time>2011-06-19T06:33:56Z</time>
      </trkpt>
      <trkpt lat="45.56276" lon="5.7726">
        <ele>490.41</ele>
        <time>2011-06-19T06:33:57Z</time>
      </trkpt>
      <trkpt lat="45.56277" lon="5.77255">
        <ele>490.89</ele>
        <time>2011-06-19T06:33:58Z</time>
      </trkpt>
      <trkpt lat="45.56278" lon="5.77251">
        <ele>491.37</ele>
        <time>2011-06-19T06:33:59Z</time>
      </trkpt>
      <trkpt lat="45.56279" lon="5.77247">
        <ele>491.85</ele>
        <time>2011-06-19T06:34:00Z</time>
      </trkpt>
      <trkpt lat="45.56279" lon="5.77244">
        <ele>492.33</ele>
        <time>2011-06-19T06:34:01Z</time>
      </trkpt>
      <trkpt lat="45.5628" lon="5.77241">
        <ele>492.33</ele>
        <time>2011-06-19T06:34:02Z</time>
      </trkpt>
      <trkpt lat="45.56281" lon="5.77238">
        <ele>492.81</ele>
        <time>2011-06-19T06:34:03Z</time>
      </trkpt>
      <trkpt lat="45.56282" lon="5.77235">
        <ele>493.29</ele>
        <time>2011-06-19T06:34:04Z</time>
      </trkpt>
      <trkpt lat="45.56282" lon="5.77232">
        <ele>493.29</ele>
        <time>2011-06-19T06:34:05Z</time>
      </trkpt>
      <trkpt lat="45.56282" lon="5.77228">
        <ele>493.77</ele>
        <time>2011-06-19T06:34:06Z</time>
      </trkpt>
      <trkpt lat="45.56282" lon="5.77225">
        <ele>493.77</ele>
        <time>2011-06-19T06:34:07Z</time>
      </trkpt>
      <trkpt lat="45.56282" lon="5.77221">
        <ele>494.74</ele>
        <time>2011-06-19T06:34:08Z</time>
      </trkpt>
      <trkpt lat="45.56279" lon="5.77171">
        <ele>497.14</ele>
        <time>2011-06-19T06:34:20Z</time>
      </trkpt>
      <trkpt lat="45.56273" lon="5.77112">
        <ele>498.58</ele>
        <time>2011-06-19T06:34:34Z</time>
      </trkpt>
      <trkpt lat="45.56271" lon="5.7711">
        <ele>498.1</ele>
        <time>2011-06-19T06:34:35Z</time>
      </trkpt>
      <trkpt lat="45.56267" lon="5.77108">
        <ele>499.06</ele>
        <time>2011-06-19T06:34:38Z</time>
      </trkpt>
      <trkpt lat="45.56266" lon="5.77109">
        <ele>499.06</ele>
        <time>2011-06-19T06:34:39Z</time>
      </trkpt>
      <trkpt lat="45.56256" lon="5.77123">
        <ele>500.5</ele>
        <time>2011-06-19T06:34:47Z</time>
      </trkpt>
      <trkpt lat="45.56255" lon="5.77124">
        <ele>500.98</ele>
        <time>2011-06-19T06:34:48Z</time>
      </trkpt>
      <trkpt lat="45.56253" lon="5.77125">
        <ele>500.98</ele>
        <time>2011-06-19T06:34:49Z</time>
      </trkpt>
      <trkpt lat="45.56252" lon="5.77127">
        <ele>500.98</ele>
        <time>2011-06-19T06:34:50Z</time>
      </trkpt>
      <trkpt lat="45.5625" lon="5.77128">
        <ele>501.46</ele>
        <time>2011-06-19T06:34:51Z</time>
      </trkpt>
      <trkpt lat="45.56249" lon="5.7713">
        <ele>501.95</ele>
        <time>2011-06-19T06:34:52Z</time>
      </trkpt>
      <trkpt lat="45.56223" lon="5.77148">
        <ele>504.83</ele>
        <time>2011-06-19T06:35:06Z</time>
      </trkpt>
      <trkpt lat="45.56204" lon="5.77142">
        <ele>507.71</ele>
        <time>2011-06-19T06:35:18Z</time>
      </trkpt>
      <trkpt lat="45.562" lon="5.77134">
        <ele>509.64</ele>
        <time>2011-06-19T06:35:22Z</time>
      </trkpt>
      <trkpt lat="45.56191" lon="5.77109">
        <ele>512.52</ele>
        <time>2011-06-19T06:35:34Z</time>
      </trkpt>
      <trkpt lat="45.56183" lon="5.77081">
        <ele>515.4</ele>
        <time>2011-06-19T06:35:48Z</time>
      </trkpt>
      <trkpt lat="45.56172" lon="5.77068">
        <ele>518.29</ele>
        <time>2011-06-19T06:35:59Z</time>
      </trkpt>
      <trkpt lat="45.5617" lon="5.77067">
        <ele>518.29</ele>
        <time>2011-06-19T06:36:00Z</time>
      </trkpt>
      <trkpt lat="45.56169" lon="5.77067">
        <ele>518.77</ele>
        <time>2011-06-19T06:36:01Z</time>
      </trkpt>
      <trkpt lat="45.56168" lon="5.77066">
        <ele>518.77</ele>
        <time>2011-06-19T06:36:02Z</time>
      </trkpt>
      <trkpt lat="45.56167" lon="5.77066">
        <ele>519.25</ele>
        <time>2011-06-19T06:36:03Z</time>
      </trkpt>
      <trkpt lat="45.56165" lon="5.77066">
        <ele>519.25</ele>
        <time>2011-06-19T06:36:04Z</time>
      </trkpt>
      <trkpt lat="45.56163" lon="5.77065">
        <ele>519.73</ele>
        <time>2011-06-19T06:36:05Z</time>
      </trkpt>
      <trkpt lat="45.56162" lon="5.77064">
        <ele>519.73</ele>
        <time>2011-06-19T06:36:06Z</time>
      </trkpt>
      <trkpt lat="45.5616" lon="5.77064">
        <ele>520.21</ele>
        <time>2011-06-19T06:36:07Z</time>
      </trkpt>
      <trkpt lat="45.56147" lon="5.77057">
        <ele>522.61</ele>
        <time>2011-06-19T06:36:17Z</time>
      </trkpt>
      <trkpt lat="45.56146" lon="5.77056">
        <ele>522.61</ele>
        <time>2011-06-19T06:36:18Z</time>
      </trkpt>
      <trkpt lat="45.56145" lon="5.77054">
        <ele>523.09</ele>
        <time>2011-06-19T06:36:19Z</time>
      </trkpt>
      <trkpt lat="45.56144" lon="5.77053">
        <ele>523.58</ele>
        <time>2011-06-19T06:36:20Z</time>
      </trkpt>
      <trkpt lat="45.56141" lon="5.77015">
        <ele>525.5</ele>
        <time>2011-06-19T06:36:35Z</time>
      </trkpt>
      <trkpt lat="45.56139" lon="5.76998">
        <ele>527.42</ele>
        <time>2011-06-19T06:36:43Z</time>
      </trkpt>
      <trkpt lat="45.56126" lon="5.7695">
        <ele>529.82</ele>
        <time>2011-06-19T06:37:00Z</time>
      </trkpt>
      <trkpt lat="45.56113" lon="5.76898">
        <ele>531.75</ele>
        <time>2011-06-19T06:37:16Z</time>
      </trkpt>
      <trkpt lat="45.56098" lon="5.76827">
        <ele>533.19</ele>
        <time>2011-06-19T06:37:34Z</time>
      </trkpt>
      <trkpt lat="45.56068" lon="5.76813">
        <ele>536.07</ele>
        <time>2011-06-19T06:37:49Z</time>
      </trkpt>
      <trkpt lat="45.56018" lon="5.76808">
        <ele>536.07</ele>
        <time>2011-06-19T06:38:05Z</time>
      </trkpt>
      <trkpt lat="45.55993" lon="5.7681">
        <ele>532.71</ele>
        <time>2011-06-19T06:38:12Z</time>
      </trkpt>
      <trkpt lat="45.55975" lon="5.76811">
        <ele>530.79</ele>
        <time>2011-06-19T06:38:16Z</time>
      </trkpt>
      <trkpt lat="45.55959" lon="5.76811">
        <ele>528.38</ele>
        <time>2011-06-19T06:38:19Z</time>
      </trkpt>
      <trkpt lat="45.55946" lon="5.76807">
        <ele>526.46</ele>
        <time>2011-06-19T06:38:22Z</time>
      </trkpt>
      <trkpt lat="45.55942" lon="5.76804">
        <ele>525.5</ele>
        <time>2011-06-19T06:38:23Z</time>
      </trkpt>
      <trkpt lat="45.55938" lon="5.76801">
        <ele>525.5</ele>
        <time>2011-06-19T06:38:24Z</time>
      </trkpt>
      <trkpt lat="45.55933" lon="5.76799">
        <ele>524.54</ele>
        <time>2011-06-19T06:38:25Z</time>
      </trkpt>
      <trkpt lat="45.55928" lon="5.76799">
        <ele>524.06</ele>
        <time>2011-06-19T06:38:26Z</time>
      </trkpt>
      <trkpt lat="45.55923" lon="5.76801">
        <ele>524.06</ele>
        <time>2011-06-19T06:38:27Z</time>
      </trkpt>
      <trkpt lat="45.55919" lon="5.76804">
        <ele>524.54</ele>
        <time>2011-06-19T06:38:28Z</time>
      </trkpt>
      <trkpt lat="45.55915" lon="5.76805">
        <ele>525.02</ele>
        <time>2011-06-19T06:38:29Z</time>
      </trkpt>
      <trkpt lat="45.55911" lon="5.76806">
        <ele>525.5</ele>
        <time>2011-06-19T06:38:30Z</time>
      </trkpt>
      <trkpt lat="45.55907" lon="5.76806">
        <ele>525.5</ele>
        <time>2011-06-19T06:38:31Z</time>
      </trkpt>
      <trkpt lat="45.55903" lon="5.76805">
        <ele>525.98</ele>
        <time>2011-06-19T06:38:32Z</time>
      </trkpt>
      <trkpt lat="45.55859" lon="5.7681">
        <ele>525.98</ele>
        <time>2011-06-19T06:38:42Z</time>
      </trkpt>
      <trkpt lat="45.55854" lon="5.76812">
        <ele>525.98</ele>
        <time>2011-06-19T06:38:43Z</time>
      </trkpt>
      <trkpt lat="45.5585" lon="5.76817">
        <ele>525.98</ele>
        <time>2011-06-19T06:38:44Z</time>
      </trkpt>
      <trkpt lat="45.55848" lon="5.76822">
        <ele>525.98</ele>
        <time>2011-06-19T06:38:45Z</time>
      </trkpt>
      <trkpt lat="45.55845" lon="5.76827">
        <ele>526.46</ele>
        <time>2011-06-19T06:38:46Z</time>
      </trkpt>
      <trkpt lat="45.55828" lon="5.7684">
        <ele>529.34</ele>
        <time>2011-06-19T06:38:53Z</time>
      </trkpt>
      <trkpt lat="45.5578" lon="5.76841">
        <ele>531.27</ele>
        <time>2011-06-19T06:39:09Z</time>
      </trkpt>
      <trkpt lat="45.55755" lon="5.76818">
        <ele>533.19</ele>
        <time>2011-06-19T06:39:20Z</time>
      </trkpt>
      <trkpt lat="45.55746" lon="5.76777">
        <ele>534.15</ele>
        <time>2011-06-19T06:39:28Z</time>
      </trkpt>
      <trkpt lat="45.55744" lon="5.76772">
        <ele>534.15</ele>
        <time>2011-06-19T06:39:29Z</time>
      </trkpt>
      <trkpt lat="45.55742" lon="5.76767">
        <ele>534.15</ele>
        <time>2011-06-19T06:39:30Z</time>
      </trkpt>
      <trkpt lat="45.55738" lon="5.76764">
        <ele>534.15</ele>
        <time>2011-06-19T06:39:31Z</time>
      </trkpt>
      <trkpt lat="45.55734" lon="5.76761">
        <ele>533.67</ele>
        <time>2011-06-19T06:39:32Z</time>
      </trkpt>
      <trkpt lat="45.55729" lon="5.76759">
        <ele>534.15</ele>
        <time>2011-06-19T06:39:33Z</time>
      </trkpt>
      <trkpt lat="45.55679" lon="5.7674">
        <ele>533.67</ele>
        <time>2011-06-19T06:39:44Z</time>
      </trkpt>
      <trkpt lat="45.55606" lon="5.76736">
        <ele>536.07</ele>
        <time>2011-06-19T06:40:00Z</time>
      </trkpt>
      <trkpt lat="45.55563" lon="5.76736">
        <ele>535.59</ele>
        <time>2011-06-19T06:40:10Z</time>
      </trkpt>
      <trkpt lat="45.55536" lon="5.76741">
        <ele>532.71</ele>
        <time>2011-06-19T06:40:14Z</time>
      </trkpt>
      <trkpt lat="45.55507" lon="5.7675">
        <ele>529.34</ele>
        <time>2011-06-19T06:40:18Z</time>
      </trkpt>
      <trkpt lat="45.55485" lon="5.76758">
        <ele>525.02</ele>
        <time>2011-06-19T06:40:21Z</time>
      </trkpt>
      <trkpt lat="45.5546" lon="5.76763">
        <ele>521.17</ele>
        <time>2011-06-19T06:40:24Z</time>
      </trkpt>
      <trkpt lat="45.55453" lon="5.76762">
        <ele>519.73</ele>
        <time>2011-06-19T06:40:25Z</time>
      </trkpt>
      <trkpt lat="45.55447" lon="5.7676">
        <ele>519.25</ele>
        <time>2011-06-19T06:40:26Z</time>
      </trkpt>
      <trkpt lat="45.55441" lon="5.76757">
        <ele>518.29</ele>
        <time>2011-06-19T06:40:27Z</time>
      </trkpt>
      <trkpt lat="45.55437" lon="5.76751">
        <ele>517.33</ele>
        <time>2011-06-19T06:40:28Z</time>
      </trkpt>
      <trkpt lat="45.55433" lon="5.76743">
        <ele>516.85</ele>
        <time>2011-06-19T06:40:29Z</time>
      </trkpt>
      <trkpt lat="45.55431" lon="5.76734">
        <ele>516.37</ele>
        <time>2011-06-19T06:40:30Z</time>
      </trkpt>
      <trkpt lat="45.5543" lon="5.76724">
        <ele>515.4</ele>
        <time>2011-06-19T06:40:31Z</time>
      </trkpt>
      <trkpt lat="45.55428" lon="5.76713">
        <ele>514.92</ele>
        <time>2011-06-19T06:40:32Z</time>
      </trkpt>
      <trkpt lat="45.55428" lon="5.76701">
        <ele>513.96</ele>
        <time>2011-06-19T06:40:33Z</time>
      </trkpt>
      <trkpt lat="45.55428" lon="5.76688">
        <ele>513</ele>
        <time>2011-06-19T06:40:34Z</time>
      </trkpt>
      <trkpt lat="45.55429" lon="5.76664">
        <ele>512.04</ele>
        <time>2011-06-19T06:40:36Z</time>
      </trkpt>
      <trkpt lat="45.55426" lon="5.76587">
        <ele>510.12</ele>
        <time>2011-06-19T06:40:42Z</time>
      </trkpt>
      <trkpt lat="45.55424" lon="5.76535">
        <ele>508.19</ele>
        <time>2011-06-19T06:40:46Z</time>
      </trkpt>
      <trkpt lat="45.55422" lon="5.76521">
        <ele>507.23</ele>
        <time>2011-06-19T06:40:47Z</time>
      </trkpt>
      <trkpt lat="45.5542" lon="5.76508">
        <ele>507.23</ele>
        <time>2011-06-19T06:40:48Z</time>
      </trkpt>
      <trkpt lat="45.5541" lon="5.76472">
        <ele>506.75</ele>
        <time>2011-06-19T06:40:51Z</time>
      </trkpt>
      <trkpt lat="45.55405" lon="5.76462">
        <ele>505.79</ele>
        <time>2011-06-19T06:40:52Z</time>
      </trkpt>
      <trkpt lat="45.55396" lon="5.7644">
        <ele>504.35</ele>
        <time>2011-06-19T06:40:54Z</time>
      </trkpt>
      <trkpt lat="45.55395" lon="5.76428">
        <ele>503.87</ele>
        <time>2011-06-19T06:40:55Z</time>
      </trkpt>
      <trkpt lat="45.55394" lon="5.76415">
        <ele>503.87</ele>
        <time>2011-06-19T06:40:56Z</time>
      </trkpt>
      <trkpt lat="45.55396" lon="5.76403">
        <ele>503.39</ele>
        <time>2011-06-19T06:40:57Z</time>
      </trkpt>
      <trkpt lat="45.55397" lon="5.76391">
        <ele>503.39</ele>
        <time>2011-06-19T06:40:58Z</time>
      </trkpt>
      <trkpt lat="45.55404" lon="5.76311">
        <ele>501.95</ele>
        <time>2011-06-19T06:41:05Z</time>
      </trkpt>
      <trkpt lat="45.55411" lon="5.76265">
        <ele>498.1</ele>
        <time>2011-06-19T06:41:09Z</time>
      </trkpt>
      <trkpt lat="45.55415" lon="5.76254">
        <ele>497.14</ele>
        <time>2011-06-19T06:41:10Z</time>
      </trkpt>
      <trkpt lat="45.55425" lon="5.76231">
        <ele>496.18</ele>
        <time>2011-06-19T06:41:12Z</time>
      </trkpt>
      <trkpt lat="45.5545" lon="5.76162">
        <ele>496.18</ele>
        <time>2011-06-19T06:41:20Z</time>
      </trkpt>
      <trkpt lat="45.55447" lon="5.76157">
        <ele>496.66</ele>
        <time>2011-06-19T06:41:21Z</time>
      </trkpt>
      <trkpt lat="45.55442" lon="5.76152">
        <ele>496.18</ele>
        <time>2011-06-19T06:41:22Z</time>
      </trkpt>
      <trkpt lat="45.55436" lon="5.76149">
        <ele>496.18</ele>
        <time>2011-06-19T06:41:23Z</time>
      </trkpt>
      <trkpt lat="45.5543" lon="5.76146">
        <ele>495.22</ele>
        <time>2011-06-19T06:41:24Z</time>
      </trkpt>
      <trkpt lat="45.55423" lon="5.76143">
        <ele>494.74</ele>
        <time>2011-06-19T06:41:25Z</time>
      </trkpt>
      <trkpt lat="45.55381" lon="5.7613">
        <ele>492.33</ele>
        <time>2011-06-19T06:41:30Z</time>
      </trkpt>
      <trkpt lat="45.55372" lon="5.76125">
        <ele>490.89</ele>
        <time>2011-06-19T06:41:31Z</time>
      </trkpt>
      <trkpt lat="45.55364" lon="5.76119">
        <ele>490.41</ele>
        <time>2011-06-19T06:41:32Z</time>
      </trkpt>
      <trkpt lat="45.55326" lon="5.76097">
        <ele>487.05</ele>
        <time>2011-06-19T06:41:36Z</time>
      </trkpt>
      <trkpt lat="45.55297" lon="5.76086">
        <ele>486.08</ele>
        <time>2011-06-19T06:41:39Z</time>
      </trkpt>
      <trkpt lat="45.55232" lon="5.76067">
        <ele>483.68</ele>
        <time>2011-06-19T06:41:46Z</time>
      </trkpt>
      <trkpt lat="45.55223" lon="5.76067">
        <ele>482.72</ele>
        <time>2011-06-19T06:41:47Z</time>
      </trkpt>
      <trkpt lat="45.55213" lon="5.76067">
        <ele>482.24</ele>
        <time>2011-06-19T06:41:48Z</time>
      </trkpt>
      <trkpt lat="45.55204" lon="5.76066">
        <ele>482.24</ele>
        <time>2011-06-19T06:41:49Z</time>
      </trkpt>
      <trkpt lat="45.55196" lon="5.76063">
        <ele>482.24</ele>
        <time>2011-06-19T06:41:50Z</time>
      </trkpt>
      <trkpt lat="45.55188" lon="5.7606">
        <ele>482.72</ele>
        <time>2011-06-19T06:41:51Z</time>
      </trkpt>
      <trkpt lat="45.55181" lon="5.76056">
        <ele>483.2</ele>
        <time>2011-06-19T06:41:52Z</time>
      </trkpt>
      <trkpt lat="45.55175" lon="5.76052">
        <ele>483.68</ele>
        <time>2011-06-19T06:41:53Z</time>
      </trkpt>
      <trkpt lat="45.55152" lon="5.76037">
        <ele>485.12</ele>
        <time>2011-06-19T06:41:57Z</time>
      </trkpt>
      <trkpt lat="45.55111" lon="5.75966">
        <ele>487.05</ele>
        <time>2011-06-19T06:42:09Z</time>
      </trkpt>
      <trkpt lat="45.551" lon="5.75939">
        <ele>487.53</ele>
        <time>2011-06-19T06:42:13Z</time>
      </trkpt>
      <trkpt lat="45.55073" lon="5.75893">
        <ele>489.45</ele>
        <time>2011-06-19T06:42:21Z</time>
      </trkpt>
      <trkpt lat="45.55041" lon="5.75871">
        <ele>492.81</ele>
        <time>2011-06-19T06:42:30Z</time>
      </trkpt>
      <trkpt lat="45.55002" lon="5.75844">
        <ele>493.77</ele>
        <time>2011-06-19T06:42:42Z</time>
      </trkpt>
      <trkpt lat="45.55001" lon="5.75839">
        <ele>493.77</ele>
        <time>2011-06-19T06:42:43Z</time>
      </trkpt>
      <trkpt lat="45.55002" lon="5.75834">
        <ele>493.77</ele>
        <time>2011-06-19T06:42:44Z</time>
      </trkpt>
      <trkpt lat="45.55007" lon="5.75809">
        <ele>491.85</ele>
        <time>2011-06-19T06:42:49Z</time>
      </trkpt>
      <trkpt lat="45.55008" lon="5.75803">
        <ele>490.89</ele>
        <time>2011-06-19T06:42:50Z</time>
      </trkpt>
      <trkpt lat="45.55008" lon="5.75797">
        <ele>489.93</ele>
        <time>2011-06-19T06:42:51Z</time>
      </trkpt>
      <trkpt lat="45.55008" lon="5.75791">
        <ele>489.93</ele>
        <time>2011-06-19T06:42:52Z</time>
      </trkpt>
      <trkpt lat="45.55007" lon="5.75785">
        <ele>488.97</ele>
        <time>2011-06-19T06:42:53Z</time>
      </trkpt>
      <trkpt lat="45.55005" lon="5.75778">
        <ele>488.49</ele>
        <time>2011-06-19T06:42:54Z</time>
      </trkpt>
      <trkpt lat="45.55003" lon="5.75773">
        <ele>487.53</ele>
        <time>2011-06-19T06:42:55Z</time>
      </trkpt>
      <trkpt lat="45.55001" lon="5.75767">
        <ele>486.56</ele>
        <time>2011-06-19T06:42:56Z</time>
      </trkpt>
      <trkpt lat="45.55" lon="5.75761">
        <ele>485.6</ele>
        <time>2011-06-19T06:42:57Z</time>
      </trkpt>
      <trkpt lat="45.54998" lon="5.75756">
        <ele>485.12</ele>
        <time>2011-06-19T06:42:58Z</time>
      </trkpt>
      <trkpt lat="45.54995" lon="5.75751">
        <ele>484.16</ele>
        <time>2011-06-19T06:42:59Z</time>
      </trkpt>
      <trkpt lat="45.54993" lon="5.75746">
        <ele>483.68</ele>
        <time>2011-06-19T06:43:00Z</time>
      </trkpt>
      <trkpt lat="45.5499" lon="5.7574">
        <ele>481.76</ele>
        <time>2011-06-19T06:43:01Z</time>
      </trkpt>
      <trkpt lat="45.54987" lon="5.75732">
        <ele>480.8</ele>
        <time>2011-06-19T06:43:02Z</time>
      </trkpt>
      <trkpt lat="45.54975" lon="5.75697">
        <ele>477.91</ele>
        <time>2011-06-19T06:43:06Z</time>
      </trkpt>
      <trkpt lat="45.54973" lon="5.75689">
        <ele>477.43</ele>
        <time>2011-06-19T06:43:07Z</time>
      </trkpt>
      <trkpt lat="45.54972" lon="5.7568">
        <ele>477.43</ele>
        <time>2011-06-19T06:43:08Z</time>
      </trkpt>
      <trkpt lat="45.54966" lon="5.75638">
        <ele>476.47</ele>
        <time>2011-06-19T06:43:15Z</time>
      </trkpt>
      <trkpt lat="45.54969" lon="5.75635">
        <ele>475.99</ele>
        <time>2011-06-19T06:43:16Z</time>
      </trkpt>
      <trkpt lat="45.54973" lon="5.75635">
        <ele>475.51</ele>
        <time>2011-06-19T06:43:17Z</time>
      </trkpt>
      <trkpt lat="45.54979" lon="5.75635">
        <ele>475.03</ele>
        <time>2011-06-19T06:43:18Z</time>
      </trkpt>
      <trkpt lat="45.54987" lon="5.75636">
        <ele>474.07</ele>
        <time>2011-06-19T06:43:19Z</time>
      </trkpt>
      <trkpt lat="45.54994" lon="5.75639">
        <ele>473.59</ele>
        <time>2011-06-19T06:43:20Z</time>
      </trkpt>
      <trkpt lat="45.55002" lon="5.75641">
        <ele>472.63</ele>
        <time>2011-06-19T06:43:21Z</time>
      </trkpt>
      <trkpt lat="45.5501" lon="5.75645">
        <ele>472.63</ele>
        <time>2011-06-19T06:43:22Z</time>
      </trkpt>
      <trkpt lat="45.55032" lon="5.7565">
        <ele>472.63</ele>
        <time>2011-06-19T06:43:25Z</time>
      </trkpt>
      <trkpt lat="45.55039" lon="5.7565">
        <ele>472.14</ele>
        <time>2011-06-19T06:43:26Z</time>
      </trkpt>
      <trkpt lat="45.55045" lon="5.75647">
        <ele>472.14</ele>
        <time>2011-06-19T06:43:27Z</time>
      </trkpt>
      <trkpt lat="45.55048" lon="5.75644">
        <ele>472.14</ele>
        <time>2011-06-19T06:43:28Z</time>
      </trkpt>
      <trkpt lat="45.55051" lon="5.75639">
        <ele>471.66</ele>
        <time>2011-06-19T06:43:29Z</time>
      </trkpt>
      <trkpt lat="45.55053" lon="5.75633">
        <ele>471.18</ele>
        <time>2011-06-19T06:43:30Z</time>
      </trkpt>
      <trkpt lat="45.55046" lon="5.75569">
        <ele>470.22</ele>
        <time>2011-06-19T06:43:39Z</time>
      </trkpt>
      <trkpt lat="45.55049" lon="5.75547">
        <ele>468.78</ele>
        <time>2011-06-19T06:43:43Z</time>
      </trkpt>
      <trkpt lat="45.55045" lon="5.75514">
        <ele>466.38</ele>
        <time>2011-06-19T06:43:53Z</time>
      </trkpt>
      <trkpt lat="45.55013" lon="5.75499">
        <ele>464.93</ele>
        <time>2011-06-19T06:44:02Z</time>
      </trkpt>
      <trkpt lat="45.5499" lon="5.75504">
        <ele>462.53</ele>
        <time>2011-06-19T06:44:10Z</time>
      </trkpt>
      <trkpt lat="45.5498" lon="5.75524">
        <ele>464.45</ele>
        <time>2011-06-19T06:44:21Z</time>
      </trkpt>
      <trkpt lat="45.54976" lon="5.75526">
        <ele>463.49</ele>
        <time>2011-06-19T06:44:29Z</time>
      </trkpt>
      <trkpt lat="45.54956" lon="5.75517">
        <ele>463.97</ele>
        <time>2011-06-19T06:44:41Z</time>
      </trkpt>
      <trkpt lat="45.54934" lon="5.7551">
        <ele>467.34</ele>
        <time>2011-06-19T06:44:51Z</time>
      </trkpt>
      <trkpt lat="45.54912" lon="5.75494">
        <ele>470.22</ele>
        <time>2011-06-19T06:45:05Z</time>
      </trkpt>
      <trkpt lat="45.54899" lon="5.75494">
        <ele>473.59</ele>
        <time>2011-06-19T06:45:17Z</time>
      </trkpt>
      <trkpt lat="45.5489" lon="5.75504">
        <ele>475.51</ele>
        <time>2011-06-19T06:45:31Z</time>
      </trkpt>
      <trkpt lat="45.54878" lon="5.75527">
        <ele>476.95</ele>
        <time>2011-06-19T06:45:44Z</time>
      </trkpt>
      <trkpt lat="45.54869" lon="5.7554">
        <ele>480.32</ele>
        <time>2011-06-19T06:45:53Z</time>
      </trkpt>
      <trkpt lat="45.54861" lon="5.75539">
        <ele>478.87</ele>
        <time>2011-06-19T06:45:57Z</time>
      </trkpt>
      <trkpt lat="45.54852" lon="5.7553">
        <ele>476.47</ele>
        <time>2011-06-19T06:46:01Z</time>
      </trkpt>
      <trkpt lat="45.54848" lon="5.75496">
        <ele>472.63</ele>
        <time>2011-06-19T06:46:07Z</time>
      </trkpt>
      <trkpt lat="45.54848" lon="5.75489">
        <ele>472.63</ele>
        <time>2011-06-19T06:46:08Z</time>
      </trkpt>
      <trkpt lat="45.54841" lon="5.75447">
        <ele>473.11</ele>
        <time>2011-06-19T06:46:18Z</time>
      </trkpt>
      <trkpt lat="45.54828" lon="5.75412">
        <ele>475.51</ele>
        <time>2011-06-19T06:46:31Z</time>
      </trkpt>
      <trkpt lat="45.54815" lon="5.75388">
        <ele>478.87</ele>
        <time>2011-06-19T06:46:43Z</time>
      </trkpt>
      <trkpt lat="45.54786" lon="5.75369">
        <ele>479.35</ele>
        <time>2011-06-19T06:46:56Z</time>
      </trkpt>
      <trkpt lat="45.54769" lon="5.75357">
        <ele>475.99</ele>
        <time>2011-06-19T06:47:02Z</time>
      </trkpt>
      <trkpt lat="45.54755" lon="5.75347">
        <ele>473.11</ele>
        <time>2011-06-19T06:47:06Z</time>
      </trkpt>
      <trkpt lat="45.54742" lon="5.7533">
        <ele>471.18</ele>
        <time>2011-06-19T06:47:09Z</time>
      </trkpt>
      <trkpt lat="45.54728" lon="5.75305">
        <ele>468.78</ele>
        <time>2011-06-19T06:47:13Z</time>
      </trkpt>
      <trkpt lat="45.54719" lon="5.75272">
        <ele>467.82</ele>
        <time>2011-06-19T06:47:25Z</time>
      </trkpt>
      <trkpt lat="45.54725" lon="5.75234">
        <ele>465.42</ele>
        <time>2011-06-19T06:47:35Z</time>
      </trkpt>
      <trkpt lat="45.54727" lon="5.75224">
        <ele>464.45</ele>
        <time>2011-06-19T06:47:37Z</time>
      </trkpt>
      <trkpt lat="45.54723" lon="5.75195">
        <ele>462.05</ele>
        <time>2011-06-19T06:47:43Z</time>
      </trkpt>
      <trkpt lat="45.54702" lon="5.75162">
        <ele>463.01</ele>
        <time>2011-06-19T06:47:54Z</time>
      </trkpt>
      <trkpt lat="45.547" lon="5.75159">
        <ele>464.45</ele>
        <time>2011-06-19T06:47:56Z</time>
      </trkpt>
      <trkpt lat="45.54697" lon="5.75158">
        <ele>464.93</ele>
        <time>2011-06-19T06:47:59Z</time>
      </trkpt>
      <trkpt lat="45.54689" lon="5.7515">
        <ele>466.38</ele>
        <time>2011-06-19T06:48:06Z</time>
      </trkpt>
      <trkpt lat="45.54667" lon="5.75133">
        <ele>467.82</ele>
        <time>2011-06-19T06:48:19Z</time>
      </trkpt>
      <trkpt lat="45.54648" lon="5.75128">
        <ele>467.82</ele>
        <time>2011-06-19T06:48:31Z</time>
      </trkpt>
      <trkpt lat="45.54636" lon="5.75129">
        <ele>468.78</ele>
        <time>2011-06-19T06:48:46Z</time>
      </trkpt>
      <trkpt lat="45.54627" lon="5.75126">
        <ele>467.82</ele>
        <time>2011-06-19T06:48:57Z</time>
      </trkpt>
      <trkpt lat="45.54619" lon="5.75122">
        <ele>465.42</ele>
        <time>2011-06-19T06:49:07Z</time>
      </trkpt>
      <trkpt lat="45.54615" lon="5.75117">
        <ele>463.01</ele>
        <time>2011-06-19T06:49:13Z</time>
      </trkpt>
      <trkpt lat="45.54612" lon="5.75114">
        <ele>463.01</ele>
        <time>2011-06-19T06:49:15Z</time>
      </trkpt>
      <trkpt lat="45.54588" lon="5.75101">
        <ele>462.05</ele>
        <time>2011-06-19T06:49:29Z</time>
      </trkpt>
      <trkpt lat="45.54585" lon="5.75094">
        <ele>461.09</ele>
        <time>2011-06-19T06:49:42Z</time>
      </trkpt>
      <trkpt lat="45.54587" lon="5.75095">
        <ele>457.72</ele>
        <time>2011-06-19T06:49:51Z</time>
      </trkpt>
      <trkpt lat="45.54589" lon="5.75094">
        <ele>457.72</ele>
        <time>2011-06-19T06:49:52Z</time>
      </trkpt>
      <trkpt lat="45.54594" lon="5.75089">
        <ele>455.32</ele>
        <time>2011-06-19T06:49:56Z</time>
      </trkpt>
      <trkpt lat="45.54584" lon="5.7507">
        <ele>451</ele>
        <time>2011-06-19T06:50:02Z</time>
      </trkpt>
      <trkpt lat="45.54569" lon="5.75055">
        <ele>447.15</ele>
        <time>2011-06-19T06:50:07Z</time>
      </trkpt>
      <trkpt lat="45.54565" lon="5.75052">
        <ele>447.15</ele>
        <time>2011-06-19T06:50:08Z</time>
      </trkpt>
      <trkpt lat="45.54544" lon="5.75033">
        <ele>444.27</ele>
        <time>2011-06-19T06:50:20Z</time>
      </trkpt>
      <trkpt lat="45.54518" lon="5.75008">
        <ele>440.9</ele>
        <time>2011-06-19T06:50:31Z</time>
      </trkpt>
      <trkpt lat="45.54508" lon="5.74989">
        <ele>437.06</ele>
        <time>2011-06-19T06:50:37Z</time>
      </trkpt>
      <trkpt lat="45.54501" lon="5.74975">
        <ele>433.69</ele>
        <time>2011-06-19T06:50:41Z</time>
      </trkpt>
      <trkpt lat="45.54495" lon="5.7496">
        <ele>429.85</ele>
        <time>2011-06-19T06:50:45Z</time>
      </trkpt>
      <trkpt lat="45.54486" lon="5.74945">
        <ele>426</ele>
        <time>2011-06-19T06:50:49Z</time>
      </trkpt>
      <trkpt lat="45.54475" lon="5.7493">
        <ele>423.6</ele>
        <time>2011-06-19T06:50:53Z</time>
      </trkpt>
      <trkpt lat="45.54439" lon="5.74907">
        <ele>421.19</ele>
        <time>2011-06-19T06:51:05Z</time>
      </trkpt>
      <trkpt lat="45.54435" lon="5.74906">
        <ele>420.71</ele>
        <time>2011-06-19T06:51:06Z</time>
      </trkpt>
      <trkpt lat="45.54431" lon="5.74904">
        <ele>421.68</ele>
        <time>2011-06-19T06:51:07Z</time>
      </trkpt>
      <trkpt lat="45.54427" lon="5.74902">
        <ele>420.23</ele>
        <time>2011-06-19T06:51:08Z</time>
      </trkpt>
      <trkpt lat="45.54422" lon="5.749">
        <ele>419.27</ele>
        <time>2011-06-19T06:51:09Z</time>
      </trkpt>
      <trkpt lat="45.54412" lon="5.74896">
        <ele>418.79</ele>
        <time>2011-06-19T06:51:11Z</time>
      </trkpt>
      <trkpt lat="45.54406" lon="5.74896">
        <ele>418.31</ele>
        <time>2011-06-19T06:51:12Z</time>
      </trkpt>
      <trkpt lat="45.54391" lon="5.74896">
        <ele>416.87</ele>
        <time>2011-06-19T06:51:15Z</time>
      </trkpt>
      <trkpt lat="45.54386" lon="5.74895">
        <ele>416.39</ele>
        <time>2011-06-19T06:51:16Z</time>
      </trkpt>
      <trkpt lat="45.54381" lon="5.74895">
        <ele>415.43</ele>
        <time>2011-06-19T06:51:17Z</time>
      </trkpt>
      <trkpt lat="45.54376" lon="5.74894">
        <ele>414.47</ele>
        <time>2011-06-19T06:51:18Z</time>
      </trkpt>
      <trkpt lat="45.54369" lon="5.74894">
        <ele>414.95</ele>
        <time>2011-06-19T06:51:19Z</time>
      </trkpt>
      <trkpt lat="45.54364" lon="5.74894">
        <ele>414.47</ele>
        <time>2011-06-19T06:51:20Z</time>
      </trkpt>
      <trkpt lat="45.54358" lon="5.74895">
        <ele>413.98</ele>
        <time>2011-06-19T06:51:21Z</time>
      </trkpt>
      <trkpt lat="45.54321" lon="5.74904">
        <ele>412.54</ele>
        <time>2011-06-19T06:51:31Z</time>
      </trkpt>
      <trkpt lat="45.54317" lon="5.74904">
        <ele>412.54</ele>
        <time>2011-06-19T06:51:32Z</time>
      </trkpt>
      <trkpt lat="45.54312" lon="5.74904">
        <ele>411.58</ele>
        <time>2011-06-19T06:51:33Z</time>
      </trkpt>
      <trkpt lat="45.54307" lon="5.74904">
        <ele>411.58</ele>
        <time>2011-06-19T06:51:34Z</time>
      </trkpt>
      <trkpt lat="45.54297" lon="5.74904">
        <ele>411.1</ele>
        <time>2011-06-19T06:51:36Z</time>
      </trkpt>
      <trkpt lat="45.54293" lon="5.74903">
        <ele>411.58</ele>
        <time>2011-06-19T06:51:37Z</time>
      </trkpt>
      <trkpt lat="45.54288" lon="5.74902">
        <ele>410.62</ele>
        <time>2011-06-19T06:51:38Z</time>
      </trkpt>
      <trkpt lat="45.54273" lon="5.74893">
        <ele>408.7</ele>
        <time>2011-06-19T06:51:41Z</time>
      </trkpt>
      <trkpt lat="45.54265" lon="5.74886">
        <ele>407.74</ele>
        <time>2011-06-19T06:51:43Z</time>
      </trkpt>
      <trkpt lat="45.54263" lon="5.74886">
        <ele>406.77</ele>
        <time>2011-06-19T06:51:49Z</time>
      </trkpt>
      <trkpt lat="45.54266" lon="5.74885">
        <ele>406.77</ele>
        <time>2011-06-19T06:51:55Z</time>
      </trkpt>
      <trkpt lat="45.54268" lon="5.74882">
        <ele>406.29</ele>
        <time>2011-06-19T06:51:56Z</time>
      </trkpt>
      <trkpt lat="45.54269" lon="5.7488">
        <ele>405.81</ele>
        <time>2011-06-19T06:51:57Z</time>
      </trkpt>
      <trkpt lat="45.5427" lon="5.74878">
        <ele>405.33</ele>
        <time>2011-06-19T06:51:58Z</time>
      </trkpt>
      <trkpt lat="45.5427" lon="5.74875">
        <ele>405.33</ele>
        <time>2011-06-19T06:51:59Z</time>
      </trkpt>
      <trkpt lat="45.5427" lon="5.74872">
        <ele>404.85</ele>
        <time>2011-06-19T06:52:00Z</time>
      </trkpt>
      <trkpt lat="45.54269" lon="5.74868">
        <ele>404.37</ele>
        <time>2011-06-19T06:52:01Z</time>
      </trkpt>
      <trkpt lat="45.54268" lon="5.74865">
        <ele>404.37</ele>
        <time>2011-06-19T06:52:02Z</time>
      </trkpt>
      <trkpt lat="45.54266" lon="5.74863">
        <ele>404.37</ele>
        <time>2011-06-19T06:52:03Z</time>
      </trkpt>
      <trkpt lat="45.54263" lon="5.7486">
        <ele>403.89</ele>
        <time>2011-06-19T06:52:04Z</time>
      </trkpt>
      <trkpt lat="45.54229" lon="5.74839">
        <ele>400.53</ele>
        <time>2011-06-19T06:52:14Z</time>
      </trkpt>
      <trkpt lat="45.54217" lon="5.74833">
        <ele>399.08</ele>
        <time>2011-06-19T06:52:17Z</time>
      </trkpt>
      <trkpt lat="45.54202" lon="5.74822">
        <ele>395.24</ele>
        <time>2011-06-19T06:52:21Z</time>
      </trkpt>
      <trkpt lat="45.54197" lon="5.74819">
        <ele>394.76</ele>
        <time>2011-06-19T06:52:22Z</time>
      </trkpt>
      <trkpt lat="45.54191" lon="5.74816">
        <ele>393.32</ele>
        <time>2011-06-19T06:52:23Z</time>
      </trkpt>
      <trkpt lat="45.54185" lon="5.74813">
        <ele>392.36</ele>
        <time>2011-06-19T06:52:24Z</time>
      </trkpt>
      <trkpt lat="45.54179" lon="5.74812">
        <ele>392.84</ele>
        <time>2011-06-19T06:52:25Z</time>
      </trkpt>
      <trkpt lat="45.54173" lon="5.74812">
        <ele>392.36</ele>
        <time>2011-06-19T06:52:26Z</time>
      </trkpt>
      <trkpt lat="45.54167" lon="5.74812">
        <ele>391.39</ele>
        <time>2011-06-19T06:52:27Z</time>
      </trkpt>
      <trkpt lat="45.54162" lon="5.74811">
        <ele>391.39</ele>
        <time>2011-06-19T06:52:28Z</time>
      </trkpt>
      <trkpt lat="45.54158" lon="5.7481">
        <ele>391.39</ele>
        <time>2011-06-19T06:52:29Z</time>
      </trkpt>
      <trkpt lat="45.54155" lon="5.74809">
        <ele>391.39</ele>
        <time>2011-06-19T06:52:30Z</time>
      </trkpt>
      <trkpt lat="45.54152" lon="5.74808">
        <ele>391.39</ele>
        <time>2011-06-19T06:52:31Z</time>
      </trkpt>
      <trkpt lat="45.5415" lon="5.74808">
        <ele>391.87</ele>
        <time>2011-06-19T06:52:32Z</time>
      </trkpt>
      <trkpt lat="45.54148" lon="5.7481">
        <ele>390.91</ele>
        <time>2011-06-19T06:52:33Z</time>
      </trkpt>
      <trkpt lat="45.54146" lon="5.74815">
        <ele>391.87</ele>
        <time>2011-06-19T06:52:34Z</time>
      </trkpt>
      <trkpt lat="45.54144" lon="5.7482">
        <ele>391.39</ele>
        <time>2011-06-19T06:52:35Z</time>
      </trkpt>
      <trkpt lat="45.54142" lon="5.74825">
        <ele>390.91</ele>
        <time>2011-06-19T06:52:36Z</time>
      </trkpt>
      <trkpt lat="45.54138" lon="5.74828">
        <ele>391.39</ele>
        <time>2011-06-19T06:52:37Z</time>
      </trkpt>
      <trkpt lat="45.54134" lon="5.74829">
        <ele>390.91</ele>
        <time>2011-06-19T06:52:38Z</time>
      </trkpt>
      <trkpt lat="45.5413" lon="5.74829">
        <ele>391.39</ele>
        <time>2011-06-19T06:52:39Z</time>
      </trkpt>
      <trkpt lat="45.54128" lon="5.74829">
        <ele>390.91</ele>
        <time>2011-06-19T06:52:40Z</time>
      </trkpt>
      <trkpt lat="45.54126" lon="5.74829">
        <ele>390.91</ele>
        <time>2011-06-19T06:52:41Z</time>
      </trkpt>
      <trkpt lat="45.54124" lon="5.74829">
        <ele>389.95</ele>
        <time>2011-06-19T06:52:42Z</time>
      </trkpt>
      <trkpt lat="45.54122" lon="5.7483">
        <ele>389.95</ele>
        <time>2011-06-19T06:52:43Z</time>
      </trkpt>
      <trkpt lat="45.5412" lon="5.74831">
        <ele>389.95</ele>
        <time>2011-06-19T06:52:44Z</time>
      </trkpt>
      <trkpt lat="45.54119" lon="5.74831">
        <ele>388.99</ele>
        <time>2011-06-19T06:52:45Z</time>
      </trkpt>
      <trkpt lat="45.54115" lon="5.7483">
        <ele>387.55</ele>
        <time>2011-06-19T06:52:47Z</time>
      </trkpt>
      <trkpt lat="45.54112" lon="5.74829">
        <ele>387.55</ele>
        <time>2011-06-19T06:52:48Z</time>
      </trkpt>
      <trkpt lat="45.54083" lon="5.74834">
        <ele>388.03</ele>
        <time>2011-06-19T06:52:57Z</time>
      </trkpt>
      <trkpt lat="45.54082" lon="5.74837">
        <ele>388.03</ele>
        <time>2011-06-19T06:52:58Z</time>
      </trkpt>
      <trkpt lat="45.54067" lon="5.74871">
        <ele>388.99</ele>
        <time>2011-06-19T06:53:08Z</time>
      </trkpt>
      <trkpt lat="45.54062" lon="5.74879">
        <ele>388.99</ele>
        <time>2011-06-19T06:53:10Z</time>
      </trkpt>
      <trkpt lat="45.5406" lon="5.74885">
        <ele>388.99</ele>
        <time>2011-06-19T06:53:11Z</time>
      </trkpt>
      <trkpt lat="45.54036" lon="5.7492">
        <ele>387.55</ele>
        <time>2011-06-19T06:53:20Z</time>
      </trkpt>
      <trkpt lat="45.54033" lon="5.74924">
        <ele>387.55</ele>
        <time>2011-06-19T06:53:21Z</time>
      </trkpt>
      <trkpt lat="45.54029" lon="5.74927">
        <ele>388.03</ele>
        <time>2011-06-19T06:53:22Z</time>
      </trkpt>
      <trkpt lat="45.54026" lon="5.74931">
        <ele>388.03</ele>
        <time>2011-06-19T06:53:23Z</time>
      </trkpt>
      <trkpt lat="45.54022" lon="5.74933">
        <ele>388.51</ele>
        <time>2011-06-19T06:53:24Z</time>
      </trkpt>
      <trkpt lat="45.54018" lon="5.74934">
        <ele>388.03</ele>
        <time>2011-06-19T06:53:25Z</time>
      </trkpt>
      <trkpt lat="45.54015" lon="5.74936">
        <ele>388.03</ele>
        <time>2011-06-19T06:53:26Z</time>
      </trkpt>
      <trkpt lat="45.53979" lon="5.74946">
        <ele>390.91</ele>
        <time>2011-06-19T06:53:39Z</time>
      </trkpt>
      <trkpt lat="45.53954" lon="5.74933">
        <ele>393.8</ele>
        <time>2011-06-19T06:53:53Z</time>
      </trkpt>
      <trkpt lat="45.53936" lon="5.74914">
        <ele>397.16</ele>
        <time>2011-06-19T06:54:06Z</time>
      </trkpt>
      <trkpt lat="45.53919" lon="5.74903">
        <ele>399.57</ele>
        <time>2011-06-19T06:54:18Z</time>
      </trkpt>
      <trkpt lat="45.53902" lon="5.74891">
        <ele>402.45</ele>
        <time>2011-06-19T06:54:31Z</time>
      </trkpt>
      <trkpt lat="45.53892" lon="5.74887">
        <ele>404.85</ele>
        <time>2011-06-19T06:54:44Z</time>
      </trkpt>
      <trkpt lat="45.53886" lon="5.74881">
        <ele>405.81</ele>
        <time>2011-06-19T06:54:58Z</time>
      </trkpt>
      <trkpt lat="45.53883" lon="5.7488">
        <ele>406.77</ele>
        <time>2011-06-19T06:55:03Z</time>
      </trkpt>
      <trkpt lat="45.53881" lon="5.74879">
        <ele>406.77</ele>
        <time>2011-06-19T06:55:05Z</time>
      </trkpt>
      <trkpt lat="45.53864" lon="5.74872">
        <ele>410.14</ele>
        <time>2011-06-19T06:55:17Z</time>
      </trkpt>
      <trkpt lat="45.53852" lon="5.74864">
        <ele>412.54</ele>
        <time>2011-06-19T06:55:30Z</time>
      </trkpt>
      <trkpt lat="45.53841" lon="5.7486">
        <ele>415.43</ele>
        <time>2011-06-19T06:55:44Z</time>
      </trkpt>
      <trkpt lat="45.53829" lon="5.74858">
        <ele>418.31</ele>
        <time>2011-06-19T06:55:58Z</time>
      </trkpt>
      <trkpt lat="45.53817" lon="5.74859">
        <ele>421.68</ele>
        <time>2011-06-19T06:56:12Z</time>
      </trkpt>
      <trkpt lat="45.53803" lon="5.74857">
        <ele>423.12</ele>
        <time>2011-06-19T06:56:25Z</time>
      </trkpt>
      <trkpt lat="45.53803" lon="5.74857">
        <ele>423.6</ele>
        <time>2011-06-19T06:56:31Z</time>
      </trkpt>
      <trkpt lat="45.5378" lon="5.7485">
        <ele>426.48</ele>
        <time>2011-06-19T06:56:45Z</time>
      </trkpt>
      <trkpt lat="45.53767" lon="5.74845">
        <ele>428.89</ele>
        <time>2011-06-19T06:56:53Z</time>
      </trkpt>
      <trkpt lat="45.53767" lon="5.74836">
        <ele>430.33</ele>
        <time>2011-06-19T06:56:58Z</time>
      </trkpt>
      <trkpt lat="45.53785" lon="5.74802">
        <ele>432.73</ele>
        <time>2011-06-19T06:57:15Z</time>
      </trkpt>
      <trkpt lat="45.53798" lon="5.74774">
        <ele>435.61</ele>
        <time>2011-06-19T06:57:29Z</time>
      </trkpt>
      <trkpt lat="45.53814" lon="5.74726">
        <ele>434.17</ele>
        <time>2011-06-19T06:57:41Z</time>
      </trkpt>
      <trkpt lat="45.53815" lon="5.74719">
        <ele>433.69</ele>
        <time>2011-06-19T06:57:42Z</time>
      </trkpt>
      <trkpt lat="45.53814" lon="5.74713">
        <ele>433.69</ele>
        <time>2011-06-19T06:57:43Z</time>
      </trkpt>
      <trkpt lat="45.53812" lon="5.74633">
        <ele>432.25</ele>
        <time>2011-06-19T06:57:57Z</time>
      </trkpt>
      <trkpt lat="45.53812" lon="5.74633">
        <ele>432.25</ele>
        <time>2011-06-19T06:58:16Z</time>
      </trkpt>
      <trkpt lat="45.53813" lon="5.74634">
        <ele>432.25</ele>
        <time>2011-06-19T06:58:47Z</time>
      </trkpt>
      <trkpt lat="45.53812" lon="5.74632">
        <ele>432.73</ele>
        <time>2011-06-19T06:59:16Z</time>
      </trkpt>
      <trkpt lat="45.53812" lon="5.74631">
        <ele>432.25</ele>
        <time>2011-06-19T06:59:17Z</time>
      </trkpt>
      <trkpt lat="45.53812" lon="5.74628">
        <ele>432.73</ele>
        <time>2011-06-19T06:59:18Z</time>
      </trkpt>
      <trkpt lat="45.53812" lon="5.74626">
        <ele>432.25</ele>
        <time>2011-06-19T06:59:19Z</time>
      </trkpt>
      <trkpt lat="45.53812" lon="5.74622">
        <ele>432.73</ele>
        <time>2011-06-19T06:59:20Z</time>
      </trkpt>
      <trkpt lat="45.53812" lon="5.74618">
        <ele>432.73</ele>
        <time>2011-06-19T06:59:21Z</time>
      </trkpt>
      <trkpt lat="45.53812" lon="5.74614">
        <ele>432.73</ele>
        <time>2011-06-19T06:59:22Z</time>
      </trkpt>
      <trkpt lat="45.53812" lon="5.74609">
        <ele>432.73</ele>
        <time>2011-06-19T06:59:23Z</time>
      </trkpt>
      <trkpt lat="45.53828" lon="5.74546">
        <ele>434.17</ele>
        <time>2011-06-19T06:59:37Z</time>
      </trkpt>
      <trkpt lat="45.53853" lon="5.74522">
        <ele>438.02</ele>
        <time>2011-06-19T06:59:50Z</time>
      </trkpt>
      <trkpt lat="45.53877" lon="5.74503">
        <ele>440.9</ele>
        <time>2011-06-19T07:00:03Z</time>
      </trkpt>
      <trkpt lat="45.539" lon="5.7449">
        <ele>443.31</ele>
        <time>2011-06-19T07:00:16Z</time>
      </trkpt>
      <trkpt lat="45.5393" lon="5.74467">
        <ele>445.71</ele>
        <time>2011-06-19T07:00:31Z</time>
      </trkpt>
      <trkpt lat="45.5396" lon="5.74445">
        <ele>448.59</ele>
        <time>2011-06-19T07:00:46Z</time>
      </trkpt>
      <trkpt lat="45.53993" lon="5.7442">
        <ele>451.48</ele>
        <time>2011-06-19T07:01:03Z</time>
      </trkpt>
      <trkpt lat="45.5402" lon="5.74408">
        <ele>454.36</ele>
        <time>2011-06-19T07:01:16Z</time>
      </trkpt>
      <trkpt lat="45.54052" lon="5.7442">
        <ele>457.24</ele>
        <time>2011-06-19T07:01:31Z</time>
      </trkpt>
      <trkpt lat="45.54077" lon="5.74436">
        <ele>460.13</ele>
        <time>2011-06-19T07:01:44Z</time>
      </trkpt>
      <trkpt lat="45.54099" lon="5.7445">
        <ele>463.49</ele>
        <time>2011-06-19T07:01:57Z</time>
      </trkpt>
      <trkpt lat="45.5412" lon="5.7446">
        <ele>466.38</ele>
        <time>2011-06-19T07:02:10Z</time>
      </trkpt>
      <trkpt lat="45.54144" lon="5.74457">
        <ele>469.74</ele>
        <time>2011-06-19T07:02:23Z</time>
      </trkpt>
      <trkpt lat="45.54172" lon="5.74449">
        <ele>472.14</ele>
        <time>2011-06-19T07:02:38Z</time>
      </trkpt>
      <trkpt lat="45.54194" lon="5.74451">
        <ele>475.51</ele>
        <time>2011-06-19T07:02:50Z</time>
      </trkpt>
      <trkpt lat="45.54229" lon="5.74459">
        <ele>477.91</ele>
        <time>2011-06-19T07:03:06Z</time>
      </trkpt>
      <trkpt lat="45.54263" lon="5.74468">
        <ele>480.32</ele>
        <time>2011-06-19T07:03:21Z</time>
      </trkpt>
      <trkpt lat="45.54303" lon="5.74482">
        <ele>483.68</ele>
        <time>2011-06-19T07:03:39Z</time>
      </trkpt>
      <trkpt lat="45.54344" lon="5.745">
        <ele>486.08</ele>
        <time>2011-06-19T07:03:59Z</time>
      </trkpt>
      <trkpt lat="45.54377" lon="5.74518">
        <ele>488.49</ele>
        <time>2011-06-19T07:04:15Z</time>
      </trkpt>
      <trkpt lat="45.54414" lon="5.74554">
        <ele>491.85</ele>
        <time>2011-06-19T07:04:32Z</time>
      </trkpt>
      <trkpt lat="45.54446" lon="5.74593">
        <ele>493.77</ele>
        <time>2011-06-19T07:04:48Z</time>
      </trkpt>
      <trkpt lat="45.54473" lon="5.74613">
        <ele>494.26</ele>
        <time>2011-06-19T07:05:01Z</time>
      </trkpt>
      <trkpt lat="45.54481" lon="5.74597">
        <ele>494.26</ele>
        <time>2011-06-19T07:05:07Z</time>
      </trkpt>
      <trkpt lat="45.54481" lon="5.74595">
        <ele>494.26</ele>
        <time>2011-06-19T07:05:08Z</time>
      </trkpt>
      <trkpt lat="45.54481" lon="5.74592">
        <ele>494.74</ele>
        <time>2011-06-19T07:05:09Z</time>
      </trkpt>
      <trkpt lat="45.54481" lon="5.74589">
        <ele>495.22</ele>
        <time>2011-06-19T07:05:10Z</time>
      </trkpt>
      <trkpt lat="45.54481" lon="5.74586">
        <ele>495.22</ele>
        <time>2011-06-19T07:05:11Z</time>
      </trkpt>
      <trkpt lat="45.54475" lon="5.74542">
        <ele>497.62</ele>
        <time>2011-06-19T07:05:25Z</time>
      </trkpt>
      <trkpt lat="45.54477" lon="5.74503">
        <ele>500.98</ele>
        <time>2011-06-19T07:05:37Z</time>
      </trkpt>
      <trkpt lat="45.54472" lon="5.74485">
        <ele>501.46</ele>
        <time>2011-06-19T07:05:45Z</time>
      </trkpt>
      <trkpt lat="45.54471" lon="5.74483">
        <ele>501.46</ele>
        <time>2011-06-19T07:05:46Z</time>
      </trkpt>
      <trkpt lat="45.54468" lon="5.74476">
        <ele>501.95</ele>
        <time>2011-06-19T07:06:02Z</time>
      </trkpt>
      <trkpt lat="45.54468" lon="5.74476">
        <ele>501.95</ele>
        <time>2011-06-19T07:06:07Z</time>
      </trkpt>
      <trkpt lat="45.54468" lon="5.74473">
        <ele>502.43</ele>
        <time>2011-06-19T07:06:08Z</time>
      </trkpt>
      <trkpt lat="45.54469" lon="5.7447">
        <ele>502.43</ele>
        <time>2011-06-19T07:06:09Z</time>
      </trkpt>
      <trkpt lat="45.54469" lon="5.74467">
        <ele>501.46</ele>
        <time>2011-06-19T07:06:10Z</time>
      </trkpt>
      <trkpt lat="45.54469" lon="5.74464">
        <ele>502.43</ele>
        <time>2011-06-19T07:06:11Z</time>
      </trkpt>
      <trkpt lat="45.54469" lon="5.74461">
        <ele>502.43</ele>
        <time>2011-06-19T07:06:12Z</time>
      </trkpt>
      <trkpt lat="45.54469" lon="5.74457">
        <ele>502.43</ele>
        <time>2011-06-19T07:06:13Z</time>
      </trkpt>
      <trkpt lat="45.54469" lon="5.74454">
        <ele>502.43</ele>
        <time>2011-06-19T07:06:14Z</time>
      </trkpt>
      <trkpt lat="45.54469" lon="5.7445">
        <ele>502.91</ele>
        <time>2011-06-19T07:06:15Z</time>
      </trkpt>
      <trkpt lat="45.54459" lon="5.74401">
        <ele>504.35</ele>
        <time>2011-06-19T07:06:29Z</time>
      </trkpt>
      <trkpt lat="45.54436" lon="5.74352">
        <ele>506.27</ele>
        <time>2011-06-19T07:06:44Z</time>
      </trkpt>
      <trkpt lat="45.54418" lon="5.74318">
        <ele>509.16</ele>
        <time>2011-06-19T07:06:58Z</time>
      </trkpt>
      <trkpt lat="45.54419" lon="5.74279">
        <ele>509.16</ele>
        <time>2011-06-19T07:07:11Z</time>
      </trkpt>
      <trkpt lat="45.54448" lon="5.7424">
        <ele>508.67</ele>
        <time>2011-06-19T07:07:23Z</time>
      </trkpt>
      <trkpt lat="45.54482" lon="5.74247">
        <ele>505.79</ele>
        <time>2011-06-19T07:07:32Z</time>
      </trkpt>
      <trkpt lat="45.54498" lon="5.74266">
        <ele>501.46</ele>
        <time>2011-06-19T07:07:36Z</time>
      </trkpt>
      <trkpt lat="45.54556" lon="5.74267">
        <ele>498.58</ele>
        <time>2011-06-19T07:07:48Z</time>
      </trkpt>
      <trkpt lat="45.54577" lon="5.74254">
        <ele>497.14</ele>
        <time>2011-06-19T07:07:52Z</time>
      </trkpt>
      <trkpt lat="45.54582" lon="5.74251">
        <ele>496.66</ele>
        <time>2011-06-19T07:07:53Z</time>
      </trkpt>
      <trkpt lat="45.54587" lon="5.74249">
        <ele>496.66</ele>
        <time>2011-06-19T07:07:54Z</time>
      </trkpt>
      <trkpt lat="45.5462" lon="5.74244">
        <ele>499.06</ele>
        <time>2011-06-19T07:08:03Z</time>
      </trkpt>
      <trkpt lat="45.54645" lon="5.74255">
        <ele>496.66</ele>
        <time>2011-06-19T07:08:14Z</time>
      </trkpt>
      <trkpt lat="45.54656" lon="5.7426">
        <ele>495.7</ele>
        <time>2011-06-19T07:08:17Z</time>
      </trkpt>
      <trkpt lat="45.5469" lon="5.74245">
        <ele>496.66</ele>
        <time>2011-06-19T07:08:26Z</time>
      </trkpt>
      <trkpt lat="45.54692" lon="5.74245">
        <ele>496.66</ele>
        <time>2011-06-19T07:08:27Z</time>
      </trkpt>
      <trkpt lat="45.54694" lon="5.74243">
        <ele>497.14</ele>
        <time>2011-06-19T07:08:28Z</time>
      </trkpt>
      <trkpt lat="45.54696" lon="5.74242">
        <ele>497.62</ele>
        <time>2011-06-19T07:08:29Z</time>
      </trkpt>
      <trkpt lat="45.54699" lon="5.7424">
        <ele>498.1</ele>
        <time>2011-06-19T07:08:30Z</time>
      </trkpt>
      <trkpt lat="45.54701" lon="5.74239">
        <ele>498.1</ele>
        <time>2011-06-19T07:08:31Z</time>
      </trkpt>
      <trkpt lat="45.54703" lon="5.74238">
        <ele>498.1</ele>
        <time>2011-06-19T07:08:32Z</time>
      </trkpt>
      <trkpt lat="45.54705" lon="5.74237">
        <ele>498.58</ele>
        <time>2011-06-19T07:08:33Z</time>
      </trkpt>
      <trkpt lat="45.54728" lon="5.7422">
        <ele>500.5</ele>
        <time>2011-06-19T07:08:45Z</time>
      </trkpt>
      <trkpt lat="45.54742" lon="5.74192">
        <ele>502.91</ele>
        <time>2011-06-19T07:08:57Z</time>
      </trkpt>
      <trkpt lat="45.54754" lon="5.74158">
        <ele>504.83</ele>
        <time>2011-06-19T07:09:10Z</time>
      </trkpt>
      <trkpt lat="45.54775" lon="5.74147">
        <ele>507.71</ele>
        <time>2011-06-19T07:09:22Z</time>
      </trkpt>
      <trkpt lat="45.54798" lon="5.74135">
        <ele>510.12</ele>
        <time>2011-06-19T07:09:37Z</time>
      </trkpt>
      <trkpt lat="45.5481" lon="5.74133">
        <ele>511.56</ele>
        <time>2011-06-19T07:09:44Z</time>
      </trkpt>
      <trkpt lat="45.54812" lon="5.74132">
        <ele>512.04</ele>
        <time>2011-06-19T07:09:45Z</time>
      </trkpt>
      <trkpt lat="45.54813" lon="5.74131">
        <ele>512.52</ele>
        <time>2011-06-19T07:09:46Z</time>
      </trkpt>
      <trkpt lat="45.54815" lon="5.74131">
        <ele>512.52</ele>
        <time>2011-06-19T07:09:47Z</time>
      </trkpt>
      <trkpt lat="45.54816" lon="5.74131">
        <ele>512.52</ele>
        <time>2011-06-19T07:09:48Z</time>
      </trkpt>
      <trkpt lat="45.54845" lon="5.74136">
        <ele>513.48</ele>
        <time>2011-06-19T07:10:02Z</time>
      </trkpt>
      <trkpt lat="45.54879" lon="5.74143">
        <ele>513.48</ele>
        <time>2011-06-19T07:10:15Z</time>
      </trkpt>
      <trkpt lat="45.54896" lon="5.74174">
        <ele>511.56</ele>
        <time>2011-06-19T07:10:26Z</time>
      </trkpt>
      <trkpt lat="45.54899" lon="5.74198">
        <ele>509.16</ele>
        <time>2011-06-19T07:10:32Z</time>
      </trkpt>
      <trkpt lat="45.54901" lon="5.74209">
        <ele>507.71</ele>
        <time>2011-06-19T07:10:35Z</time>
      </trkpt>
      <trkpt lat="45.54901" lon="5.74227">
        <ele>505.79</ele>
        <time>2011-06-19T07:10:40Z</time>
      </trkpt>
      <trkpt lat="45.54928" lon="5.74238">
        <ele>503.87</ele>
        <time>2011-06-19T07:10:52Z</time>
      </trkpt>
      <trkpt lat="45.54948" lon="5.7422">
        <ele>505.79</ele>
        <time>2011-06-19T07:10:59Z</time>
      </trkpt>
      <trkpt lat="45.54971" lon="5.74215">
        <ele>505.31</ele>
        <time>2011-06-19T07:11:07Z</time>
      </trkpt>
      <trkpt lat="45.54973" lon="5.74216">
        <ele>505.79</ele>
        <time>2011-06-19T07:11:08Z</time>
      </trkpt>
      <trkpt lat="45.54976" lon="5.74218">
        <ele>505.31</ele>
        <time>2011-06-19T07:11:09Z</time>
      </trkpt>
      <trkpt lat="45.54979" lon="5.74221">
        <ele>504.83</ele>
        <time>2011-06-19T07:11:10Z</time>
      </trkpt>
      <trkpt lat="45.54981" lon="5.74222">
        <ele>505.31</ele>
        <time>2011-06-19T07:11:11Z</time>
      </trkpt>
      <trkpt lat="45.55011" lon="5.74207">
        <ele>505.79</ele>
        <time>2011-06-19T07:11:23Z</time>
      </trkpt>
      <trkpt lat="45.55041" lon="5.74199">
        <ele>505.79</ele>
        <time>2011-06-19T07:11:36Z</time>
      </trkpt>
      <trkpt lat="45.55064" lon="5.74222">
        <ele>506.75</ele>
        <time>2011-06-19T07:11:47Z</time>
      </trkpt>
      <trkpt lat="45.55086" lon="5.74236">
        <ele>509.16</ele>
        <time>2011-06-19T07:11:58Z</time>
      </trkpt>
      <trkpt lat="45.55088" lon="5.74236">
        <ele>509.64</ele>
        <time>2011-06-19T07:11:59Z</time>
      </trkpt>
      <trkpt lat="45.55091" lon="5.74237">
        <ele>509.64</ele>
        <time>2011-06-19T07:12:00Z</time>
      </trkpt>
      <trkpt lat="45.55092" lon="5.74238">
        <ele>509.64</ele>
        <time>2011-06-19T07:12:01Z</time>
      </trkpt>
      <trkpt lat="45.55094" lon="5.7424">
        <ele>509.64</ele>
        <time>2011-06-19T07:12:02Z</time>
      </trkpt>
      <trkpt lat="45.55128" lon="5.74263">
        <ele>510.6</ele>
        <time>2011-06-19T07:12:15Z</time>
      </trkpt>
      <trkpt lat="45.5516" lon="5.74284">
        <ele>512.04</ele>
        <time>2011-06-19T07:12:29Z</time>
      </trkpt>
      <trkpt lat="45.55187" lon="5.74297">
        <ele>514.92</ele>
        <time>2011-06-19T07:12:43Z</time>
      </trkpt>
      <trkpt lat="45.55198" lon="5.74298">
        <ele>516.85</ele>
        <time>2011-06-19T07:12:50Z</time>
      </trkpt>
      <trkpt lat="45.55199" lon="5.74298">
        <ele>517.33</ele>
        <time>2011-06-19T07:12:51Z</time>
      </trkpt>
      <trkpt lat="45.552" lon="5.74298">
        <ele>517.33</ele>
        <time>2011-06-19T07:12:52Z</time>
      </trkpt>
      <trkpt lat="45.55201" lon="5.74297">
        <ele>517.33</ele>
        <time>2011-06-19T07:12:53Z</time>
      </trkpt>
      <trkpt lat="45.55202" lon="5.74296">
        <ele>517.81</ele>
        <time>2011-06-19T07:12:54Z</time>
      </trkpt>
      <trkpt lat="45.55203" lon="5.74294">
        <ele>518.29</ele>
        <time>2011-06-19T07:12:55Z</time>
      </trkpt>
      <trkpt lat="45.55204" lon="5.74293">
        <ele>518.29</ele>
        <time>2011-06-19T07:12:56Z</time>
      </trkpt>
      <trkpt lat="45.55205" lon="5.74291">
        <ele>518.29</ele>
        <time>2011-06-19T07:12:57Z</time>
      </trkpt>
      <trkpt lat="45.55206" lon="5.7429">
        <ele>518.77</ele>
        <time>2011-06-19T07:12:58Z</time>
      </trkpt>
      <trkpt lat="45.55207" lon="5.74288">
        <ele>518.77</ele>
        <time>2011-06-19T07:12:59Z</time>
      </trkpt>
      <trkpt lat="45.55224" lon="5.74272">
        <ele>521.65</ele>
        <time>2011-06-19T07:13:13Z</time>
      </trkpt>
      <trkpt lat="45.55246" lon="5.74279">
        <ele>522.61</ele>
        <time>2011-06-19T07:13:25Z</time>
      </trkpt>
      <trkpt lat="45.55254" lon="5.74314">
        <ele>525.02</ele>
        <time>2011-06-19T07:13:38Z</time>
      </trkpt>
      <trkpt lat="45.55264" lon="5.74357">
        <ele>528.38</ele>
        <time>2011-06-19T07:13:53Z</time>
      </trkpt>
      <trkpt lat="45.55288" lon="5.74374">
        <ele>530.79</ele>
        <time>2011-06-19T07:14:08Z</time>
      </trkpt>
      <trkpt lat="45.55317" lon="5.74362">
        <ele>533.67</ele>
        <time>2011-06-19T07:14:24Z</time>
      </trkpt>
      <trkpt lat="45.5535" lon="5.74393">
        <ele>535.11</ele>
        <time>2011-06-19T07:14:38Z</time>
      </trkpt>
      <trkpt lat="45.55351" lon="5.74396">
        <ele>535.11</ele>
        <time>2011-06-19T07:14:39Z</time>
      </trkpt>
      <trkpt lat="45.55353" lon="5.74398">
        <ele>535.11</ele>
        <time>2011-06-19T07:14:40Z</time>
      </trkpt>
      <trkpt lat="45.55355" lon="5.74399">
        <ele>535.59</ele>
        <time>2011-06-19T07:14:41Z</time>
      </trkpt>
      <trkpt lat="45.55358" lon="5.744">
        <ele>535.11</ele>
        <time>2011-06-19T07:14:42Z</time>
      </trkpt>
      <trkpt lat="45.5536" lon="5.744">
        <ele>535.59</ele>
        <time>2011-06-19T07:14:43Z</time>
      </trkpt>
      <trkpt lat="45.55363" lon="5.74399">
        <ele>535.59</ele>
        <time>2011-06-19T07:14:44Z</time>
      </trkpt>
      <trkpt lat="45.55366" lon="5.74398">
        <ele>535.59</ele>
        <time>2011-06-19T07:14:45Z</time>
      </trkpt>
      <trkpt lat="45.55368" lon="5.74397">
        <ele>536.07</ele>
        <time>2011-06-19T07:14:46Z</time>
      </trkpt>
      <trkpt lat="45.55418" lon="5.74355">
        <ele>537.51</ele>
        <time>2011-06-19T07:15:05Z</time>
      </trkpt>
      <trkpt lat="45.55441" lon="5.74311">
        <ele>538.96</ele>
        <time>2011-06-19T07:15:18Z</time>
      </trkpt>
      <trkpt lat="45.55455" lon="5.74289">
        <ele>542.32</ele>
        <time>2011-06-19T07:15:28Z</time>
      </trkpt>
      <trkpt lat="45.55472" lon="5.74302">
        <ele>544.72</ele>
        <time>2011-06-19T07:15:39Z</time>
      </trkpt>
      <trkpt lat="45.55505" lon="5.74329">
        <ele>544.24</ele>
        <time>2011-06-19T07:15:51Z</time>
      </trkpt>
      <trkpt lat="45.55551" lon="5.74341">
        <ele>545.2</ele>
        <time>2011-06-19T07:16:03Z</time>
      </trkpt>
      <trkpt lat="45.55603" lon="5.74349">
        <ele>544.72</ele>
        <time>2011-06-19T07:16:16Z</time>
      </trkpt>
      <trkpt lat="45.55623" lon="5.74355">
        <ele>542.8</ele>
        <time>2011-06-19T07:16:20Z</time>
      </trkpt>
      <trkpt lat="45.55634" lon="5.74361">
        <ele>541.84</ele>
        <time>2011-06-19T07:16:22Z</time>
      </trkpt>
      <trkpt lat="45.55706" lon="5.74393">
        <ele>541.36</ele>
        <time>2011-06-19T07:16:36Z</time>
      </trkpt>
      <trkpt lat="45.55721" lon="5.74403">
        <ele>540.88</ele>
        <time>2011-06-19T07:16:40Z</time>
      </trkpt>
      <trkpt lat="45.55723" lon="5.74408">
        <ele>540.88</ele>
        <time>2011-06-19T07:16:41Z</time>
      </trkpt>
      <trkpt lat="45.55724" lon="5.74412">
        <ele>540.4</ele>
        <time>2011-06-19T07:16:42Z</time>
      </trkpt>
      <trkpt lat="45.55724" lon="5.74417">
        <ele>540.4</ele>
        <time>2011-06-19T07:16:43Z</time>
      </trkpt>
      <trkpt lat="45.55724" lon="5.74422">
        <ele>539.44</ele>
        <time>2011-06-19T07:16:44Z</time>
      </trkpt>
      <trkpt lat="45.55724" lon="5.74428">
        <ele>539.92</ele>
        <time>2011-06-19T07:16:45Z</time>
      </trkpt>
      <trkpt lat="45.55725" lon="5.74435">
        <ele>538.48</ele>
        <time>2011-06-19T07:16:46Z</time>
      </trkpt>
      <trkpt lat="45.55727" lon="5.74442">
        <ele>537.99</ele>
        <time>2011-06-19T07:16:47Z</time>
      </trkpt>
      <trkpt lat="45.55729" lon="5.74448">
        <ele>537.51</ele>
        <time>2011-06-19T07:16:48Z</time>
      </trkpt>
      <trkpt lat="45.55731" lon="5.74456">
        <ele>536.55</ele>
        <time>2011-06-19T07:16:49Z</time>
      </trkpt>
      <trkpt lat="45.55733" lon="5.74464">
        <ele>535.59</ele>
        <time>2011-06-19T07:16:50Z</time>
      </trkpt>
      <trkpt lat="45.55734" lon="5.74474">
        <ele>534.63</ele>
        <time>2011-06-19T07:16:51Z</time>
      </trkpt>
      <trkpt lat="45.55736" lon="5.74483">
        <ele>534.63</ele>
        <time>2011-06-19T07:16:52Z</time>
      </trkpt>
      <trkpt lat="45.55742" lon="5.74509">
        <ele>531.27</ele>
        <time>2011-06-19T07:16:55Z</time>
      </trkpt>
      <trkpt lat="45.55744" lon="5.74518">
        <ele>531.27</ele>
        <time>2011-06-19T07:16:56Z</time>
      </trkpt>
      <trkpt lat="45.5575" lon="5.74543">
        <ele>527.9</ele>
        <time>2011-06-19T07:16:59Z</time>
      </trkpt>
      <trkpt lat="45.55755" lon="5.74567">
        <ele>524.06</ele>
        <time>2011-06-19T07:17:04Z</time>
      </trkpt>
      <trkpt lat="45.55755" lon="5.7457">
        <ele>523.58</ele>
        <time>2011-06-19T07:17:09Z</time>
      </trkpt>
      <trkpt lat="45.55756" lon="5.74572">
        <ele>524.06</ele>
        <time>2011-06-19T07:17:10Z</time>
      </trkpt>
      <trkpt lat="45.55758" lon="5.74572">
        <ele>523.58</ele>
        <time>2011-06-19T07:17:11Z</time>
      </trkpt>
      <trkpt lat="45.5576" lon="5.7457">
        <ele>524.06</ele>
        <time>2011-06-19T07:17:12Z</time>
      </trkpt>
      <trkpt lat="45.55762" lon="5.74567">
        <ele>524.06</ele>
        <time>2011-06-19T07:17:13Z</time>
      </trkpt>
      <trkpt lat="45.55764" lon="5.74566">
        <ele>524.06</ele>
        <time>2011-06-19T07:17:14Z</time>
      </trkpt>
      <trkpt lat="45.55767" lon="5.74564">
        <ele>524.06</ele>
        <time>2011-06-19T07:17:15Z</time>
      </trkpt>
      <trkpt lat="45.55814" lon="5.74515">
        <ele>526.94</ele>
        <time>2011-06-19T07:17:33Z</time>
      </trkpt>
      <trkpt lat="45.55859" lon="5.74479">
        <ele>528.86</ele>
        <time>2011-06-19T07:17:48Z</time>
      </trkpt>
      <trkpt lat="45.5591" lon="5.74486">
        <ele>531.75</ele>
        <time>2011-06-19T07:18:04Z</time>
      </trkpt>
      <trkpt lat="45.55964" lon="5.74527">
        <ele>535.11</ele>
        <time>2011-06-19T07:18:22Z</time>
      </trkpt>
      <trkpt lat="45.56011" lon="5.74554">
        <ele>537.99</ele>
        <time>2011-06-19T07:18:38Z</time>
      </trkpt>
      <trkpt lat="45.56059" lon="5.74536">
        <ele>541.36</ele>
        <time>2011-06-19T07:18:55Z</time>
      </trkpt>
      <trkpt lat="45.56093" lon="5.74496">
        <ele>543.76</ele>
        <time>2011-06-19T07:19:10Z</time>
      </trkpt>
      <trkpt lat="45.56109" lon="5.74429">
        <ele>545.2</ele>
        <time>2011-06-19T07:19:25Z</time>
      </trkpt>
      <trkpt lat="45.56149" lon="5.74386">
        <ele>547.13</ele>
        <time>2011-06-19T07:19:40Z</time>
      </trkpt>
      <trkpt lat="45.56204" lon="5.74377">
        <ele>550.01</ele>
        <time>2011-06-19T07:19:57Z</time>
      </trkpt>
      <trkpt lat="45.56271" lon="5.74369">
        <ele>552.9</ele>
        <time>2011-06-19T07:20:18Z</time>
      </trkpt>
      <trkpt lat="45.56307" lon="5.74409">
        <ele>555.78</ele>
        <time>2011-06-19T07:20:33Z</time>
      </trkpt>
      <trkpt lat="45.56336" lon="5.74472">
        <ele>558.18</ele>
        <time>2011-06-19T07:20:51Z</time>
      </trkpt>
      <trkpt lat="45.56339" lon="5.74473">
        <ele>558.66</ele>
        <time>2011-06-19T07:20:52Z</time>
      </trkpt>
      <trkpt lat="45.56342" lon="5.74472">
        <ele>558.66</ele>
        <time>2011-06-19T07:20:53Z</time>
      </trkpt>
      <trkpt lat="45.56343" lon="5.74471">
        <ele>559.14</ele>
        <time>2011-06-19T07:20:54Z</time>
      </trkpt>
      <trkpt lat="45.56345" lon="5.74467">
        <ele>560.11</ele>
        <time>2011-06-19T07:20:56Z</time>
      </trkpt>
      <trkpt lat="45.56358" lon="5.74439">
        <ele>563.47</ele>
        <time>2011-06-19T07:21:08Z</time>
      </trkpt>
      <trkpt lat="45.56374" lon="5.74409">
        <ele>566.83</ele>
        <time>2011-06-19T07:21:22Z</time>
      </trkpt>
      <trkpt lat="45.5639" lon="5.74383">
        <ele>569.72</ele>
        <time>2011-06-19T07:21:36Z</time>
      </trkpt>
      <trkpt lat="45.56405" lon="5.74371">
        <ele>572.6</ele>
        <time>2011-06-19T07:21:46Z</time>
      </trkpt>
      <trkpt lat="45.56439" lon="5.74361">
        <ele>574.53</ele>
        <time>2011-06-19T07:22:01Z</time>
      </trkpt>
      <trkpt lat="45.56463" lon="5.74335">
        <ele>576.93</ele>
        <time>2011-06-19T07:22:16Z</time>
      </trkpt>
      <trkpt lat="45.56464" lon="5.74332">
        <ele>576.93</ele>
        <time>2011-06-19T07:22:17Z</time>
      </trkpt>
      <trkpt lat="45.56465" lon="5.74329">
        <ele>577.41</ele>
        <time>2011-06-19T07:22:18Z</time>
      </trkpt>
      <trkpt lat="45.56467" lon="5.74327">
        <ele>576.93</ele>
        <time>2011-06-19T07:22:19Z</time>
      </trkpt>
      <trkpt lat="45.56469" lon="5.74325">
        <ele>576.93</ele>
        <time>2011-06-19T07:22:20Z</time>
      </trkpt>
      <trkpt lat="45.56471" lon="5.74324">
        <ele>576.93</ele>
        <time>2011-06-19T07:22:21Z</time>
      </trkpt>
      <trkpt lat="45.56478" lon="5.74316">
        <ele>576.93</ele>
        <time>2011-06-19T07:22:25Z</time>
      </trkpt>
      <trkpt lat="45.56479" lon="5.74314">
        <ele>576.93</ele>
        <time>2011-06-19T07:22:26Z</time>
      </trkpt>
      <trkpt lat="45.5648" lon="5.74313">
        <ele>576.93</ele>
        <time>2011-06-19T07:22:27Z</time>
      </trkpt>
      <trkpt lat="45.56482" lon="5.74313">
        <ele>576.93</ele>
        <time>2011-06-19T07:22:28Z</time>
      </trkpt>
      <trkpt lat="45.56484" lon="5.74313">
        <ele>576.93</ele>
        <time>2011-06-19T07:22:29Z</time>
      </trkpt>
      <trkpt lat="45.56487" lon="5.74315">
        <ele>576.93</ele>
        <time>2011-06-19T07:22:30Z</time>
      </trkpt>
      <trkpt lat="45.5649" lon="5.74316">
        <ele>576.45</ele>
        <time>2011-06-19T07:22:31Z</time>
      </trkpt>
      <trkpt lat="45.56529" lon="5.74321">
        <ele>577.41</ele>
        <time>2011-06-19T07:22:42Z</time>
      </trkpt>
      <trkpt lat="45.56561" lon="5.74291">
        <ele>579.81</ele>
        <time>2011-06-19T07:22:56Z</time>
      </trkpt>
      <trkpt lat="45.56591" lon="5.7426">
        <ele>582.7</ele>
        <time>2011-06-19T07:23:13Z</time>
      </trkpt>
      <trkpt lat="45.56588" lon="5.74243">
        <ele>583.18</ele>
        <time>2011-06-19T07:23:17Z</time>
      </trkpt>
      <trkpt lat="45.56587" lon="5.74237">
        <ele>583.18</ele>
        <time>2011-06-19T07:23:18Z</time>
      </trkpt>
      <trkpt lat="45.56576" lon="5.74152">
        <ele>583.18</ele>
        <time>2011-06-19T07:23:35Z</time>
      </trkpt>
      <trkpt lat="45.56574" lon="5.74093">
        <ele>586.06</ele>
        <time>2011-06-19T07:23:50Z</time>
      </trkpt>
      <trkpt lat="45.56577" lon="5.74057">
        <ele>588.46</ele>
        <time>2011-06-19T07:24:03Z</time>
      </trkpt>
      <trkpt lat="45.56552" lon="5.7403">
        <ele>588.95</ele>
        <time>2011-06-19T07:24:16Z</time>
      </trkpt>
      <trkpt lat="45.56517" lon="5.74022">
        <ele>590.87</ele>
        <time>2011-06-19T07:24:30Z</time>
      </trkpt>
      <trkpt lat="45.56499" lon="5.74012">
        <ele>593.27</ele>
        <time>2011-06-19T07:24:42Z</time>
      </trkpt>
      <trkpt lat="45.5648" lon="5.73999">
        <ele>596.64</ele>
        <time>2011-06-19T07:24:56Z</time>
      </trkpt>
      <trkpt lat="45.56475" lon="5.73995">
        <ele>598.08</ele>
        <time>2011-06-19T07:25:01Z</time>
      </trkpt>
      <trkpt lat="45.56475" lon="5.73994">
        <ele>598.08</ele>
        <time>2011-06-19T07:25:02Z</time>
      </trkpt>
      <trkpt lat="45.56475" lon="5.73992">
        <ele>598.56</ele>
        <time>2011-06-19T07:25:03Z</time>
      </trkpt>
      <trkpt lat="45.56475" lon="5.7399">
        <ele>598.56</ele>
        <time>2011-06-19T07:25:04Z</time>
      </trkpt>
      <trkpt lat="45.56475" lon="5.73988">
        <ele>599.04</ele>
        <time>2011-06-19T07:25:05Z</time>
      </trkpt>
      <trkpt lat="45.56476" lon="5.73986">
        <ele>599.52</ele>
        <time>2011-06-19T07:25:06Z</time>
      </trkpt>
      <trkpt lat="45.56477" lon="5.73984">
        <ele>599.04</ele>
        <time>2011-06-19T07:25:07Z</time>
      </trkpt>
      <trkpt lat="45.56477" lon="5.73982">
        <ele>599.52</ele>
        <time>2011-06-19T07:25:08Z</time>
      </trkpt>
      <trkpt lat="45.56477" lon="5.73979">
        <ele>599.52</ele>
        <time>2011-06-19T07:25:09Z</time>
      </trkpt>
      <trkpt lat="45.56477" lon="5.73977">
        <ele>600</ele>
        <time>2011-06-19T07:25:10Z</time>
      </trkpt>
      <trkpt lat="45.56477" lon="5.73976">
        <ele>600.48</ele>
        <time>2011-06-19T07:25:11Z</time>
      </trkpt>
      <trkpt lat="45.56471" lon="5.73964">
        <ele>601.44</ele>
        <time>2011-06-19T07:25:24Z</time>
      </trkpt>
      <trkpt lat="45.56469" lon="5.73962">
        <ele>601.92</ele>
        <time>2011-06-19T07:25:25Z</time>
      </trkpt>
      <trkpt lat="45.56456" lon="5.73945">
        <ele>600.48</ele>
        <time>2011-06-19T07:25:33Z</time>
      </trkpt>
      <trkpt lat="45.56431" lon="5.73868">
        <ele>597.6</ele>
        <time>2011-06-19T07:25:46Z</time>
      </trkpt>
      <trkpt lat="45.5641" lon="5.73817">
        <ele>599.04</ele>
        <time>2011-06-19T07:25:58Z</time>
      </trkpt>
      <trkpt lat="45.564" lon="5.73789">
        <ele>601.92</ele>
        <time>2011-06-19T07:26:10Z</time>
      </trkpt>
      <trkpt lat="45.56385" lon="5.73751">
        <ele>603.85</ele>
        <time>2011-06-19T07:26:24Z</time>
      </trkpt>
      <trkpt lat="45.5637" lon="5.73716">
        <ele>605.29</ele>
        <time>2011-06-19T07:26:38Z</time>
      </trkpt>
      <trkpt lat="45.56362" lon="5.73692">
        <ele>606.73</ele>
        <time>2011-06-19T07:26:48Z</time>
      </trkpt>
      <trkpt lat="45.56361" lon="5.73691">
        <ele>607.69</ele>
        <time>2011-06-19T07:26:49Z</time>
      </trkpt>
      <trkpt lat="45.56344" lon="5.73666">
        <ele>609.61</ele>
        <time>2011-06-19T07:27:03Z</time>
      </trkpt>
      <trkpt lat="45.56329" lon="5.73649">
        <ele>612.98</ele>
        <time>2011-06-19T07:27:17Z</time>
      </trkpt>
      <trkpt lat="45.56315" lon="5.73633">
        <ele>615.86</ele>
        <time>2011-06-19T07:27:30Z</time>
      </trkpt>
      <trkpt lat="45.56308" lon="5.73623">
        <ele>617.3</ele>
        <time>2011-06-19T07:27:39Z</time>
      </trkpt>
      <trkpt lat="45.56306" lon="5.7362">
        <ele>617.78</ele>
        <time>2011-06-19T07:27:41Z</time>
      </trkpt>
      <trkpt lat="45.56305" lon="5.73618">
        <ele>617.78</ele>
        <time>2011-06-19T07:27:42Z</time>
      </trkpt>
      <trkpt lat="45.56294" lon="5.7359">
        <ele>619.23</ele>
        <time>2011-06-19T07:27:55Z</time>
      </trkpt>
      <trkpt lat="45.56282" lon="5.73551">
        <ele>620.19</ele>
        <time>2011-06-19T07:28:09Z</time>
      </trkpt>
      <trkpt lat="45.5626" lon="5.73509">
        <ele>620.67</ele>
        <time>2011-06-19T07:28:22Z</time>
      </trkpt>
      <trkpt lat="45.56255" lon="5.73499">
        <ele>621.15</ele>
        <time>2011-06-19T07:28:25Z</time>
      </trkpt>
      <trkpt lat="45.56255" lon="5.73496">
        <ele>621.63</ele>
        <time>2011-06-19T07:28:26Z</time>
      </trkpt>
      <trkpt lat="45.56259" lon="5.73451">
        <ele>618.26</ele>
        <time>2011-06-19T07:28:35Z</time>
      </trkpt>
      <trkpt lat="45.56282" lon="5.73413">
        <ele>617.3</ele>
        <time>2011-06-19T07:28:43Z</time>
      </trkpt>
      <trkpt lat="45.56313" lon="5.73397">
        <ele>613.94</ele>
        <time>2011-06-19T07:28:52Z</time>
      </trkpt>
      <trkpt lat="45.56328" lon="5.73393">
        <ele>610.57</ele>
        <time>2011-06-19T07:28:56Z</time>
      </trkpt>
      <trkpt lat="45.56343" lon="5.73398">
        <ele>609.13</ele>
        <time>2011-06-19T07:28:59Z</time>
      </trkpt>
      <trkpt lat="45.5636" lon="5.73413">
        <ele>605.77</ele>
        <time>2011-06-19T07:29:02Z</time>
      </trkpt>
      <trkpt lat="45.56366" lon="5.73419">
        <ele>605.77</ele>
        <time>2011-06-19T07:29:03Z</time>
      </trkpt>
      <trkpt lat="45.56374" lon="5.73424">
        <ele>604.33</ele>
        <time>2011-06-19T07:29:04Z</time>
      </trkpt>
      <trkpt lat="45.56396" lon="5.73439">
        <ele>601.92</ele>
        <time>2011-06-19T07:29:07Z</time>
      </trkpt>
      <trkpt lat="45.56415" lon="5.7344">
        <ele>602.4</ele>
        <time>2011-06-19T07:29:11Z</time>
      </trkpt>
      <trkpt lat="45.56422" lon="5.73436">
        <ele>601.92</ele>
        <time>2011-06-19T07:29:13Z</time>
      </trkpt>
      <trkpt lat="45.56435" lon="5.73424">
        <ele>600.96</ele>
        <time>2011-06-19T07:29:16Z</time>
      </trkpt>
      <trkpt lat="45.5645" lon="5.73414">
        <ele>600.96</ele>
        <time>2011-06-19T07:29:19Z</time>
      </trkpt>
      <trkpt lat="45.56455" lon="5.73412">
        <ele>600.48</ele>
        <time>2011-06-19T07:29:20Z</time>
      </trkpt>
      <trkpt lat="45.56461" lon="5.73411">
        <ele>599.52</ele>
        <time>2011-06-19T07:29:21Z</time>
      </trkpt>
      <trkpt lat="45.56466" lon="5.7341">
        <ele>599.52</ele>
        <time>2011-06-19T07:29:22Z</time>
      </trkpt>
      <trkpt lat="45.56472" lon="5.7341">
        <ele>599.04</ele>
        <time>2011-06-19T07:29:23Z</time>
      </trkpt>
      <trkpt lat="45.56498" lon="5.73417">
        <ele>598.56</ele>
        <time>2011-06-19T07:29:30Z</time>
      </trkpt>
      <trkpt lat="45.56505" lon="5.73429">
        <ele>599.52</ele>
        <time>2011-06-19T07:29:34Z</time>
      </trkpt>
      <trkpt lat="45.56527" lon="5.73422">
        <ele>597.12</ele>
        <time>2011-06-19T07:29:42Z</time>
      </trkpt>
      <trkpt lat="45.56529" lon="5.73416">
        <ele>595.67</ele>
        <time>2011-06-19T07:29:43Z</time>
      </trkpt>
      <trkpt lat="45.5653" lon="5.7341">
        <ele>593.75</ele>
        <time>2011-06-19T07:29:44Z</time>
      </trkpt>
      <trkpt lat="45.56532" lon="5.73403">
        <ele>594.23</ele>
        <time>2011-06-19T07:29:45Z</time>
      </trkpt>
      <trkpt lat="45.56534" lon="5.73396">
        <ele>592.79</ele>
        <time>2011-06-19T07:29:46Z</time>
      </trkpt>
      <trkpt lat="45.56538" lon="5.73391">
        <ele>591.83</ele>
        <time>2011-06-19T07:29:47Z</time>
      </trkpt>
      <trkpt lat="45.56542" lon="5.73388">
        <ele>590.87</ele>
        <time>2011-06-19T07:29:48Z</time>
      </trkpt>
      <trkpt lat="45.56546" lon="5.73389">
        <ele>590.39</ele>
        <time>2011-06-19T07:29:49Z</time>
      </trkpt>
      <trkpt lat="45.56551" lon="5.7339">
        <ele>589.91</ele>
        <time>2011-06-19T07:29:50Z</time>
      </trkpt>
      <trkpt lat="45.56569" lon="5.73396">
        <ele>588.95</ele>
        <time>2011-06-19T07:29:53Z</time>
      </trkpt>
      <trkpt lat="45.56574" lon="5.73399">
        <ele>588.95</ele>
        <time>2011-06-19T07:29:54Z</time>
      </trkpt>
      <trkpt lat="45.56583" lon="5.73406">
        <ele>588.95</ele>
        <time>2011-06-19T07:29:56Z</time>
      </trkpt>
      <trkpt lat="45.56609" lon="5.73422">
        <ele>588.46</ele>
        <time>2011-06-19T07:30:02Z</time>
      </trkpt>
      <trkpt lat="45.56613" lon="5.73426">
        <ele>587.98</ele>
        <time>2011-06-19T07:30:03Z</time>
      </trkpt>
      <trkpt lat="45.56618" lon="5.7343">
        <ele>587.98</ele>
        <time>2011-06-19T07:30:04Z</time>
      </trkpt>
      <trkpt lat="45.56622" lon="5.73434">
        <ele>587.98</ele>
        <time>2011-06-19T07:30:05Z</time>
      </trkpt>
      <trkpt lat="45.56627" lon="5.7344">
        <ele>587.5</ele>
        <time>2011-06-19T07:30:06Z</time>
      </trkpt>
      <trkpt lat="45.56631" lon="5.73445">
        <ele>587.02</ele>
        <time>2011-06-19T07:30:07Z</time>
      </trkpt>
      <trkpt lat="45.56688" lon="5.73527">
        <ele>584.14</ele>
        <time>2011-06-19T07:30:20Z</time>
      </trkpt>
      <trkpt lat="45.56693" lon="5.73533">
        <ele>583.66</ele>
        <time>2011-06-19T07:30:21Z</time>
      </trkpt>
      <trkpt lat="45.56698" lon="5.73538">
        <ele>584.14</ele>
        <time>2011-06-19T07:30:22Z</time>
      </trkpt>
      <trkpt lat="45.56702" lon="5.73544">
        <ele>584.14</ele>
        <time>2011-06-19T07:30:23Z</time>
      </trkpt>
      <trkpt lat="45.56706" lon="5.73549">
        <ele>584.14</ele>
        <time>2011-06-19T07:30:24Z</time>
      </trkpt>
      <trkpt lat="45.56727" lon="5.73576">
        <ele>585.1</ele>
        <time>2011-06-19T07:30:31Z</time>
      </trkpt>
      <trkpt lat="45.56736" lon="5.73582">
        <ele>586.54</ele>
        <time>2011-06-19T07:30:42Z</time>
      </trkpt>
      <trkpt lat="45.56746" lon="5.7359">
        <ele>588.46</ele>
        <time>2011-06-19T07:30:56Z</time>
      </trkpt>
      <trkpt lat="45.5675" lon="5.73595">
        <ele>589.91</ele>
        <time>2011-06-19T07:31:01Z</time>
      </trkpt>
      <trkpt lat="45.56759" lon="5.73609">
        <ele>591.83</ele>
        <time>2011-06-19T07:31:10Z</time>
      </trkpt>
      <trkpt lat="45.56767" lon="5.73622">
        <ele>593.75</ele>
        <time>2011-06-19T07:31:19Z</time>
      </trkpt>
      <trkpt lat="45.56768" lon="5.73623">
        <ele>593.75</ele>
        <time>2011-06-19T07:31:20Z</time>
      </trkpt>
      <trkpt lat="45.56769" lon="5.73624">
        <ele>593.75</ele>
        <time>2011-06-19T07:31:21Z</time>
      </trkpt>
      <trkpt lat="45.5677" lon="5.73626">
        <ele>594.23</ele>
        <time>2011-06-19T07:31:22Z</time>
      </trkpt>
      <trkpt lat="45.56771" lon="5.73627">
        <ele>594.71</ele>
        <time>2011-06-19T07:31:23Z</time>
      </trkpt>
      <trkpt lat="45.56772" lon="5.73628">
        <ele>594.71</ele>
        <time>2011-06-19T07:31:24Z</time>
      </trkpt>
      <trkpt lat="45.56782" lon="5.73653">
        <ele>597.12</ele>
        <time>2011-06-19T07:31:37Z</time>
      </trkpt>
      <trkpt lat="45.56788" lon="5.73657">
        <ele>597.12</ele>
        <time>2011-06-19T07:31:42Z</time>
      </trkpt>
      <trkpt lat="45.56795" lon="5.7366">
        <ele>599.52</ele>
        <time>2011-06-19T07:31:49Z</time>
      </trkpt>
      <trkpt lat="45.56797" lon="5.73659">
        <ele>599.04</ele>
        <time>2011-06-19T07:31:50Z</time>
      </trkpt>
      <trkpt lat="45.56805" lon="5.73651">
        <ele>600</ele>
        <time>2011-06-19T07:32:02Z</time>
      </trkpt>
      <trkpt lat="45.56817" lon="5.73621">
        <ele>601.92</ele>
        <time>2011-06-19T07:32:16Z</time>
      </trkpt>
      <trkpt lat="45.56818" lon="5.73609">
        <ele>603.85</ele>
        <time>2011-06-19T07:32:24Z</time>
      </trkpt>
      <trkpt lat="45.56818" lon="5.73607">
        <ele>604.33</ele>
        <time>2011-06-19T07:32:25Z</time>
      </trkpt>
      <trkpt lat="45.56818" lon="5.73605">
        <ele>604.33</ele>
        <time>2011-06-19T07:32:26Z</time>
      </trkpt>
      <trkpt lat="45.56819" lon="5.73603">
        <ele>604.33</ele>
        <time>2011-06-19T07:32:27Z</time>
      </trkpt>
      <trkpt lat="45.56819" lon="5.736">
        <ele>604.81</ele>
        <time>2011-06-19T07:32:28Z</time>
      </trkpt>
      <trkpt lat="45.5682" lon="5.73598">
        <ele>604.81</ele>
        <time>2011-06-19T07:32:29Z</time>
      </trkpt>
      <trkpt lat="45.56816" lon="5.73574">
        <ele>608.17</ele>
        <time>2011-06-19T07:32:41Z</time>
      </trkpt>
      <trkpt lat="45.56813" lon="5.73545">
        <ele>611.06</ele>
        <time>2011-06-19T07:32:56Z</time>
      </trkpt>
      <trkpt lat="45.56817" lon="5.73521">
        <ele>613.46</ele>
        <time>2011-06-19T07:33:10Z</time>
      </trkpt>
      <trkpt lat="45.56817" lon="5.73519">
        <ele>613.46</ele>
        <time>2011-06-19T07:33:11Z</time>
      </trkpt>
      <trkpt lat="45.56818" lon="5.73517">
        <ele>613.94</ele>
        <time>2011-06-19T07:33:12Z</time>
      </trkpt>
      <trkpt lat="45.56819" lon="5.73515">
        <ele>613.94</ele>
        <time>2011-06-19T07:33:13Z</time>
      </trkpt>
      <trkpt lat="45.56826" lon="5.73502">
        <ele>616.82</ele>
        <time>2011-06-19T07:33:24Z</time>
      </trkpt>
      <trkpt lat="45.56838" lon="5.73501">
        <ele>619.71</ele>
        <time>2011-06-19T07:33:34Z</time>
      </trkpt>
      <trkpt lat="45.56846" lon="5.73504">
        <ele>621.63</ele>
        <time>2011-06-19T07:33:51Z</time>
      </trkpt>
      <trkpt lat="45.56849" lon="5.73502">
        <ele>621.63</ele>
        <time>2011-06-19T07:33:53Z</time>
      </trkpt>
      <trkpt lat="45.5685" lon="5.73501">
        <ele>621.63</ele>
        <time>2011-06-19T07:33:54Z</time>
      </trkpt>
      <trkpt lat="45.56852" lon="5.735">
        <ele>621.63</ele>
        <time>2011-06-19T07:33:55Z</time>
      </trkpt>
      <trkpt lat="45.56853" lon="5.73498">
        <ele>621.63</ele>
        <time>2011-06-19T07:33:56Z</time>
      </trkpt>
      <trkpt lat="45.56854" lon="5.73496">
        <ele>622.11</ele>
        <time>2011-06-19T07:33:57Z</time>
      </trkpt>
      <trkpt lat="45.56854" lon="5.73493">
        <ele>621.63</ele>
        <time>2011-06-19T07:33:58Z</time>
      </trkpt>
      <trkpt lat="45.56854" lon="5.73491">
        <ele>622.11</ele>
        <time>2011-06-19T07:33:59Z</time>
      </trkpt>
      <trkpt lat="45.56855" lon="5.73488">
        <ele>621.63</ele>
        <time>2011-06-19T07:34:00Z</time>
      </trkpt>
      <trkpt lat="45.56855" lon="5.73485">
        <ele>622.11</ele>
        <time>2011-06-19T07:34:01Z</time>
      </trkpt>
      <trkpt lat="45.56856" lon="5.73482">
        <ele>622.11</ele>
        <time>2011-06-19T07:34:02Z</time>
      </trkpt>
      <trkpt lat="45.56857" lon="5.73478">
        <ele>622.11</ele>
        <time>2011-06-19T07:34:03Z</time>
      </trkpt>
      <trkpt lat="45.56865" lon="5.73448">
        <ele>624.51</ele>
        <time>2011-06-19T07:34:14Z</time>
      </trkpt>
      <trkpt lat="45.56867" lon="5.73447">
        <ele>624.51</ele>
        <time>2011-06-19T07:34:15Z</time>
      </trkpt>
      <trkpt lat="45.56868" lon="5.73448">
        <ele>623.55</ele>
        <time>2011-06-19T07:34:16Z</time>
      </trkpt>
      <trkpt lat="45.5687" lon="5.73449">
        <ele>624.99</ele>
        <time>2011-06-19T07:34:17Z</time>
      </trkpt>
      <trkpt lat="45.56872" lon="5.7345">
        <ele>624.99</ele>
        <time>2011-06-19T07:34:18Z</time>
      </trkpt>
      <trkpt lat="45.56874" lon="5.73451">
        <ele>624.99</ele>
        <time>2011-06-19T07:34:19Z</time>
      </trkpt>
      <trkpt lat="45.56876" lon="5.73452">
        <ele>624.99</ele>
        <time>2011-06-19T07:34:20Z</time>
      </trkpt>
      <trkpt lat="45.56897" lon="5.73461">
        <ele>626.92</ele>
        <time>2011-06-19T07:34:31Z</time>
      </trkpt>
      <trkpt lat="45.56924" lon="5.73469">
        <ele>630.28</ele>
        <time>2011-06-19T07:34:44Z</time>
      </trkpt>
      <trkpt lat="45.56944" lon="5.73477">
        <ele>631.72</ele>
        <time>2011-06-19T07:34:54Z</time>
      </trkpt>
      <trkpt lat="45.56945" lon="5.73477">
        <ele>631.72</ele>
        <time>2011-06-19T07:34:55Z</time>
      </trkpt>
      <trkpt lat="45.56947" lon="5.73478">
        <ele>632.2</ele>
        <time>2011-06-19T07:34:56Z</time>
      </trkpt>
      <trkpt lat="45.56949" lon="5.7348">
        <ele>632.68</ele>
        <time>2011-06-19T07:34:57Z</time>
      </trkpt>
      <trkpt lat="45.5695" lon="5.73481">
        <ele>632.2</ele>
        <time>2011-06-19T07:34:58Z</time>
      </trkpt>
      <trkpt lat="45.56952" lon="5.73483">
        <ele>632.2</ele>
        <time>2011-06-19T07:34:59Z</time>
      </trkpt>
      <trkpt lat="45.56955" lon="5.73484">
        <ele>632.2</ele>
        <time>2011-06-19T07:35:00Z</time>
      </trkpt>
      <trkpt lat="45.56978" lon="5.73492">
        <ele>635.57</ele>
        <time>2011-06-19T07:35:13Z</time>
      </trkpt>
      <trkpt lat="45.57002" lon="5.73496">
        <ele>637.01</ele>
        <time>2011-06-19T07:35:26Z</time>
      </trkpt>
      <trkpt lat="45.57023" lon="5.73492">
        <ele>640.38</ele>
        <time>2011-06-19T07:35:38Z</time>
      </trkpt>
      <trkpt lat="45.57038" lon="5.73491">
        <ele>643.26</ele>
        <time>2011-06-19T07:35:50Z</time>
      </trkpt>
      <trkpt lat="45.57058" lon="5.73488">
        <ele>645.18</ele>
        <time>2011-06-19T07:36:02Z</time>
      </trkpt>
      <trkpt lat="45.57078" lon="5.7348">
        <ele>648.07</ele>
        <time>2011-06-19T07:36:16Z</time>
      </trkpt>
      <trkpt lat="45.57084" lon="5.73479">
        <ele>649.51</ele>
        <time>2011-06-19T07:36:21Z</time>
      </trkpt>
      <trkpt lat="45.57091" lon="5.73487">
        <ele>650.47</ele>
        <time>2011-06-19T07:36:27Z</time>
      </trkpt>
      <trkpt lat="45.57092" lon="5.73487">
        <ele>650.47</ele>
        <time>2011-06-19T07:36:28Z</time>
      </trkpt>
      <trkpt lat="45.57093" lon="5.73488">
        <ele>650.95</ele>
        <time>2011-06-19T07:36:29Z</time>
      </trkpt>
      <trkpt lat="45.57095" lon="5.73487">
        <ele>650.95</ele>
        <time>2011-06-19T07:36:30Z</time>
      </trkpt>
      <trkpt lat="45.57097" lon="5.73487">
        <ele>650.95</ele>
        <time>2011-06-19T07:36:31Z</time>
      </trkpt>
      <trkpt lat="45.571" lon="5.73485">
        <ele>651.43</ele>
        <time>2011-06-19T07:36:34Z</time>
      </trkpt>
      <trkpt lat="45.57102" lon="5.73485">
        <ele>651.43</ele>
        <time>2011-06-19T07:36:35Z</time>
      </trkpt>
      <trkpt lat="45.57104" lon="5.73485">
        <ele>651.43</ele>
        <time>2011-06-19T07:36:36Z</time>
      </trkpt>
      <trkpt lat="45.57129" lon="5.73483">
        <ele>653.35</ele>
        <time>2011-06-19T07:36:50Z</time>
      </trkpt>
      <trkpt lat="45.57147" lon="5.73482">
        <ele>656.24</ele>
        <time>2011-06-19T07:37:01Z</time>
      </trkpt>
      <trkpt lat="45.57164" lon="5.73481">
        <ele>659.12</ele>
        <time>2011-06-19T07:37:13Z</time>
      </trkpt>
      <trkpt lat="45.57191" lon="5.73487">
        <ele>661.04</ele>
        <time>2011-06-19T07:37:28Z</time>
      </trkpt>
      <trkpt lat="45.57216" lon="5.73491">
        <ele>663.45</ele>
        <time>2011-06-19T07:37:41Z</time>
      </trkpt>
      <trkpt lat="45.5724" lon="5.73489">
        <ele>666.81</ele>
        <time>2011-06-19T07:37:56Z</time>
      </trkpt>
      <trkpt lat="45.57269" lon="5.73485">
        <ele>669.7</ele>
        <time>2011-06-19T07:38:13Z</time>
      </trkpt>
      <trkpt lat="45.5729" lon="5.73478">
        <ele>671.62</ele>
        <time>2011-06-19T07:38:26Z</time>
      </trkpt>
      <trkpt lat="45.57317" lon="5.73484">
        <ele>673.54</ele>
        <time>2011-06-19T07:38:39Z</time>
      </trkpt>
      <trkpt lat="45.57346" lon="5.73478">
        <ele>675.46</ele>
        <time>2011-06-19T07:38:53Z</time>
      </trkpt>
      <trkpt lat="45.57367" lon="5.7347">
        <ele>674.98</ele>
        <time>2011-06-19T07:39:04Z</time>
      </trkpt>
      <trkpt lat="45.57371" lon="5.73469">
        <ele>674.98</ele>
        <time>2011-06-19T07:39:05Z</time>
      </trkpt>
      <trkpt lat="45.57381" lon="5.7347">
        <ele>673.06</ele>
        <time>2011-06-19T07:39:08Z</time>
      </trkpt>
      <trkpt lat="45.57425" lon="5.73514">
        <ele>671.62</ele>
        <time>2011-06-19T07:39:20Z</time>
      </trkpt>
      <trkpt lat="45.57467" lon="5.73556">
        <ele>670.18</ele>
        <time>2011-06-19T07:39:32Z</time>
      </trkpt>
      <trkpt lat="45.57488" lon="5.73577">
        <ele>669.22</ele>
        <time>2011-06-19T07:39:37Z</time>
      </trkpt>
      <trkpt lat="45.57494" lon="5.7358">
        <ele>669.22</ele>
        <time>2011-06-19T07:39:38Z</time>
      </trkpt>
      <trkpt lat="45.57499" lon="5.73581">
        <ele>669.22</ele>
        <time>2011-06-19T07:39:39Z</time>
      </trkpt>
      <trkpt lat="45.57503" lon="5.73582">
        <ele>669.22</ele>
        <time>2011-06-19T07:39:40Z</time>
      </trkpt>
      <trkpt lat="45.57507" lon="5.73582">
        <ele>669.22</ele>
        <time>2011-06-19T07:39:41Z</time>
      </trkpt>
      <trkpt lat="45.57511" lon="5.73583">
        <ele>669.7</ele>
        <time>2011-06-19T07:39:42Z</time>
      </trkpt>
      <trkpt lat="45.57515" lon="5.73583">
        <ele>670.18</ele>
        <time>2011-06-19T07:39:43Z</time>
      </trkpt>
      <trkpt lat="45.57519" lon="5.73582">
        <ele>669.7</ele>
        <time>2011-06-19T07:39:44Z</time>
      </trkpt>
      <trkpt lat="45.57523" lon="5.73582">
        <ele>670.18</ele>
        <time>2011-06-19T07:39:45Z</time>
      </trkpt>
      <trkpt lat="45.57558" lon="5.73586">
        <ele>672.1</ele>
        <time>2011-06-19T07:39:56Z</time>
      </trkpt>
      <trkpt lat="45.57583" lon="5.73582">
        <ele>673.54</ele>
        <time>2011-06-19T07:40:05Z</time>
      </trkpt>
      <trkpt lat="45.57616" lon="5.73587">
        <ele>674.98</ele>
        <time>2011-06-19T07:40:16Z</time>
      </trkpt>
      <trkpt lat="45.57618" lon="5.73588">
        <ele>674.5</ele>
        <time>2011-06-19T07:40:17Z</time>
      </trkpt>
      <trkpt lat="45.57621" lon="5.73591">
        <ele>674.02</ele>
        <time>2011-06-19T07:40:18Z</time>
      </trkpt>
      <trkpt lat="45.57624" lon="5.73594">
        <ele>674.02</ele>
        <time>2011-06-19T07:40:19Z</time>
      </trkpt>
      <trkpt lat="45.57628" lon="5.73597">
        <ele>672.58</ele>
        <time>2011-06-19T07:40:20Z</time>
      </trkpt>
      <trkpt lat="45.57632" lon="5.736">
        <ele>672.1</ele>
        <time>2011-06-19T07:40:21Z</time>
      </trkpt>
      <trkpt lat="45.57656" lon="5.73618">
        <ele>670.18</ele>
        <time>2011-06-19T07:40:25Z</time>
      </trkpt>
      <trkpt lat="45.57663" lon="5.7362">
        <ele>669.7</ele>
        <time>2011-06-19T07:40:26Z</time>
      </trkpt>
      <trkpt lat="45.57669" lon="5.73621">
        <ele>669.22</ele>
        <time>2011-06-19T07:40:27Z</time>
      </trkpt>
      <trkpt lat="45.5769" lon="5.73622">
        <ele>668.73</ele>
        <time>2011-06-19T07:40:30Z</time>
      </trkpt>
      <trkpt lat="45.57718" lon="5.73607">
        <ele>668.73</ele>
        <time>2011-06-19T07:40:38Z</time>
      </trkpt>
      <trkpt lat="45.57729" lon="5.73608">
        <ele>668.25</ele>
        <time>2011-06-19T07:40:41Z</time>
      </trkpt>
      <trkpt lat="45.57733" lon="5.73609">
        <ele>668.25</ele>
        <time>2011-06-19T07:40:42Z</time>
      </trkpt>
      <trkpt lat="45.57769" lon="5.73606">
        <ele>669.7</ele>
        <time>2011-06-19T07:40:52Z</time>
      </trkpt>
      <trkpt lat="45.578" lon="5.73593">
        <ele>672.1</ele>
        <time>2011-06-19T07:41:05Z</time>
      </trkpt>
      <trkpt lat="45.57801" lon="5.73593">
        <ele>672.1</ele>
        <time>2011-06-19T07:41:06Z</time>
      </trkpt>
      <trkpt lat="45.57804" lon="5.73594">
        <ele>672.58</ele>
        <time>2011-06-19T07:41:32Z</time>
      </trkpt>
      <trkpt lat="45.57804" lon="5.73594">
        <ele>671.14</ele>
        <time>2011-06-19T07:41:45Z</time>
      </trkpt>
      <trkpt lat="45.57814" lon="5.73586">
        <ele>671.14</ele>
        <time>2011-06-19T07:44:55Z</time>
      </trkpt>
      <trkpt lat="45.57814" lon="5.73588">
        <ele>670.66</ele>
        <time>2011-06-19T07:44:56Z</time>
      </trkpt>
      <trkpt lat="45.57814" lon="5.7359">
        <ele>674.02</ele>
        <time>2011-06-19T07:45:11Z</time>
      </trkpt>
      <trkpt lat="45.57816" lon="5.73591">
        <ele>674.02</ele>
        <time>2011-06-19T07:45:13Z</time>
      </trkpt>
      <trkpt lat="45.57821" lon="5.73596">
        <ele>673.54</ele>
        <time>2011-06-19T07:45:17Z</time>
      </trkpt>
      <trkpt lat="45.57835" lon="5.73613">
        <ele>671.14</ele>
        <time>2011-06-19T07:45:22Z</time>
      </trkpt>
      <trkpt lat="45.57845" lon="5.73632">
        <ele>670.18</ele>
        <time>2011-06-19T07:45:26Z</time>
      </trkpt>
      <trkpt lat="45.57851" lon="5.73638">
        <ele>669.7</ele>
        <time>2011-06-19T07:45:29Z</time>
      </trkpt>
      <trkpt lat="45.57867" lon="5.73653">
        <ele>665.85</ele>
        <time>2011-06-19T07:45:35Z</time>
      </trkpt>
      <trkpt lat="45.5787" lon="5.73656">
        <ele>665.85</ele>
        <time>2011-06-19T07:45:36Z</time>
      </trkpt>
      <trkpt lat="45.57874" lon="5.73657">
        <ele>664.89</ele>
        <time>2011-06-19T07:45:37Z</time>
      </trkpt>
      <trkpt lat="45.57893" lon="5.73645">
        <ele>662.49</ele>
        <time>2011-06-19T07:45:41Z</time>
      </trkpt>
      <trkpt lat="45.57898" lon="5.73639">
        <ele>662.49</ele>
        <time>2011-06-19T07:45:42Z</time>
      </trkpt>
      <trkpt lat="45.57905" lon="5.73628">
        <ele>662.01</ele>
        <time>2011-06-19T07:45:44Z</time>
      </trkpt>
      <trkpt lat="45.57908" lon="5.73623">
        <ele>662.49</ele>
        <time>2011-06-19T07:45:45Z</time>
      </trkpt>
      <trkpt lat="45.57911" lon="5.73618">
        <ele>662.97</ele>
        <time>2011-06-19T07:45:46Z</time>
      </trkpt>
      <trkpt lat="45.57921" lon="5.73581">
        <ele>663.93</ele>
        <time>2011-06-19T07:45:56Z</time>
      </trkpt>
      <trkpt lat="45.57934" lon="5.73538">
        <ele>666.33</ele>
        <time>2011-06-19T07:46:09Z</time>
      </trkpt>
      <trkpt lat="45.5794" lon="5.73524">
        <ele>668.25</ele>
        <time>2011-06-19T07:46:15Z</time>
      </trkpt>
      <trkpt lat="45.57952" lon="5.73498">
        <ele>670.66</ele>
        <time>2011-06-19T07:46:27Z</time>
      </trkpt>
      <trkpt lat="45.57953" lon="5.73495">
        <ele>671.14</ele>
        <time>2011-06-19T07:46:28Z</time>
      </trkpt>
      <trkpt lat="45.57954" lon="5.73494">
        <ele>671.62</ele>
        <time>2011-06-19T07:46:29Z</time>
      </trkpt>
      <trkpt lat="45.57955" lon="5.73492">
        <ele>671.62</ele>
        <time>2011-06-19T07:46:30Z</time>
      </trkpt>
      <trkpt lat="45.57956" lon="5.73489">
        <ele>672.1</ele>
        <time>2011-06-19T07:46:31Z</time>
      </trkpt>
      <trkpt lat="45.57956" lon="5.73487">
        <ele>672.1</ele>
        <time>2011-06-19T07:46:32Z</time>
      </trkpt>
      <trkpt lat="45.57958" lon="5.73485">
        <ele>672.1</ele>
        <time>2011-06-19T07:46:33Z</time>
      </trkpt>
      <trkpt lat="45.57959" lon="5.73483">
        <ele>672.58</ele>
        <time>2011-06-19T07:46:34Z</time>
      </trkpt>
      <trkpt lat="45.5796" lon="5.73481">
        <ele>672.58</ele>
        <time>2011-06-19T07:46:35Z</time>
      </trkpt>
      <trkpt lat="45.57974" lon="5.73458">
        <ele>675.46</ele>
        <time>2011-06-19T07:46:46Z</time>
      </trkpt>
      <trkpt lat="45.57975" lon="5.73453">
        <ele>676.42</ele>
        <time>2011-06-19T07:46:49Z</time>
      </trkpt>
      <trkpt lat="45.57977" lon="5.73449">
        <ele>676.42</ele>
        <time>2011-06-19T07:46:50Z</time>
      </trkpt>
      <trkpt lat="45.57979" lon="5.73447">
        <ele>676.42</ele>
        <time>2011-06-19T07:46:51Z</time>
      </trkpt>
      <trkpt lat="45.57995" lon="5.73423">
        <ele>675.94</ele>
        <time>2011-06-19T07:47:03Z</time>
      </trkpt>
      <trkpt lat="45.58006" lon="5.73404">
        <ele>672.58</ele>
        <time>2011-06-19T07:47:08Z</time>
      </trkpt>
      <trkpt lat="45.58025" lon="5.73374">
        <ele>669.7</ele>
        <time>2011-06-19T07:47:13Z</time>
      </trkpt>
      <trkpt lat="45.58049" lon="5.73401">
        <ele>667.77</ele>
        <time>2011-06-19T07:47:23Z</time>
      </trkpt>
      <trkpt lat="45.58055" lon="5.73409">
        <ele>666.33</ele>
        <time>2011-06-19T07:47:25Z</time>
      </trkpt>
      <trkpt lat="45.58074" lon="5.73436">
        <ele>666.33</ele>
        <time>2011-06-19T07:47:30Z</time>
      </trkpt>
      <trkpt lat="45.5811" lon="5.73471">
        <ele>663.45</ele>
        <time>2011-06-19T07:47:38Z</time>
      </trkpt>
      <trkpt lat="45.58115" lon="5.73476">
        <ele>662.01</ele>
        <time>2011-06-19T07:47:39Z</time>
      </trkpt>
      <trkpt lat="45.5812" lon="5.73481">
        <ele>661.04</ele>
        <time>2011-06-19T07:47:40Z</time>
      </trkpt>
      <trkpt lat="45.58139" lon="5.73503">
        <ele>657.68</ele>
        <time>2011-06-19T07:47:44Z</time>
      </trkpt>
      <trkpt lat="45.58143" lon="5.73508">
        <ele>657.2</ele>
        <time>2011-06-19T07:47:45Z</time>
      </trkpt>
      <trkpt lat="45.58149" lon="5.73514">
        <ele>657.2</ele>
        <time>2011-06-19T07:47:46Z</time>
      </trkpt>
      <trkpt lat="45.58163" lon="5.73535">
        <ele>655.28</ele>
        <time>2011-06-19T07:47:49Z</time>
      </trkpt>
      <trkpt lat="45.58167" lon="5.7354">
        <ele>654.31</ele>
        <time>2011-06-19T07:47:50Z</time>
      </trkpt>
      <trkpt lat="45.58172" lon="5.73546">
        <ele>653.83</ele>
        <time>2011-06-19T07:47:51Z</time>
      </trkpt>
      <trkpt lat="45.58181" lon="5.73556">
        <ele>652.39</ele>
        <time>2011-06-19T07:47:52Z</time>
      </trkpt>
      <trkpt lat="45.58195" lon="5.73574">
        <ele>649.99</ele>
        <time>2011-06-19T07:47:55Z</time>
      </trkpt>
      <trkpt lat="45.58228" lon="5.7361">
        <ele>647.1</ele>
        <time>2011-06-19T07:48:01Z</time>
      </trkpt>
      <trkpt lat="45.58249" lon="5.73637">
        <ele>645.66</ele>
        <time>2011-06-19T07:48:05Z</time>
      </trkpt>
      <trkpt lat="45.58253" lon="5.73642">
        <ele>645.18</ele>
        <time>2011-06-19T07:48:06Z</time>
      </trkpt>
      <trkpt lat="45.58257" lon="5.73646">
        <ele>644.7</ele>
        <time>2011-06-19T07:48:07Z</time>
      </trkpt>
      <trkpt lat="45.5826" lon="5.73648">
        <ele>644.7</ele>
        <time>2011-06-19T07:48:08Z</time>
      </trkpt>
      <trkpt lat="45.58263" lon="5.73648">
        <ele>644.22</ele>
        <time>2011-06-19T07:48:09Z</time>
      </trkpt>
      <trkpt lat="45.58266" lon="5.73646">
        <ele>643.74</ele>
        <time>2011-06-19T07:48:10Z</time>
      </trkpt>
      <trkpt lat="45.5827" lon="5.73644">
        <ele>643.26</ele>
        <time>2011-06-19T07:48:11Z</time>
      </trkpt>
      <trkpt lat="45.58272" lon="5.73643">
        <ele>643.26</ele>
        <time>2011-06-19T07:48:12Z</time>
      </trkpt>
      <trkpt lat="45.58268" lon="5.73629">
        <ele>642.78</ele>
        <time>2011-06-19T07:48:14Z</time>
      </trkpt>
      <trkpt lat="45.58276" lon="5.73568">
        <ele>642.78</ele>
        <time>2011-06-19T07:48:23Z</time>
      </trkpt>
      <trkpt lat="45.58278" lon="5.73521">
        <ele>644.7</ele>
        <time>2011-06-19T07:48:33Z</time>
      </trkpt>
      <trkpt lat="45.58296" lon="5.73479">
        <ele>645.66</ele>
        <time>2011-06-19T07:48:45Z</time>
      </trkpt>
      <trkpt lat="45.58309" lon="5.73437">
        <ele>647.59</ele>
        <time>2011-06-19T07:48:56Z</time>
      </trkpt>
      <trkpt lat="45.58325" lon="5.73396">
        <ele>645.66</ele>
        <time>2011-06-19T07:49:06Z</time>
      </trkpt>
      <trkpt lat="45.58328" lon="5.73365">
        <ele>643.26</ele>
        <time>2011-06-19T07:49:10Z</time>
      </trkpt>
      <trkpt lat="45.58328" lon="5.73359">
        <ele>642.78</ele>
        <time>2011-06-19T07:49:11Z</time>
      </trkpt>
      <trkpt lat="45.58328" lon="5.7335">
        <ele>642.3</ele>
        <time>2011-06-19T07:49:12Z</time>
      </trkpt>
      <trkpt lat="45.58338" lon="5.7332">
        <ele>640.86</ele>
        <time>2011-06-19T07:49:16Z</time>
      </trkpt>
      <trkpt lat="45.58349" lon="5.73288">
        <ele>640.38</ele>
        <time>2011-06-19T07:49:20Z</time>
      </trkpt>
      <trkpt lat="45.58353" lon="5.7327">
        <ele>638.45</ele>
        <time>2011-06-19T07:49:23Z</time>
      </trkpt>
      <trkpt lat="45.58354" lon="5.73251">
        <ele>637.49</ele>
        <time>2011-06-19T07:49:26Z</time>
      </trkpt>
      <trkpt lat="45.58356" lon="5.73215">
        <ele>633.65</ele>
        <time>2011-06-19T07:49:31Z</time>
      </trkpt>
      <trkpt lat="45.58358" lon="5.73184">
        <ele>634.13</ele>
        <time>2011-06-19T07:49:36Z</time>
      </trkpt>
      <trkpt lat="45.58361" lon="5.7318">
        <ele>634.13</ele>
        <time>2011-06-19T07:49:37Z</time>
      </trkpt>
      <trkpt lat="45.58365" lon="5.73176">
        <ele>633.65</ele>
        <time>2011-06-19T07:49:38Z</time>
      </trkpt>
      <trkpt lat="45.58368" lon="5.73172">
        <ele>633.65</ele>
        <time>2011-06-19T07:49:39Z</time>
      </trkpt>
      <trkpt lat="45.58373" lon="5.73169">
        <ele>633.65</ele>
        <time>2011-06-19T07:49:40Z</time>
      </trkpt>
      <trkpt lat="45.58376" lon="5.73166">
        <ele>633.65</ele>
        <time>2011-06-19T07:49:41Z</time>
      </trkpt>
      <trkpt lat="45.58381" lon="5.73164">
        <ele>632.68</ele>
        <time>2011-06-19T07:49:42Z</time>
      </trkpt>
      <trkpt lat="45.58386" lon="5.73162">
        <ele>633.17</ele>
        <time>2011-06-19T07:49:43Z</time>
      </trkpt>
      <trkpt lat="45.5839" lon="5.73162">
        <ele>632.68</ele>
        <time>2011-06-19T07:49:44Z</time>
      </trkpt>
      <trkpt lat="45.58404" lon="5.73166">
        <ele>634.61</ele>
        <time>2011-06-19T07:49:48Z</time>
      </trkpt>
      <trkpt lat="45.58409" lon="5.73176">
        <ele>636.05</ele>
        <time>2011-06-19T07:49:52Z</time>
      </trkpt>
      <trkpt lat="45.58425" lon="5.73178">
        <ele>638.93</ele>
        <time>2011-06-19T07:50:02Z</time>
      </trkpt>
      <trkpt lat="45.58452" lon="5.73184">
        <ele>640.86</ele>
        <time>2011-06-19T07:50:16Z</time>
      </trkpt>
      <trkpt lat="45.58474" lon="5.73204">
        <ele>638.45</ele>
        <time>2011-06-19T07:50:21Z</time>
      </trkpt>
      <trkpt lat="45.58479" lon="5.73209">
        <ele>637.97</ele>
        <time>2011-06-19T07:50:22Z</time>
      </trkpt>
      <trkpt lat="45.58484" lon="5.73214">
        <ele>636.53</ele>
        <time>2011-06-19T07:50:23Z</time>
      </trkpt>
      <trkpt lat="45.58499" lon="5.73229">
        <ele>634.61</ele>
        <time>2011-06-19T07:50:26Z</time>
      </trkpt>
      <trkpt lat="45.58521" lon="5.73248">
        <ele>630.28</ele>
        <time>2011-06-19T07:50:30Z</time>
      </trkpt>
      <trkpt lat="45.58532" lon="5.73257">
        <ele>627.4</ele>
        <time>2011-06-19T07:50:32Z</time>
      </trkpt>
      <trkpt lat="45.58537" lon="5.73265">
        <ele>626.44</ele>
        <time>2011-06-19T07:50:33Z</time>
      </trkpt>
      <trkpt lat="45.58546" lon="5.73277">
        <ele>623.55</ele>
        <time>2011-06-19T07:50:35Z</time>
      </trkpt>
      <trkpt lat="45.58556" lon="5.73288">
        <ele>621.63</ele>
        <time>2011-06-19T07:50:37Z</time>
      </trkpt>
      <trkpt lat="45.58559" lon="5.73293">
        <ele>620.19</ele>
        <time>2011-06-19T07:50:38Z</time>
      </trkpt>
      <trkpt lat="45.58569" lon="5.73309">
        <ele>617.78</ele>
        <time>2011-06-19T07:50:40Z</time>
      </trkpt>
      <trkpt lat="45.58581" lon="5.73334">
        <ele>613.46</ele>
        <time>2011-06-19T07:50:44Z</time>
      </trkpt>
      <trkpt lat="45.58589" lon="5.73344">
        <ele>611.54</ele>
        <time>2011-06-19T07:50:46Z</time>
      </trkpt>
      <trkpt lat="45.58603" lon="5.73361">
        <ele>608.17</ele>
        <time>2011-06-19T07:50:49Z</time>
      </trkpt>
      <trkpt lat="45.58622" lon="5.73385">
        <ele>604.81</ele>
        <time>2011-06-19T07:50:54Z</time>
      </trkpt>
      <trkpt lat="45.58623" lon="5.73386">
        <ele>604.33</ele>
        <time>2011-06-19T07:50:55Z</time>
      </trkpt>
      <trkpt lat="45.58654" lon="5.73382">
        <ele>603.36</ele>
        <time>2011-06-19T07:51:03Z</time>
      </trkpt>
      <trkpt lat="45.58661" lon="5.73378">
        <ele>604.33</ele>
        <time>2011-06-19T07:51:05Z</time>
      </trkpt>
      <trkpt lat="45.58686" lon="5.73374">
        <ele>601.92</ele>
        <time>2011-06-19T07:51:10Z</time>
      </trkpt>
      <trkpt lat="45.58699" lon="5.73378">
        <ele>600.48</ele>
        <time>2011-06-19T07:51:12Z</time>
      </trkpt>
      <trkpt lat="45.58711" lon="5.73377">
        <ele>600</ele>
        <time>2011-06-19T07:51:14Z</time>
      </trkpt>
      <trkpt lat="45.58726" lon="5.73368">
        <ele>600.48</ele>
        <time>2011-06-19T07:51:17Z</time>
      </trkpt>
      <trkpt lat="45.5873" lon="5.73353">
        <ele>600</ele>
        <time>2011-06-19T07:51:20Z</time>
      </trkpt>
      <trkpt lat="45.58735" lon="5.73339">
        <ele>598.08</ele>
        <time>2011-06-19T07:51:22Z</time>
      </trkpt>
      <trkpt lat="45.58739" lon="5.73332">
        <ele>597.12</ele>
        <time>2011-06-19T07:51:23Z</time>
      </trkpt>
      <trkpt lat="45.58744" lon="5.73328">
        <ele>596.64</ele>
        <time>2011-06-19T07:51:24Z</time>
      </trkpt>
      <trkpt lat="45.58771" lon="5.73336">
        <ele>596.64</ele>
        <time>2011-06-19T07:51:29Z</time>
      </trkpt>
      <trkpt lat="45.58776" lon="5.7334">
        <ele>596.64</ele>
        <time>2011-06-19T07:51:30Z</time>
      </trkpt>
      <trkpt lat="45.58824" lon="5.73379">
        <ele>593.27</ele>
        <time>2011-06-19T07:51:39Z</time>
      </trkpt>
      <trkpt lat="45.58836" lon="5.73387">
        <ele>592.31</ele>
        <time>2011-06-19T07:51:41Z</time>
      </trkpt>
      <trkpt lat="45.58847" lon="5.73397">
        <ele>590.39</ele>
        <time>2011-06-19T07:51:43Z</time>
      </trkpt>
      <trkpt lat="45.58852" lon="5.73402">
        <ele>589.43</ele>
        <time>2011-06-19T07:51:44Z</time>
      </trkpt>
      <trkpt lat="45.58857" lon="5.73408">
        <ele>588.95</ele>
        <time>2011-06-19T07:51:45Z</time>
      </trkpt>
      <trkpt lat="45.58861" lon="5.73415">
        <ele>588.95</ele>
        <time>2011-06-19T07:51:46Z</time>
      </trkpt>
      <trkpt lat="45.58864" lon="5.73421">
        <ele>588.46</ele>
        <time>2011-06-19T07:51:47Z</time>
      </trkpt>
      <trkpt lat="45.58867" lon="5.73429">
        <ele>588.46</ele>
        <time>2011-06-19T07:51:48Z</time>
      </trkpt>
      <trkpt lat="45.58871" lon="5.73436">
        <ele>588.46</ele>
        <time>2011-06-19T07:51:49Z</time>
      </trkpt>
      <trkpt lat="45.58875" lon="5.73444">
        <ele>587.5</ele>
        <time>2011-06-19T07:51:50Z</time>
      </trkpt>
      <trkpt lat="45.58902" lon="5.73498">
        <ele>584.14</ele>
        <time>2011-06-19T07:51:56Z</time>
      </trkpt>
      <trkpt lat="45.5892" lon="5.73535">
        <ele>580.29</ele>
        <time>2011-06-19T07:52:00Z</time>
      </trkpt>
      <trkpt lat="45.58924" lon="5.73546">
        <ele>579.81</ele>
        <time>2011-06-19T07:52:01Z</time>
      </trkpt>
      <trkpt lat="45.58941" lon="5.73608">
        <ele>578.85</ele>
        <time>2011-06-19T07:52:08Z</time>
      </trkpt>
      <trkpt lat="45.58943" lon="5.73615">
        <ele>579.33</ele>
        <time>2011-06-19T07:52:09Z</time>
      </trkpt>
      <trkpt lat="45.58945" lon="5.73622">
        <ele>579.33</ele>
        <time>2011-06-19T07:52:10Z</time>
      </trkpt>
      <trkpt lat="45.58947" lon="5.73629">
        <ele>579.81</ele>
        <time>2011-06-19T07:52:11Z</time>
      </trkpt>
      <trkpt lat="45.58949" lon="5.73635">
        <ele>579.81</ele>
        <time>2011-06-19T07:52:12Z</time>
      </trkpt>
      <trkpt lat="45.58952" lon="5.73641">
        <ele>579.81</ele>
        <time>2011-06-19T07:52:13Z</time>
      </trkpt>
      <trkpt lat="45.58958" lon="5.73652">
        <ele>579.33</ele>
        <time>2011-06-19T07:52:15Z</time>
      </trkpt>
      <trkpt lat="45.58979" lon="5.7368">
        <ele>582.7</ele>
        <time>2011-06-19T07:52:24Z</time>
      </trkpt>
      <trkpt lat="45.5901" lon="5.73684">
        <ele>582.22</ele>
        <time>2011-06-19T07:52:32Z</time>
      </trkpt>
      <trkpt lat="45.59034" lon="5.73682">
        <ele>580.29</ele>
        <time>2011-06-19T07:52:37Z</time>
      </trkpt>
      <trkpt lat="45.59047" lon="5.73683">
        <ele>578.37</ele>
        <time>2011-06-19T07:52:39Z</time>
      </trkpt>
      <trkpt lat="45.59052" lon="5.73682">
        <ele>578.37</ele>
        <time>2011-06-19T07:52:40Z</time>
      </trkpt>
      <trkpt lat="45.59058" lon="5.73681">
        <ele>578.85</ele>
        <time>2011-06-19T07:52:41Z</time>
      </trkpt>
      <trkpt lat="45.59073" lon="5.73675">
        <ele>578.37</ele>
        <time>2011-06-19T07:52:44Z</time>
      </trkpt>
      <trkpt lat="45.59078" lon="5.73675">
        <ele>578.37</ele>
        <time>2011-06-19T07:52:45Z</time>
      </trkpt>
      <trkpt lat="45.59082" lon="5.73675">
        <ele>579.33</ele>
        <time>2011-06-19T07:52:46Z</time>
      </trkpt>
      <trkpt lat="45.59086" lon="5.73678">
        <ele>578.85</ele>
        <time>2011-06-19T07:52:47Z</time>
      </trkpt>
      <trkpt lat="45.59089" lon="5.73681">
        <ele>579.33</ele>
        <time>2011-06-19T07:52:48Z</time>
      </trkpt>
      <trkpt lat="45.59092" lon="5.73684">
        <ele>579.81</ele>
        <time>2011-06-19T07:52:49Z</time>
      </trkpt>
      <trkpt lat="45.59095" lon="5.73688">
        <ele>579.81</ele>
        <time>2011-06-19T07:52:50Z</time>
      </trkpt>
      <trkpt lat="45.59098" lon="5.73691">
        <ele>579.81</ele>
        <time>2011-06-19T07:52:51Z</time>
      </trkpt>
      <trkpt lat="45.59101" lon="5.73694">
        <ele>579.81</ele>
        <time>2011-06-19T07:52:52Z</time>
      </trkpt>
      <trkpt lat="45.59103" lon="5.73698">
        <ele>579.81</ele>
        <time>2011-06-19T07:52:53Z</time>
      </trkpt>
      <trkpt lat="45.59119" lon="5.73727">
        <ele>577.89</ele>
        <time>2011-06-19T07:53:01Z</time>
      </trkpt>
      <trkpt lat="45.59121" lon="5.7373">
        <ele>577.89</ele>
        <time>2011-06-19T07:53:03Z</time>
      </trkpt>
      <trkpt lat="45.5912" lon="5.73735">
        <ele>577.89</ele>
        <time>2011-06-19T07:53:06Z</time>
      </trkpt>
      <trkpt lat="45.5912" lon="5.73738">
        <ele>577.89</ele>
        <time>2011-06-19T07:53:07Z</time>
      </trkpt>
      <trkpt lat="45.59119" lon="5.7374">
        <ele>577.89</ele>
        <time>2011-06-19T07:53:08Z</time>
      </trkpt>
      <trkpt lat="45.59117" lon="5.73741">
        <ele>577.41</ele>
        <time>2011-06-19T07:53:09Z</time>
      </trkpt>
      <trkpt lat="45.59116" lon="5.73736">
        <ele>577.89</ele>
        <time>2011-06-19T07:53:12Z</time>
      </trkpt>
      <trkpt lat="45.59119" lon="5.73724">
        <ele>577.89</ele>
        <time>2011-06-19T07:53:21Z</time>
      </trkpt>
      <trkpt lat="45.5912" lon="5.73727">
        <ele>577.89</ele>
        <time>2011-06-19T07:53:26Z</time>
      </trkpt>
      <trkpt lat="45.59118" lon="5.73728">
        <ele>577.89</ele>
        <time>2011-06-19T07:53:36Z</time>
      </trkpt>
      <trkpt lat="45.59118" lon="5.73723">
        <ele>577.41</ele>
        <time>2011-06-19T07:53:40Z</time>
      </trkpt>
      <trkpt lat="45.59135" lon="5.73692">
        <ele>577.89</ele>
        <time>2011-06-19T07:53:50Z</time>
      </trkpt>
      <trkpt lat="45.59141" lon="5.73674">
        <ele>578.37</ele>
        <time>2011-06-19T07:53:53Z</time>
      </trkpt>
      <trkpt lat="45.5918" lon="5.73576">
        <ele>578.37</ele>
        <time>2011-06-19T07:54:09Z</time>
      </trkpt>
      <trkpt lat="45.5922" lon="5.73469">
        <ele>578.85</ele>
        <time>2011-06-19T07:54:26Z</time>
      </trkpt>
      <trkpt lat="45.59258" lon="5.73374">
        <ele>579.81</ele>
        <time>2011-06-19T07:54:42Z</time>
      </trkpt>
      <trkpt lat="45.59282" lon="5.73309">
        <ele>580.29</ele>
        <time>2011-06-19T07:54:54Z</time>
      </trkpt>
      <trkpt lat="45.59285" lon="5.73303">
        <ele>580.29</ele>
        <time>2011-06-19T07:54:55Z</time>
      </trkpt>
      <trkpt lat="45.59324" lon="5.73199">
        <ele>580.77</ele>
        <time>2011-06-19T07:55:12Z</time>
      </trkpt>
      <trkpt lat="45.59348" lon="5.73142">
        <ele>579.33</ele>
        <time>2011-06-19T07:55:24Z</time>
      </trkpt>
      <trkpt lat="45.59348" lon="5.7314">
        <ele>579.81</ele>
        <time>2011-06-19T07:55:25Z</time>
      </trkpt>
      <trkpt lat="45.59346" lon="5.73137">
        <ele>579.33</ele>
        <time>2011-06-19T07:55:26Z</time>
      </trkpt>
      <trkpt lat="45.59345" lon="5.73136">
        <ele>578.85</ele>
        <time>2011-06-19T07:55:27Z</time>
      </trkpt>
      <trkpt lat="45.59342" lon="5.73138">
        <ele>579.33</ele>
        <time>2011-06-19T07:55:28Z</time>
      </trkpt>
      <trkpt lat="45.59341" lon="5.7314">
        <ele>579.33</ele>
        <time>2011-06-19T07:55:29Z</time>
      </trkpt>
      <trkpt lat="45.5934" lon="5.73142">
        <ele>579.33</ele>
        <time>2011-06-19T07:55:30Z</time>
      </trkpt>
      <trkpt lat="45.5934" lon="5.73145">
        <ele>579.81</ele>
        <time>2011-06-19T07:55:31Z</time>
      </trkpt>
      <trkpt lat="45.59341" lon="5.73146">
        <ele>579.81</ele>
        <time>2011-06-19T07:55:32Z</time>
      </trkpt>
      <trkpt lat="45.59343" lon="5.73147">
        <ele>579.33</ele>
        <time>2011-06-19T07:55:33Z</time>
      </trkpt>
      <trkpt lat="45.59346" lon="5.73144">
        <ele>579.81</ele>
        <time>2011-06-19T07:55:34Z</time>
      </trkpt>
      <trkpt lat="45.59348" lon="5.73141">
        <ele>579.81</ele>
        <time>2011-06-19T07:55:35Z</time>
      </trkpt>
      <trkpt lat="45.59349" lon="5.73137">
        <ele>579.33</ele>
        <time>2011-06-19T07:55:36Z</time>
      </trkpt>
      <trkpt lat="45.59351" lon="5.73132">
        <ele>579.33</ele>
        <time>2011-06-19T07:55:37Z</time>
      </trkpt>
      <trkpt lat="45.59358" lon="5.73114">
        <ele>578.37</ele>
        <time>2011-06-19T07:55:40Z</time>
      </trkpt>
      <trkpt lat="45.59362" lon="5.7309">
        <ele>577.89</ele>
        <time>2011-06-19T07:55:43Z</time>
      </trkpt>
      <trkpt lat="45.59363" lon="5.73081">
        <ele>577.89</ele>
        <time>2011-06-19T07:55:44Z</time>
      </trkpt>
      <trkpt lat="45.59362" lon="5.73072">
        <ele>576.93</ele>
        <time>2011-06-19T07:55:45Z</time>
      </trkpt>
      <trkpt lat="45.59359" lon="5.73052">
        <ele>576.45</ele>
        <time>2011-06-19T07:55:47Z</time>
      </trkpt>
      <trkpt lat="45.59356" lon="5.7303">
        <ele>575.01</ele>
        <time>2011-06-19T07:55:49Z</time>
      </trkpt>
      <trkpt lat="45.59356" lon="5.73018">
        <ele>574.04</ele>
        <time>2011-06-19T07:55:50Z</time>
      </trkpt>
      <trkpt lat="45.59358" lon="5.73006">
        <ele>573.08</ele>
        <time>2011-06-19T07:55:51Z</time>
      </trkpt>
      <trkpt lat="45.59364" lon="5.72968">
        <ele>571.16</ele>
        <time>2011-06-19T07:55:54Z</time>
      </trkpt>
      <trkpt lat="45.59375" lon="5.72901">
        <ele>567.8</ele>
        <time>2011-06-19T07:55:59Z</time>
      </trkpt>
      <trkpt lat="45.59386" lon="5.72846">
        <ele>564.43</ele>
        <time>2011-06-19T07:56:03Z</time>
      </trkpt>
      <trkpt lat="45.594" lon="5.72796">
        <ele>561.07</ele>
        <time>2011-06-19T07:56:07Z</time>
      </trkpt>
      <trkpt lat="45.59423" lon="5.72755">
        <ele>557.7</ele>
        <time>2011-06-19T07:56:11Z</time>
      </trkpt>
      <trkpt lat="45.59449" lon="5.72713">
        <ele>554.82</ele>
        <time>2011-06-19T07:56:15Z</time>
      </trkpt>
      <trkpt lat="45.59476" lon="5.7267">
        <ele>551.45</ele>
        <time>2011-06-19T07:56:19Z</time>
      </trkpt>
      <trkpt lat="45.59482" lon="5.72658">
        <ele>550.01</ele>
        <time>2011-06-19T07:56:20Z</time>
      </trkpt>
      <trkpt lat="45.59487" lon="5.72645">
        <ele>550.01</ele>
        <time>2011-06-19T07:56:21Z</time>
      </trkpt>
      <trkpt lat="45.59489" lon="5.7263">
        <ele>548.57</ele>
        <time>2011-06-19T07:56:22Z</time>
      </trkpt>
      <trkpt lat="45.5949" lon="5.72615">
        <ele>547.61</ele>
        <time>2011-06-19T07:56:23Z</time>
      </trkpt>
      <trkpt lat="45.59488" lon="5.726">
        <ele>546.65</ele>
        <time>2011-06-19T07:56:24Z</time>
      </trkpt>
      <trkpt lat="45.59485" lon="5.72586">
        <ele>545.2</ele>
        <time>2011-06-19T07:56:25Z</time>
      </trkpt>
      <trkpt lat="45.5948" lon="5.72574">
        <ele>545.2</ele>
        <time>2011-06-19T07:56:26Z</time>
      </trkpt>
      <trkpt lat="45.59475" lon="5.72562">
        <ele>543.76</ele>
        <time>2011-06-19T07:56:27Z</time>
      </trkpt>
      <trkpt lat="45.5947" lon="5.7255">
        <ele>543.28</ele>
        <time>2011-06-19T07:56:28Z</time>
      </trkpt>
      <trkpt lat="45.59468" lon="5.72537">
        <ele>542.32</ele>
        <time>2011-06-19T07:56:29Z</time>
      </trkpt>
      <trkpt lat="45.59468" lon="5.72523">
        <ele>541.84</ele>
        <time>2011-06-19T07:56:30Z</time>
      </trkpt>
      <trkpt lat="45.59471" lon="5.7251">
        <ele>541.36</ele>
        <time>2011-06-19T07:56:31Z</time>
      </trkpt>
      <trkpt lat="45.59475" lon="5.72497">
        <ele>540.4</ele>
        <time>2011-06-19T07:56:32Z</time>
      </trkpt>
      <trkpt lat="45.59481" lon="5.72484">
        <ele>539.92</ele>
        <time>2011-06-19T07:56:33Z</time>
      </trkpt>
      <trkpt lat="45.59504" lon="5.72433">
        <ele>536.55</ele>
        <time>2011-06-19T07:56:37Z</time>
      </trkpt>
      <trkpt lat="45.59526" lon="5.72381">
        <ele>533.19</ele>
        <time>2011-06-19T07:56:41Z</time>
      </trkpt>
      <trkpt lat="45.59543" lon="5.72338">
        <ele>530.79</ele>
        <time>2011-06-19T07:56:45Z</time>
      </trkpt>
      <trkpt lat="45.59548" lon="5.72328">
        <ele>530.3</ele>
        <time>2011-06-19T07:56:46Z</time>
      </trkpt>
      <trkpt lat="45.59553" lon="5.72319">
        <ele>529.82</ele>
        <time>2011-06-19T07:56:47Z</time>
      </trkpt>
      <trkpt lat="45.5956" lon="5.72311">
        <ele>529.34</ele>
        <time>2011-06-19T07:56:48Z</time>
      </trkpt>
      <trkpt lat="45.59576" lon="5.72288">
        <ele>531.75</ele>
        <time>2011-06-19T07:56:52Z</time>
      </trkpt>
      <trkpt lat="45.5958" lon="5.72285">
        <ele>531.75</ele>
        <time>2011-06-19T07:56:53Z</time>
      </trkpt>
      <trkpt lat="45.59599" lon="5.72271">
        <ele>534.63</ele>
        <time>2011-06-19T07:57:01Z</time>
      </trkpt>
      <trkpt lat="45.5962" lon="5.72258">
        <ele>537.99</ele>
        <time>2011-06-19T07:57:12Z</time>
      </trkpt>
      <trkpt lat="45.59641" lon="5.72248">
        <ele>541.36</ele>
        <time>2011-06-19T07:57:24Z</time>
      </trkpt>
      <trkpt lat="45.59663" lon="5.72235">
        <ele>544.72</ele>
        <time>2011-06-19T07:57:37Z</time>
      </trkpt>
      <trkpt lat="45.59682" lon="5.72227">
        <ele>547.61</ele>
        <time>2011-06-19T07:57:48Z</time>
      </trkpt>
      <trkpt lat="45.59702" lon="5.72235">
        <ele>550.97</ele>
        <time>2011-06-19T07:58:00Z</time>
      </trkpt>
      <trkpt lat="45.59723" lon="5.72253">
        <ele>553.86</ele>
        <time>2011-06-19T07:58:13Z</time>
      </trkpt>
      <trkpt lat="45.59751" lon="5.72286">
        <ele>554.34</ele>
        <time>2011-06-19T07:58:28Z</time>
      </trkpt>
      <trkpt lat="45.59776" lon="5.72301">
        <ele>553.86</ele>
        <time>2011-06-19T07:58:36Z</time>
      </trkpt>
      <trkpt lat="45.59781" lon="5.72301">
        <ele>553.86</ele>
        <time>2011-06-19T07:58:37Z</time>
      </trkpt>
      <trkpt lat="45.59785" lon="5.723">
        <ele>553.38</ele>
        <time>2011-06-19T07:58:38Z</time>
      </trkpt>
      <trkpt lat="45.59833" lon="5.72271">
        <ele>554.82</ele>
        <time>2011-06-19T07:58:52Z</time>
      </trkpt>
      <trkpt lat="45.59842" lon="5.72265">
        <ele>556.26</ele>
        <time>2011-06-19T07:58:56Z</time>
      </trkpt>
      <trkpt lat="45.59869" lon="5.72247">
        <ele>558.66</ele>
        <time>2011-06-19T07:59:09Z</time>
      </trkpt>
      <trkpt lat="45.59897" lon="5.72207">
        <ele>561.55</ele>
        <time>2011-06-19T07:59:24Z</time>
      </trkpt>
      <trkpt lat="45.59924" lon="5.72174">
        <ele>564.91</ele>
        <time>2011-06-19T07:59:39Z</time>
      </trkpt>
      <trkpt lat="45.59962" lon="5.72136">
        <ele>567.8</ele>
        <time>2011-06-19T07:59:56Z</time>
      </trkpt>
      <trkpt lat="45.59992" lon="5.72099">
        <ele>569.72</ele>
        <time>2011-06-19T08:00:11Z</time>
      </trkpt>
      <trkpt lat="45.60019" lon="5.72061">
        <ele>572.6</ele>
        <time>2011-06-19T08:00:26Z</time>
      </trkpt>
      <trkpt lat="45.60043" lon="5.72027">
        <ele>575.97</ele>
        <time>2011-06-19T08:00:39Z</time>
      </trkpt>
      <trkpt lat="45.60067" lon="5.71984">
        <ele>578.85</ele>
        <time>2011-06-19T08:00:54Z</time>
      </trkpt>
      <trkpt lat="45.6009" lon="5.71944">
        <ele>581.73</ele>
        <time>2011-06-19T08:01:09Z</time>
      </trkpt>
      <trkpt lat="45.60111" lon="5.71915">
        <ele>584.62</ele>
        <time>2011-06-19T08:01:22Z</time>
      </trkpt>
      <trkpt lat="45.60131" lon="5.71893">
        <ele>587.98</ele>
        <time>2011-06-19T08:01:35Z</time>
      </trkpt>
      <trkpt lat="45.60146" lon="5.71877">
        <ele>590.39</ele>
        <time>2011-06-19T08:01:44Z</time>
      </trkpt>
      <trkpt lat="45.60168" lon="5.71851">
        <ele>593.27</ele>
        <time>2011-06-19T08:01:57Z</time>
      </trkpt>
      <trkpt lat="45.60189" lon="5.71827">
        <ele>596.64</ele>
        <time>2011-06-19T08:02:09Z</time>
      </trkpt>
      <trkpt lat="45.60219" lon="5.71803">
        <ele>595.19</ele>
        <time>2011-06-19T08:02:20Z</time>
      </trkpt>
      <trkpt lat="45.60231" lon="5.71788">
        <ele>594.71</ele>
        <time>2011-06-19T08:02:23Z</time>
      </trkpt>
      <trkpt lat="45.60236" lon="5.71781">
        <ele>594.23</ele>
        <time>2011-06-19T08:02:24Z</time>
      </trkpt>
      <trkpt lat="45.60239" lon="5.71775">
        <ele>594.23</ele>
        <time>2011-06-19T08:02:25Z</time>
      </trkpt>
      <trkpt lat="45.60242" lon="5.71769">
        <ele>594.23</ele>
        <time>2011-06-19T08:02:26Z</time>
      </trkpt>
      <trkpt lat="45.60245" lon="5.71763">
        <ele>594.71</ele>
        <time>2011-06-19T08:02:27Z</time>
      </trkpt>
      <trkpt lat="45.60247" lon="5.71758">
        <ele>594.71</ele>
        <time>2011-06-19T08:02:28Z</time>
      </trkpt>
      <trkpt lat="45.60263" lon="5.71706">
        <ele>597.6</ele>
        <time>2011-06-19T08:02:41Z</time>
      </trkpt>
      <trkpt lat="45.60284" lon="5.71683">
        <ele>600.96</ele>
        <time>2011-06-19T08:02:53Z</time>
      </trkpt>
      <trkpt lat="45.60307" lon="5.71662">
        <ele>603.36</ele>
        <time>2011-06-19T08:03:06Z</time>
      </trkpt>
      <trkpt lat="45.60341" lon="5.71613">
        <ele>601.92</ele>
        <time>2011-06-19T08:03:19Z</time>
      </trkpt>
      <trkpt lat="45.6035" lon="5.71591">
        <ele>600.96</ele>
        <time>2011-06-19T08:03:22Z</time>
      </trkpt>
      <trkpt lat="45.60361" lon="5.71569">
        <ele>600</ele>
        <time>2011-06-19T08:03:25Z</time>
      </trkpt>
      <trkpt lat="45.60377" lon="5.7154">
        <ele>598.56</ele>
        <time>2011-06-19T08:03:29Z</time>
      </trkpt>
      <trkpt lat="45.60386" lon="5.71526">
        <ele>597.12</ele>
        <time>2011-06-19T08:03:31Z</time>
      </trkpt>
      <trkpt lat="45.6039" lon="5.7152">
        <ele>597.12</ele>
        <time>2011-06-19T08:03:32Z</time>
      </trkpt>
      <trkpt lat="45.60394" lon="5.71512">
        <ele>596.64</ele>
        <time>2011-06-19T08:03:33Z</time>
      </trkpt>
      <trkpt lat="45.604" lon="5.71497">
        <ele>595.67</ele>
        <time>2011-06-19T08:03:35Z</time>
      </trkpt>
      <trkpt lat="45.60407" lon="5.71479">
        <ele>593.75</ele>
        <time>2011-06-19T08:03:37Z</time>
      </trkpt>
      <trkpt lat="45.60419" lon="5.7145">
        <ele>590.87</ele>
        <time>2011-06-19T08:03:40Z</time>
      </trkpt>
      <trkpt lat="45.60424" lon="5.71442">
        <ele>590.39</ele>
        <time>2011-06-19T08:03:41Z</time>
      </trkpt>
      <trkpt lat="45.6043" lon="5.71436">
        <ele>589.43</ele>
        <time>2011-06-19T08:03:42Z</time>
      </trkpt>
      <trkpt lat="45.60442" lon="5.71424">
        <ele>587.98</ele>
        <time>2011-06-19T08:03:44Z</time>
      </trkpt>
      <trkpt lat="45.60447" lon="5.71416">
        <ele>587.5</ele>
        <time>2011-06-19T08:03:45Z</time>
      </trkpt>
      <trkpt lat="45.60451" lon="5.71407">
        <ele>587.5</ele>
        <time>2011-06-19T08:03:46Z</time>
      </trkpt>
      <trkpt lat="45.60454" lon="5.71397">
        <ele>587.02</ele>
        <time>2011-06-19T08:03:47Z</time>
      </trkpt>
      <trkpt lat="45.60455" lon="5.71387">
        <ele>587.02</ele>
        <time>2011-06-19T08:03:48Z</time>
      </trkpt>
      <trkpt lat="45.60456" lon="5.71378">
        <ele>586.54</ele>
        <time>2011-06-19T08:03:49Z</time>
      </trkpt>
      <trkpt lat="45.60456" lon="5.71369">
        <ele>587.02</ele>
        <time>2011-06-19T08:03:50Z</time>
      </trkpt>
      <trkpt lat="45.60456" lon="5.7136">
        <ele>587.02</ele>
        <time>2011-06-19T08:03:51Z</time>
      </trkpt>
      <trkpt lat="45.60456" lon="5.71346">
        <ele>587.98</ele>
        <time>2011-06-19T08:03:53Z</time>
      </trkpt>
      <trkpt lat="45.60456" lon="5.7132">
        <ele>590.39</ele>
        <time>2011-06-19T08:03:58Z</time>
      </trkpt>
      <trkpt lat="45.6046" lon="5.71308">
        <ele>591.83</ele>
        <time>2011-06-19T08:04:01Z</time>
      </trkpt>
      <trkpt lat="45.60463" lon="5.71284">
        <ele>592.31</ele>
        <time>2011-06-19T08:04:06Z</time>
      </trkpt>
      <trkpt lat="45.60465" lon="5.71278">
        <ele>592.31</ele>
        <time>2011-06-19T08:04:07Z</time>
      </trkpt>
      <trkpt lat="45.60467" lon="5.71273">
        <ele>592.79</ele>
        <time>2011-06-19T08:04:08Z</time>
      </trkpt>
      <trkpt lat="45.6047" lon="5.71269">
        <ele>591.83</ele>
        <time>2011-06-19T08:04:09Z</time>
      </trkpt>
      <trkpt lat="45.60473" lon="5.71264">
        <ele>592.31</ele>
        <time>2011-06-19T08:04:10Z</time>
      </trkpt>
      <trkpt lat="45.60477" lon="5.7126">
        <ele>591.83</ele>
        <time>2011-06-19T08:04:11Z</time>
      </trkpt>
      <trkpt lat="45.60481" lon="5.71257">
        <ele>591.83</ele>
        <time>2011-06-19T08:04:12Z</time>
      </trkpt>
      <trkpt lat="45.60486" lon="5.71255">
        <ele>591.83</ele>
        <time>2011-06-19T08:04:13Z</time>
      </trkpt>
      <trkpt lat="45.60498" lon="5.71245">
        <ele>592.31</ele>
        <time>2011-06-19T08:04:16Z</time>
      </trkpt>
      <trkpt lat="45.60501" lon="5.71241">
        <ele>592.79</ele>
        <time>2011-06-19T08:04:17Z</time>
      </trkpt>
      <trkpt lat="45.60503" lon="5.71237">
        <ele>592.79</ele>
        <time>2011-06-19T08:04:18Z</time>
      </trkpt>
      <trkpt lat="45.60505" lon="5.71231">
        <ele>592.31</ele>
        <time>2011-06-19T08:04:19Z</time>
      </trkpt>
      <trkpt lat="45.60507" lon="5.71225">
        <ele>591.83</ele>
        <time>2011-06-19T08:04:20Z</time>
      </trkpt>
      <trkpt lat="45.60509" lon="5.71217">
        <ele>591.83</ele>
        <time>2011-06-19T08:04:21Z</time>
      </trkpt>
      <trkpt lat="45.60513" lon="5.71211">
        <ele>590.87</ele>
        <time>2011-06-19T08:04:22Z</time>
      </trkpt>
      <trkpt lat="45.60517" lon="5.71207">
        <ele>592.31</ele>
        <time>2011-06-19T08:04:23Z</time>
      </trkpt>
      <trkpt lat="45.6052" lon="5.71206">
        <ele>592.79</ele>
        <time>2011-06-19T08:04:24Z</time>
      </trkpt>
      <trkpt lat="45.60523" lon="5.71205">
        <ele>592.79</ele>
        <time>2011-06-19T08:04:25Z</time>
      </trkpt>
      <trkpt lat="45.60524" lon="5.71205">
        <ele>593.27</ele>
        <time>2011-06-19T08:04:26Z</time>
      </trkpt>
      <trkpt lat="45.60526" lon="5.71206">
        <ele>593.75</ele>
        <time>2011-06-19T08:04:27Z</time>
      </trkpt>
      <trkpt lat="45.60528" lon="5.71205">
        <ele>593.75</ele>
        <time>2011-06-19T08:04:28Z</time>
      </trkpt>
      <trkpt lat="45.6053" lon="5.71205">
        <ele>594.23</ele>
        <time>2011-06-19T08:04:29Z</time>
      </trkpt>
      <trkpt lat="45.60532" lon="5.71204">
        <ele>594.71</ele>
        <time>2011-06-19T08:04:30Z</time>
      </trkpt>
      <trkpt lat="45.60534" lon="5.71204">
        <ele>594.71</ele>
        <time>2011-06-19T08:04:31Z</time>
      </trkpt>
      <trkpt lat="45.60535" lon="5.71204">
        <ele>595.67</ele>
        <time>2011-06-19T08:04:32Z</time>
      </trkpt>
      <trkpt lat="45.60537" lon="5.71203">
        <ele>596.15</ele>
        <time>2011-06-19T08:04:33Z</time>
      </trkpt>
      <trkpt lat="45.60538" lon="5.71203">
        <ele>596.15</ele>
        <time>2011-06-19T08:04:34Z</time>
      </trkpt>
      <trkpt lat="45.60539" lon="5.71202">
        <ele>596.64</ele>
        <time>2011-06-19T08:04:35Z</time>
      </trkpt>
      <trkpt lat="45.60554" lon="5.71197">
        <ele>600</ele>
        <time>2011-06-19T08:04:45Z</time>
      </trkpt>
      <trkpt lat="45.60568" lon="5.71189">
        <ele>603.36</ele>
        <time>2011-06-19T08:04:55Z</time>
      </trkpt>
      <trkpt lat="45.60569" lon="5.71188">
        <ele>603.36</ele>
        <time>2011-06-19T08:04:56Z</time>
      </trkpt>
      <trkpt lat="45.60571" lon="5.71187">
        <ele>603.36</ele>
        <time>2011-06-19T08:04:57Z</time>
      </trkpt>
      <trkpt lat="45.60572" lon="5.71186">
        <ele>603.85</ele>
        <time>2011-06-19T08:04:58Z</time>
      </trkpt>
      <trkpt lat="45.60573" lon="5.71186">
        <ele>603.85</ele>
        <time>2011-06-19T08:04:59Z</time>
      </trkpt>
      <trkpt lat="45.60574" lon="5.71185">
        <ele>604.81</ele>
        <time>2011-06-19T08:05:00Z</time>
      </trkpt>
      <trkpt lat="45.60588" lon="5.71177">
        <ele>608.17</ele>
        <time>2011-06-19T08:05:11Z</time>
      </trkpt>
      <trkpt lat="45.60607" lon="5.71166">
        <ele>611.54</ele>
        <time>2011-06-19T08:05:24Z</time>
      </trkpt>
      <trkpt lat="45.60627" lon="5.71158">
        <ele>613.46</ele>
        <time>2011-06-19T08:05:37Z</time>
      </trkpt>
      <trkpt lat="45.60651" lon="5.71145">
        <ele>614.9</ele>
        <time>2011-06-19T08:05:50Z</time>
      </trkpt>
      <trkpt lat="45.60672" lon="5.71139">
        <ele>618.26</ele>
        <time>2011-06-19T08:06:02Z</time>
      </trkpt>
      <trkpt lat="45.60694" lon="5.71133">
        <ele>620.19</ele>
        <time>2011-06-19T08:06:15Z</time>
      </trkpt>
      <trkpt lat="45.60696" lon="5.71132">
        <ele>620.67</ele>
        <time>2011-06-19T08:06:16Z</time>
      </trkpt>
      <trkpt lat="45.60724" lon="5.71119">
        <ele>619.23</ele>
        <time>2011-06-19T08:06:25Z</time>
      </trkpt>
      <trkpt lat="45.60728" lon="5.71116">
        <ele>619.23</ele>
        <time>2011-06-19T08:06:26Z</time>
      </trkpt>
      <trkpt lat="45.6077" lon="5.71085">
        <ele>621.15</ele>
        <time>2011-06-19T08:06:40Z</time>
      </trkpt>
      <trkpt lat="45.60794" lon="5.71031">
        <ele>619.23</ele>
        <time>2011-06-19T08:06:52Z</time>
      </trkpt>
      <trkpt lat="45.60797" lon="5.71026">
        <ele>619.23</ele>
        <time>2011-06-19T08:06:53Z</time>
      </trkpt>
      <trkpt lat="45.60799" lon="5.7102">
        <ele>618.75</ele>
        <time>2011-06-19T08:06:54Z</time>
      </trkpt>
      <trkpt lat="45.60812" lon="5.71">
        <ele>615.86</ele>
        <time>2011-06-19T08:06:57Z</time>
      </trkpt>
      <trkpt lat="45.60817" lon="5.70993">
        <ele>615.86</ele>
        <time>2011-06-19T08:06:58Z</time>
      </trkpt>
      <trkpt lat="45.60831" lon="5.7097">
        <ele>613.94</ele>
        <time>2011-06-19T08:07:01Z</time>
      </trkpt>
      <trkpt lat="45.6084" lon="5.70959">
        <ele>614.9</ele>
        <time>2011-06-19T08:07:03Z</time>
      </trkpt>
      <trkpt lat="45.60846" lon="5.70948">
        <ele>615.38</ele>
        <time>2011-06-19T08:07:05Z</time>
      </trkpt>
      <trkpt lat="45.6085" lon="5.70943">
        <ele>614.9</ele>
        <time>2011-06-19T08:07:06Z</time>
      </trkpt>
      <trkpt lat="45.60878" lon="5.70904">
        <ele>613.94</ele>
        <time>2011-06-19T08:07:13Z</time>
      </trkpt>
      <trkpt lat="45.60882" lon="5.70901">
        <ele>613.94</ele>
        <time>2011-06-19T08:07:14Z</time>
      </trkpt>
      <trkpt lat="45.60886" lon="5.70899">
        <ele>614.42</ele>
        <time>2011-06-19T08:07:15Z</time>
      </trkpt>
      <trkpt lat="45.60889" lon="5.70897">
        <ele>615.38</ele>
        <time>2011-06-19T08:07:16Z</time>
      </trkpt>
      <trkpt lat="45.60893" lon="5.70895">
        <ele>615.38</ele>
        <time>2011-06-19T08:07:17Z</time>
      </trkpt>
      <trkpt lat="45.60895" lon="5.70894">
        <ele>615.86</ele>
        <time>2011-06-19T08:07:26Z</time>
      </trkpt>
      <trkpt lat="45.60899" lon="5.70892">
        <ele>616.82</ele>
        <time>2011-06-19T08:07:37Z</time>
      </trkpt>
      <trkpt lat="45.609" lon="5.70891">
        <ele>616.82</ele>
        <time>2011-06-19T08:07:38Z</time>
      </trkpt>
      <trkpt lat="45.60909" lon="5.70888">
        <ele>619.23</ele>
        <time>2011-06-19T08:07:46Z</time>
      </trkpt>
      <trkpt lat="45.6091" lon="5.70888">
        <ele>619.71</ele>
        <time>2011-06-19T08:07:47Z</time>
      </trkpt>
      <trkpt lat="45.60913" lon="5.70886">
        <ele>620.19</ele>
        <time>2011-06-19T08:07:51Z</time>
      </trkpt>
      <trkpt lat="45.60914" lon="5.70885">
        <ele>620.67</ele>
        <time>2011-06-19T08:07:52Z</time>
      </trkpt>
      <trkpt lat="45.6093" lon="5.70875">
        <ele>622.11</ele>
        <time>2011-06-19T08:08:03Z</time>
      </trkpt>
      <trkpt lat="45.6095" lon="5.70846">
        <ele>623.07</ele>
        <time>2011-06-19T08:08:15Z</time>
      </trkpt>
      <trkpt lat="45.60972" lon="5.70816">
        <ele>622.59</ele>
        <time>2011-06-19T08:08:23Z</time>
      </trkpt>
      <trkpt lat="45.60976" lon="5.70812">
        <ele>622.59</ele>
        <time>2011-06-19T08:08:24Z</time>
      </trkpt>
      <trkpt lat="45.61007" lon="5.70772">
        <ele>622.11</ele>
        <time>2011-06-19T08:08:33Z</time>
      </trkpt>
      <trkpt lat="45.61014" lon="5.70766">
        <ele>623.07</ele>
        <time>2011-06-19T08:08:35Z</time>
      </trkpt>
      <trkpt lat="45.61027" lon="5.70749">
        <ele>621.15</ele>
        <time>2011-06-19T08:08:39Z</time>
      </trkpt>
      <trkpt lat="45.61031" lon="5.70745">
        <ele>621.15</ele>
        <time>2011-06-19T08:08:40Z</time>
      </trkpt>
      <trkpt lat="45.61035" lon="5.70741">
        <ele>621.15</ele>
        <time>2011-06-19T08:08:41Z</time>
      </trkpt>
      <trkpt lat="45.61046" lon="5.7073">
        <ele>622.11</ele>
        <time>2011-06-19T08:08:44Z</time>
      </trkpt>
      <trkpt lat="45.61071" lon="5.70705">
        <ele>623.55</ele>
        <time>2011-06-19T08:08:52Z</time>
      </trkpt>
      <trkpt lat="45.61103" lon="5.70661">
        <ele>624.03</ele>
        <time>2011-06-19T08:09:04Z</time>
      </trkpt>
      <trkpt lat="45.61131" lon="5.70618">
        <ele>626.44</ele>
        <time>2011-06-19T08:09:18Z</time>
      </trkpt>
      <trkpt lat="45.61162" lon="5.70572">
        <ele>627.88</ele>
        <time>2011-06-19T08:09:33Z</time>
      </trkpt>
      <trkpt lat="45.61198" lon="5.70528">
        <ele>628.36</ele>
        <time>2011-06-19T08:09:46Z</time>
      </trkpt>
      <trkpt lat="45.61213" lon="5.70486">
        <ele>625.96</ele>
        <time>2011-06-19T08:09:54Z</time>
      </trkpt>
      <trkpt lat="45.61219" lon="5.70451">
        <ele>621.63</ele>
        <time>2011-06-19T08:09:58Z</time>
      </trkpt>
      <trkpt lat="45.61224" lon="5.70429">
        <ele>618.75</ele>
        <time>2011-06-19T08:10:01Z</time>
      </trkpt>
      <trkpt lat="45.61231" lon="5.70398">
        <ele>615.38</ele>
        <time>2011-06-19T08:10:05Z</time>
      </trkpt>
      <trkpt lat="45.61239" lon="5.70357">
        <ele>612.02</ele>
        <time>2011-06-19T08:10:10Z</time>
      </trkpt>
      <trkpt lat="45.61243" lon="5.70344">
        <ele>610.09</ele>
        <time>2011-06-19T08:10:12Z</time>
      </trkpt>
      <trkpt lat="45.61247" lon="5.70338">
        <ele>609.61</ele>
        <time>2011-06-19T08:10:13Z</time>
      </trkpt>
      <trkpt lat="45.61252" lon="5.70334">
        <ele>609.61</ele>
        <time>2011-06-19T08:10:14Z</time>
      </trkpt>
      <trkpt lat="45.61262" lon="5.7033">
        <ele>610.09</ele>
        <time>2011-06-19T08:10:16Z</time>
      </trkpt>
      <trkpt lat="45.61266" lon="5.70327">
        <ele>610.57</ele>
        <time>2011-06-19T08:10:17Z</time>
      </trkpt>
      <trkpt lat="45.61269" lon="5.70322">
        <ele>610.09</ele>
        <time>2011-06-19T08:10:18Z</time>
      </trkpt>
      <trkpt lat="45.61272" lon="5.70317">
        <ele>610.57</ele>
        <time>2011-06-19T08:10:19Z</time>
      </trkpt>
      <trkpt lat="45.61274" lon="5.70312">
        <ele>610.57</ele>
        <time>2011-06-19T08:10:20Z</time>
      </trkpt>
      <trkpt lat="45.61277" lon="5.70306">
        <ele>610.57</ele>
        <time>2011-06-19T08:10:21Z</time>
      </trkpt>
      <trkpt lat="45.61305" lon="5.70219">
        <ele>610.09</ele>
        <time>2011-06-19T08:10:33Z</time>
      </trkpt>
      <trkpt lat="45.61337" lon="5.70114">
        <ele>612.02</ele>
        <time>2011-06-19T08:10:50Z</time>
      </trkpt>
      <trkpt lat="45.61358" lon="5.7005">
        <ele>615.38</ele>
        <time>2011-06-19T08:11:04Z</time>
      </trkpt>
      <trkpt lat="45.61371" lon="5.70013">
        <ele>618.26</ele>
        <time>2011-06-19T08:11:15Z</time>
      </trkpt>
      <trkpt lat="45.61375" lon="5.69999">
        <ele>619.23</ele>
        <time>2011-06-19T08:11:28Z</time>
      </trkpt>
      <trkpt lat="45.61375" lon="5.69999">
        <ele>619.23</ele>
        <time>2011-06-19T08:12:00Z</time>
      </trkpt>
      <trkpt lat="45.61375" lon="5.69999">
        <ele>619.23</ele>
        <time>2011-06-19T08:12:43Z</time>
      </trkpt>
      <trkpt lat="45.61376" lon="5.69998">
        <ele>619.71</ele>
        <time>2011-06-19T08:12:56Z</time>
      </trkpt>
      <trkpt lat="45.61377" lon="5.69997">
        <ele>619.23</ele>
        <time>2011-06-19T08:12:57Z</time>
      </trkpt>
      <trkpt lat="45.61379" lon="5.69994">
        <ele>619.23</ele>
        <time>2011-06-19T08:12:59Z</time>
      </trkpt>
      <trkpt lat="45.61382" lon="5.69943">
        <ele>617.3</ele>
        <time>2011-06-19T08:13:09Z</time>
      </trkpt>
      <trkpt lat="45.6139" lon="5.69895">
        <ele>615.38</ele>
        <time>2011-06-19T08:13:15Z</time>
      </trkpt>
      <trkpt lat="45.61396" lon="5.69879">
        <ele>614.9</ele>
        <time>2011-06-19T08:13:17Z</time>
      </trkpt>
      <trkpt lat="45.614" lon="5.69872">
        <ele>614.42</ele>
        <time>2011-06-19T08:13:18Z</time>
      </trkpt>
      <trkpt lat="45.61404" lon="5.69868">
        <ele>613.94</ele>
        <time>2011-06-19T08:13:19Z</time>
      </trkpt>
      <trkpt lat="45.6141" lon="5.69864">
        <ele>613.94</ele>
        <time>2011-06-19T08:13:20Z</time>
      </trkpt>
      <trkpt lat="45.61416" lon="5.69862">
        <ele>613.46</ele>
        <time>2011-06-19T08:13:21Z</time>
      </trkpt>
      <trkpt lat="45.61422" lon="5.69859">
        <ele>613.46</ele>
        <time>2011-06-19T08:13:22Z</time>
      </trkpt>
      <trkpt lat="45.61427" lon="5.69856">
        <ele>613.46</ele>
        <time>2011-06-19T08:13:23Z</time>
      </trkpt>
      <trkpt lat="45.61432" lon="5.69853">
        <ele>613.94</ele>
        <time>2011-06-19T08:13:24Z</time>
      </trkpt>
      <trkpt lat="45.61435" lon="5.69848">
        <ele>613.94</ele>
        <time>2011-06-19T08:13:25Z</time>
      </trkpt>
      <trkpt lat="45.61435" lon="5.69843">
        <ele>614.42</ele>
        <time>2011-06-19T08:13:26Z</time>
      </trkpt>
      <trkpt lat="45.61435" lon="5.69838">
        <ele>613.46</ele>
        <time>2011-06-19T08:13:27Z</time>
      </trkpt>
      <trkpt lat="45.61432" lon="5.69831">
        <ele>612.98</ele>
        <time>2011-06-19T08:13:28Z</time>
      </trkpt>
      <trkpt lat="45.61429" lon="5.69825">
        <ele>612.98</ele>
        <time>2011-06-19T08:13:29Z</time>
      </trkpt>
      <trkpt lat="45.61425" lon="5.69819">
        <ele>611.54</ele>
        <time>2011-06-19T08:13:30Z</time>
      </trkpt>
      <trkpt lat="45.61401" lon="5.69784">
        <ele>608.65</ele>
        <time>2011-06-19T08:13:35Z</time>
      </trkpt>
      <trkpt lat="45.61384" lon="5.69753">
        <ele>606.25</ele>
        <time>2011-06-19T08:13:39Z</time>
      </trkpt>
      <trkpt lat="45.61379" lon="5.69745">
        <ele>605.77</ele>
        <time>2011-06-19T08:13:40Z</time>
      </trkpt>
      <trkpt lat="45.61374" lon="5.6974">
        <ele>605.77</ele>
        <time>2011-06-19T08:13:41Z</time>
      </trkpt>
      <trkpt lat="45.61338" lon="5.6971">
        <ele>601.92</ele>
        <time>2011-06-19T08:13:47Z</time>
      </trkpt>
      <trkpt lat="45.61331" lon="5.69704">
        <ele>601.44</ele>
        <time>2011-06-19T08:13:48Z</time>
      </trkpt>
      <trkpt lat="45.6131" lon="5.69683">
        <ele>597.6</ele>
        <time>2011-06-19T08:13:51Z</time>
      </trkpt>
      <trkpt lat="45.61292" lon="5.69665">
        <ele>594.23</ele>
        <time>2011-06-19T08:13:54Z</time>
      </trkpt>
      <trkpt lat="45.61272" lon="5.6965">
        <ele>590.39</ele>
        <time>2011-06-19T08:13:57Z</time>
      </trkpt>
      <trkpt lat="45.61248" lon="5.69634">
        <ele>586.54</ele>
        <time>2011-06-19T08:14:00Z</time>
      </trkpt>
      <trkpt lat="45.6124" lon="5.69628">
        <ele>586.06</ele>
        <time>2011-06-19T08:14:01Z</time>
      </trkpt>
      <trkpt lat="45.61216" lon="5.69608">
        <ele>584.62</ele>
        <time>2011-06-19T08:14:04Z</time>
      </trkpt>
      <trkpt lat="45.6121" lon="5.696">
        <ele>584.14</ele>
        <time>2011-06-19T08:14:05Z</time>
      </trkpt>
      <trkpt lat="45.61198" lon="5.69585">
        <ele>584.14</ele>
        <time>2011-06-19T08:14:07Z</time>
      </trkpt>
      <trkpt lat="45.61195" lon="5.69577">
        <ele>584.14</ele>
        <time>2011-06-19T08:14:08Z</time>
      </trkpt>
      <trkpt lat="45.61189" lon="5.6956">
        <ele>583.18</ele>
        <time>2011-06-19T08:14:10Z</time>
      </trkpt>
      <trkpt lat="45.61187" lon="5.69552">
        <ele>582.7</ele>
        <time>2011-06-19T08:14:11Z</time>
      </trkpt>
      <trkpt lat="45.61183" lon="5.69544">
        <ele>582.22</ele>
        <time>2011-06-19T08:14:12Z</time>
      </trkpt>
      <trkpt lat="45.61179" lon="5.69536">
        <ele>581.73</ele>
        <time>2011-06-19T08:14:13Z</time>
      </trkpt>
      <trkpt lat="45.61174" lon="5.69527">
        <ele>581.25</ele>
        <time>2011-06-19T08:14:14Z</time>
      </trkpt>
      <trkpt lat="45.61171" lon="5.69519">
        <ele>580.29</ele>
        <time>2011-06-19T08:14:15Z</time>
      </trkpt>
      <trkpt lat="45.61168" lon="5.69511">
        <ele>579.33</ele>
        <time>2011-06-19T08:14:16Z</time>
      </trkpt>
      <trkpt lat="45.61165" lon="5.69502">
        <ele>578.85</ele>
        <time>2011-06-19T08:14:17Z</time>
      </trkpt>
      <trkpt lat="45.61161" lon="5.69494">
        <ele>576.93</ele>
        <time>2011-06-19T08:14:18Z</time>
      </trkpt>
      <trkpt lat="45.61159" lon="5.69486">
        <ele>575.97</ele>
        <time>2011-06-19T08:14:19Z</time>
      </trkpt>
      <trkpt lat="45.61158" lon="5.69478">
        <ele>575.97</ele>
        <time>2011-06-19T08:14:20Z</time>
      </trkpt>
      <trkpt lat="45.61155" lon="5.69471">
        <ele>575.01</ele>
        <time>2011-06-19T08:14:21Z</time>
      </trkpt>
      <trkpt lat="45.6115" lon="5.69466">
        <ele>574.53</ele>
        <time>2011-06-19T08:14:22Z</time>
      </trkpt>
      <trkpt lat="45.61145" lon="5.69464">
        <ele>574.53</ele>
        <time>2011-06-19T08:14:23Z</time>
      </trkpt>
      <trkpt lat="45.61139" lon="5.69463">
        <ele>573.08</ele>
        <time>2011-06-19T08:14:24Z</time>
      </trkpt>
      <trkpt lat="45.61134" lon="5.69464">
        <ele>573.56</ele>
        <time>2011-06-19T08:14:25Z</time>
      </trkpt>
      <trkpt lat="45.61126" lon="5.69465">
        <ele>572.6</ele>
        <time>2011-06-19T08:14:32Z</time>
      </trkpt>
      <trkpt lat="45.61121" lon="5.69467">
        <ele>571.16</ele>
        <time>2011-06-19T08:14:39Z</time>
      </trkpt>
      <trkpt lat="45.6112" lon="5.69469">
        <ele>570.68</ele>
        <time>2011-06-19T08:14:40Z</time>
      </trkpt>
      <trkpt lat="45.61117" lon="5.69472">
        <ele>569.72</ele>
        <time>2011-06-19T08:14:41Z</time>
      </trkpt>
      <trkpt lat="45.61115" lon="5.69474">
        <ele>569.72</ele>
        <time>2011-06-19T08:14:42Z</time>
      </trkpt>
      <trkpt lat="45.61113" lon="5.69474">
        <ele>569.24</ele>
        <time>2011-06-19T08:14:43Z</time>
      </trkpt>
      <trkpt lat="45.6111" lon="5.69474">
        <ele>568.28</ele>
        <time>2011-06-19T08:14:44Z</time>
      </trkpt>
      <trkpt lat="45.61108" lon="5.69475">
        <ele>567.8</ele>
        <time>2011-06-19T08:14:45Z</time>
      </trkpt>
      <trkpt lat="45.61106" lon="5.69476">
        <ele>567.32</ele>
        <time>2011-06-19T08:14:46Z</time>
      </trkpt>
      <trkpt lat="45.61104" lon="5.69474">
        <ele>566.83</ele>
        <time>2011-06-19T08:14:47Z</time>
      </trkpt>
      <trkpt lat="45.61103" lon="5.69471">
        <ele>566.35</ele>
        <time>2011-06-19T08:14:48Z</time>
      </trkpt>
      <trkpt lat="45.61103" lon="5.69467">
        <ele>565.39</ele>
        <time>2011-06-19T08:14:49Z</time>
      </trkpt>
      <trkpt lat="45.61104" lon="5.69462">
        <ele>564.43</ele>
        <time>2011-06-19T08:14:50Z</time>
      </trkpt>
      <trkpt lat="45.61107" lon="5.69457">
        <ele>563.47</ele>
        <time>2011-06-19T08:14:51Z</time>
      </trkpt>
      <trkpt lat="45.61109" lon="5.69452">
        <ele>562.51</ele>
        <time>2011-06-19T08:14:52Z</time>
      </trkpt>
      <trkpt lat="45.61112" lon="5.69445">
        <ele>562.03</ele>
        <time>2011-06-19T08:14:53Z</time>
      </trkpt>
      <trkpt lat="45.61113" lon="5.69437">
        <ele>561.55</ele>
        <time>2011-06-19T08:14:54Z</time>
      </trkpt>
      <trkpt lat="45.61116" lon="5.69429">
        <ele>560.11</ele>
        <time>2011-06-19T08:14:55Z</time>
      </trkpt>
      <trkpt lat="45.61119" lon="5.6942">
        <ele>559.14</ele>
        <time>2011-06-19T08:14:56Z</time>
      </trkpt>
      <trkpt lat="45.61121" lon="5.69412">
        <ele>557.7</ele>
        <time>2011-06-19T08:14:57Z</time>
      </trkpt>
      <trkpt lat="45.61123" lon="5.69404">
        <ele>557.22</ele>
        <time>2011-06-19T08:14:58Z</time>
      </trkpt>
      <trkpt lat="45.61125" lon="5.69398">
        <ele>555.78</ele>
        <time>2011-06-19T08:14:59Z</time>
      </trkpt>
      <trkpt lat="45.61127" lon="5.69384">
        <ele>553.86</ele>
        <time>2011-06-19T08:15:01Z</time>
      </trkpt>
      <trkpt lat="45.61127" lon="5.69377">
        <ele>552.9</ele>
        <time>2011-06-19T08:15:02Z</time>
      </trkpt>
      <trkpt lat="45.61126" lon="5.6937">
        <ele>551.45</ele>
        <time>2011-06-19T08:15:03Z</time>
      </trkpt>
      <trkpt lat="45.61125" lon="5.69363">
        <ele>550.01</ele>
        <time>2011-06-19T08:15:04Z</time>
      </trkpt>
      <trkpt lat="45.61124" lon="5.69358">
        <ele>549.05</ele>
        <time>2011-06-19T08:15:05Z</time>
      </trkpt>
      <trkpt lat="45.61123" lon="5.69354">
        <ele>548.09</ele>
        <time>2011-06-19T08:15:06Z</time>
      </trkpt>
      <trkpt lat="45.61121" lon="5.6935">
        <ele>547.13</ele>
        <time>2011-06-19T08:15:07Z</time>
      </trkpt>
      <trkpt lat="45.61121" lon="5.69345">
        <ele>545.69</ele>
        <time>2011-06-19T08:15:08Z</time>
      </trkpt>
      <trkpt lat="45.61121" lon="5.6934">
        <ele>545.2</ele>
        <time>2011-06-19T08:15:09Z</time>
      </trkpt>
      <trkpt lat="45.61122" lon="5.69328">
        <ele>542.8</ele>
        <time>2011-06-19T08:15:11Z</time>
      </trkpt>
      <trkpt lat="45.61122" lon="5.69322">
        <ele>542.32</ele>
        <time>2011-06-19T08:15:12Z</time>
      </trkpt>
      <trkpt lat="45.61122" lon="5.69317">
        <ele>541.84</ele>
        <time>2011-06-19T08:15:13Z</time>
      </trkpt>
      <trkpt lat="45.61122" lon="5.69296">
        <ele>538.48</ele>
        <time>2011-06-19T08:15:17Z</time>
      </trkpt>
      <trkpt lat="45.61122" lon="5.6929">
        <ele>537.51</ele>
        <time>2011-06-19T08:15:18Z</time>
      </trkpt>
      <trkpt lat="45.61122" lon="5.69283">
        <ele>536.55</ele>
        <time>2011-06-19T08:15:19Z</time>
      </trkpt>
      <trkpt lat="45.61123" lon="5.69277">
        <ele>536.07</ele>
        <time>2011-06-19T08:15:20Z</time>
      </trkpt>
      <trkpt lat="45.61124" lon="5.69271">
        <ele>535.11</ele>
        <time>2011-06-19T08:15:21Z</time>
      </trkpt>
      <trkpt lat="45.61125" lon="5.69266">
        <ele>535.11</ele>
        <time>2011-06-19T08:15:22Z</time>
      </trkpt>
      <trkpt lat="45.61126" lon="5.69254">
        <ele>532.71</ele>
        <time>2011-06-19T08:15:25Z</time>
      </trkpt>
      <trkpt lat="45.61126" lon="5.69251">
        <ele>532.23</ele>
        <time>2011-06-19T08:15:26Z</time>
      </trkpt>
      <trkpt lat="45.61126" lon="5.69248">
        <ele>531.75</ele>
        <time>2011-06-19T08:15:27Z</time>
      </trkpt>
      <trkpt lat="45.61125" lon="5.69246">
        <ele>531.27</ele>
        <time>2011-06-19T08:15:28Z</time>
      </trkpt>
      <trkpt lat="45.61123" lon="5.69244">
        <ele>530.79</ele>
        <time>2011-06-19T08:15:29Z</time>
      </trkpt>
      <trkpt lat="45.61122" lon="5.69243">
        <ele>529.82</ele>
        <time>2011-06-19T08:15:30Z</time>
      </trkpt>
      <trkpt lat="45.61117" lon="5.69242">
        <ele>527.9</ele>
        <time>2011-06-19T08:15:32Z</time>
      </trkpt>
      <trkpt lat="45.61112" lon="5.69246">
        <ele>526.46</ele>
        <time>2011-06-19T08:15:34Z</time>
      </trkpt>
      <trkpt lat="45.61097" lon="5.69258">
        <ele>521.65</ele>
        <time>2011-06-19T08:15:38Z</time>
      </trkpt>
      <trkpt lat="45.61092" lon="5.69261">
        <ele>520.69</ele>
        <time>2011-06-19T08:15:39Z</time>
      </trkpt>
      <trkpt lat="45.61083" lon="5.69266">
        <ele>517.33</ele>
        <time>2011-06-19T08:15:41Z</time>
      </trkpt>
      <trkpt lat="45.61073" lon="5.6927">
        <ele>515.4</ele>
        <time>2011-06-19T08:15:43Z</time>
      </trkpt>
      <trkpt lat="45.61066" lon="5.69265">
        <ele>513.48</ele>
        <time>2011-06-19T08:15:46Z</time>
      </trkpt>
      <trkpt lat="45.61066" lon="5.69261">
        <ele>513</ele>
        <time>2011-06-19T08:15:47Z</time>
      </trkpt>
      <trkpt lat="45.61067" lon="5.69257">
        <ele>512.52</ele>
        <time>2011-06-19T08:15:48Z</time>
      </trkpt>
      <trkpt lat="45.61068" lon="5.69256">
        <ele>513</ele>
        <time>2011-06-19T08:15:49Z</time>
      </trkpt>
      <trkpt lat="45.61068" lon="5.69252">
        <ele>511.56</ele>
        <time>2011-06-19T08:15:53Z</time>
      </trkpt>
      <trkpt lat="45.61067" lon="5.6925">
        <ele>510.12</ele>
        <time>2011-06-19T08:15:54Z</time>
      </trkpt>
      <trkpt lat="45.61065" lon="5.69249">
        <ele>509.64</ele>
        <time>2011-06-19T08:15:55Z</time>
      </trkpt>
      <trkpt lat="45.61063" lon="5.69247">
        <ele>508.67</ele>
        <time>2011-06-19T08:15:56Z</time>
      </trkpt>
      <trkpt lat="45.61058" lon="5.69235">
        <ele>505.31</ele>
        <time>2011-06-19T08:16:01Z</time>
      </trkpt>
      <trkpt lat="45.61058" lon="5.69219">
        <ele>501.95</ele>
        <time>2011-06-19T08:16:05Z</time>
      </trkpt>
      <trkpt lat="45.61057" lon="5.69211">
        <ele>499.06</ele>
        <time>2011-06-19T08:16:08Z</time>
      </trkpt>
      <trkpt lat="45.61058" lon="5.6921">
        <ele>499.54</ele>
        <time>2011-06-19T08:16:13Z</time>
      </trkpt>
      <trkpt lat="45.61055" lon="5.69193">
        <ele>496.18</ele>
        <time>2011-06-19T08:16:20Z</time>
      </trkpt>
      <trkpt lat="45.61048" lon="5.69168">
        <ele>492.33</ele>
        <time>2011-06-19T08:16:26Z</time>
      </trkpt>
      <trkpt lat="45.61042" lon="5.69158">
        <ele>489.93</ele>
        <time>2011-06-19T08:16:28Z</time>
      </trkpt>
      <trkpt lat="45.61039" lon="5.69152">
        <ele>488.97</ele>
        <time>2011-06-19T08:16:29Z</time>
      </trkpt>
      <trkpt lat="45.61029" lon="5.69135">
        <ele>485.12</ele>
        <time>2011-06-19T08:16:32Z</time>
      </trkpt>
      <trkpt lat="45.61027" lon="5.6913">
        <ele>484.16</ele>
        <time>2011-06-19T08:16:33Z</time>
      </trkpt>
      <trkpt lat="45.61025" lon="5.69124">
        <ele>483.2</ele>
        <time>2011-06-19T08:16:34Z</time>
      </trkpt>
      <trkpt lat="45.61023" lon="5.69118">
        <ele>482.24</ele>
        <time>2011-06-19T08:16:35Z</time>
      </trkpt>
      <trkpt lat="45.61021" lon="5.69113">
        <ele>481.28</ele>
        <time>2011-06-19T08:16:36Z</time>
      </trkpt>
      <trkpt lat="45.61018" lon="5.69107">
        <ele>479.84</ele>
        <time>2011-06-19T08:16:37Z</time>
      </trkpt>
      <trkpt lat="45.61014" lon="5.69099">
        <ele>478.39</ele>
        <time>2011-06-19T08:16:38Z</time>
      </trkpt>
      <trkpt lat="45.61011" lon="5.6909">
        <ele>476.95</ele>
        <time>2011-06-19T08:16:39Z</time>
      </trkpt>
      <trkpt lat="45.61009" lon="5.69081">
        <ele>475.51</ele>
        <time>2011-06-19T08:16:40Z</time>
      </trkpt>
      <trkpt lat="45.61005" lon="5.69067">
        <ele>472.14</ele>
        <time>2011-06-19T08:16:42Z</time>
      </trkpt>
      <trkpt lat="45.61004" lon="5.69061">
        <ele>470.7</ele>
        <time>2011-06-19T08:16:43Z</time>
      </trkpt>
      <trkpt lat="45.61001" lon="5.69059">
        <ele>469.74</ele>
        <time>2011-06-19T08:16:44Z</time>
      </trkpt>
      <trkpt lat="45.60998" lon="5.69056">
        <ele>468.78</ele>
        <time>2011-06-19T08:16:45Z</time>
      </trkpt>
      <trkpt lat="45.60996" lon="5.69054">
        <ele>467.82</ele>
        <time>2011-06-19T08:16:46Z</time>
      </trkpt>
      <trkpt lat="45.60995" lon="5.69051">
        <ele>467.82</ele>
        <time>2011-06-19T08:16:47Z</time>
      </trkpt>
      <trkpt lat="45.60996" lon="5.6905">
        <ele>467.34</ele>
        <time>2011-06-19T08:16:48Z</time>
      </trkpt>
      <trkpt lat="45.60997" lon="5.69047">
        <ele>467.34</ele>
        <time>2011-06-19T08:16:49Z</time>
      </trkpt>
      <trkpt lat="45.60997" lon="5.69043">
        <ele>467.82</ele>
        <time>2011-06-19T08:16:50Z</time>
      </trkpt>
      <trkpt lat="45.60999" lon="5.69026">
        <ele>465.9</ele>
        <time>2011-06-19T08:16:53Z</time>
      </trkpt>
      <trkpt lat="45.61002" lon="5.6902">
        <ele>465.42</ele>
        <time>2011-06-19T08:16:54Z</time>
      </trkpt>
      <trkpt lat="45.61009" lon="5.68996">
        <ele>463.97</ele>
        <time>2011-06-19T08:16:57Z</time>
      </trkpt>
      <trkpt lat="45.61016" lon="5.68977">
        <ele>463.97</ele>
        <time>2011-06-19T08:17:00Z</time>
      </trkpt>
      <trkpt lat="45.61023" lon="5.68965">
        <ele>463.49</ele>
        <time>2011-06-19T08:17:02Z</time>
      </trkpt>
      <trkpt lat="45.61026" lon="5.6896">
        <ele>463.01</ele>
        <time>2011-06-19T08:17:03Z</time>
      </trkpt>
      <trkpt lat="45.61029" lon="5.68954">
        <ele>463.49</ele>
        <time>2011-06-19T08:17:04Z</time>
      </trkpt>
      <trkpt lat="45.61043" lon="5.68927">
        <ele>464.45</ele>
        <time>2011-06-19T08:17:09Z</time>
      </trkpt>
      <trkpt lat="45.61068" lon="5.68888">
        <ele>467.82</ele>
        <time>2011-06-19T08:17:20Z</time>
      </trkpt>
      <trkpt lat="45.61091" lon="5.6886">
        <ele>467.82</ele>
        <time>2011-06-19T08:17:29Z</time>
      </trkpt>
      <trkpt lat="45.61097" lon="5.68849">
        <ele>467.34</ele>
        <time>2011-06-19T08:17:31Z</time>
      </trkpt>
      <trkpt lat="45.61104" lon="5.68837">
        <ele>466.38</ele>
        <time>2011-06-19T08:17:33Z</time>
      </trkpt>
      <trkpt lat="45.61124" lon="5.68783">
        <ele>467.82</ele>
        <time>2011-06-19T08:17:43Z</time>
      </trkpt>
      <trkpt lat="45.61142" lon="5.68747">
        <ele>470.22</ele>
        <time>2011-06-19T08:17:55Z</time>
      </trkpt>
      <trkpt lat="45.61149" lon="5.68715">
        <ele>473.11</ele>
        <time>2011-06-19T08:18:07Z</time>
      </trkpt>
      <trkpt lat="45.61154" lon="5.68677">
        <ele>475.51</ele>
        <time>2011-06-19T08:18:18Z</time>
      </trkpt>
      <trkpt lat="45.61179" lon="5.68603">
        <ele>475.03</ele>
        <time>2011-06-19T08:18:33Z</time>
      </trkpt>
      <trkpt lat="45.6119" lon="5.68575">
        <ele>474.55</ele>
        <time>2011-06-19T08:18:38Z</time>
      </trkpt>
      <trkpt lat="45.61217" lon="5.68517">
        <ele>473.59</ele>
        <time>2011-06-19T08:18:48Z</time>
      </trkpt>
      <trkpt lat="45.61236" lon="5.68468">
        <ele>472.63</ele>
        <time>2011-06-19T08:18:56Z</time>
      </trkpt>
      <trkpt lat="45.61243" lon="5.68451">
        <ele>473.11</ele>
        <time>2011-06-19T08:18:59Z</time>
      </trkpt>
      <trkpt lat="45.61245" lon="5.68444">
        <ele>472.63</ele>
        <time>2011-06-19T08:19:00Z</time>
      </trkpt>
      <trkpt lat="45.61247" lon="5.68437">
        <ele>472.14</ele>
        <time>2011-06-19T08:19:01Z</time>
      </trkpt>
      <trkpt lat="45.61256" lon="5.6839">
        <ele>468.3</ele>
        <time>2011-06-19T08:19:06Z</time>
      </trkpt>
      <trkpt lat="45.61264" lon="5.68357">
        <ele>465.42</ele>
        <time>2011-06-19T08:19:09Z</time>
      </trkpt>
      <trkpt lat="45.61267" lon="5.68349">
        <ele>464.93</ele>
        <time>2011-06-19T08:19:10Z</time>
      </trkpt>
      <trkpt lat="45.61269" lon="5.68341">
        <ele>464.45</ele>
        <time>2011-06-19T08:19:11Z</time>
      </trkpt>
      <trkpt lat="45.61272" lon="5.68336">
        <ele>463.97</ele>
        <time>2011-06-19T08:19:12Z</time>
      </trkpt>
      <trkpt lat="45.61276" lon="5.68334">
        <ele>463.97</ele>
        <time>2011-06-19T08:19:13Z</time>
      </trkpt>
      <trkpt lat="45.6128" lon="5.68333">
        <ele>464.45</ele>
        <time>2011-06-19T08:19:14Z</time>
      </trkpt>
      <trkpt lat="45.61284" lon="5.68332">
        <ele>464.93</ele>
        <time>2011-06-19T08:19:15Z</time>
      </trkpt>
      <trkpt lat="45.61287" lon="5.68332">
        <ele>465.42</ele>
        <time>2011-06-19T08:19:16Z</time>
      </trkpt>
      <trkpt lat="45.61314" lon="5.68341">
        <ele>468.3</ele>
        <time>2011-06-19T08:19:26Z</time>
      </trkpt>
      <trkpt lat="45.61345" lon="5.68367">
        <ele>471.66</ele>
        <time>2011-06-19T08:19:40Z</time>
      </trkpt>
      <trkpt lat="45.6136" lon="5.6838">
        <ele>474.07</ele>
        <time>2011-06-19T08:19:48Z</time>
      </trkpt>
      <trkpt lat="45.61373" lon="5.68387">
        <ele>475.99</ele>
        <time>2011-06-19T08:19:56Z</time>
      </trkpt>
      <trkpt lat="45.61374" lon="5.68388">
        <ele>476.47</ele>
        <time>2011-06-19T08:19:57Z</time>
      </trkpt>
      <trkpt lat="45.61375" lon="5.68389">
        <ele>476.47</ele>
        <time>2011-06-19T08:19:58Z</time>
      </trkpt>
      <trkpt lat="45.61377" lon="5.68391">
        <ele>476.47</ele>
        <time>2011-06-19T08:19:59Z</time>
      </trkpt>
      <trkpt lat="45.61377" lon="5.68391">
        <ele>476.95</ele>
        <time>2011-06-19T08:20:00Z</time>
      </trkpt>
      <trkpt lat="45.61388" lon="5.68399">
        <ele>479.84</ele>
        <time>2011-06-19T08:20:09Z</time>
      </trkpt>
      <trkpt lat="45.61395" lon="5.68401">
        <ele>480.8</ele>
        <time>2011-06-19T08:20:15Z</time>
      </trkpt>
      <trkpt lat="45.61396" lon="5.684">
        <ele>481.76</ele>
        <time>2011-06-19T08:20:16Z</time>
      </trkpt>
      <trkpt lat="45.61398" lon="5.684">
        <ele>481.76</ele>
        <time>2011-06-19T08:20:17Z</time>
      </trkpt>
      <trkpt lat="45.61399" lon="5.68401">
        <ele>481.76</ele>
        <time>2011-06-19T08:20:18Z</time>
      </trkpt>
      <trkpt lat="45.614" lon="5.68401">
        <ele>482.24</ele>
        <time>2011-06-19T08:20:19Z</time>
      </trkpt>
      <trkpt lat="45.61401" lon="5.68401">
        <ele>482.72</ele>
        <time>2011-06-19T08:20:20Z</time>
      </trkpt>
      <trkpt lat="45.61403" lon="5.684">
        <ele>482.72</ele>
        <time>2011-06-19T08:20:21Z</time>
      </trkpt>
      <trkpt lat="45.61405" lon="5.68399">
        <ele>483.2</ele>
        <time>2011-06-19T08:20:23Z</time>
      </trkpt>
      <trkpt lat="45.61406" lon="5.684">
        <ele>483.68</ele>
        <time>2011-06-19T08:20:24Z</time>
      </trkpt>
      <trkpt lat="45.61408" lon="5.684">
        <ele>484.16</ele>
        <time>2011-06-19T08:20:25Z</time>
      </trkpt>
      <trkpt lat="45.61409" lon="5.68401">
        <ele>484.16</ele>
        <time>2011-06-19T08:20:26Z</time>
      </trkpt>
      <trkpt lat="45.6141" lon="5.68401">
        <ele>484.64</ele>
        <time>2011-06-19T08:20:27Z</time>
      </trkpt>
      <trkpt lat="45.61412" lon="5.68401">
        <ele>485.12</ele>
        <time>2011-06-19T08:20:28Z</time>
      </trkpt>
      <trkpt lat="45.61413" lon="5.684">
        <ele>485.6</ele>
        <time>2011-06-19T08:20:29Z</time>
      </trkpt>
      <trkpt lat="45.61415" lon="5.68399">
        <ele>486.08</ele>
        <time>2011-06-19T08:20:31Z</time>
      </trkpt>
      <trkpt lat="45.61417" lon="5.68399">
        <ele>486.56</ele>
        <time>2011-06-19T08:20:32Z</time>
      </trkpt>
      <trkpt lat="45.61418" lon="5.68398">
        <ele>486.56</ele>
        <time>2011-06-19T08:20:33Z</time>
      </trkpt>
      <trkpt lat="45.61419" lon="5.68397">
        <ele>486.56</ele>
        <time>2011-06-19T08:20:34Z</time>
      </trkpt>
      <trkpt lat="45.6142" lon="5.68397">
        <ele>487.05</ele>
        <time>2011-06-19T08:20:35Z</time>
      </trkpt>
      <trkpt lat="45.61422" lon="5.68396">
        <ele>487.05</ele>
        <time>2011-06-19T08:20:36Z</time>
      </trkpt>
      <trkpt lat="45.61423" lon="5.68395">
        <ele>487.05</ele>
        <time>2011-06-19T08:20:37Z</time>
      </trkpt>
      <trkpt lat="45.61424" lon="5.68395">
        <ele>487.53</ele>
        <time>2011-06-19T08:20:38Z</time>
      </trkpt>
      <trkpt lat="45.61439" lon="5.68383">
        <ele>490.89</ele>
        <time>2011-06-19T08:20:51Z</time>
      </trkpt>
      <trkpt lat="45.61453" lon="5.68371">
        <ele>493.77</ele>
        <time>2011-06-19T08:21:03Z</time>
      </trkpt>
      <trkpt lat="45.6147" lon="5.6836">
        <ele>497.14</ele>
        <time>2011-06-19T08:21:17Z</time>
      </trkpt>
      <trkpt lat="45.61496" lon="5.68365">
        <ele>500.02</ele>
        <time>2011-06-19T08:21:34Z</time>
      </trkpt>
      <trkpt lat="45.61513" lon="5.68373">
        <ele>502.91</ele>
        <time>2011-06-19T08:21:46Z</time>
      </trkpt>
      <trkpt lat="45.61517" lon="5.68375">
        <ele>503.87</ele>
        <time>2011-06-19T08:21:50Z</time>
      </trkpt>
      <trkpt lat="45.61533" lon="5.68378">
        <ele>506.75</ele>
        <time>2011-06-19T08:22:01Z</time>
      </trkpt>
      <trkpt lat="45.61544" lon="5.68384">
        <ele>510.12</ele>
        <time>2011-06-19T08:22:12Z</time>
      </trkpt>
      <trkpt lat="45.61548" lon="5.6839">
        <ele>511.56</ele>
        <time>2011-06-19T08:22:18Z</time>
      </trkpt>
      <trkpt lat="45.61549" lon="5.68392">
        <ele>512.04</ele>
        <time>2011-06-19T08:22:19Z</time>
      </trkpt>
      <trkpt lat="45.61549" lon="5.68393">
        <ele>512.04</ele>
        <time>2011-06-19T08:22:20Z</time>
      </trkpt>
      <trkpt lat="45.6155" lon="5.68394">
        <ele>512.52</ele>
        <time>2011-06-19T08:22:21Z</time>
      </trkpt>
      <trkpt lat="45.61552" lon="5.68396">
        <ele>513</ele>
        <time>2011-06-19T08:22:23Z</time>
      </trkpt>
      <trkpt lat="45.61552" lon="5.68397">
        <ele>513.48</ele>
        <time>2011-06-19T08:22:24Z</time>
      </trkpt>
      <trkpt lat="45.61554" lon="5.68398">
        <ele>514.44</ele>
        <time>2011-06-19T08:22:25Z</time>
      </trkpt>
      <trkpt lat="45.61554" lon="5.68399">
        <ele>514.44</ele>
        <time>2011-06-19T08:22:26Z</time>
      </trkpt>
      <trkpt lat="45.61556" lon="5.68399">
        <ele>513.96</ele>
        <time>2011-06-19T08:22:27Z</time>
      </trkpt>
      <trkpt lat="45.61557" lon="5.68399">
        <ele>514.44</ele>
        <time>2011-06-19T08:22:28Z</time>
      </trkpt>
      <trkpt lat="45.61558" lon="5.684">
        <ele>514.92</ele>
        <time>2011-06-19T08:22:29Z</time>
      </trkpt>
      <trkpt lat="45.61559" lon="5.68403">
        <ele>515.88</ele>
        <time>2011-06-19T08:22:31Z</time>
      </trkpt>
      <trkpt lat="45.61559" lon="5.68404">
        <ele>515.88</ele>
        <time>2011-06-19T08:22:32Z</time>
      </trkpt>
      <trkpt lat="45.61561" lon="5.68406">
        <ele>516.37</ele>
        <time>2011-06-19T08:22:34Z</time>
      </trkpt>
      <trkpt lat="45.61575" lon="5.68407">
        <ele>519.73</ele>
        <time>2011-06-19T08:22:46Z</time>
      </trkpt>
      <trkpt lat="45.61577" lon="5.68408">
        <ele>519.73</ele>
        <time>2011-06-19T08:22:47Z</time>
      </trkpt>
      <trkpt lat="45.61578" lon="5.68407">
        <ele>519.73</ele>
        <time>2011-06-19T08:22:48Z</time>
      </trkpt>
      <trkpt lat="45.61579" lon="5.68407">
        <ele>519.73</ele>
        <time>2011-06-19T08:22:49Z</time>
      </trkpt>
      <trkpt lat="45.6158" lon="5.68406">
        <ele>519.73</ele>
        <time>2011-06-19T08:22:50Z</time>
      </trkpt>
      <trkpt lat="45.61582" lon="5.68405">
        <ele>520.21</ele>
        <time>2011-06-19T08:22:51Z</time>
      </trkpt>
      <trkpt lat="45.61583" lon="5.68405">
        <ele>520.21</ele>
        <time>2011-06-19T08:22:52Z</time>
      </trkpt>
      <trkpt lat="45.61585" lon="5.68404">
        <ele>520.21</ele>
        <time>2011-06-19T08:22:53Z</time>
      </trkpt>
      <trkpt lat="45.61607" lon="5.68386">
        <ele>522.13</ele>
        <time>2011-06-19T08:23:07Z</time>
      </trkpt>
      <trkpt lat="45.61627" lon="5.68377">
        <ele>525.02</ele>
        <time>2011-06-19T08:23:19Z</time>
      </trkpt>
      <trkpt lat="45.61652" lon="5.68369">
        <ele>527.9</ele>
        <time>2011-06-19T08:23:34Z</time>
      </trkpt>
      <trkpt lat="45.61663" lon="5.68365">
        <ele>529.34</ele>
        <time>2011-06-19T08:23:41Z</time>
      </trkpt>
      <trkpt lat="45.61664" lon="5.68365">
        <ele>528.86</ele>
        <time>2011-06-19T08:23:42Z</time>
      </trkpt>
      <trkpt lat="45.61666" lon="5.68364">
        <ele>529.34</ele>
        <time>2011-06-19T08:23:43Z</time>
      </trkpt>
      <trkpt lat="45.61672" lon="5.68363">
        <ele>530.79</ele>
        <time>2011-06-19T08:23:47Z</time>
      </trkpt>
      <trkpt lat="45.61691" lon="5.68357">
        <ele>533.19</ele>
        <time>2011-06-19T08:24:00Z</time>
      </trkpt>
      <trkpt lat="45.61696" lon="5.68357">
        <ele>534.63</ele>
        <time>2011-06-19T08:24:04Z</time>
      </trkpt>
      <trkpt lat="45.61708" lon="5.68357">
        <ele>537.51</ele>
        <time>2011-06-19T08:24:15Z</time>
      </trkpt>
      <trkpt lat="45.61718" lon="5.6836">
        <ele>539.92</ele>
        <time>2011-06-19T08:24:25Z</time>
      </trkpt>
      <trkpt lat="45.6172" lon="5.68361">
        <ele>540.4</ele>
        <time>2011-06-19T08:24:27Z</time>
      </trkpt>
      <trkpt lat="45.61721" lon="5.68361">
        <ele>540.4</ele>
        <time>2011-06-19T08:24:28Z</time>
      </trkpt>
      <trkpt lat="45.61723" lon="5.68361">
        <ele>540.88</ele>
        <time>2011-06-19T08:24:29Z</time>
      </trkpt>
      <trkpt lat="45.61725" lon="5.68361">
        <ele>540.88</ele>
        <time>2011-06-19T08:24:31Z</time>
      </trkpt>
      <trkpt lat="45.61727" lon="5.6836">
        <ele>541.84</ele>
        <time>2011-06-19T08:24:33Z</time>
      </trkpt>
      <trkpt lat="45.61742" lon="5.68362">
        <ele>545.2</ele>
        <time>2011-06-19T08:24:47Z</time>
      </trkpt>
      <trkpt lat="45.61743" lon="5.68362">
        <ele>544.72</ele>
        <time>2011-06-19T08:24:48Z</time>
      </trkpt>
      <trkpt lat="45.61747" lon="5.68361">
        <ele>545.69</ele>
        <time>2011-06-19T08:24:55Z</time>
      </trkpt>
      <trkpt lat="45.61748" lon="5.68361">
        <ele>546.17</ele>
        <time>2011-06-19T08:24:56Z</time>
      </trkpt>
      <trkpt lat="45.61753" lon="5.68362">
        <ele>547.61</ele>
        <time>2011-06-19T08:25:01Z</time>
      </trkpt>
      <trkpt lat="45.61765" lon="5.68363">
        <ele>550.01</ele>
        <time>2011-06-19T08:25:16Z</time>
      </trkpt>
      <trkpt lat="45.61777" lon="5.68365">
        <ele>553.38</ele>
        <time>2011-06-19T08:25:29Z</time>
      </trkpt>
      <trkpt lat="45.61791" lon="5.68369">
        <ele>556.26</ele>
        <time>2011-06-19T08:25:45Z</time>
      </trkpt>
      <trkpt lat="45.61805" lon="5.6837">
        <ele>559.62</ele>
        <time>2011-06-19T08:26:01Z</time>
      </trkpt>
      <trkpt lat="45.61807" lon="5.68371">
        <ele>560.59</ele>
        <time>2011-06-19T08:26:03Z</time>
      </trkpt>
      <trkpt lat="45.6182" lon="5.68369">
        <ele>562.51</ele>
        <time>2011-06-19T08:26:16Z</time>
      </trkpt>
      <trkpt lat="45.61831" lon="5.68367">
        <ele>565.39</ele>
        <time>2011-06-19T08:26:30Z</time>
      </trkpt>
      <trkpt lat="45.61843" lon="5.68367">
        <ele>568.76</ele>
        <time>2011-06-19T08:26:43Z</time>
      </trkpt>
      <trkpt lat="45.61852" lon="5.68363">
        <ele>570.68</ele>
        <time>2011-06-19T08:26:56Z</time>
      </trkpt>
      <trkpt lat="45.61853" lon="5.68367">
        <ele>571.16</ele>
        <time>2011-06-19T08:26:59Z</time>
      </trkpt>
      <trkpt lat="45.61847" lon="5.68386">
        <ele>574.04</ele>
        <time>2011-06-19T08:27:15Z</time>
      </trkpt>
      <trkpt lat="45.6184" lon="5.684">
        <ele>575.97</ele>
        <time>2011-06-19T08:27:30Z</time>
      </trkpt>
      <trkpt lat="45.61849" lon="5.68403">
        <ele>578.85</ele>
        <time>2011-06-19T08:27:45Z</time>
      </trkpt>
      <trkpt lat="45.6186" lon="5.68403">
        <ele>581.73</ele>
        <time>2011-06-19T08:28:00Z</time>
      </trkpt>
      <trkpt lat="45.61872" lon="5.68399">
        <ele>584.14</ele>
        <time>2011-06-19T08:28:15Z</time>
      </trkpt>
      <trkpt lat="45.61887" lon="5.68402">
        <ele>586.54</ele>
        <time>2011-06-19T08:28:29Z</time>
      </trkpt>
      <trkpt lat="45.61903" lon="5.68407">
        <ele>589.43</ele>
        <time>2011-06-19T08:28:45Z</time>
      </trkpt>
      <trkpt lat="45.61906" lon="5.68408">
        <ele>590.39</ele>
        <time>2011-06-19T08:28:49Z</time>
      </trkpt>
      <trkpt lat="45.61916" lon="5.6841">
        <ele>592.31</ele>
        <time>2011-06-19T08:29:02Z</time>
      </trkpt>
      <trkpt lat="45.61926" lon="5.68413">
        <ele>594.71</ele>
        <time>2011-06-19T08:29:15Z</time>
      </trkpt>
      <trkpt lat="45.61938" lon="5.68415">
        <ele>597.6</ele>
        <time>2011-06-19T08:29:30Z</time>
      </trkpt>
      <trkpt lat="45.6195" lon="5.68409">
        <ele>600.48</ele>
        <time>2011-06-19T08:29:46Z</time>
      </trkpt>
      <trkpt lat="45.61951" lon="5.68407">
        <ele>600.48</ele>
        <time>2011-06-19T08:29:52Z</time>
      </trkpt>
      <trkpt lat="45.61967" lon="5.68393">
        <ele>602.4</ele>
        <time>2011-06-19T08:30:05Z</time>
      </trkpt>
      <trkpt lat="45.61987" lon="5.68386">
        <ele>604.81</ele>
        <time>2011-06-19T08:30:18Z</time>
      </trkpt>
      <trkpt lat="45.62008" lon="5.68384">
        <ele>606.73</ele>
        <time>2011-06-19T08:30:31Z</time>
      </trkpt>
      <trkpt lat="45.6204" lon="5.68374">
        <ele>608.65</ele>
        <time>2011-06-19T08:30:46Z</time>
      </trkpt>
      <trkpt lat="45.62066" lon="5.6837">
        <ele>610.09</ele>
        <time>2011-06-19T08:30:58Z</time>
      </trkpt>
      <trkpt lat="45.62088" lon="5.68373">
        <ele>613.46</ele>
        <time>2011-06-19T08:31:10Z</time>
      </trkpt>
      <trkpt lat="45.62103" lon="5.6837">
        <ele>614.9</ele>
        <time>2011-06-19T08:31:22Z</time>
      </trkpt>
      <trkpt lat="45.62124" lon="5.68364">
        <ele>616.82</ele>
        <time>2011-06-19T08:31:36Z</time>
      </trkpt>
      <trkpt lat="45.62143" lon="5.68363">
        <ele>619.23</ele>
        <time>2011-06-19T08:31:50Z</time>
      </trkpt>
      <trkpt lat="45.62153" lon="5.68361">
        <ele>621.63</ele>
        <time>2011-06-19T08:32:04Z</time>
      </trkpt>
      <trkpt lat="45.62164" lon="5.68364">
        <ele>624.51</ele>
        <time>2011-06-19T08:32:19Z</time>
      </trkpt>
      <trkpt lat="45.62164" lon="5.68364">
        <ele>624.51</ele>
        <time>2011-06-19T08:32:20Z</time>
      </trkpt>
      <trkpt lat="45.62175" lon="5.68365">
        <ele>626.92</ele>
        <time>2011-06-19T08:32:35Z</time>
      </trkpt>
      <trkpt lat="45.62185" lon="5.68367">
        <ele>629.8</ele>
        <time>2011-06-19T08:32:48Z</time>
      </trkpt>
      <trkpt lat="45.62199" lon="5.68373">
        <ele>632.2</ele>
        <time>2011-06-19T08:33:05Z</time>
      </trkpt>
      <trkpt lat="45.622" lon="5.68374">
        <ele>633.17</ele>
        <time>2011-06-19T08:33:17Z</time>
      </trkpt>
      <trkpt lat="45.62217" lon="5.68378">
        <ele>635.09</ele>
        <time>2011-06-19T08:33:29Z</time>
      </trkpt>
      <trkpt lat="45.62243" lon="5.68387">
        <ele>637.01</ele>
        <time>2011-06-19T08:33:44Z</time>
      </trkpt>
      <trkpt lat="45.62269" lon="5.6839">
        <ele>638.45</ele>
        <time>2011-06-19T08:33:58Z</time>
      </trkpt>
      <trkpt lat="45.6229" lon="5.68397">
        <ele>641.82</ele>
        <time>2011-06-19T08:34:13Z</time>
      </trkpt>
      <trkpt lat="45.62294" lon="5.68398">
        <ele>642.78</ele>
        <time>2011-06-19T08:34:16Z</time>
      </trkpt>
      <trkpt lat="45.62308" lon="5.68403">
        <ele>645.18</ele>
        <time>2011-06-19T08:34:31Z</time>
      </trkpt>
      <trkpt lat="45.6232" lon="5.68403">
        <ele>648.07</ele>
        <time>2011-06-19T08:34:46Z</time>
      </trkpt>
      <trkpt lat="45.62322" lon="5.68404">
        <ele>647.59</ele>
        <time>2011-06-19T08:34:48Z</time>
      </trkpt>
      <trkpt lat="45.62325" lon="5.68402">
        <ele>649.03</ele>
        <time>2011-06-19T08:34:51Z</time>
      </trkpt>
      <trkpt lat="45.62331" lon="5.684">
        <ele>649.99</ele>
        <time>2011-06-19T08:34:59Z</time>
      </trkpt>
      <trkpt lat="45.62333" lon="5.68399">
        <ele>650.47</ele>
        <time>2011-06-19T08:35:01Z</time>
      </trkpt>
      <trkpt lat="45.62343" lon="5.68399">
        <ele>652.39</ele>
        <time>2011-06-19T08:35:13Z</time>
      </trkpt>
      <trkpt lat="45.62345" lon="5.68401">
        <ele>653.35</ele>
        <time>2011-06-19T08:35:16Z</time>
      </trkpt>
      <trkpt lat="45.6236" lon="5.68404">
        <ele>655.76</ele>
        <time>2011-06-19T08:35:32Z</time>
      </trkpt>
      <trkpt lat="45.6236" lon="5.68404">
        <ele>656.24</ele>
        <time>2011-06-19T08:35:37Z</time>
      </trkpt>
      <trkpt lat="45.62367" lon="5.68406">
        <ele>656.24</ele>
        <time>2011-06-19T08:35:42Z</time>
      </trkpt>
      <trkpt lat="45.62396" lon="5.68422">
        <ele>658.64</ele>
        <time>2011-06-19T08:35:59Z</time>
      </trkpt>
      <trkpt lat="45.62419" lon="5.6844">
        <ele>660.56</ele>
        <time>2011-06-19T08:36:12Z</time>
      </trkpt>
      <trkpt lat="45.62433" lon="5.68476">
        <ele>660.08</ele>
        <time>2011-06-19T08:36:24Z</time>
      </trkpt>
      <trkpt lat="45.62423" lon="5.68528">
        <ele>661.04</ele>
        <time>2011-06-19T08:36:37Z</time>
      </trkpt>
      <trkpt lat="45.62415" lon="5.68549">
        <ele>663.93</ele>
        <time>2011-06-19T08:36:49Z</time>
      </trkpt>
      <trkpt lat="45.62408" lon="5.68564">
        <ele>665.37</ele>
        <time>2011-06-19T08:36:58Z</time>
      </trkpt>
      <trkpt lat="45.62405" lon="5.68571">
        <ele>665.37</ele>
        <time>2011-06-19T08:37:03Z</time>
      </trkpt>
      <trkpt lat="45.62396" lon="5.68598">
        <ele>667.77</ele>
        <time>2011-06-19T08:37:16Z</time>
      </trkpt>
      <trkpt lat="45.62386" lon="5.68622">
        <ele>670.18</ele>
        <time>2011-06-19T08:37:30Z</time>
      </trkpt>
      <trkpt lat="45.62384" lon="5.68625">
        <ele>670.66</ele>
        <time>2011-06-19T08:37:32Z</time>
      </trkpt>
      <trkpt lat="45.62384" lon="5.68647">
        <ele>672.1</ele>
        <time>2011-06-19T08:37:43Z</time>
      </trkpt>
      <trkpt lat="45.62384" lon="5.68683">
        <ele>674.98</ele>
        <time>2011-06-19T08:37:58Z</time>
      </trkpt>
      <trkpt lat="45.62387" lon="5.68713">
        <ele>676.42</ele>
        <time>2011-06-19T08:38:11Z</time>
      </trkpt>
      <trkpt lat="45.62388" lon="5.68739">
        <ele>678.35</ele>
        <time>2011-06-19T08:38:23Z</time>
      </trkpt>
      <trkpt lat="45.62387" lon="5.68747">
        <ele>679.31</ele>
        <time>2011-06-19T08:38:28Z</time>
      </trkpt>
      <trkpt lat="45.62386" lon="5.68755">
        <ele>679.79</ele>
        <time>2011-06-19T08:38:32Z</time>
      </trkpt>
      <trkpt lat="45.62387" lon="5.68786">
        <ele>682.67</ele>
        <time>2011-06-19T08:38:46Z</time>
      </trkpt>
      <trkpt lat="45.62393" lon="5.68825">
        <ele>683.63</ele>
        <time>2011-06-19T08:38:59Z</time>
      </trkpt>
      <trkpt lat="45.62395" lon="5.68877">
        <ele>685.08</ele>
        <time>2011-06-19T08:39:12Z</time>
      </trkpt>
      <trkpt lat="45.62407" lon="5.68927">
        <ele>686.04</ele>
        <time>2011-06-19T08:39:25Z</time>
      </trkpt>
      <trkpt lat="45.62432" lon="5.68926">
        <ele>687.96</ele>
        <time>2011-06-19T08:39:36Z</time>
      </trkpt>
      <trkpt lat="45.62449" lon="5.68919">
        <ele>690.36</ele>
        <time>2011-06-19T08:39:48Z</time>
      </trkpt>
      <trkpt lat="45.62468" lon="5.68908">
        <ele>692.77</ele>
        <time>2011-06-19T08:40:01Z</time>
      </trkpt>
      <trkpt lat="45.62487" lon="5.68898">
        <ele>695.65</ele>
        <time>2011-06-19T08:40:14Z</time>
      </trkpt>
      <trkpt lat="45.62505" lon="5.68891">
        <ele>699.02</ele>
        <time>2011-06-19T08:40:27Z</time>
      </trkpt>
      <trkpt lat="45.62506" lon="5.68892">
        <ele>699.02</ele>
        <time>2011-06-19T08:40:28Z</time>
      </trkpt>
      <trkpt lat="45.6251" lon="5.68889">
        <ele>700.46</ele>
        <time>2011-06-19T08:40:32Z</time>
      </trkpt>
      <trkpt lat="45.62516" lon="5.68882">
        <ele>701.9</ele>
        <time>2011-06-19T08:40:37Z</time>
      </trkpt>
      <trkpt lat="45.62523" lon="5.68873">
        <ele>702.86</ele>
        <time>2011-06-19T08:40:44Z</time>
      </trkpt>
      <trkpt lat="45.62545" lon="5.68866">
        <ele>705.75</ele>
        <time>2011-06-19T08:41:01Z</time>
      </trkpt>
      <trkpt lat="45.62571" lon="5.68863">
        <ele>708.15</ele>
        <time>2011-06-19T08:41:16Z</time>
      </trkpt>
      <trkpt lat="45.62598" lon="5.68867">
        <ele>710.07</ele>
        <time>2011-06-19T08:41:30Z</time>
      </trkpt>
      <trkpt lat="45.6263" lon="5.68871">
        <ele>711.99</ele>
        <time>2011-06-19T08:41:46Z</time>
      </trkpt>
      <trkpt lat="45.62658" lon="5.68875">
        <ele>715.36</ele>
        <time>2011-06-19T08:42:02Z</time>
      </trkpt>
      <trkpt lat="45.627" lon="5.68874">
        <ele>715.84</ele>
        <time>2011-06-19T08:42:18Z</time>
      </trkpt>
      <trkpt lat="45.6272" lon="5.68876">
        <ele>718.72</ele>
        <time>2011-06-19T08:42:28Z</time>
      </trkpt>
      <trkpt lat="45.62753" lon="5.68889">
        <ele>721.13</ele>
        <time>2011-06-19T08:42:44Z</time>
      </trkpt>
      <trkpt lat="45.62792" lon="5.68911">
        <ele>719.68</ele>
        <time>2011-06-19T08:42:55Z</time>
      </trkpt>
      <trkpt lat="45.62817" lon="5.68925">
        <ele>719.2</ele>
        <time>2011-06-19T08:43:02Z</time>
      </trkpt>
      <trkpt lat="45.6282" lon="5.68929">
        <ele>718.72</ele>
        <time>2011-06-19T08:43:03Z</time>
      </trkpt>
      <trkpt lat="45.62822" lon="5.68934">
        <ele>719.2</ele>
        <time>2011-06-19T08:43:04Z</time>
      </trkpt>
      <trkpt lat="45.6283" lon="5.68955">
        <ele>719.68</ele>
        <time>2011-06-19T08:43:08Z</time>
      </trkpt>
      <trkpt lat="45.62865" lon="5.69004">
        <ele>719.68</ele>
        <time>2011-06-19T08:43:19Z</time>
      </trkpt>
      <trkpt lat="45.62868" lon="5.69008">
        <ele>720.16</ele>
        <time>2011-06-19T08:43:20Z</time>
      </trkpt>
      <trkpt lat="45.62894" lon="5.69063">
        <ele>718.24</ele>
        <time>2011-06-19T08:43:30Z</time>
      </trkpt>
      <trkpt lat="45.62904" lon="5.69094">
        <ele>717.76</ele>
        <time>2011-06-19T08:43:34Z</time>
      </trkpt>
      <trkpt lat="45.62907" lon="5.69101">
        <ele>718.24</ele>
        <time>2011-06-19T08:43:35Z</time>
      </trkpt>
      <trkpt lat="45.62913" lon="5.69113">
        <ele>718.72</ele>
        <time>2011-06-19T08:43:37Z</time>
      </trkpt>
      <trkpt lat="45.62915" lon="5.69119">
        <ele>718.72</ele>
        <time>2011-06-19T08:43:38Z</time>
      </trkpt>
      <trkpt lat="45.62917" lon="5.69126">
        <ele>718.72</ele>
        <time>2011-06-19T08:43:39Z</time>
      </trkpt>
      <trkpt lat="45.6292" lon="5.69133">
        <ele>718.72</ele>
        <time>2011-06-19T08:43:40Z</time>
      </trkpt>
      <trkpt lat="45.62923" lon="5.69139">
        <ele>718.72</ele>
        <time>2011-06-19T08:43:41Z</time>
      </trkpt>
      <trkpt lat="45.62926" lon="5.69145">
        <ele>718.24</ele>
        <time>2011-06-19T08:43:42Z</time>
      </trkpt>
      <trkpt lat="45.6293" lon="5.69151">
        <ele>717.76</ele>
        <time>2011-06-19T08:43:43Z</time>
      </trkpt>
      <trkpt lat="45.62935" lon="5.69158">
        <ele>717.28</ele>
        <time>2011-06-19T08:43:44Z</time>
      </trkpt>
      <trkpt lat="45.62939" lon="5.69166">
        <ele>716.8</ele>
        <time>2011-06-19T08:43:45Z</time>
      </trkpt>
      <trkpt lat="45.62943" lon="5.69173">
        <ele>716.8</ele>
        <time>2011-06-19T08:43:46Z</time>
      </trkpt>
      <trkpt lat="45.62959" lon="5.69205">
        <ele>717.28</ele>
        <time>2011-06-19T08:43:51Z</time>
      </trkpt>
      <trkpt lat="45.62963" lon="5.6921">
        <ele>717.76</ele>
        <time>2011-06-19T08:43:52Z</time>
      </trkpt>
      <trkpt lat="45.62967" lon="5.69213">
        <ele>717.76</ele>
        <time>2011-06-19T08:43:53Z</time>
      </trkpt>
      <trkpt lat="45.62982" lon="5.69225">
        <ele>719.68</ele>
        <time>2011-06-19T08:43:58Z</time>
      </trkpt>
      <trkpt lat="45.6301" lon="5.69264">
        <ele>720.16</ele>
        <time>2011-06-19T08:44:10Z</time>
      </trkpt>
      <trkpt lat="45.63011" lon="5.69267">
        <ele>720.16</ele>
        <time>2011-06-19T08:44:12Z</time>
      </trkpt>
      <trkpt lat="45.63011" lon="5.69268">
        <ele>720.16</ele>
        <time>2011-06-19T08:44:13Z</time>
      </trkpt>
      <trkpt lat="45.6301" lon="5.69268">
        <ele>720.16</ele>
        <time>2011-06-19T08:44:14Z</time>
      </trkpt>
      <trkpt lat="45.63009" lon="5.69267">
        <ele>720.16</ele>
        <time>2011-06-19T08:44:15Z</time>
      </trkpt>
      <trkpt lat="45.63009" lon="5.69265">
        <ele>720.16</ele>
        <time>2011-06-19T08:44:16Z</time>
      </trkpt>
      <trkpt lat="45.63021" lon="5.69231">
        <ele>720.65</ele>
        <time>2011-06-19T08:44:27Z</time>
      </trkpt>
      <trkpt lat="45.63045" lon="5.69187">
        <ele>719.68</ele>
        <time>2011-06-19T08:44:36Z</time>
      </trkpt>
      <trkpt lat="45.63048" lon="5.6918">
        <ele>719.2</ele>
        <time>2011-06-19T08:44:37Z</time>
      </trkpt>
      <trkpt lat="45.631" lon="5.69108">
        <ele>719.2</ele>
        <time>2011-06-19T08:44:50Z</time>
      </trkpt>
      <trkpt lat="45.63113" lon="5.69093">
        <ele>718.72</ele>
        <time>2011-06-19T08:44:53Z</time>
      </trkpt>
      <trkpt lat="45.63118" lon="5.69088">
        <ele>719.2</ele>
        <time>2011-06-19T08:44:54Z</time>
      </trkpt>
      <trkpt lat="45.63123" lon="5.69085">
        <ele>718.72</ele>
        <time>2011-06-19T08:44:55Z</time>
      </trkpt>
      <trkpt lat="45.63128" lon="5.69082">
        <ele>719.2</ele>
        <time>2011-06-19T08:44:56Z</time>
      </trkpt>
      <trkpt lat="45.63132" lon="5.6908">
        <ele>719.68</ele>
        <time>2011-06-19T08:44:57Z</time>
      </trkpt>
      <trkpt lat="45.63136" lon="5.69077">
        <ele>719.68</ele>
        <time>2011-06-19T08:44:58Z</time>
      </trkpt>
      <trkpt lat="45.6314" lon="5.69074">
        <ele>720.16</ele>
        <time>2011-06-19T08:44:59Z</time>
      </trkpt>
      <trkpt lat="45.63182" lon="5.69026">
        <ele>721.61</ele>
        <time>2011-06-19T08:45:13Z</time>
      </trkpt>
      <trkpt lat="45.63191" lon="5.69008">
        <ele>719.68</ele>
        <time>2011-06-19T08:45:16Z</time>
      </trkpt>
      <trkpt lat="45.63205" lon="5.68979">
        <ele>720.16</ele>
        <time>2011-06-19T08:45:21Z</time>
      </trkpt>
      <trkpt lat="45.63208" lon="5.68975">
        <ele>719.2</ele>
        <time>2011-06-19T08:45:22Z</time>
      </trkpt>
      <trkpt lat="45.6321" lon="5.6897">
        <ele>719.2</ele>
        <time>2011-06-19T08:45:23Z</time>
      </trkpt>
      <trkpt lat="45.63237" lon="5.689">
        <ele>715.84</ele>
        <time>2011-06-19T08:45:34Z</time>
      </trkpt>
      <trkpt lat="45.63259" lon="5.68845">
        <ele>715.84</ele>
        <time>2011-06-19T08:45:43Z</time>
      </trkpt>
      <trkpt lat="45.63276" lon="5.68838">
        <ele>716.32</ele>
        <time>2011-06-19T08:45:53Z</time>
      </trkpt>
      <trkpt lat="45.63276" lon="5.68838">
        <ele>715.84</ele>
        <time>2011-06-19T08:46:03Z</time>
      </trkpt>
      <trkpt lat="45.63276" lon="5.68838">
        <ele>715.84</ele>
        <time>2011-06-19T08:46:36Z</time>
      </trkpt>
      <trkpt lat="45.63276" lon="5.68838">
        <ele>715.84</ele>
        <time>2011-06-19T08:47:11Z</time>
      </trkpt>
      <trkpt lat="45.63276" lon="5.68838">
        <ele>715.84</ele>
        <time>2011-06-19T08:47:43Z</time>
      </trkpt>
      <trkpt lat="45.63276" lon="5.68838">
        <ele>716.32</ele>
        <time>2011-06-19T08:48:19Z</time>
      </trkpt>
      <trkpt lat="45.63276" lon="5.68838">
        <ele>715.84</ele>
        <time>2011-06-19T08:48:51Z</time>
      </trkpt>
      <trkpt lat="45.63276" lon="5.68838">
        <ele>716.32</ele>
        <time>2011-06-19T08:49:27Z</time>
      </trkpt>
      <trkpt lat="45.63276" lon="5.68838">
        <ele>716.8</ele>
        <time>2011-06-19T08:50:05Z</time>
      </trkpt>
      <trkpt lat="45.63277" lon="5.68839">
        <ele>716.8</ele>
        <time>2011-06-19T08:50:36Z</time>
      </trkpt>
      <trkpt lat="45.63277" lon="5.68839">
        <ele>716.8</ele>
        <time>2011-06-19T08:51:15Z</time>
      </trkpt>
      <trkpt lat="45.63275" lon="5.68838">
        <ele>716.8</ele>
        <time>2011-06-19T08:51:29Z</time>
      </trkpt>
      <trkpt lat="45.63274" lon="5.68838">
        <ele>716.8</ele>
        <time>2011-06-19T08:51:41Z</time>
      </trkpt>
      <trkpt lat="45.63261" lon="5.68851">
        <ele>717.28</ele>
        <time>2011-06-19T08:51:52Z</time>
      </trkpt>
      <trkpt lat="45.63247" lon="5.6887">
        <ele>716.32</ele>
        <time>2011-06-19T08:51:58Z</time>
      </trkpt>
      <trkpt lat="45.63245" lon="5.68875">
        <ele>715.84</ele>
        <time>2011-06-19T08:51:59Z</time>
      </trkpt>
      <trkpt lat="45.63232" lon="5.68909">
        <ele>718.24</ele>
        <time>2011-06-19T08:52:10Z</time>
      </trkpt>
      <trkpt lat="45.63231" lon="5.68912">
        <ele>717.76</ele>
        <time>2011-06-19T08:52:11Z</time>
      </trkpt>
      <trkpt lat="45.63215" lon="5.68956">
        <ele>719.2</ele>
        <time>2011-06-19T08:52:26Z</time>
      </trkpt>
      <trkpt lat="45.63198" lon="5.68994">
        <ele>720.65</ele>
        <time>2011-06-19T08:52:40Z</time>
      </trkpt>
      <trkpt lat="45.63176" lon="5.69039">
        <ele>723.05</ele>
        <time>2011-06-19T08:52:57Z</time>
      </trkpt>
      <trkpt lat="45.63133" lon="5.69081">
        <ele>721.13</ele>
        <time>2011-06-19T08:53:12Z</time>
      </trkpt>
      <trkpt lat="45.63128" lon="5.69084">
        <ele>721.13</ele>
        <time>2011-06-19T08:53:13Z</time>
      </trkpt>
      <trkpt lat="45.63122" lon="5.69086">
        <ele>720.65</ele>
        <time>2011-06-19T08:53:14Z</time>
      </trkpt>
      <trkpt lat="45.63117" lon="5.69089">
        <ele>720.16</ele>
        <time>2011-06-19T08:53:15Z</time>
      </trkpt>
      <trkpt lat="45.63113" lon="5.69094">
        <ele>720.16</ele>
        <time>2011-06-19T08:53:16Z</time>
      </trkpt>
      <trkpt lat="45.63108" lon="5.69098">
        <ele>720.16</ele>
        <time>2011-06-19T08:53:17Z</time>
      </trkpt>
      <trkpt lat="45.63067" lon="5.69151">
        <ele>720.16</ele>
        <time>2011-06-19T08:53:28Z</time>
      </trkpt>
      <trkpt lat="45.63026" lon="5.69224">
        <ele>722.09</ele>
        <time>2011-06-19T08:53:43Z</time>
      </trkpt>
      <trkpt lat="45.63023" lon="5.69228">
        <ele>721.61</ele>
        <time>2011-06-19T08:53:44Z</time>
      </trkpt>
      <trkpt lat="45.63011" lon="5.69247">
        <ele>721.13</ele>
        <time>2011-06-19T08:53:48Z</time>
      </trkpt>
      <trkpt lat="45.63009" lon="5.69253">
        <ele>721.13</ele>
        <time>2011-06-19T08:53:49Z</time>
      </trkpt>
      <trkpt lat="45.63009" lon="5.69259">
        <ele>721.13</ele>
        <time>2011-06-19T08:53:50Z</time>
      </trkpt>
      <trkpt lat="45.6301" lon="5.69265">
        <ele>721.13</ele>
        <time>2011-06-19T08:53:51Z</time>
      </trkpt>
      <trkpt lat="45.63012" lon="5.69271">
        <ele>721.61</ele>
        <time>2011-06-19T08:53:52Z</time>
      </trkpt>
      <trkpt lat="45.63015" lon="5.69276">
        <ele>721.13</ele>
        <time>2011-06-19T08:53:53Z</time>
      </trkpt>
      <trkpt lat="45.63018" lon="5.69281">
        <ele>721.61</ele>
        <time>2011-06-19T08:53:54Z</time>
      </trkpt>
      <trkpt lat="45.63046" lon="5.6933">
        <ele>724.49</ele>
        <time>2011-06-19T08:54:06Z</time>
      </trkpt>
      <trkpt lat="45.63052" lon="5.69359">
        <ele>724.97</ele>
        <time>2011-06-19T08:54:12Z</time>
      </trkpt>
      <trkpt lat="45.6305" lon="5.69366">
        <ele>724.01</ele>
        <time>2011-06-19T08:54:13Z</time>
      </trkpt>
      <trkpt lat="45.63048" lon="5.69374">
        <ele>723.05</ele>
        <time>2011-06-19T08:54:14Z</time>
      </trkpt>
      <trkpt lat="45.63045" lon="5.69382">
        <ele>722.57</ele>
        <time>2011-06-19T08:54:15Z</time>
      </trkpt>
      <trkpt lat="45.63041" lon="5.6939">
        <ele>721.61</ele>
        <time>2011-06-19T08:54:16Z</time>
      </trkpt>
      <trkpt lat="45.63035" lon="5.69396">
        <ele>721.13</ele>
        <time>2011-06-19T08:54:17Z</time>
      </trkpt>
      <trkpt lat="45.63029" lon="5.69402">
        <ele>721.13</ele>
        <time>2011-06-19T08:54:18Z</time>
      </trkpt>
      <trkpt lat="45.63022" lon="5.69405">
        <ele>721.13</ele>
        <time>2011-06-19T08:54:19Z</time>
      </trkpt>
      <trkpt lat="45.63014" lon="5.69407">
        <ele>720.65</ele>
        <time>2011-06-19T08:54:20Z</time>
      </trkpt>
      <trkpt lat="45.63006" lon="5.69407">
        <ele>720.65</ele>
        <time>2011-06-19T08:54:21Z</time>
      </trkpt>
      <trkpt lat="45.62998" lon="5.69408">
        <ele>719.68</ele>
        <time>2011-06-19T08:54:22Z</time>
      </trkpt>
      <trkpt lat="45.62991" lon="5.69409">
        <ele>719.2</ele>
        <time>2011-06-19T08:54:23Z</time>
      </trkpt>
      <trkpt lat="45.62975" lon="5.69412">
        <ele>718.24</ele>
        <time>2011-06-19T08:54:25Z</time>
      </trkpt>
      <trkpt lat="45.62921" lon="5.69431">
        <ele>715.36</ele>
        <time>2011-06-19T08:54:32Z</time>
      </trkpt>
      <trkpt lat="45.62896" lon="5.69437">
        <ele>713.44</ele>
        <time>2011-06-19T08:54:35Z</time>
      </trkpt>
      <trkpt lat="45.62887" lon="5.6944">
        <ele>712.95</ele>
        <time>2011-06-19T08:54:36Z</time>
      </trkpt>
      <trkpt lat="45.62855" lon="5.69453">
        <ele>710.55</ele>
        <time>2011-06-19T08:54:40Z</time>
      </trkpt>
      <trkpt lat="45.62849" lon="5.69455">
        <ele>709.59</ele>
        <time>2011-06-19T08:54:41Z</time>
      </trkpt>
      <trkpt lat="45.62845" lon="5.6946">
        <ele>709.59</ele>
        <time>2011-06-19T08:54:42Z</time>
      </trkpt>
      <trkpt lat="45.62843" lon="5.69466">
        <ele>708.63</ele>
        <time>2011-06-19T08:54:43Z</time>
      </trkpt>
      <trkpt lat="45.62842" lon="5.69475">
        <ele>708.63</ele>
        <time>2011-06-19T08:54:44Z</time>
      </trkpt>
      <trkpt lat="45.62843" lon="5.69483">
        <ele>708.63</ele>
        <time>2011-06-19T08:54:45Z</time>
      </trkpt>
      <trkpt lat="45.62845" lon="5.69492">
        <ele>708.15</ele>
        <time>2011-06-19T08:54:46Z</time>
      </trkpt>
      <trkpt lat="45.62847" lon="5.69501">
        <ele>708.15</ele>
        <time>2011-06-19T08:54:47Z</time>
      </trkpt>
      <trkpt lat="45.62863" lon="5.69565">
        <ele>707.19</ele>
        <time>2011-06-19T08:54:54Z</time>
      </trkpt>
      <trkpt lat="45.62863" lon="5.69574">
        <ele>707.19</ele>
        <time>2011-06-19T08:54:55Z</time>
      </trkpt>
      <trkpt lat="45.62861" lon="5.69582">
        <ele>706.71</ele>
        <time>2011-06-19T08:54:56Z</time>
      </trkpt>
      <trkpt lat="45.62858" lon="5.69588">
        <ele>707.19</ele>
        <time>2011-06-19T08:54:57Z</time>
      </trkpt>
      <trkpt lat="45.62854" lon="5.69594">
        <ele>707.19</ele>
        <time>2011-06-19T08:54:58Z</time>
      </trkpt>
      <trkpt lat="45.62851" lon="5.69599">
        <ele>707.19</ele>
        <time>2011-06-19T08:54:59Z</time>
      </trkpt>
      <trkpt lat="45.62847" lon="5.69604">
        <ele>707.67</ele>
        <time>2011-06-19T08:55:00Z</time>
      </trkpt>
      <trkpt lat="45.62842" lon="5.69608">
        <ele>708.15</ele>
        <time>2011-06-19T08:55:01Z</time>
      </trkpt>
      <trkpt lat="45.62837" lon="5.6961">
        <ele>708.15</ele>
        <time>2011-06-19T08:55:02Z</time>
      </trkpt>
      <trkpt lat="45.62832" lon="5.6961">
        <ele>708.15</ele>
        <time>2011-06-19T08:55:03Z</time>
      </trkpt>
      <trkpt lat="45.62827" lon="5.6961">
        <ele>708.15</ele>
        <time>2011-06-19T08:55:04Z</time>
      </trkpt>
      <trkpt lat="45.62806" lon="5.69612">
        <ele>708.15</ele>
        <time>2011-06-19T08:55:08Z</time>
      </trkpt>
      <trkpt lat="45.62803" lon="5.69614">
        <ele>708.15</ele>
        <time>2011-06-19T08:55:09Z</time>
      </trkpt>
      <trkpt lat="45.628" lon="5.69618">
        <ele>708.63</ele>
        <time>2011-06-19T08:55:10Z</time>
      </trkpt>
      <trkpt lat="45.628" lon="5.69622">
        <ele>708.63</ele>
        <time>2011-06-19T08:55:11Z</time>
      </trkpt>
      <trkpt lat="45.62801" lon="5.69625">
        <ele>709.11</ele>
        <time>2011-06-19T08:55:12Z</time>
      </trkpt>
      <trkpt lat="45.62803" lon="5.69629">
        <ele>709.11</ele>
        <time>2011-06-19T08:55:13Z</time>
      </trkpt>
      <trkpt lat="45.62804" lon="5.69632">
        <ele>709.11</ele>
        <time>2011-06-19T08:55:14Z</time>
      </trkpt>
      <trkpt lat="45.62806" lon="5.69636">
        <ele>709.59</ele>
        <time>2011-06-19T08:55:15Z</time>
      </trkpt>
      <trkpt lat="45.62808" lon="5.6964">
        <ele>709.59</ele>
        <time>2011-06-19T08:55:16Z</time>
      </trkpt>
      <trkpt lat="45.6281" lon="5.69644">
        <ele>710.07</ele>
        <time>2011-06-19T08:55:17Z</time>
      </trkpt>
      <trkpt lat="45.62841" lon="5.69703">
        <ele>712.95</ele>
        <time>2011-06-19T08:55:32Z</time>
      </trkpt>
      <trkpt lat="45.6285" lon="5.69737">
        <ele>714.4</ele>
        <time>2011-06-19T08:55:40Z</time>
      </trkpt>
      <trkpt lat="45.62847" lon="5.6974">
        <ele>714.4</ele>
        <time>2011-06-19T08:55:41Z</time>
      </trkpt>
      <trkpt lat="45.62843" lon="5.69741">
        <ele>713.92</ele>
        <time>2011-06-19T08:55:42Z</time>
      </trkpt>
      <trkpt lat="45.62817" lon="5.69745">
        <ele>713.44</ele>
        <time>2011-06-19T08:55:51Z</time>
      </trkpt>
      <trkpt lat="45.62767" lon="5.69754">
        <ele>712.47</ele>
        <time>2011-06-19T08:56:02Z</time>
      </trkpt>
      <trkpt lat="45.62762" lon="5.69755">
        <ele>712.95</ele>
        <time>2011-06-19T08:56:03Z</time>
      </trkpt>
      <trkpt lat="45.62741" lon="5.69762">
        <ele>712.95</ele>
        <time>2011-06-19T08:56:07Z</time>
      </trkpt>
      <trkpt lat="45.62737" lon="5.69765">
        <ele>712.47</ele>
        <time>2011-06-19T08:56:08Z</time>
      </trkpt>
      <trkpt lat="45.62732" lon="5.69768">
        <ele>712.47</ele>
        <time>2011-06-19T08:56:09Z</time>
      </trkpt>
      <trkpt lat="45.62729" lon="5.69774">
        <ele>711.99</ele>
        <time>2011-06-19T08:56:10Z</time>
      </trkpt>
      <trkpt lat="45.62727" lon="5.69781">
        <ele>711.99</ele>
        <time>2011-06-19T08:56:11Z</time>
      </trkpt>
      <trkpt lat="45.62727" lon="5.69789">
        <ele>711.99</ele>
        <time>2011-06-19T08:56:12Z</time>
      </trkpt>
      <trkpt lat="45.62727" lon="5.69795">
        <ele>712.47</ele>
        <time>2011-06-19T08:56:13Z</time>
      </trkpt>
      <trkpt lat="45.62727" lon="5.69806">
        <ele>713.44</ele>
        <time>2011-06-19T08:56:15Z</time>
      </trkpt>
      <trkpt lat="45.62725" lon="5.6981">
        <ele>712.95</ele>
        <time>2011-06-19T08:56:16Z</time>
      </trkpt>
      <trkpt lat="45.62722" lon="5.69814">
        <ele>712.47</ele>
        <time>2011-06-19T08:56:17Z</time>
      </trkpt>
      <trkpt lat="45.62717" lon="5.69818">
        <ele>711.51</ele>
        <time>2011-06-19T08:56:18Z</time>
      </trkpt>
      <trkpt lat="45.62711" lon="5.69821">
        <ele>710.55</ele>
        <time>2011-06-19T08:56:19Z</time>
      </trkpt>
      <trkpt lat="45.62705" lon="5.69823">
        <ele>709.11</ele>
        <time>2011-06-19T08:56:20Z</time>
      </trkpt>
      <trkpt lat="45.62699" lon="5.69824">
        <ele>708.15</ele>
        <time>2011-06-19T08:56:21Z</time>
      </trkpt>
      <trkpt lat="45.62692" lon="5.69822">
        <ele>707.67</ele>
        <time>2011-06-19T08:56:22Z</time>
      </trkpt>
      <trkpt lat="45.62685" lon="5.69818">
        <ele>706.23</ele>
        <time>2011-06-19T08:56:23Z</time>
      </trkpt>
      <trkpt lat="45.62661" lon="5.69804">
        <ele>703.34</ele>
        <time>2011-06-19T08:56:26Z</time>
      </trkpt>
      <trkpt lat="45.62653" lon="5.69801">
        <ele>702.86</ele>
        <time>2011-06-19T08:56:27Z</time>
      </trkpt>
      <trkpt lat="45.62634" lon="5.69796">
        <ele>701.9</ele>
        <time>2011-06-19T08:56:29Z</time>
      </trkpt>
      <trkpt lat="45.62609" lon="5.69791">
        <ele>699.98</ele>
        <time>2011-06-19T08:56:32Z</time>
      </trkpt>
      <trkpt lat="45.62601" lon="5.69793">
        <ele>699.02</ele>
        <time>2011-06-19T08:56:33Z</time>
      </trkpt>
      <trkpt lat="45.62594" lon="5.69798">
        <ele>699.98</ele>
        <time>2011-06-19T08:56:34Z</time>
      </trkpt>
      <trkpt lat="45.62543" lon="5.69835">
        <ele>701.42</ele>
        <time>2011-06-19T08:56:43Z</time>
      </trkpt>
      <trkpt lat="45.62539" lon="5.6984">
        <ele>701.42</ele>
        <time>2011-06-19T08:56:44Z</time>
      </trkpt>
      <trkpt lat="45.62526" lon="5.69859">
        <ele>703.34</ele>
        <time>2011-06-19T08:56:48Z</time>
      </trkpt>
      <trkpt lat="45.62515" lon="5.69877">
        <ele>704.78</ele>
        <time>2011-06-19T08:56:52Z</time>
      </trkpt>
      <trkpt lat="45.62512" lon="5.69881">
        <ele>704.3</ele>
        <time>2011-06-19T08:56:53Z</time>
      </trkpt>
      <trkpt lat="45.62509" lon="5.69884">
        <ele>704.78</ele>
        <time>2011-06-19T08:56:54Z</time>
      </trkpt>
      <trkpt lat="45.62505" lon="5.69887">
        <ele>704.78</ele>
        <time>2011-06-19T08:56:55Z</time>
      </trkpt>
      <trkpt lat="45.62502" lon="5.6989">
        <ele>705.26</ele>
        <time>2011-06-19T08:56:56Z</time>
      </trkpt>
      <trkpt lat="45.625" lon="5.69893">
        <ele>704.78</ele>
        <time>2011-06-19T08:56:57Z</time>
      </trkpt>
      <trkpt lat="45.62498" lon="5.69897">
        <ele>705.26</ele>
        <time>2011-06-19T08:56:58Z</time>
      </trkpt>
      <trkpt lat="45.62497" lon="5.69902">
        <ele>705.75</ele>
        <time>2011-06-19T08:56:59Z</time>
      </trkpt>
      <trkpt lat="45.62497" lon="5.69907">
        <ele>706.23</ele>
        <time>2011-06-19T08:57:00Z</time>
      </trkpt>
      <trkpt lat="45.62496" lon="5.6991">
        <ele>706.23</ele>
        <time>2011-06-19T08:57:01Z</time>
      </trkpt>
      <trkpt lat="45.62492" lon="5.69915">
        <ele>707.19</ele>
        <time>2011-06-19T08:57:03Z</time>
      </trkpt>
      <trkpt lat="45.62478" lon="5.69916">
        <ele>706.71</ele>
        <time>2011-06-19T08:57:08Z</time>
      </trkpt>
      <trkpt lat="45.6246" lon="5.69917">
        <ele>704.3</ele>
        <time>2011-06-19T08:57:12Z</time>
      </trkpt>
      <trkpt lat="45.6243" lon="5.6991">
        <ele>700.46</ele>
        <time>2011-06-19T08:57:16Z</time>
      </trkpt>
      <trkpt lat="45.62383" lon="5.69893">
        <ele>697.57</ele>
        <time>2011-06-19T08:57:22Z</time>
      </trkpt>
      <trkpt lat="45.62334" lon="5.69876">
        <ele>697.09</ele>
        <time>2011-06-19T08:57:30Z</time>
      </trkpt>
      <trkpt lat="45.6232" lon="5.69868">
        <ele>697.57</ele>
        <time>2011-06-19T08:57:33Z</time>
      </trkpt>
      <trkpt lat="45.62293" lon="5.6986">
        <ele>699.98</ele>
        <time>2011-06-19T08:57:41Z</time>
      </trkpt>
      <trkpt lat="45.62291" lon="5.69903">
        <ele>701.42</ele>
        <time>2011-06-19T08:57:51Z</time>
      </trkpt>
      <trkpt lat="45.62278" lon="5.6997">
        <ele>701.42</ele>
        <time>2011-06-19T08:58:03Z</time>
      </trkpt>
      <trkpt lat="45.62258" lon="5.70049">
        <ele>701.9</ele>
        <time>2011-06-19T08:58:17Z</time>
      </trkpt>
      <trkpt lat="45.62253" lon="5.70083">
        <ele>704.3</ele>
        <time>2011-06-19T08:58:29Z</time>
      </trkpt>
      <trkpt lat="45.62248" lon="5.70118">
        <ele>706.71</ele>
        <time>2011-06-19T08:58:41Z</time>
      </trkpt>
      <trkpt lat="45.62248" lon="5.70149">
        <ele>709.11</ele>
        <time>2011-06-19T08:58:54Z</time>
      </trkpt>
      <trkpt lat="45.62247" lon="5.70151">
        <ele>709.59</ele>
        <time>2011-06-19T08:58:55Z</time>
      </trkpt>
      <trkpt lat="45.62246" lon="5.70152">
        <ele>710.07</ele>
        <time>2011-06-19T08:58:56Z</time>
      </trkpt>
      <trkpt lat="45.62245" lon="5.70154">
        <ele>710.07</ele>
        <time>2011-06-19T08:58:57Z</time>
      </trkpt>
      <trkpt lat="45.62243" lon="5.70156">
        <ele>710.07</ele>
        <time>2011-06-19T08:58:58Z</time>
      </trkpt>
      <trkpt lat="45.62216" lon="5.70164">
        <ele>711.51</ele>
        <time>2011-06-19T08:59:11Z</time>
      </trkpt>
      <trkpt lat="45.62166" lon="5.70168">
        <ele>708.63</ele>
        <time>2011-06-19T08:59:23Z</time>
      </trkpt>
      <trkpt lat="45.62154" lon="5.70171">
        <ele>708.63</ele>
        <time>2011-06-19T08:59:25Z</time>
      </trkpt>
      <trkpt lat="45.62117" lon="5.70173">
        <ele>708.15</ele>
        <time>2011-06-19T08:59:32Z</time>
      </trkpt>
      <trkpt lat="45.62093" lon="5.70197">
        <ele>711.51</ele>
        <time>2011-06-19T08:59:42Z</time>
      </trkpt>
      <trkpt lat="45.6208" lon="5.70226">
        <ele>714.4</ele>
        <time>2011-06-19T08:59:55Z</time>
      </trkpt>
      <trkpt lat="45.62069" lon="5.70259">
        <ele>716.8</ele>
        <time>2011-06-19T09:00:08Z</time>
      </trkpt>
      <trkpt lat="45.62068" lon="5.70261">
        <ele>716.8</ele>
        <time>2011-06-19T09:00:09Z</time>
      </trkpt>
      <trkpt lat="45.62056" lon="5.70298">
        <ele>718.24</ele>
        <time>2011-06-19T09:00:23Z</time>
      </trkpt>
      <trkpt lat="45.62047" lon="5.70328">
        <ele>720.16</ele>
        <time>2011-06-19T09:00:34Z</time>
      </trkpt>
      <trkpt lat="45.62056" lon="5.70366">
        <ele>723.05</ele>
        <time>2011-06-19T09:00:50Z</time>
      </trkpt>
      <trkpt lat="45.62071" lon="5.70376">
        <ele>725.93</ele>
        <time>2011-06-19T09:01:01Z</time>
      </trkpt>
      <trkpt lat="45.62096" lon="5.70386">
        <ele>729.3</ele>
        <time>2011-06-19T09:01:17Z</time>
      </trkpt>
      <trkpt lat="45.62119" lon="5.70397">
        <ele>732.66</ele>
        <time>2011-06-19T09:01:31Z</time>
      </trkpt>
      <trkpt lat="45.62136" lon="5.7042">
        <ele>735.55</ele>
        <time>2011-06-19T09:01:45Z</time>
      </trkpt>
      <trkpt lat="45.62154" lon="5.70446">
        <ele>737.95</ele>
        <time>2011-06-19T09:01:59Z</time>
      </trkpt>
      <trkpt lat="45.62177" lon="5.70467">
        <ele>739.87</ele>
        <time>2011-06-19T09:02:12Z</time>
      </trkpt>
      <trkpt lat="45.6221" lon="5.70491">
        <ele>741.79</ele>
        <time>2011-06-19T09:02:27Z</time>
      </trkpt>
      <trkpt lat="45.62241" lon="5.70507">
        <ele>743.72</ele>
        <time>2011-06-19T09:02:42Z</time>
      </trkpt>
      <trkpt lat="45.6226" lon="5.70526">
        <ele>746.12</ele>
        <time>2011-06-19T09:02:55Z</time>
      </trkpt>
      <trkpt lat="45.6227" lon="5.70546">
        <ele>749</ele>
        <time>2011-06-19T09:03:07Z</time>
      </trkpt>
      <trkpt lat="45.6228" lon="5.70572">
        <ele>752.37</ele>
        <time>2011-06-19T09:03:21Z</time>
      </trkpt>
      <trkpt lat="45.62291" lon="5.70598">
        <ele>755.25</ele>
        <time>2011-06-19T09:03:36Z</time>
      </trkpt>
      <trkpt lat="45.62296" lon="5.70616">
        <ele>757.18</ele>
        <time>2011-06-19T09:03:48Z</time>
      </trkpt>
      <trkpt lat="45.62296" lon="5.70628">
        <ele>758.62</ele>
        <time>2011-06-19T09:03:56Z</time>
      </trkpt>
      <trkpt lat="45.62303" lon="5.70647">
        <ele>761.5</ele>
        <time>2011-06-19T09:04:11Z</time>
      </trkpt>
      <trkpt lat="45.62316" lon="5.70668">
        <ele>764.39</ele>
        <time>2011-06-19T09:04:25Z</time>
      </trkpt>
      <trkpt lat="45.62332" lon="5.70695">
        <ele>765.83</ele>
        <time>2011-06-19T09:04:39Z</time>
      </trkpt>
      <trkpt lat="45.62331" lon="5.70737">
        <ele>768.23</ele>
        <time>2011-06-19T09:04:53Z</time>
      </trkpt>
      <trkpt lat="45.6234" lon="5.70782">
        <ele>769.19</ele>
        <time>2011-06-19T09:05:07Z</time>
      </trkpt>
      <trkpt lat="45.62342" lon="5.7084">
        <ele>768.71</ele>
        <time>2011-06-19T09:05:20Z</time>
      </trkpt>
      <trkpt lat="45.62343" lon="5.70862">
        <ele>768.71</ele>
        <time>2011-06-19T09:05:24Z</time>
      </trkpt>
      <trkpt lat="45.6235" lon="5.70928">
        <ele>770.15</ele>
        <time>2011-06-19T09:05:37Z</time>
      </trkpt>
      <trkpt lat="45.62357" lon="5.70968">
        <ele>772.08</ele>
        <time>2011-06-19T09:05:50Z</time>
      </trkpt>
      <trkpt lat="45.62341" lon="5.71009">
        <ele>774.48</ele>
        <time>2011-06-19T09:06:04Z</time>
      </trkpt>
      <trkpt lat="45.62317" lon="5.71035">
        <ele>777.84</ele>
        <time>2011-06-19T09:06:20Z</time>
      </trkpt>
      <trkpt lat="45.6231" lon="5.71043">
        <ele>778.81</ele>
        <time>2011-06-19T09:06:26Z</time>
      </trkpt>
      <trkpt lat="45.62309" lon="5.71044">
        <ele>778.81</ele>
        <time>2011-06-19T09:06:27Z</time>
      </trkpt>
      <trkpt lat="45.62308" lon="5.71045">
        <ele>779.29</ele>
        <time>2011-06-19T09:06:28Z</time>
      </trkpt>
      <trkpt lat="45.62307" lon="5.71047">
        <ele>779.29</ele>
        <time>2011-06-19T09:06:29Z</time>
      </trkpt>
      <trkpt lat="45.62306" lon="5.71048">
        <ele>779.77</ele>
        <time>2011-06-19T09:06:30Z</time>
      </trkpt>
      <trkpt lat="45.62304" lon="5.7105">
        <ele>779.29</ele>
        <time>2011-06-19T09:06:31Z</time>
      </trkpt>
      <trkpt lat="45.62302" lon="5.71052">
        <ele>779.77</ele>
        <time>2011-06-19T09:06:32Z</time>
      </trkpt>
      <trkpt lat="45.62301" lon="5.71054">
        <ele>779.29</ele>
        <time>2011-06-19T09:06:33Z</time>
      </trkpt>
      <trkpt lat="45.62299" lon="5.71057">
        <ele>779.77</ele>
        <time>2011-06-19T09:06:34Z</time>
      </trkpt>
      <trkpt lat="45.62296" lon="5.71059">
        <ele>779.29</ele>
        <time>2011-06-19T09:06:35Z</time>
      </trkpt>
      <trkpt lat="45.62262" lon="5.71064">
        <ele>779.77</ele>
        <time>2011-06-19T09:06:47Z</time>
      </trkpt>
      <trkpt lat="45.62223" lon="5.71051">
        <ele>780.25</ele>
        <time>2011-06-19T09:06:59Z</time>
      </trkpt>
      <trkpt lat="45.62205" lon="5.71054">
        <ele>783.61</ele>
        <time>2011-06-19T09:07:12Z</time>
      </trkpt>
      <trkpt lat="45.62187" lon="5.71068">
        <ele>785.53</ele>
        <time>2011-06-19T09:07:24Z</time>
      </trkpt>
      <trkpt lat="45.62158" lon="5.71078">
        <ele>786.5</ele>
        <time>2011-06-19T09:07:36Z</time>
      </trkpt>
      <trkpt lat="45.62114" lon="5.711">
        <ele>786.02</ele>
        <time>2011-06-19T09:07:51Z</time>
      </trkpt>
      <trkpt lat="45.62071" lon="5.71121">
        <ele>786.5</ele>
        <time>2011-06-19T09:08:05Z</time>
      </trkpt>
      <trkpt lat="45.62023" lon="5.71108">
        <ele>789.38</ele>
        <time>2011-06-19T09:08:19Z</time>
      </trkpt>
      <trkpt lat="45.61973" lon="5.71081">
        <ele>788.42</ele>
        <time>2011-06-19T09:08:34Z</time>
      </trkpt>
      <trkpt lat="45.61966" lon="5.71065">
        <ele>785.53</ele>
        <time>2011-06-19T09:08:37Z</time>
      </trkpt>
      <trkpt lat="45.6196" lon="5.71039">
        <ele>781.69</ele>
        <time>2011-06-19T09:08:40Z</time>
      </trkpt>
      <trkpt lat="45.6196" lon="5.71029">
        <ele>780.25</ele>
        <time>2011-06-19T09:08:41Z</time>
      </trkpt>
      <trkpt lat="45.6196" lon="5.7102">
        <ele>779.29</ele>
        <time>2011-06-19T09:08:42Z</time>
      </trkpt>
      <trkpt lat="45.61958" lon="5.71011">
        <ele>778.32</ele>
        <time>2011-06-19T09:08:43Z</time>
      </trkpt>
      <trkpt lat="45.61954" lon="5.71004">
        <ele>778.81</ele>
        <time>2011-06-19T09:08:44Z</time>
      </trkpt>
      <trkpt lat="45.6195" lon="5.71001">
        <ele>778.32</ele>
        <time>2011-06-19T09:08:45Z</time>
      </trkpt>
      <trkpt lat="45.61945" lon="5.70997">
        <ele>777.84</ele>
        <time>2011-06-19T09:08:46Z</time>
      </trkpt>
      <trkpt lat="45.61942" lon="5.70995">
        <ele>778.32</ele>
        <time>2011-06-19T09:08:47Z</time>
      </trkpt>
      <trkpt lat="45.61939" lon="5.70993">
        <ele>778.32</ele>
        <time>2011-06-19T09:08:48Z</time>
      </trkpt>
      <trkpt lat="45.61929" lon="5.71001">
        <ele>779.77</ele>
        <time>2011-06-19T09:08:53Z</time>
      </trkpt>
      <trkpt lat="45.61927" lon="5.71003">
        <ele>780.25</ele>
        <time>2011-06-19T09:08:54Z</time>
      </trkpt>
      <trkpt lat="45.61913" lon="5.71064">
        <ele>779.77</ele>
        <time>2011-06-19T09:09:05Z</time>
      </trkpt>
      <trkpt lat="45.61911" lon="5.7107">
        <ele>779.77</ele>
        <time>2011-06-19T09:09:06Z</time>
      </trkpt>
      <trkpt lat="45.61913" lon="5.71094">
        <ele>779.29</ele>
        <time>2011-06-19T09:09:10Z</time>
      </trkpt>
      <trkpt lat="45.61917" lon="5.71107">
        <ele>779.29</ele>
        <time>2011-06-19T09:09:12Z</time>
      </trkpt>
      <trkpt lat="45.61919" lon="5.71113">
        <ele>778.32</ele>
        <time>2011-06-19T09:09:13Z</time>
      </trkpt>
      <trkpt lat="45.61921" lon="5.71128">
        <ele>778.32</ele>
        <time>2011-06-19T09:09:15Z</time>
      </trkpt>
      <trkpt lat="45.61919" lon="5.71181">
        <ele>776.88</ele>
        <time>2011-06-19T09:09:22Z</time>
      </trkpt>
      <trkpt lat="45.6192" lon="5.71188">
        <ele>777.36</ele>
        <time>2011-06-19T09:09:23Z</time>
      </trkpt>
      <trkpt lat="45.61921" lon="5.71195">
        <ele>777.36</ele>
        <time>2011-06-19T09:09:24Z</time>
      </trkpt>
      <trkpt lat="45.6193" lon="5.71237">
        <ele>778.81</ele>
        <time>2011-06-19T09:09:34Z</time>
      </trkpt>
      <trkpt lat="45.61931" lon="5.71246">
        <ele>779.77</ele>
        <time>2011-06-19T09:09:37Z</time>
      </trkpt>
      <trkpt lat="45.61931" lon="5.71249">
        <ele>779.77</ele>
        <time>2011-06-19T09:09:38Z</time>
      </trkpt>
      <trkpt lat="45.61932" lon="5.71252">
        <ele>780.25</ele>
        <time>2011-06-19T09:09:39Z</time>
      </trkpt>
      <trkpt lat="45.61932" lon="5.71254">
        <ele>780.73</ele>
        <time>2011-06-19T09:09:40Z</time>
      </trkpt>
      <trkpt lat="45.61932" lon="5.71257">
        <ele>780.73</ele>
        <time>2011-06-19T09:09:41Z</time>
      </trkpt>
      <trkpt lat="45.61933" lon="5.7126">
        <ele>781.21</ele>
        <time>2011-06-19T09:09:42Z</time>
      </trkpt>
      <trkpt lat="45.61934" lon="5.71263">
        <ele>781.21</ele>
        <time>2011-06-19T09:09:43Z</time>
      </trkpt>
      <trkpt lat="45.61935" lon="5.71266">
        <ele>781.69</ele>
        <time>2011-06-19T09:09:44Z</time>
      </trkpt>
      <trkpt lat="45.61936" lon="5.7127">
        <ele>781.69</ele>
        <time>2011-06-19T09:09:46Z</time>
      </trkpt>
      <trkpt lat="45.61936" lon="5.71272">
        <ele>782.17</ele>
        <time>2011-06-19T09:09:47Z</time>
      </trkpt>
      <trkpt lat="45.61936" lon="5.71275">
        <ele>782.65</ele>
        <time>2011-06-19T09:09:48Z</time>
      </trkpt>
      <trkpt lat="45.61942" lon="5.71305">
        <ele>785.05</ele>
        <time>2011-06-19T09:10:01Z</time>
      </trkpt>
      <trkpt lat="45.61955" lon="5.71342">
        <ele>783.61</ele>
        <time>2011-06-19T09:10:10Z</time>
      </trkpt>
      <trkpt lat="45.61958" lon="5.71346">
        <ele>783.61</ele>
        <time>2011-06-19T09:10:11Z</time>
      </trkpt>
      <trkpt lat="45.61987" lon="5.714">
        <ele>782.17</ele>
        <time>2011-06-19T09:10:22Z</time>
      </trkpt>
      <trkpt lat="45.61994" lon="5.71417">
        <ele>781.69</ele>
        <time>2011-06-19T09:10:25Z</time>
      </trkpt>
      <trkpt lat="45.61996" lon="5.71425">
        <ele>780.73</ele>
        <time>2011-06-19T09:10:26Z</time>
      </trkpt>
      <trkpt lat="45.61997" lon="5.71433">
        <ele>781.69</ele>
        <time>2011-06-19T09:10:27Z</time>
      </trkpt>
      <trkpt lat="45.62006" lon="5.71508">
        <ele>780.25</ele>
        <time>2011-06-19T09:10:37Z</time>
      </trkpt>
      <trkpt lat="45.62015" lon="5.71543">
        <ele>782.65</ele>
        <time>2011-06-19T09:10:47Z</time>
      </trkpt>
      <trkpt lat="45.62018" lon="5.71549">
        <ele>783.13</ele>
        <time>2011-06-19T09:10:50Z</time>
      </trkpt>
      <trkpt lat="45.62019" lon="5.7155">
        <ele>784.09</ele>
        <time>2011-06-19T09:10:51Z</time>
      </trkpt>
      <trkpt lat="45.62025" lon="5.71565">
        <ele>786.02</ele>
        <time>2011-06-19T09:11:00Z</time>
      </trkpt>
      <trkpt lat="45.62025" lon="5.71568">
        <ele>786.02</ele>
        <time>2011-06-19T09:11:01Z</time>
      </trkpt>
      <trkpt lat="45.62033" lon="5.71602">
        <ele>785.53</ele>
        <time>2011-06-19T09:11:11Z</time>
      </trkpt>
      <trkpt lat="45.62034" lon="5.71608">
        <ele>785.05</ele>
        <time>2011-06-19T09:11:12Z</time>
      </trkpt>
      <trkpt lat="45.62037" lon="5.71621">
        <ele>784.09</ele>
        <time>2011-06-19T09:11:14Z</time>
      </trkpt>
      <trkpt lat="45.62044" lon="5.71639">
        <ele>782.65</ele>
        <time>2011-06-19T09:11:17Z</time>
      </trkpt>
      <trkpt lat="45.6205" lon="5.71667">
        <ele>780.73</ele>
        <time>2011-06-19T09:11:23Z</time>
      </trkpt>
      <trkpt lat="45.62048" lon="5.7167">
        <ele>781.21</ele>
        <time>2011-06-19T09:11:24Z</time>
      </trkpt>
      <trkpt lat="45.62045" lon="5.71672">
        <ele>780.73</ele>
        <time>2011-06-19T09:11:26Z</time>
      </trkpt>
      <trkpt lat="45.62044" lon="5.71673">
        <ele>780.73</ele>
        <time>2011-06-19T09:11:27Z</time>
      </trkpt>
      <trkpt lat="45.62043" lon="5.71674">
        <ele>780.73</ele>
        <time>2011-06-19T09:11:28Z</time>
      </trkpt>
      <trkpt lat="45.62035" lon="5.71674">
        <ele>780.73</ele>
        <time>2011-06-19T09:11:32Z</time>
      </trkpt>
      <trkpt lat="45.62034" lon="5.71673">
        <ele>780.25</ele>
        <time>2011-06-19T09:11:33Z</time>
      </trkpt>
      <trkpt lat="45.62033" lon="5.71672">
        <ele>780.73</ele>
        <time>2011-06-19T09:11:43Z</time>
      </trkpt>
      <trkpt lat="45.62032" lon="5.71672">
        <ele>779.77</ele>
        <time>2011-06-19T09:11:57Z</time>
      </trkpt>
      <trkpt lat="45.62035" lon="5.71673">
        <ele>779.77</ele>
        <time>2011-06-19T09:12:03Z</time>
      </trkpt>
      <trkpt lat="45.6204" lon="5.71672">
        <ele>780.25</ele>
        <time>2011-06-19T09:12:18Z</time>
      </trkpt>
      <trkpt lat="45.6204" lon="5.71672">
        <ele>780.25</ele>
        <time>2011-06-19T09:12:43Z</time>
      </trkpt>
      <trkpt lat="45.6204" lon="5.71671">
        <ele>780.73</ele>
        <time>2011-06-19T09:13:05Z</time>
      </trkpt>
      <trkpt lat="45.6204" lon="5.71671">
        <ele>781.21</ele>
        <time>2011-06-19T09:13:28Z</time>
      </trkpt>
      <trkpt lat="45.62042" lon="5.71673">
        <ele>781.21</ele>
        <time>2011-06-19T09:13:36Z</time>
      </trkpt>
      <trkpt lat="45.62044" lon="5.71674">
        <ele>781.21</ele>
        <time>2011-06-19T09:13:54Z</time>
      </trkpt>
      <trkpt lat="45.62045" lon="5.71674">
        <ele>780.73</ele>
        <time>2011-06-19T09:14:17Z</time>
      </trkpt>
      <trkpt lat="45.62045" lon="5.71674">
        <ele>780.73</ele>
        <time>2011-06-19T09:14:35Z</time>
      </trkpt>
      <trkpt lat="45.62045" lon="5.71673">
        <ele>781.69</ele>
        <time>2011-06-19T09:14:57Z</time>
      </trkpt>
      <trkpt lat="45.62045" lon="5.71675">
        <ele>783.13</ele>
        <time>2011-06-19T09:15:12Z</time>
      </trkpt>
      <trkpt lat="45.62045" lon="5.71675">
        <ele>780.25</ele>
        <time>2011-06-19T09:15:13Z</time>
      </trkpt>
      <trkpt lat="45.62045" lon="5.71673">
        <ele>781.69</ele>
        <time>2011-06-19T09:15:19Z</time>
      </trkpt>
      <trkpt lat="45.62045" lon="5.71674">
        <ele>781.69</ele>
        <time>2011-06-19T09:15:42Z</time>
      </trkpt>
      <trkpt lat="45.62045" lon="5.71674">
        <ele>781.21</ele>
        <time>2011-06-19T09:16:11Z</time>
      </trkpt>
      <trkpt lat="45.62044" lon="5.71674">
        <ele>781.21</ele>
        <time>2011-06-19T09:16:28Z</time>
      </trkpt>
      <trkpt lat="45.62045" lon="5.71675">
        <ele>782.17</ele>
        <time>2011-06-19T09:16:51Z</time>
      </trkpt>
      <trkpt lat="45.62044" lon="5.71674">
        <ele>781.69</ele>
        <time>2011-06-19T09:17:10Z</time>
      </trkpt>
      <trkpt lat="45.62044" lon="5.71674">
        <ele>781.69</ele>
        <time>2011-06-19T09:17:36Z</time>
      </trkpt>
      <trkpt lat="45.62045" lon="5.71674">
        <ele>782.17</ele>
        <time>2011-06-19T09:18:03Z</time>
      </trkpt>
      <trkpt lat="45.62045" lon="5.71675">
        <ele>782.17</ele>
        <time>2011-06-19T09:18:29Z</time>
      </trkpt>
      <trkpt lat="45.62045" lon="5.71675">
        <ele>784.09</ele>
        <time>2011-06-19T09:18:42Z</time>
      </trkpt>
      <trkpt lat="45.62044" lon="5.71673">
        <ele>782.65</ele>
        <time>2011-06-19T09:18:44Z</time>
      </trkpt>
      <trkpt lat="45.62044" lon="5.71674">
        <ele>782.65</ele>
        <time>2011-06-19T09:18:57Z</time>
      </trkpt>
      <trkpt lat="45.62043" lon="5.71675">
        <ele>782.17</ele>
        <time>2011-06-19T09:19:13Z</time>
      </trkpt>
      <trkpt lat="45.6204" lon="5.71675">
        <ele>783.13</ele>
        <time>2011-06-19T09:19:18Z</time>
      </trkpt>
      <trkpt lat="45.62036" lon="5.71674">
        <ele>782.65</ele>
        <time>2011-06-19T09:19:24Z</time>
      </trkpt>
      <trkpt lat="45.62035" lon="5.71678">
        <ele>782.65</ele>
        <time>2011-06-19T09:19:39Z</time>
      </trkpt>
      <trkpt lat="45.62035" lon="5.71678">
        <ele>782.65</ele>
        <time>2011-06-19T09:19:40Z</time>
      </trkpt>
      <trkpt lat="45.6204" lon="5.71676">
        <ele>783.13</ele>
        <time>2011-06-19T09:19:58Z</time>
      </trkpt>
      <trkpt lat="45.62041" lon="5.71677">
        <ele>783.13</ele>
        <time>2011-06-19T09:19:59Z</time>
      </trkpt>
      <trkpt lat="45.62043" lon="5.71677">
        <ele>783.13</ele>
        <time>2011-06-19T09:20:00Z</time>
      </trkpt>
      <trkpt lat="45.62045" lon="5.71677">
        <ele>783.13</ele>
        <time>2011-06-19T09:20:01Z</time>
      </trkpt>
      <trkpt lat="45.62046" lon="5.71676">
        <ele>783.13</ele>
        <time>2011-06-19T09:20:02Z</time>
      </trkpt>
      <trkpt lat="45.62048" lon="5.71676">
        <ele>783.13</ele>
        <time>2011-06-19T09:20:03Z</time>
      </trkpt>
      <trkpt lat="45.62049" lon="5.71677">
        <ele>783.13</ele>
        <time>2011-06-19T09:20:04Z</time>
      </trkpt>
      <trkpt lat="45.6205" lon="5.71678">
        <ele>783.13</ele>
        <time>2011-06-19T09:20:05Z</time>
      </trkpt>
      <trkpt lat="45.62051" lon="5.71679">
        <ele>783.13</ele>
        <time>2011-06-19T09:20:06Z</time>
      </trkpt>
      <trkpt lat="45.62077" lon="5.71683">
        <ele>784.09</ele>
        <time>2011-06-19T09:20:18Z</time>
      </trkpt>
      <trkpt lat="45.62115" lon="5.71665">
        <ele>785.05</ele>
        <time>2011-06-19T09:20:33Z</time>
      </trkpt>
      <trkpt lat="45.62151" lon="5.71635">
        <ele>786.02</ele>
        <time>2011-06-19T09:20:46Z</time>
      </trkpt>
      <trkpt lat="45.62178" lon="5.71607">
        <ele>787.94</ele>
        <time>2011-06-19T09:21:00Z</time>
      </trkpt>
      <trkpt lat="45.622" lon="5.71575">
        <ele>789.86</ele>
        <time>2011-06-19T09:21:15Z</time>
      </trkpt>
      <trkpt lat="45.6221" lon="5.71537">
        <ele>792.26</ele>
        <time>2011-06-19T09:21:30Z</time>
      </trkpt>
      <trkpt lat="45.62223" lon="5.71504">
        <ele>794.19</ele>
        <time>2011-06-19T09:21:43Z</time>
      </trkpt>
      <trkpt lat="45.62245" lon="5.71462">
        <ele>795.15</ele>
        <time>2011-06-19T09:21:58Z</time>
      </trkpt>
      <trkpt lat="45.62271" lon="5.71426">
        <ele>796.59</ele>
        <time>2011-06-19T09:22:10Z</time>
      </trkpt>
      <trkpt lat="45.62296" lon="5.71389">
        <ele>798.51</ele>
        <time>2011-06-19T09:22:24Z</time>
      </trkpt>
      <trkpt lat="45.62312" lon="5.71345">
        <ele>800.92</ele>
        <time>2011-06-19T09:22:38Z</time>
      </trkpt>
      <trkpt lat="45.62345" lon="5.71314">
        <ele>798.51</ele>
        <time>2011-06-19T09:22:49Z</time>
      </trkpt>
      <trkpt lat="45.62402" lon="5.71282">
        <ele>798.99</ele>
        <time>2011-06-19T09:23:02Z</time>
      </trkpt>
      <trkpt lat="45.6244" lon="5.71272">
        <ele>800.92</ele>
        <time>2011-06-19T09:23:16Z</time>
      </trkpt>
      <trkpt lat="45.62461" lon="5.71248">
        <ele>804.28</ele>
        <time>2011-06-19T09:23:29Z</time>
      </trkpt>
      <trkpt lat="45.62477" lon="5.71228">
        <ele>806.68</ele>
        <time>2011-06-19T09:23:42Z</time>
      </trkpt>
      <trkpt lat="45.62499" lon="5.71197">
        <ele>808.13</ele>
        <time>2011-06-19T09:23:56Z</time>
      </trkpt>
      <trkpt lat="45.62518" lon="5.71182">
        <ele>810.53</ele>
        <time>2011-06-19T09:24:07Z</time>
      </trkpt>
      <trkpt lat="45.62526" lon="5.71173">
        <ele>811.49</ele>
        <time>2011-06-19T09:24:14Z</time>
      </trkpt>
      <trkpt lat="45.62558" lon="5.71156">
        <ele>813.89</ele>
        <time>2011-06-19T09:24:29Z</time>
      </trkpt>
      <trkpt lat="45.6259" lon="5.71133">
        <ele>814.37</ele>
        <time>2011-06-19T09:24:42Z</time>
      </trkpt>
      <trkpt lat="45.6263" lon="5.71104">
        <ele>814.37</ele>
        <time>2011-06-19T09:24:55Z</time>
      </trkpt>
      <trkpt lat="45.62672" lon="5.71061">
        <ele>815.82</ele>
        <time>2011-06-19T09:25:10Z</time>
      </trkpt>
      <trkpt lat="45.62704" lon="5.71035">
        <ele>817.74</ele>
        <time>2011-06-19T09:25:22Z</time>
      </trkpt>
      <trkpt lat="45.62741" lon="5.71009">
        <ele>819.18</ele>
        <time>2011-06-19T09:25:36Z</time>
      </trkpt>
      <trkpt lat="45.62779" lon="5.70981">
        <ele>820.62</ele>
        <time>2011-06-19T09:25:50Z</time>
      </trkpt>
      <trkpt lat="45.62817" lon="5.70949">
        <ele>822.06</ele>
        <time>2011-06-19T09:26:05Z</time>
      </trkpt>
      <trkpt lat="45.6285" lon="5.70919">
        <ele>823.99</ele>
        <time>2011-06-19T09:26:19Z</time>
      </trkpt>
      <trkpt lat="45.62874" lon="5.70893">
        <ele>826.87</ele>
        <time>2011-06-19T09:26:33Z</time>
      </trkpt>
      <trkpt lat="45.62902" lon="5.70867">
        <ele>828.31</ele>
        <time>2011-06-19T09:26:46Z</time>
      </trkpt>
      <trkpt lat="45.62947" lon="5.70864">
        <ele>826.87</ele>
        <time>2011-06-19T09:26:57Z</time>
      </trkpt>
      <trkpt lat="45.62952" lon="5.70866">
        <ele>826.87</ele>
        <time>2011-06-19T09:26:58Z</time>
      </trkpt>
      <trkpt lat="45.62998" lon="5.70867">
        <ele>823.03</ele>
        <time>2011-06-19T09:27:07Z</time>
      </trkpt>
      <trkpt lat="45.6301" lon="5.70865">
        <ele>822.06</ele>
        <time>2011-06-19T09:27:09Z</time>
      </trkpt>
      <trkpt lat="45.63015" lon="5.70864">
        <ele>822.06</ele>
        <time>2011-06-19T09:27:10Z</time>
      </trkpt>
      <trkpt lat="45.6302" lon="5.70864">
        <ele>821.58</ele>
        <time>2011-06-19T09:27:11Z</time>
      </trkpt>
      <trkpt lat="45.63037" lon="5.70862">
        <ele>820.62</ele>
        <time>2011-06-19T09:27:14Z</time>
      </trkpt>
      <trkpt lat="45.63061" lon="5.70855">
        <ele>819.66</ele>
        <time>2011-06-19T09:27:19Z</time>
      </trkpt>
      <trkpt lat="45.6308" lon="5.70848">
        <ele>820.14</ele>
        <time>2011-06-19T09:27:23Z</time>
      </trkpt>
      <trkpt lat="45.63127" lon="5.70849">
        <ele>820.62</ele>
        <time>2011-06-19T09:27:33Z</time>
      </trkpt>
      <trkpt lat="45.63159" lon="5.70846">
        <ele>821.1</ele>
        <time>2011-06-19T09:27:43Z</time>
      </trkpt>
      <trkpt lat="45.63165" lon="5.70845">
        <ele>821.58</ele>
        <time>2011-06-19T09:27:45Z</time>
      </trkpt>
      <trkpt lat="45.63174" lon="5.7084">
        <ele>822.55</ele>
        <time>2011-06-19T09:27:49Z</time>
      </trkpt>
      <trkpt lat="45.63183" lon="5.70834">
        <ele>823.99</ele>
        <time>2011-06-19T09:27:57Z</time>
      </trkpt>
      <trkpt lat="45.63203" lon="5.70812">
        <ele>826.39</ele>
        <time>2011-06-19T09:28:11Z</time>
      </trkpt>
      <trkpt lat="45.63208" lon="5.70808">
        <ele>825.91</ele>
        <time>2011-06-19T09:28:13Z</time>
      </trkpt>
      <trkpt lat="45.63218" lon="5.7081">
        <ele>823.99</ele>
        <time>2011-06-19T09:28:16Z</time>
      </trkpt>
      <trkpt lat="45.63242" lon="5.70827">
        <ele>819.18</ele>
        <time>2011-06-19T09:28:21Z</time>
      </trkpt>
      <trkpt lat="45.63258" lon="5.70836">
        <ele>816.78</ele>
        <time>2011-06-19T09:28:24Z</time>
      </trkpt>
      <trkpt lat="45.63271" lon="5.70843">
        <ele>815.34</ele>
        <time>2011-06-19T09:28:27Z</time>
      </trkpt>
      <trkpt lat="45.6328" lon="5.7079">
        <ele>813.41</ele>
        <time>2011-06-19T09:28:37Z</time>
      </trkpt>
      <trkpt lat="45.6328" lon="5.70779">
        <ele>812.93</ele>
        <time>2011-06-19T09:28:40Z</time>
      </trkpt>
      <trkpt lat="45.63282" lon="5.70773">
        <ele>812.45</ele>
        <time>2011-06-19T09:28:41Z</time>
      </trkpt>
      <trkpt lat="45.63284" lon="5.70767">
        <ele>812.93</ele>
        <time>2011-06-19T09:28:42Z</time>
      </trkpt>
      <trkpt lat="45.63332" lon="5.70656">
        <ele>811.01</ele>
        <time>2011-06-19T09:28:55Z</time>
      </trkpt>
      <trkpt lat="45.63432" lon="5.7062">
        <ele>810.05</ele>
        <time>2011-06-19T09:29:08Z</time>
      </trkpt>
      <trkpt lat="45.63438" lon="5.70623">
        <ele>809.57</ele>
        <time>2011-06-19T09:29:09Z</time>
      </trkpt>
      <trkpt lat="45.63443" lon="5.7062">
        <ele>809.09</ele>
        <time>2011-06-19T09:29:10Z</time>
      </trkpt>
      <trkpt lat="45.6345" lon="5.70613">
        <ele>809.57</ele>
        <time>2011-06-19T09:29:11Z</time>
      </trkpt>
      <trkpt lat="45.63454" lon="5.70606">
        <ele>809.09</ele>
        <time>2011-06-19T09:29:12Z</time>
      </trkpt>
      <trkpt lat="45.63458" lon="5.706">
        <ele>808.61</ele>
        <time>2011-06-19T09:29:13Z</time>
      </trkpt>
      <trkpt lat="45.63462" lon="5.70593">
        <ele>808.13</ele>
        <time>2011-06-19T09:29:14Z</time>
      </trkpt>
      <trkpt lat="45.63464" lon="5.70586">
        <ele>807.64</ele>
        <time>2011-06-19T09:29:15Z</time>
      </trkpt>
      <trkpt lat="45.63475" lon="5.70558">
        <ele>805.24</ele>
        <time>2011-06-19T09:29:18Z</time>
      </trkpt>
      <trkpt lat="45.635" lon="5.7052">
        <ele>801.88</ele>
        <time>2011-06-19T09:29:22Z</time>
      </trkpt>
      <trkpt lat="45.63528" lon="5.70481">
        <ele>798.03</ele>
        <time>2011-06-19T09:29:26Z</time>
      </trkpt>
      <trkpt lat="45.63556" lon="5.70448">
        <ele>795.63</ele>
        <time>2011-06-19T09:29:30Z</time>
      </trkpt>
      <trkpt lat="45.63561" lon="5.70441">
        <ele>795.63</ele>
        <time>2011-06-19T09:29:31Z</time>
      </trkpt>
      <trkpt lat="45.63564" lon="5.70433">
        <ele>794.67</ele>
        <time>2011-06-19T09:29:32Z</time>
      </trkpt>
      <trkpt lat="45.63565" lon="5.70423">
        <ele>794.67</ele>
        <time>2011-06-19T09:29:33Z</time>
      </trkpt>
      <trkpt lat="45.63565" lon="5.70413">
        <ele>793.71</ele>
        <time>2011-06-19T09:29:34Z</time>
      </trkpt>
      <trkpt lat="45.63563" lon="5.70403">
        <ele>792.26</ele>
        <time>2011-06-19T09:29:35Z</time>
      </trkpt>
      <trkpt lat="45.6356" lon="5.70392">
        <ele>791.78</ele>
        <time>2011-06-19T09:29:36Z</time>
      </trkpt>
      <trkpt lat="45.63555" lon="5.70382">
        <ele>790.82</ele>
        <time>2011-06-19T09:29:37Z</time>
      </trkpt>
      <trkpt lat="45.63549" lon="5.70371">
        <ele>789.86</ele>
        <time>2011-06-19T09:29:38Z</time>
      </trkpt>
      <trkpt lat="45.63543" lon="5.70361">
        <ele>789.38</ele>
        <time>2011-06-19T09:29:39Z</time>
      </trkpt>
      <trkpt lat="45.63524" lon="5.70332">
        <ele>786.02</ele>
        <time>2011-06-19T09:29:42Z</time>
      </trkpt>
      <trkpt lat="45.63515" lon="5.70318">
        <ele>785.05</ele>
        <time>2011-06-19T09:29:44Z</time>
      </trkpt>
      <trkpt lat="45.63508" lon="5.70309">
        <ele>783.13</ele>
        <time>2011-06-19T09:29:46Z</time>
      </trkpt>
      <trkpt lat="45.63504" lon="5.70305">
        <ele>783.13</ele>
        <time>2011-06-19T09:29:47Z</time>
      </trkpt>
      <trkpt lat="45.63502" lon="5.70302">
        <ele>782.17</ele>
        <time>2011-06-19T09:29:48Z</time>
      </trkpt>
      <trkpt lat="45.63501" lon="5.70299">
        <ele>782.17</ele>
        <time>2011-06-19T09:29:49Z</time>
      </trkpt>
      <trkpt lat="45.63502" lon="5.70297">
        <ele>781.69</ele>
        <time>2011-06-19T09:29:50Z</time>
      </trkpt>
      <trkpt lat="45.63527" lon="5.70317">
        <ele>779.77</ele>
        <time>2011-06-19T09:29:58Z</time>
      </trkpt>
      <trkpt lat="45.63531" lon="5.70317">
        <ele>779.29</ele>
        <time>2011-06-19T09:29:59Z</time>
      </trkpt>
      <trkpt lat="45.63535" lon="5.70314">
        <ele>778.81</ele>
        <time>2011-06-19T09:30:00Z</time>
      </trkpt>
      <trkpt lat="45.63555" lon="5.70289">
        <ele>780.25</ele>
        <time>2011-06-19T09:30:09Z</time>
      </trkpt>
      <trkpt lat="45.63559" lon="5.70286">
        <ele>781.69</ele>
        <time>2011-06-19T09:30:12Z</time>
      </trkpt>
      <trkpt lat="45.63577" lon="5.70284">
        <ele>785.05</ele>
        <time>2011-06-19T09:30:25Z</time>
      </trkpt>
      <trkpt lat="45.63597" lon="5.70286">
        <ele>786.98</ele>
        <time>2011-06-19T09:30:40Z</time>
      </trkpt>
      <trkpt lat="45.63602" lon="5.70283">
        <ele>788.42</ele>
        <time>2011-06-19T09:30:45Z</time>
      </trkpt>
      <trkpt lat="45.63603" lon="5.70283">
        <ele>787.94</ele>
        <time>2011-06-19T09:30:46Z</time>
      </trkpt>
      <trkpt lat="45.63605" lon="5.70283">
        <ele>788.42</ele>
        <time>2011-06-19T09:30:47Z</time>
      </trkpt>
      <trkpt lat="45.63606" lon="5.70284">
        <ele>788.42</ele>
        <time>2011-06-19T09:30:48Z</time>
      </trkpt>
      <trkpt lat="45.63608" lon="5.70284">
        <ele>788.9</ele>
        <time>2011-06-19T09:30:49Z</time>
      </trkpt>
      <trkpt lat="45.63626" lon="5.7028">
        <ele>791.78</ele>
        <time>2011-06-19T09:31:02Z</time>
      </trkpt>
      <trkpt lat="45.63628" lon="5.70279">
        <ele>791.3</ele>
        <time>2011-06-19T09:31:03Z</time>
      </trkpt>
      <trkpt lat="45.63642" lon="5.70264">
        <ele>793.71</ele>
        <time>2011-06-19T09:31:16Z</time>
      </trkpt>
      <trkpt lat="45.63643" lon="5.70264">
        <ele>793.71</ele>
        <time>2011-06-19T09:31:17Z</time>
      </trkpt>
      <trkpt lat="45.63644" lon="5.70263">
        <ele>793.71</ele>
        <time>2011-06-19T09:31:18Z</time>
      </trkpt>
      <trkpt lat="45.63654" lon="5.70264">
        <ele>796.11</ele>
        <time>2011-06-19T09:31:30Z</time>
      </trkpt>
      <trkpt lat="45.63656" lon="5.70263">
        <ele>796.11</ele>
        <time>2011-06-19T09:31:32Z</time>
      </trkpt>
      <trkpt lat="45.63658" lon="5.70263">
        <ele>796.11</ele>
        <time>2011-06-19T09:31:34Z</time>
      </trkpt>
      <trkpt lat="45.63672" lon="5.70261">
        <ele>798.99</ele>
        <time>2011-06-19T09:31:49Z</time>
      </trkpt>
      <trkpt lat="45.63677" lon="5.70256">
        <ele>799.95</ele>
        <time>2011-06-19T09:32:03Z</time>
      </trkpt>
      <trkpt lat="45.63677" lon="5.70254">
        <ele>799.95</ele>
        <time>2011-06-19T09:32:04Z</time>
      </trkpt>
      <trkpt lat="45.63678" lon="5.70253">
        <ele>799.95</ele>
        <time>2011-06-19T09:32:05Z</time>
      </trkpt>
      <trkpt lat="45.63679" lon="5.70252">
        <ele>800.92</ele>
        <time>2011-06-19T09:32:06Z</time>
      </trkpt>
      <trkpt lat="45.6368" lon="5.7025">
        <ele>800.92</ele>
        <time>2011-06-19T09:32:07Z</time>
      </trkpt>
      <trkpt lat="45.63681" lon="5.70249">
        <ele>800.92</ele>
        <time>2011-06-19T09:32:08Z</time>
      </trkpt>
      <trkpt lat="45.63683" lon="5.70248">
        <ele>800.92</ele>
        <time>2011-06-19T09:32:09Z</time>
      </trkpt>
      <trkpt lat="45.63684" lon="5.70247">
        <ele>800.92</ele>
        <time>2011-06-19T09:32:10Z</time>
      </trkpt>
      <trkpt lat="45.63692" lon="5.70244">
        <ele>801.88</ele>
        <time>2011-06-19T09:32:16Z</time>
      </trkpt>
      <trkpt lat="45.63694" lon="5.70243">
        <ele>802.36</ele>
        <time>2011-06-19T09:32:17Z</time>
      </trkpt>
      <trkpt lat="45.63694" lon="5.70241">
        <ele>802.36</ele>
        <time>2011-06-19T09:32:18Z</time>
      </trkpt>
      <trkpt lat="45.63706" lon="5.70205">
        <ele>804.28</ele>
        <time>2011-06-19T09:32:32Z</time>
      </trkpt>
      <trkpt lat="45.63711" lon="5.70197">
        <ele>804.76</ele>
        <time>2011-06-19T09:32:38Z</time>
      </trkpt>
      <trkpt lat="45.63735" lon="5.70213">
        <ele>807.64</ele>
        <time>2011-06-19T09:32:54Z</time>
      </trkpt>
      <trkpt lat="45.63754" lon="5.70229">
        <ele>810.05</ele>
        <time>2011-06-19T09:33:08Z</time>
      </trkpt>
      <trkpt lat="45.63776" lon="5.7023">
        <ele>812.45</ele>
        <time>2011-06-19T09:33:22Z</time>
      </trkpt>
      <trkpt lat="45.63797" lon="5.70226">
        <ele>813.89</ele>
        <time>2011-06-19T09:33:34Z</time>
      </trkpt>
      <trkpt lat="45.63824" lon="5.70226">
        <ele>816.3</ele>
        <time>2011-06-19T09:33:48Z</time>
      </trkpt>
      <trkpt lat="45.63847" lon="5.70241">
        <ele>819.18</ele>
        <time>2011-06-19T09:34:02Z</time>
      </trkpt>
      <trkpt lat="45.63861" lon="5.70292">
        <ele>818.7</ele>
        <time>2011-06-19T09:34:16Z</time>
      </trkpt>
      <trkpt lat="45.6389" lon="5.70343">
        <ele>820.14</ele>
        <time>2011-06-19T09:34:29Z</time>
      </trkpt>
      <trkpt lat="45.63929" lon="5.70368">
        <ele>821.58</ele>
        <time>2011-06-19T09:34:43Z</time>
      </trkpt>
      <trkpt lat="45.63962" lon="5.70333">
        <ele>820.62</ele>
        <time>2011-06-19T09:34:57Z</time>
      </trkpt>
      <trkpt lat="45.63977" lon="5.7033">
        <ele>816.78</ele>
        <time>2011-06-19T09:35:02Z</time>
      </trkpt>
      <trkpt lat="45.63981" lon="5.70301">
        <ele>813.41</ele>
        <time>2011-06-19T09:35:06Z</time>
      </trkpt>
      <trkpt lat="45.63987" lon="5.70285">
        <ele>811.97</ele>
        <time>2011-06-19T09:35:08Z</time>
      </trkpt>
      <trkpt lat="45.64012" lon="5.70267">
        <ele>810.05</ele>
        <time>2011-06-19T09:35:13Z</time>
      </trkpt>
      <trkpt lat="45.64017" lon="5.70272">
        <ele>810.05</ele>
        <time>2011-06-19T09:35:14Z</time>
      </trkpt>
      <trkpt lat="45.6402" lon="5.70275">
        <ele>810.53</ele>
        <time>2011-06-19T09:35:15Z</time>
      </trkpt>
      <trkpt lat="45.64024" lon="5.70279">
        <ele>810.05</ele>
        <time>2011-06-19T09:35:16Z</time>
      </trkpt>
      <trkpt lat="45.64027" lon="5.70283">
        <ele>810.05</ele>
        <time>2011-06-19T09:35:17Z</time>
      </trkpt>
      <trkpt lat="45.64031" lon="5.70287">
        <ele>809.57</ele>
        <time>2011-06-19T09:35:18Z</time>
      </trkpt>
      <trkpt lat="45.64035" lon="5.70291">
        <ele>809.57</ele>
        <time>2011-06-19T09:35:19Z</time>
      </trkpt>
      <trkpt lat="45.64056" lon="5.70329">
        <ele>812.93</ele>
        <time>2011-06-19T09:35:31Z</time>
      </trkpt>
      <trkpt lat="45.64045" lon="5.70342">
        <ele>813.89</ele>
        <time>2011-06-19T09:35:36Z</time>
      </trkpt>
      <trkpt lat="45.64046" lon="5.70343">
        <ele>814.37</ele>
        <time>2011-06-19T09:35:37Z</time>
      </trkpt>
      <trkpt lat="45.64047" lon="5.70343">
        <ele>814.85</ele>
        <time>2011-06-19T09:35:38Z</time>
      </trkpt>
      <trkpt lat="45.64048" lon="5.70342">
        <ele>815.34</ele>
        <time>2011-06-19T09:35:39Z</time>
      </trkpt>
      <trkpt lat="45.64049" lon="5.70342">
        <ele>814.85</ele>
        <time>2011-06-19T09:35:40Z</time>
      </trkpt>
      <trkpt lat="45.6405" lon="5.70341">
        <ele>815.34</ele>
        <time>2011-06-19T09:35:41Z</time>
      </trkpt>
      <trkpt lat="45.64051" lon="5.7034">
        <ele>815.82</ele>
        <time>2011-06-19T09:35:42Z</time>
      </trkpt>
      <trkpt lat="45.64053" lon="5.7034">
        <ele>815.82</ele>
        <time>2011-06-19T09:35:43Z</time>
      </trkpt>
      <trkpt lat="45.64054" lon="5.70339">
        <ele>815.82</ele>
        <time>2011-06-19T09:35:44Z</time>
      </trkpt>
      <trkpt lat="45.64061" lon="5.70337">
        <ele>817.74</ele>
        <time>2011-06-19T09:35:51Z</time>
      </trkpt>
      <trkpt lat="45.64076" lon="5.70337">
        <ele>819.66</ele>
        <time>2011-06-19T09:36:04Z</time>
      </trkpt>
      <trkpt lat="45.64083" lon="5.70341">
        <ele>821.1</ele>
        <time>2011-06-19T09:36:17Z</time>
      </trkpt>
      <trkpt lat="45.64095" lon="5.70353">
        <ele>823.51</ele>
        <time>2011-06-19T09:36:32Z</time>
      </trkpt>
      <trkpt lat="45.64096" lon="5.70357">
        <ele>823.51</ele>
        <time>2011-06-19T09:36:35Z</time>
      </trkpt>
      <trkpt lat="45.64103" lon="5.70377">
        <ele>825.91</ele>
        <time>2011-06-19T09:36:52Z</time>
      </trkpt>
      <trkpt lat="45.64113" lon="5.70385">
        <ele>827.35</ele>
        <time>2011-06-19T09:37:07Z</time>
      </trkpt>
      <trkpt lat="45.64113" lon="5.70385">
        <ele>827.83</ele>
        <time>2011-06-19T09:37:26Z</time>
      </trkpt>
      <trkpt lat="45.64127" lon="5.70392">
        <ele>829.27</ele>
        <time>2011-06-19T09:37:35Z</time>
      </trkpt>
      <trkpt lat="45.64156" lon="5.70403">
        <ele>831.2</ele>
        <time>2011-06-19T09:37:50Z</time>
      </trkpt>
      <trkpt lat="45.64176" lon="5.70391">
        <ele>827.83</ele>
        <time>2011-06-19T09:37:58Z</time>
      </trkpt>
      <trkpt lat="45.64217" lon="5.70381">
        <ele>828.31</ele>
        <time>2011-06-19T09:38:10Z</time>
      </trkpt>
      <trkpt lat="45.64226" lon="5.70392">
        <ele>830.24</ele>
        <time>2011-06-19T09:38:17Z</time>
      </trkpt>
      <trkpt lat="45.64225" lon="5.70403">
        <ele>833.12</ele>
        <time>2011-06-19T09:38:30Z</time>
      </trkpt>
      <trkpt lat="45.64225" lon="5.70421">
        <ele>836</ele>
        <time>2011-06-19T09:38:45Z</time>
      </trkpt>
      <trkpt lat="45.6423" lon="5.70439">
        <ele>837.93</ele>
        <time>2011-06-19T09:38:59Z</time>
      </trkpt>
      <trkpt lat="45.64236" lon="5.70465">
        <ele>836.96</ele>
        <time>2011-06-19T09:39:12Z</time>
      </trkpt>
      <trkpt lat="45.6424" lon="5.70493">
        <ele>834.08</ele>
        <time>2011-06-19T09:39:17Z</time>
      </trkpt>
      <trkpt lat="45.64259" lon="5.70536">
        <ele>835.52</ele>
        <time>2011-06-19T09:39:29Z</time>
      </trkpt>
      <trkpt lat="45.64271" lon="5.70552">
        <ele>838.41</ele>
        <time>2011-06-19T09:39:40Z</time>
      </trkpt>
      <trkpt lat="45.64274" lon="5.70556">
        <ele>839.37</ele>
        <time>2011-06-19T09:39:44Z</time>
      </trkpt>
      <trkpt lat="45.64274" lon="5.70557">
        <ele>839.37</ele>
        <time>2011-06-19T09:39:45Z</time>
      </trkpt>
      <trkpt lat="45.6428" lon="5.7057">
        <ele>841.77</ele>
        <time>2011-06-19T09:39:58Z</time>
      </trkpt>
      <trkpt lat="45.64285" lon="5.70587">
        <ele>844.66</ele>
        <time>2011-06-19T09:40:13Z</time>
      </trkpt>
      <trkpt lat="45.64285" lon="5.70602">
        <ele>847.06</ele>
        <time>2011-06-19T09:40:28Z</time>
      </trkpt>
      <trkpt lat="45.64285" lon="5.70612">
        <ele>849.94</ele>
        <time>2011-06-19T09:40:43Z</time>
      </trkpt>
      <trkpt lat="45.64285" lon="5.70621">
        <ele>852.35</ele>
        <time>2011-06-19T09:40:58Z</time>
      </trkpt>
      <trkpt lat="45.64285" lon="5.7063">
        <ele>853.79</ele>
        <time>2011-06-19T09:41:12Z</time>
      </trkpt>
      <trkpt lat="45.6429" lon="5.70635">
        <ele>854.75</ele>
        <time>2011-06-19T09:41:26Z</time>
      </trkpt>
      <trkpt lat="45.64298" lon="5.70638">
        <ele>855.71</ele>
        <time>2011-06-19T09:41:32Z</time>
      </trkpt>
      <trkpt lat="45.643" lon="5.70639">
        <ele>855.23</ele>
        <time>2011-06-19T09:41:33Z</time>
      </trkpt>
      <trkpt lat="45.64302" lon="5.70639">
        <ele>855.71</ele>
        <time>2011-06-19T09:41:34Z</time>
      </trkpt>
      <trkpt lat="45.64303" lon="5.7064">
        <ele>855.71</ele>
        <time>2011-06-19T09:41:35Z</time>
      </trkpt>
      <trkpt lat="45.64305" lon="5.7064">
        <ele>855.71</ele>
        <time>2011-06-19T09:41:36Z</time>
      </trkpt>
      <trkpt lat="45.64307" lon="5.7064">
        <ele>855.71</ele>
        <time>2011-06-19T09:41:37Z</time>
      </trkpt>
      <trkpt lat="45.64309" lon="5.70641">
        <ele>856.19</ele>
        <time>2011-06-19T09:41:38Z</time>
      </trkpt>
      <trkpt lat="45.64345" lon="5.70667">
        <ele>855.71</ele>
        <time>2011-06-19T09:41:52Z</time>
      </trkpt>
      <trkpt lat="45.64364" lon="5.70686">
        <ele>851.38</ele>
        <time>2011-06-19T09:42:01Z</time>
      </trkpt>
      <trkpt lat="45.64389" lon="5.70689">
        <ele>848.02</ele>
        <time>2011-06-19T09:42:07Z</time>
      </trkpt>
      <trkpt lat="45.64422" lon="5.70692">
        <ele>844.18</ele>
        <time>2011-06-19T09:42:15Z</time>
      </trkpt>
      <trkpt lat="45.64425" lon="5.70695">
        <ele>844.18</ele>
        <time>2011-06-19T09:42:16Z</time>
      </trkpt>
      <trkpt lat="45.64441" lon="5.70733">
        <ele>840.33</ele>
        <time>2011-06-19T09:42:25Z</time>
      </trkpt>
      <trkpt lat="45.64445" lon="5.70737">
        <ele>839.37</ele>
        <time>2011-06-19T09:42:27Z</time>
      </trkpt>
      <trkpt lat="45.64457" lon="5.70736">
        <ele>836.48</ele>
        <time>2011-06-19T09:42:34Z</time>
      </trkpt>
      <trkpt lat="45.64457" lon="5.70734">
        <ele>836</ele>
        <time>2011-06-19T09:42:35Z</time>
      </trkpt>
      <trkpt lat="45.64459" lon="5.70728">
        <ele>832.64</ele>
        <time>2011-06-19T09:42:40Z</time>
      </trkpt>
      <trkpt lat="45.64461" lon="5.70722">
        <ele>831.2</ele>
        <time>2011-06-19T09:42:42Z</time>
      </trkpt>
      <trkpt lat="45.64472" lon="5.70707">
        <ele>827.83</ele>
        <time>2011-06-19T09:42:47Z</time>
      </trkpt>
      <trkpt lat="45.64475" lon="5.70705">
        <ele>827.35</ele>
        <time>2011-06-19T09:42:48Z</time>
      </trkpt>
      <trkpt lat="45.64478" lon="5.70702">
        <ele>826.87</ele>
        <time>2011-06-19T09:42:50Z</time>
      </trkpt>
      <trkpt lat="45.64479" lon="5.70702">
        <ele>827.35</ele>
        <time>2011-06-19T09:42:51Z</time>
      </trkpt>
      <trkpt lat="45.64495" lon="5.70703">
        <ele>823.99</ele>
        <time>2011-06-19T09:42:58Z</time>
      </trkpt>
      <trkpt lat="45.64521" lon="5.70687">
        <ele>821.58</ele>
        <time>2011-06-19T09:43:03Z</time>
      </trkpt>
      <trkpt lat="45.64531" lon="5.70675">
        <ele>819.66</ele>
        <time>2011-06-19T09:43:06Z</time>
      </trkpt>
      <trkpt lat="45.6453" lon="5.70672">
        <ele>818.7</ele>
        <time>2011-06-19T09:43:11Z</time>
      </trkpt>
      <trkpt lat="45.64528" lon="5.70669">
        <ele>817.26</ele>
        <time>2011-06-19T09:43:17Z</time>
      </trkpt>
      <trkpt lat="45.64522" lon="5.70666">
        <ele>815.34</ele>
        <time>2011-06-19T09:43:22Z</time>
      </trkpt>
      <trkpt lat="45.64522" lon="5.70666">
        <ele>814.85</ele>
        <time>2011-06-19T09:43:23Z</time>
      </trkpt>
      <trkpt lat="45.64524" lon="5.70656">
        <ele>811.97</ele>
        <time>2011-06-19T09:43:34Z</time>
      </trkpt>
      <trkpt lat="45.64525" lon="5.70652">
        <ele>811.01</ele>
        <time>2011-06-19T09:43:36Z</time>
      </trkpt>
      <trkpt lat="45.64526" lon="5.70648">
        <ele>810.05</ele>
        <time>2011-06-19T09:43:38Z</time>
      </trkpt>
      <trkpt lat="45.64526" lon="5.70647">
        <ele>806.68</ele>
        <time>2011-06-19T09:43:42Z</time>
      </trkpt>
      <trkpt lat="45.64526" lon="5.70648">
        <ele>805.24</ele>
        <time>2011-06-19T09:43:44Z</time>
      </trkpt>
      <trkpt lat="45.64521" lon="5.70643">
        <ele>802.84</ele>
        <time>2011-06-19T09:43:46Z</time>
      </trkpt>
      <trkpt lat="45.64517" lon="5.70625">
        <ele>799.47</ele>
        <time>2011-06-19T09:43:52Z</time>
      </trkpt>
      <trkpt lat="45.64516" lon="5.70617">
        <ele>798.03</ele>
        <time>2011-06-19T09:43:54Z</time>
      </trkpt>
      <trkpt lat="45.64512" lon="5.70589">
        <ele>794.67</ele>
        <time>2011-06-19T09:44:01Z</time>
      </trkpt>
      <trkpt lat="45.64511" lon="5.70583">
        <ele>794.67</ele>
        <time>2011-06-19T09:44:02Z</time>
      </trkpt>
      <trkpt lat="45.64508" lon="5.70555">
        <ele>791.3</ele>
        <time>2011-06-19T09:44:07Z</time>
      </trkpt>
      <trkpt lat="45.64516" lon="5.70546">
        <ele>787.94</ele>
        <time>2011-06-19T09:44:18Z</time>
      </trkpt>
      <trkpt lat="45.6452" lon="5.70544">
        <ele>786.98</ele>
        <time>2011-06-19T09:44:20Z</time>
      </trkpt>
      <trkpt lat="45.64527" lon="5.70537">
        <ele>784.09</ele>
        <time>2011-06-19T09:44:24Z</time>
      </trkpt>
      <trkpt lat="45.64534" lon="5.70526">
        <ele>782.17</ele>
        <time>2011-06-19T09:44:35Z</time>
      </trkpt>
      <trkpt lat="45.64543" lon="5.70519">
        <ele>779.29</ele>
        <time>2011-06-19T09:44:47Z</time>
      </trkpt>
      <trkpt lat="45.64552" lon="5.70513">
        <ele>775.92</ele>
        <time>2011-06-19T09:44:52Z</time>
      </trkpt>
      <trkpt lat="45.64562" lon="5.70509">
        <ele>772.56</ele>
        <time>2011-06-19T09:44:57Z</time>
      </trkpt>
      <trkpt lat="45.64569" lon="5.70508">
        <ele>770.63</ele>
        <time>2011-06-19T09:45:00Z</time>
      </trkpt>
      <trkpt lat="45.64582" lon="5.70506">
        <ele>767.75</ele>
        <time>2011-06-19T09:45:05Z</time>
      </trkpt>
      <trkpt lat="45.64587" lon="5.70506">
        <ele>766.79</ele>
        <time>2011-06-19T09:45:07Z</time>
      </trkpt>
      <trkpt lat="45.64596" lon="5.70501">
        <ele>763.42</ele>
        <time>2011-06-19T09:45:13Z</time>
      </trkpt>
      <trkpt lat="45.64606" lon="5.70499">
        <ele>760.06</ele>
        <time>2011-06-19T09:45:18Z</time>
      </trkpt>
      <trkpt lat="45.64612" lon="5.70498">
        <ele>759.1</ele>
        <time>2011-06-19T09:45:21Z</time>
      </trkpt>
      <trkpt lat="45.64617" lon="5.70498">
        <ele>757.18</ele>
        <time>2011-06-19T09:45:28Z</time>
      </trkpt>
      <trkpt lat="45.64622" lon="5.70496">
        <ele>755.25</ele>
        <time>2011-06-19T09:45:31Z</time>
      </trkpt>
      <trkpt lat="45.64628" lon="5.70492">
        <ele>753.33</ele>
        <time>2011-06-19T09:45:35Z</time>
      </trkpt>
      <trkpt lat="45.64633" lon="5.70482">
        <ele>749.97</ele>
        <time>2011-06-19T09:45:42Z</time>
      </trkpt>
      <trkpt lat="45.64638" lon="5.70471">
        <ele>746.6</ele>
        <time>2011-06-19T09:45:55Z</time>
      </trkpt>
      <trkpt lat="45.64639" lon="5.70469">
        <ele>746.12</ele>
        <time>2011-06-19T09:45:58Z</time>
      </trkpt>
      <trkpt lat="45.64648" lon="5.70463">
        <ele>742.76</ele>
        <time>2011-06-19T09:46:03Z</time>
      </trkpt>
      <trkpt lat="45.64654" lon="5.70462">
        <ele>741.79</ele>
        <time>2011-06-19T09:46:05Z</time>
      </trkpt>
      <trkpt lat="45.64661" lon="5.70463">
        <ele>739.87</ele>
        <time>2011-06-19T09:46:08Z</time>
      </trkpt>
      <trkpt lat="45.64667" lon="5.70464">
        <ele>738.43</ele>
        <time>2011-06-19T09:46:10Z</time>
      </trkpt>
      <trkpt lat="45.64686" lon="5.70472">
        <ele>735.55</ele>
        <time>2011-06-19T09:46:16Z</time>
      </trkpt>
      <trkpt lat="45.6469" lon="5.70475">
        <ele>734.58</ele>
        <time>2011-06-19T09:46:18Z</time>
      </trkpt>
      <trkpt lat="45.64702" lon="5.70487">
        <ele>731.7</ele>
        <time>2011-06-19T09:46:25Z</time>
      </trkpt>
      <trkpt lat="45.64711" lon="5.70497">
        <ele>728.34</ele>
        <time>2011-06-19T09:46:30Z</time>
      </trkpt>
      <trkpt lat="45.64716" lon="5.70503">
        <ele>726.89</ele>
        <time>2011-06-19T09:46:33Z</time>
      </trkpt>
      <trkpt lat="45.64729" lon="5.70507">
        <ele>724.97</ele>
        <time>2011-06-19T09:46:45Z</time>
      </trkpt>
      <trkpt lat="45.64734" lon="5.7051">
        <ele>723.53</ele>
        <time>2011-06-19T09:46:49Z</time>
      </trkpt>
      <trkpt lat="45.64737" lon="5.70514">
        <ele>721.61</ele>
        <time>2011-06-19T09:46:55Z</time>
      </trkpt>
      <trkpt lat="45.64746" lon="5.70517">
        <ele>718.24</ele>
        <time>2011-06-19T09:47:10Z</time>
      </trkpt>
      <trkpt lat="45.64747" lon="5.70517">
        <ele>718.24</ele>
        <time>2011-06-19T09:47:11Z</time>
      </trkpt>
      <trkpt lat="45.64749" lon="5.70517">
        <ele>716.8</ele>
        <time>2011-06-19T09:47:13Z</time>
      </trkpt>
      <trkpt lat="45.64751" lon="5.70518">
        <ele>714.88</ele>
        <time>2011-06-19T09:47:17Z</time>
      </trkpt>
      <trkpt lat="45.64754" lon="5.70531">
        <ele>712.95</ele>
        <time>2011-06-19T09:47:20Z</time>
      </trkpt>
      <trkpt lat="45.64777" lon="5.7054">
        <ele>709.59</ele>
        <time>2011-06-19T09:47:28Z</time>
      </trkpt>
      <trkpt lat="45.64824" lon="5.7053">
        <ele>706.71</ele>
        <time>2011-06-19T09:47:36Z</time>
      </trkpt>
      <trkpt lat="45.64912" lon="5.70552">
        <ele>703.82</ele>
        <time>2011-06-19T09:47:47Z</time>
      </trkpt>
      <trkpt lat="45.64966" lon="5.70571">
        <ele>702.38</ele>
        <time>2011-06-19T09:47:57Z</time>
      </trkpt>
      <trkpt lat="45.64971" lon="5.70575">
        <ele>702.38</ele>
        <time>2011-06-19T09:47:58Z</time>
      </trkpt>
      <trkpt lat="45.64976" lon="5.70576">
        <ele>702.38</ele>
        <time>2011-06-19T09:47:59Z</time>
      </trkpt>
      <trkpt lat="45.65014" lon="5.70591">
        <ele>701.42</ele>
        <time>2011-06-19T09:48:10Z</time>
      </trkpt>
      <trkpt lat="45.65027" lon="5.70598">
        <ele>699.02</ele>
        <time>2011-06-19T09:48:14Z</time>
      </trkpt>
      <trkpt lat="45.65036" lon="5.70605">
        <ele>698.05</ele>
        <time>2011-06-19T09:48:16Z</time>
      </trkpt>
      <trkpt lat="45.65042" lon="5.7061">
        <ele>698.05</ele>
        <time>2011-06-19T09:48:17Z</time>
      </trkpt>
      <trkpt lat="45.65048" lon="5.70616">
        <ele>697.57</ele>
        <time>2011-06-19T09:48:18Z</time>
      </trkpt>
      <trkpt lat="45.65054" lon="5.70621">
        <ele>697.09</ele>
        <time>2011-06-19T09:48:19Z</time>
      </trkpt>
      <trkpt lat="45.6506" lon="5.70624">
        <ele>696.61</ele>
        <time>2011-06-19T09:48:20Z</time>
      </trkpt>
      <trkpt lat="45.65067" lon="5.70627">
        <ele>696.61</ele>
        <time>2011-06-19T09:48:21Z</time>
      </trkpt>
      <trkpt lat="45.65074" lon="5.70629">
        <ele>696.61</ele>
        <time>2011-06-19T09:48:22Z</time>
      </trkpt>
      <trkpt lat="45.6508" lon="5.7063">
        <ele>696.61</ele>
        <time>2011-06-19T09:48:23Z</time>
      </trkpt>
      <trkpt lat="45.65087" lon="5.7063">
        <ele>696.61</ele>
        <time>2011-06-19T09:48:24Z</time>
      </trkpt>
      <trkpt lat="45.65093" lon="5.70631">
        <ele>697.09</ele>
        <time>2011-06-19T09:48:25Z</time>
      </trkpt>
      <trkpt lat="45.65097" lon="5.70632">
        <ele>697.09</ele>
        <time>2011-06-19T09:48:26Z</time>
      </trkpt>
      <trkpt lat="45.65101" lon="5.70634">
        <ele>697.57</ele>
        <time>2011-06-19T09:48:27Z</time>
      </trkpt>
      <trkpt lat="45.65105" lon="5.70638">
        <ele>697.57</ele>
        <time>2011-06-19T09:48:28Z</time>
      </trkpt>
      <trkpt lat="45.65108" lon="5.7064">
        <ele>698.05</ele>
        <time>2011-06-19T09:48:29Z</time>
      </trkpt>
      <trkpt lat="45.6511" lon="5.70641">
        <ele>698.53</ele>
        <time>2011-06-19T09:48:30Z</time>
      </trkpt>
      <trkpt lat="45.65112" lon="5.70641">
        <ele>698.05</ele>
        <time>2011-06-19T09:48:31Z</time>
      </trkpt>
      <trkpt lat="45.65114" lon="5.70641">
        <ele>698.53</ele>
        <time>2011-06-19T09:48:32Z</time>
      </trkpt>
      <trkpt lat="45.65115" lon="5.7064">
        <ele>698.53</ele>
        <time>2011-06-19T09:48:33Z</time>
      </trkpt>
      <trkpt lat="45.6512" lon="5.7064">
        <ele>698.05</ele>
        <time>2011-06-19T09:48:36Z</time>
      </trkpt>
      <trkpt lat="45.65122" lon="5.7064">
        <ele>697.57</ele>
        <time>2011-06-19T09:48:37Z</time>
      </trkpt>
      <trkpt lat="45.65124" lon="5.70641">
        <ele>696.13</ele>
        <time>2011-06-19T09:48:38Z</time>
      </trkpt>
      <trkpt lat="45.65126" lon="5.70641">
        <ele>695.65</ele>
        <time>2011-06-19T09:48:39Z</time>
      </trkpt>
      <trkpt lat="45.6513" lon="5.70641">
        <ele>694.21</ele>
        <time>2011-06-19T09:48:40Z</time>
      </trkpt>
      <trkpt lat="45.65142" lon="5.70651">
        <ele>690.84</ele>
        <time>2011-06-19T09:48:44Z</time>
      </trkpt>
      <trkpt lat="45.65152" lon="5.70661">
        <ele>687.48</ele>
        <time>2011-06-19T09:48:47Z</time>
      </trkpt>
      <trkpt lat="45.65171" lon="5.70672">
        <ele>686.04</ele>
        <time>2011-06-19T09:48:51Z</time>
      </trkpt>
      <trkpt lat="45.65178" lon="5.70674">
        <ele>686.04</ele>
        <time>2011-06-19T09:48:52Z</time>
      </trkpt>
      <trkpt lat="45.65184" lon="5.70676">
        <ele>685.56</ele>
        <time>2011-06-19T09:48:53Z</time>
      </trkpt>
      <trkpt lat="45.65195" lon="5.7068">
        <ele>684.12</ele>
        <time>2011-06-19T09:48:55Z</time>
      </trkpt>
      <trkpt lat="45.652" lon="5.70682">
        <ele>684.12</ele>
        <time>2011-06-19T09:48:56Z</time>
      </trkpt>
      <trkpt lat="45.65207" lon="5.70685">
        <ele>684.12</ele>
        <time>2011-06-19T09:48:57Z</time>
      </trkpt>
      <trkpt lat="45.65212" lon="5.70688">
        <ele>683.63</ele>
        <time>2011-06-19T09:48:58Z</time>
      </trkpt>
      <trkpt lat="45.65215" lon="5.70691">
        <ele>683.15</ele>
        <time>2011-06-19T09:48:59Z</time>
      </trkpt>
      <trkpt lat="45.6522" lon="5.70692">
        <ele>682.67</ele>
        <time>2011-06-19T09:49:00Z</time>
      </trkpt>
      <trkpt lat="45.65223" lon="5.70694">
        <ele>681.71</ele>
        <time>2011-06-19T09:49:01Z</time>
      </trkpt>
      <trkpt lat="45.65227" lon="5.70696">
        <ele>681.71</ele>
        <time>2011-06-19T09:49:02Z</time>
      </trkpt>
      <trkpt lat="45.6526" lon="5.70714">
        <ele>681.23</ele>
        <time>2011-06-19T09:49:09Z</time>
      </trkpt>
      <trkpt lat="45.65265" lon="5.70715">
        <ele>680.75</ele>
        <time>2011-06-19T09:49:10Z</time>
      </trkpt>
      <trkpt lat="45.65269" lon="5.70716">
        <ele>680.75</ele>
        <time>2011-06-19T09:49:11Z</time>
      </trkpt>
      <trkpt lat="45.65274" lon="5.70716">
        <ele>679.31</ele>
        <time>2011-06-19T09:49:12Z</time>
      </trkpt>
      <trkpt lat="45.65281" lon="5.70717">
        <ele>678.83</ele>
        <time>2011-06-19T09:49:13Z</time>
      </trkpt>
      <trkpt lat="45.65288" lon="5.70717">
        <ele>678.35</ele>
        <time>2011-06-19T09:49:14Z</time>
      </trkpt>
      <trkpt lat="45.65308" lon="5.70716">
        <ele>674.02</ele>
        <time>2011-06-19T09:49:18Z</time>
      </trkpt>
      <trkpt lat="45.65319" lon="5.70713">
        <ele>671.14</ele>
        <time>2011-06-19T09:49:21Z</time>
      </trkpt>
      <trkpt lat="45.65333" lon="5.70712">
        <ele>667.77</ele>
        <time>2011-06-19T09:49:24Z</time>
      </trkpt>
      <trkpt lat="45.65349" lon="5.7071">
        <ele>663.93</ele>
        <time>2011-06-19T09:49:28Z</time>
      </trkpt>
      <trkpt lat="45.65366" lon="5.70713">
        <ele>660.56</ele>
        <time>2011-06-19T09:49:33Z</time>
      </trkpt>
      <trkpt lat="45.65396" lon="5.70722">
        <ele>658.16</ele>
        <time>2011-06-19T09:49:39Z</time>
      </trkpt>
      <trkpt lat="45.65411" lon="5.70725">
        <ele>657.2</ele>
        <time>2011-06-19T09:49:41Z</time>
      </trkpt>
      <trkpt lat="45.65419" lon="5.70726">
        <ele>656.72</ele>
        <time>2011-06-19T09:49:42Z</time>
      </trkpt>
      <trkpt lat="45.65432" lon="5.70727">
        <ele>656.72</ele>
        <time>2011-06-19T09:49:44Z</time>
      </trkpt>
      <trkpt lat="45.65439" lon="5.70728">
        <ele>656.72</ele>
        <time>2011-06-19T09:49:45Z</time>
      </trkpt>
      <trkpt lat="45.65452" lon="5.7073">
        <ele>657.2</ele>
        <time>2011-06-19T09:49:47Z</time>
      </trkpt>
      <trkpt lat="45.65458" lon="5.70733">
        <ele>657.68</ele>
        <time>2011-06-19T09:49:48Z</time>
      </trkpt>
      <trkpt lat="45.65463" lon="5.70736">
        <ele>658.64</ele>
        <time>2011-06-19T09:49:49Z</time>
      </trkpt>
      <trkpt lat="45.65469" lon="5.70739">
        <ele>658.16</ele>
        <time>2011-06-19T09:49:50Z</time>
      </trkpt>
      <trkpt lat="45.65474" lon="5.70741">
        <ele>657.68</ele>
        <time>2011-06-19T09:49:51Z</time>
      </trkpt>
      <trkpt lat="45.65479" lon="5.70743">
        <ele>656.72</ele>
        <time>2011-06-19T09:49:52Z</time>
      </trkpt>
      <trkpt lat="45.65489" lon="5.70748">
        <ele>655.76</ele>
        <time>2011-06-19T09:49:54Z</time>
      </trkpt>
      <trkpt lat="45.65495" lon="5.7075">
        <ele>655.28</ele>
        <time>2011-06-19T09:49:55Z</time>
      </trkpt>
      <trkpt lat="45.65501" lon="5.70751">
        <ele>654.8</ele>
        <time>2011-06-19T09:49:56Z</time>
      </trkpt>
      <trkpt lat="45.65514" lon="5.70753">
        <ele>655.28</ele>
        <time>2011-06-19T09:49:58Z</time>
      </trkpt>
      <trkpt lat="45.6552" lon="5.70755">
        <ele>655.28</ele>
        <time>2011-06-19T09:49:59Z</time>
      </trkpt>
      <trkpt lat="45.65525" lon="5.70758">
        <ele>656.24</ele>
        <time>2011-06-19T09:50:00Z</time>
      </trkpt>
      <trkpt lat="45.65533" lon="5.70761">
        <ele>656.72</ele>
        <time>2011-06-19T09:50:02Z</time>
      </trkpt>
      <trkpt lat="45.65545" lon="5.70767">
        <ele>658.64</ele>
        <time>2011-06-19T09:50:06Z</time>
      </trkpt>
      <trkpt lat="45.65548" lon="5.70768">
        <ele>658.16</ele>
        <time>2011-06-19T09:50:07Z</time>
      </trkpt>
      <trkpt lat="45.65551" lon="5.70769">
        <ele>658.16</ele>
        <time>2011-06-19T09:50:08Z</time>
      </trkpt>
      <trkpt lat="45.65584" lon="5.70782">
        <ele>656.72</ele>
        <time>2011-06-19T09:50:18Z</time>
      </trkpt>
      <trkpt lat="45.65604" lon="5.70802">
        <ele>656.72</ele>
        <time>2011-06-19T09:50:23Z</time>
      </trkpt>
      <trkpt lat="45.65614" lon="5.70814">
        <ele>655.28</ele>
        <time>2011-06-19T09:50:26Z</time>
      </trkpt>
      <trkpt lat="45.65626" lon="5.70819">
        <ele>653.83</ele>
        <time>2011-06-19T09:50:29Z</time>
      </trkpt>
      <trkpt lat="45.65639" lon="5.70821">
        <ele>652.87</ele>
        <time>2011-06-19T09:50:31Z</time>
      </trkpt>
      <trkpt lat="45.65645" lon="5.70824">
        <ele>652.39</ele>
        <time>2011-06-19T09:50:32Z</time>
      </trkpt>
      <trkpt lat="45.65652" lon="5.70828">
        <ele>652.39</ele>
        <time>2011-06-19T09:50:33Z</time>
      </trkpt>
      <trkpt lat="45.65667" lon="5.70843">
        <ele>650.95</ele>
        <time>2011-06-19T09:50:36Z</time>
      </trkpt>
      <trkpt lat="45.65678" lon="5.70851">
        <ele>649.51</ele>
        <time>2011-06-19T09:50:38Z</time>
      </trkpt>
      <trkpt lat="45.65683" lon="5.70856">
        <ele>649.03</ele>
        <time>2011-06-19T09:50:39Z</time>
      </trkpt>
      <trkpt lat="45.65694" lon="5.70866">
        <ele>649.03</ele>
        <time>2011-06-19T09:50:41Z</time>
      </trkpt>
      <trkpt lat="45.65707" lon="5.70875">
        <ele>647.59</ele>
        <time>2011-06-19T09:50:43Z</time>
      </trkpt>
      <trkpt lat="45.65713" lon="5.70881">
        <ele>647.59</ele>
        <time>2011-06-19T09:50:44Z</time>
      </trkpt>
      <trkpt lat="45.65724" lon="5.70894">
        <ele>646.62</ele>
        <time>2011-06-19T09:50:46Z</time>
      </trkpt>
      <trkpt lat="45.65736" lon="5.70905">
        <ele>646.14</ele>
        <time>2011-06-19T09:50:48Z</time>
      </trkpt>
      <trkpt lat="45.65741" lon="5.70908">
        <ele>645.66</ele>
        <time>2011-06-19T09:50:49Z</time>
      </trkpt>
      <trkpt lat="45.65747" lon="5.70911">
        <ele>645.66</ele>
        <time>2011-06-19T09:50:50Z</time>
      </trkpt>
      <trkpt lat="45.65757" lon="5.70917">
        <ele>646.14</ele>
        <time>2011-06-19T09:50:52Z</time>
      </trkpt>
      <trkpt lat="45.65768" lon="5.70924">
        <ele>647.1</ele>
        <time>2011-06-19T09:50:54Z</time>
      </trkpt>
      <trkpt lat="45.65773" lon="5.70928">
        <ele>647.1</ele>
        <time>2011-06-19T09:50:55Z</time>
      </trkpt>
      <trkpt lat="45.65776" lon="5.70933">
        <ele>647.59</ele>
        <time>2011-06-19T09:50:56Z</time>
      </trkpt>
      <trkpt lat="45.65796" lon="5.70963">
        <ele>646.62</ele>
        <time>2011-06-19T09:51:02Z</time>
      </trkpt>
      <trkpt lat="45.658" lon="5.70966">
        <ele>647.1</ele>
        <time>2011-06-19T09:51:03Z</time>
      </trkpt>
      <trkpt lat="45.65808" lon="5.70972">
        <ele>647.1</ele>
        <time>2011-06-19T09:51:05Z</time>
      </trkpt>
      <trkpt lat="45.65813" lon="5.70974">
        <ele>647.1</ele>
        <time>2011-06-19T09:51:06Z</time>
      </trkpt>
      <trkpt lat="45.65818" lon="5.70976">
        <ele>646.62</ele>
        <time>2011-06-19T09:51:07Z</time>
      </trkpt>
      <trkpt lat="45.65822" lon="5.70979">
        <ele>646.62</ele>
        <time>2011-06-19T09:51:08Z</time>
      </trkpt>
      <trkpt lat="45.65826" lon="5.70983">
        <ele>647.1</ele>
        <time>2011-06-19T09:51:09Z</time>
      </trkpt>
      <trkpt lat="45.65828" lon="5.70988">
        <ele>646.14</ele>
        <time>2011-06-19T09:51:10Z</time>
      </trkpt>
      <trkpt lat="45.65829" lon="5.70994">
        <ele>646.14</ele>
        <time>2011-06-19T09:51:11Z</time>
      </trkpt>
      <trkpt lat="45.6583" lon="5.70999">
        <ele>645.66</ele>
        <time>2011-06-19T09:51:12Z</time>
      </trkpt>
      <trkpt lat="45.65832" lon="5.71007">
        <ele>644.22</ele>
        <time>2011-06-19T09:51:14Z</time>
      </trkpt>
      <trkpt lat="45.65834" lon="5.71012">
        <ele>643.26</ele>
        <time>2011-06-19T09:51:15Z</time>
      </trkpt>
      <trkpt lat="45.65835" lon="5.71017">
        <ele>641.82</ele>
        <time>2011-06-19T09:51:16Z</time>
      </trkpt>
      <trkpt lat="45.65836" lon="5.71024">
        <ele>640.86</ele>
        <time>2011-06-19T09:51:17Z</time>
      </trkpt>
      <trkpt lat="45.65838" lon="5.71031">
        <ele>640.38</ele>
        <time>2011-06-19T09:51:18Z</time>
      </trkpt>
      <trkpt lat="45.65841" lon="5.71039">
        <ele>640.38</ele>
        <time>2011-06-19T09:51:19Z</time>
      </trkpt>
      <trkpt lat="45.65848" lon="5.71069">
        <ele>640.38</ele>
        <time>2011-06-19T09:51:23Z</time>
      </trkpt>
      <trkpt lat="45.6585" lon="5.71077">
        <ele>640.38</ele>
        <time>2011-06-19T09:51:24Z</time>
      </trkpt>
      <trkpt lat="45.65856" lon="5.71096">
        <ele>640.86</ele>
        <time>2011-06-19T09:51:27Z</time>
      </trkpt>
      <trkpt lat="45.65867" lon="5.7114">
        <ele>642.3</ele>
        <time>2011-06-19T09:51:36Z</time>
      </trkpt>
      <trkpt lat="45.65865" lon="5.71155">
        <ele>643.74</ele>
        <time>2011-06-19T09:51:41Z</time>
      </trkpt>
      <trkpt lat="45.65858" lon="5.71166">
        <ele>644.7</ele>
        <time>2011-06-19T09:51:46Z</time>
      </trkpt>
      <trkpt lat="45.65842" lon="5.71186">
        <ele>648.55</ele>
        <time>2011-06-19T09:52:01Z</time>
      </trkpt>
      <trkpt lat="45.65835" lon="5.71189">
        <ele>649.03</ele>
        <time>2011-06-19T09:52:06Z</time>
      </trkpt>
      <trkpt lat="45.6582" lon="5.71197">
        <ele>650.95</ele>
        <time>2011-06-19T09:52:18Z</time>
      </trkpt>
      <trkpt lat="45.65817" lon="5.71226">
        <ele>653.35</ele>
        <time>2011-06-19T09:52:32Z</time>
      </trkpt>
      <trkpt lat="45.65818" lon="5.71263">
        <ele>654.31</ele>
        <time>2011-06-19T09:52:44Z</time>
      </trkpt>
      <trkpt lat="45.65836" lon="5.71307">
        <ele>656.24</ele>
        <time>2011-06-19T09:52:58Z</time>
      </trkpt>
      <trkpt lat="45.6585" lon="5.71333">
        <ele>658.64</ele>
        <time>2011-06-19T09:53:11Z</time>
      </trkpt>
      <trkpt lat="45.65858" lon="5.71362">
        <ele>661.04</ele>
        <time>2011-06-19T09:53:24Z</time>
      </trkpt>
      <trkpt lat="45.65873" lon="5.71386">
        <ele>663.45</ele>
        <time>2011-06-19T09:53:38Z</time>
      </trkpt>
      <trkpt lat="45.65893" lon="5.71393">
        <ele>666.33</ele>
        <time>2011-06-19T09:53:51Z</time>
      </trkpt>
      <trkpt lat="45.65896" lon="5.71394">
        <ele>666.81</ele>
        <time>2011-06-19T09:53:53Z</time>
      </trkpt>
      <trkpt lat="45.65907" lon="5.71427">
        <ele>667.77</ele>
        <time>2011-06-19T09:54:08Z</time>
      </trkpt>
      <trkpt lat="45.65887" lon="5.71444">
        <ele>668.73</ele>
        <time>2011-06-19T09:54:19Z</time>
      </trkpt>
      <trkpt lat="45.65882" lon="5.71483">
        <ele>670.18</ele>
        <time>2011-06-19T09:54:31Z</time>
      </trkpt>
      <trkpt lat="45.6589" lon="5.71523">
        <ele>671.62</ele>
        <time>2011-06-19T09:54:45Z</time>
      </trkpt>
      <trkpt lat="45.65909" lon="5.71542">
        <ele>674.02</ele>
        <time>2011-06-19T09:54:57Z</time>
      </trkpt>
      <trkpt lat="45.65923" lon="5.71585">
        <ele>675.46</ele>
        <time>2011-06-19T09:55:10Z</time>
      </trkpt>
      <trkpt lat="45.65923" lon="5.71629">
        <ele>677.87</ele>
        <time>2011-06-19T09:55:25Z</time>
      </trkpt>
      <trkpt lat="45.65939" lon="5.7165">
        <ele>678.35</ele>
        <time>2011-06-19T09:55:36Z</time>
      </trkpt>
      <trkpt lat="45.65946" lon="5.71675">
        <ele>679.79</ele>
        <time>2011-06-19T09:55:46Z</time>
      </trkpt>
      <trkpt lat="45.65939" lon="5.71715">
        <ele>683.15</ele>
        <time>2011-06-19T09:56:02Z</time>
      </trkpt>
      <trkpt lat="45.65938" lon="5.7174">
        <ele>686.04</ele>
        <time>2011-06-19T09:56:16Z</time>
      </trkpt>
      <trkpt lat="45.6594" lon="5.71752">
        <ele>687.48</ele>
        <time>2011-06-19T09:56:29Z</time>
      </trkpt>
      <trkpt lat="45.6594" lon="5.71778">
        <ele>689.88</ele>
        <time>2011-06-19T09:56:44Z</time>
      </trkpt>
      <trkpt lat="45.65939" lon="5.71799">
        <ele>693.25</ele>
        <time>2011-06-19T09:56:57Z</time>
      </trkpt>
      <trkpt lat="45.65936" lon="5.71804">
        <ele>693.25</ele>
        <time>2011-06-19T09:57:03Z</time>
      </trkpt>
      <trkpt lat="45.65912" lon="5.7181">
        <ele>693.73</ele>
        <time>2011-06-19T09:57:17Z</time>
      </trkpt>
      <trkpt lat="45.65879" lon="5.71814">
        <ele>690.36</ele>
        <time>2011-06-19T09:57:25Z</time>
      </trkpt>
      <trkpt lat="45.65874" lon="5.71816">
        <ele>689.88</ele>
        <time>2011-06-19T09:57:26Z</time>
      </trkpt>
      <trkpt lat="45.65857" lon="5.71826">
        <ele>688.92</ele>
        <time>2011-06-19T09:57:29Z</time>
      </trkpt>
      <trkpt lat="45.65836" lon="5.71857">
        <ele>685.56</ele>
        <time>2011-06-19T09:57:34Z</time>
      </trkpt>
      <trkpt lat="45.65833" lon="5.71863">
        <ele>685.08</ele>
        <time>2011-06-19T09:57:35Z</time>
      </trkpt>
      <trkpt lat="45.65831" lon="5.7187">
        <ele>684.12</ele>
        <time>2011-06-19T09:57:36Z</time>
      </trkpt>
      <trkpt lat="45.6583" lon="5.71877">
        <ele>683.63</ele>
        <time>2011-06-19T09:57:37Z</time>
      </trkpt>
      <trkpt lat="45.65826" lon="5.71883">
        <ele>683.15</ele>
        <time>2011-06-19T09:57:38Z</time>
      </trkpt>
      <trkpt lat="45.65821" lon="5.71887">
        <ele>683.15</ele>
        <time>2011-06-19T09:57:39Z</time>
      </trkpt>
      <trkpt lat="45.65817" lon="5.71889">
        <ele>682.19</ele>
        <time>2011-06-19T09:57:40Z</time>
      </trkpt>
      <trkpt lat="45.65812" lon="5.71891">
        <ele>682.19</ele>
        <time>2011-06-19T09:57:41Z</time>
      </trkpt>
      <trkpt lat="45.65806" lon="5.71892">
        <ele>682.19</ele>
        <time>2011-06-19T09:57:42Z</time>
      </trkpt>
      <trkpt lat="45.65788" lon="5.71901">
        <ele>681.23</ele>
        <time>2011-06-19T09:57:46Z</time>
      </trkpt>
      <trkpt lat="45.65787" lon="5.71907">
        <ele>681.23</ele>
        <time>2011-06-19T09:57:47Z</time>
      </trkpt>
      <trkpt lat="45.65787" lon="5.71916">
        <ele>681.23</ele>
        <time>2011-06-19T09:57:48Z</time>
      </trkpt>
      <trkpt lat="45.65787" lon="5.71929">
        <ele>679.79</ele>
        <time>2011-06-19T09:57:50Z</time>
      </trkpt>
      <trkpt lat="45.65786" lon="5.71936">
        <ele>679.31</ele>
        <time>2011-06-19T09:57:51Z</time>
      </trkpt>
      <trkpt lat="45.65783" lon="5.71943">
        <ele>678.83</ele>
        <time>2011-06-19T09:57:52Z</time>
      </trkpt>
      <trkpt lat="45.65779" lon="5.7195">
        <ele>679.31</ele>
        <time>2011-06-19T09:57:53Z</time>
      </trkpt>
      <trkpt lat="45.65774" lon="5.71956">
        <ele>677.87</ele>
        <time>2011-06-19T09:57:54Z</time>
      </trkpt>
      <trkpt lat="45.6577" lon="5.71963">
        <ele>677.87</ele>
        <time>2011-06-19T09:57:55Z</time>
      </trkpt>
      <trkpt lat="45.65765" lon="5.7197">
        <ele>677.39</ele>
        <time>2011-06-19T09:57:56Z</time>
      </trkpt>
      <trkpt lat="45.65761" lon="5.71977">
        <ele>677.39</ele>
        <time>2011-06-19T09:57:57Z</time>
      </trkpt>
      <trkpt lat="45.65757" lon="5.71985">
        <ele>676.91</ele>
        <time>2011-06-19T09:57:58Z</time>
      </trkpt>
      <trkpt lat="45.65753" lon="5.71991">
        <ele>677.39</ele>
        <time>2011-06-19T09:57:59Z</time>
      </trkpt>
      <trkpt lat="45.6575" lon="5.71997">
        <ele>677.39</ele>
        <time>2011-06-19T09:58:00Z</time>
      </trkpt>
      <trkpt lat="45.65747" lon="5.72004">
        <ele>676.91</ele>
        <time>2011-06-19T09:58:01Z</time>
      </trkpt>
      <trkpt lat="45.65743" lon="5.7201">
        <ele>676.91</ele>
        <time>2011-06-19T09:58:02Z</time>
      </trkpt>
      <trkpt lat="45.65739" lon="5.72016">
        <ele>676.91</ele>
        <time>2011-06-19T09:58:03Z</time>
      </trkpt>
      <trkpt lat="45.65735" lon="5.72021">
        <ele>676.91</ele>
        <time>2011-06-19T09:58:04Z</time>
      </trkpt>
      <trkpt lat="45.6573" lon="5.72026">
        <ele>676.91</ele>
        <time>2011-06-19T09:58:05Z</time>
      </trkpt>
      <trkpt lat="45.65721" lon="5.72035">
        <ele>676.42</ele>
        <time>2011-06-19T09:58:07Z</time>
      </trkpt>
      <trkpt lat="45.65717" lon="5.72041">
        <ele>675.94</ele>
        <time>2011-06-19T09:58:08Z</time>
      </trkpt>
      <trkpt lat="45.65709" lon="5.72055">
        <ele>674.98</ele>
        <time>2011-06-19T09:58:10Z</time>
      </trkpt>
      <trkpt lat="45.65686" lon="5.72088">
        <ele>673.54</ele>
        <time>2011-06-19T09:58:15Z</time>
      </trkpt>
      <trkpt lat="45.65683" lon="5.72094">
        <ele>673.54</ele>
        <time>2011-06-19T09:58:16Z</time>
      </trkpt>
      <trkpt lat="45.6568" lon="5.721">
        <ele>673.54</ele>
        <time>2011-06-19T09:58:17Z</time>
      </trkpt>
      <trkpt lat="45.65676" lon="5.72104">
        <ele>674.02</ele>
        <time>2011-06-19T09:58:18Z</time>
      </trkpt>
      <trkpt lat="45.65672" lon="5.72107">
        <ele>673.54</ele>
        <time>2011-06-19T09:58:19Z</time>
      </trkpt>
      <trkpt lat="45.65667" lon="5.72108">
        <ele>673.06</ele>
        <time>2011-06-19T09:58:20Z</time>
      </trkpt>
      <trkpt lat="45.65661" lon="5.72108">
        <ele>673.06</ele>
        <time>2011-06-19T09:58:21Z</time>
      </trkpt>
      <trkpt lat="45.65644" lon="5.72108">
        <ele>673.06</ele>
        <time>2011-06-19T09:58:24Z</time>
      </trkpt>
      <trkpt lat="45.65614" lon="5.72109">
        <ele>670.18</ele>
        <time>2011-06-19T09:58:29Z</time>
      </trkpt>
      <trkpt lat="45.65608" lon="5.72111">
        <ele>669.7</ele>
        <time>2011-06-19T09:58:30Z</time>
      </trkpt>
      <trkpt lat="45.65595" lon="5.72117">
        <ele>667.29</ele>
        <time>2011-06-19T09:58:32Z</time>
      </trkpt>
      <trkpt lat="45.65581" lon="5.72125">
        <ele>665.85</ele>
        <time>2011-06-19T09:58:34Z</time>
      </trkpt>
      <trkpt lat="45.65574" lon="5.7213">
        <ele>664.41</ele>
        <time>2011-06-19T09:58:35Z</time>
      </trkpt>
      <trkpt lat="45.65561" lon="5.72141">
        <ele>662.49</ele>
        <time>2011-06-19T09:58:37Z</time>
      </trkpt>
      <trkpt lat="45.65541" lon="5.7216">
        <ele>660.56</ele>
        <time>2011-06-19T09:58:40Z</time>
      </trkpt>
      <trkpt lat="45.65522" lon="5.72182">
        <ele>657.68</ele>
        <time>2011-06-19T09:58:43Z</time>
      </trkpt>
      <trkpt lat="45.65493" lon="5.72209">
        <ele>654.31</ele>
        <time>2011-06-19T09:58:47Z</time>
      </trkpt>
      <trkpt lat="45.6548" lon="5.72221">
        <ele>652.87</ele>
        <time>2011-06-19T09:58:49Z</time>
      </trkpt>
      <trkpt lat="45.6547" lon="5.7223">
        <ele>651.91</ele>
        <time>2011-06-19T09:58:51Z</time>
      </trkpt>
      <trkpt lat="45.65467" lon="5.72235">
        <ele>651.43</ele>
        <time>2011-06-19T09:58:52Z</time>
      </trkpt>
      <trkpt lat="45.65465" lon="5.72242">
        <ele>650.95</ele>
        <time>2011-06-19T09:58:53Z</time>
      </trkpt>
      <trkpt lat="45.65463" lon="5.7225">
        <ele>650.47</ele>
        <time>2011-06-19T09:58:54Z</time>
      </trkpt>
      <trkpt lat="45.65459" lon="5.72267">
        <ele>649.51</ele>
        <time>2011-06-19T09:58:56Z</time>
      </trkpt>
      <trkpt lat="45.65457" lon="5.72275">
        <ele>648.55</ele>
        <time>2011-06-19T09:58:57Z</time>
      </trkpt>
      <trkpt lat="45.65454" lon="5.72282">
        <ele>648.07</ele>
        <time>2011-06-19T09:58:58Z</time>
      </trkpt>
      <trkpt lat="45.6545" lon="5.72289">
        <ele>647.59</ele>
        <time>2011-06-19T09:58:59Z</time>
      </trkpt>
      <trkpt lat="45.65445" lon="5.72294">
        <ele>647.1</ele>
        <time>2011-06-19T09:59:00Z</time>
      </trkpt>
      <trkpt lat="45.65441" lon="5.72298">
        <ele>646.62</ele>
        <time>2011-06-19T09:59:01Z</time>
      </trkpt>
      <trkpt lat="45.65427" lon="5.7231">
        <ele>648.07</ele>
        <time>2011-06-19T09:59:04Z</time>
      </trkpt>
      <trkpt lat="45.65423" lon="5.72313">
        <ele>648.55</ele>
        <time>2011-06-19T09:59:05Z</time>
      </trkpt>
      <trkpt lat="45.65395" lon="5.72327">
        <ele>646.62</ele>
        <time>2011-06-19T09:59:11Z</time>
      </trkpt>
      <trkpt lat="45.6539" lon="5.72329">
        <ele>647.1</ele>
        <time>2011-06-19T09:59:12Z</time>
      </trkpt>
      <trkpt lat="45.65381" lon="5.72334">
        <ele>647.1</ele>
        <time>2011-06-19T09:59:14Z</time>
      </trkpt>
      <trkpt lat="45.6537" lon="5.72339">
        <ele>647.1</ele>
        <time>2011-06-19T09:59:16Z</time>
      </trkpt>
      <trkpt lat="45.65364" lon="5.72343">
        <ele>646.62</ele>
        <time>2011-06-19T09:59:17Z</time>
      </trkpt>
      <trkpt lat="45.65353" lon="5.72349">
        <ele>647.1</ele>
        <time>2011-06-19T09:59:19Z</time>
      </trkpt>
      <trkpt lat="45.65348" lon="5.7235">
        <ele>646.62</ele>
        <time>2011-06-19T09:59:20Z</time>
      </trkpt>
      <trkpt lat="45.65317" lon="5.72357">
        <ele>647.59</ele>
        <time>2011-06-19T09:59:26Z</time>
      </trkpt>
      <trkpt lat="45.65294" lon="5.72364">
        <ele>648.07</ele>
        <time>2011-06-19T09:59:37Z</time>
      </trkpt>
      <trkpt lat="45.65295" lon="5.72365">
        <ele>648.07</ele>
        <time>2011-06-19T09:59:53Z</time>
      </trkpt>
      <trkpt lat="45.65295" lon="5.72365">
        <ele>648.55</ele>
        <time>2011-06-19T10:00:25Z</time>
      </trkpt>
      <trkpt lat="45.65295" lon="5.72366">
        <ele>648.07</ele>
        <time>2011-06-19T10:00:48Z</time>
      </trkpt>
      <trkpt lat="45.65294" lon="5.72366">
        <ele>648.55</ele>
        <time>2011-06-19T10:01:09Z</time>
      </trkpt>
      <trkpt lat="45.65294" lon="5.72368">
        <ele>648.07</ele>
        <time>2011-06-19T10:01:21Z</time>
      </trkpt>
      <trkpt lat="45.65295" lon="5.7237">
        <ele>647.59</ele>
        <time>2011-06-19T10:01:22Z</time>
      </trkpt>
      <trkpt lat="45.65296" lon="5.72371">
        <ele>647.59</ele>
        <time>2011-06-19T10:01:23Z</time>
      </trkpt>
      <trkpt lat="45.65297" lon="5.72373">
        <ele>647.59</ele>
        <time>2011-06-19T10:01:24Z</time>
      </trkpt>
      <trkpt lat="45.65297" lon="5.72375">
        <ele>647.59</ele>
        <time>2011-06-19T10:01:25Z</time>
      </trkpt>
      <trkpt lat="45.65298" lon="5.72376">
        <ele>647.59</ele>
        <time>2011-06-19T10:01:26Z</time>
      </trkpt>
      <trkpt lat="45.65299" lon="5.72378">
        <ele>647.1</ele>
        <time>2011-06-19T10:01:27Z</time>
      </trkpt>
      <trkpt lat="45.65299" lon="5.7238">
        <ele>646.62</ele>
        <time>2011-06-19T10:01:28Z</time>
      </trkpt>
      <trkpt lat="45.65298" lon="5.72382">
        <ele>646.62</ele>
        <time>2011-06-19T10:01:41Z</time>
      </trkpt>
      <trkpt lat="45.65297" lon="5.72381">
        <ele>646.62</ele>
        <time>2011-06-19T10:01:42Z</time>
      </trkpt>
      <trkpt lat="45.65297" lon="5.7238">
        <ele>646.62</ele>
        <time>2011-06-19T10:01:43Z</time>
      </trkpt>
      <trkpt lat="45.65296" lon="5.72373">
        <ele>647.59</ele>
        <time>2011-06-19T10:01:48Z</time>
      </trkpt>
      <trkpt lat="45.65296" lon="5.7237">
        <ele>648.07</ele>
        <time>2011-06-19T10:02:04Z</time>
      </trkpt>
      <trkpt lat="45.65297" lon="5.72365">
        <ele>648.07</ele>
        <time>2011-06-19T10:02:10Z</time>
      </trkpt>
      <trkpt lat="45.65295" lon="5.72364">
        <ele>648.55</ele>
        <time>2011-06-19T10:02:11Z</time>
      </trkpt>
      <trkpt lat="45.65294" lon="5.72363">
        <ele>648.55</ele>
        <time>2011-06-19T10:02:12Z</time>
      </trkpt>
      <trkpt lat="45.65292" lon="5.72363">
        <ele>648.55</ele>
        <time>2011-06-19T10:02:13Z</time>
      </trkpt>
      <trkpt lat="45.65291" lon="5.72363">
        <ele>649.51</ele>
        <time>2011-06-19T10:02:14Z</time>
      </trkpt>
      <trkpt lat="45.65289" lon="5.72362">
        <ele>649.99</ele>
        <time>2011-06-19T10:02:15Z</time>
      </trkpt>
      <trkpt lat="45.65288" lon="5.72361">
        <ele>649.99</ele>
        <time>2011-06-19T10:02:16Z</time>
      </trkpt>
      <trkpt lat="45.65276" lon="5.72344">
        <ele>653.35</ele>
        <time>2011-06-19T10:02:29Z</time>
      </trkpt>
      <trkpt lat="45.65274" lon="5.7234">
        <ele>653.35</ele>
        <time>2011-06-19T10:02:31Z</time>
      </trkpt>
      <trkpt lat="45.65273" lon="5.72338">
        <ele>653.83</ele>
        <time>2011-06-19T10:02:32Z</time>
      </trkpt>
      <trkpt lat="45.65273" lon="5.72337">
        <ele>653.83</ele>
        <time>2011-06-19T10:02:33Z</time>
      </trkpt>
      <trkpt lat="45.65272" lon="5.72335">
        <ele>653.83</ele>
        <time>2011-06-19T10:02:34Z</time>
      </trkpt>
      <trkpt lat="45.65271" lon="5.72333">
        <ele>654.31</ele>
        <time>2011-06-19T10:02:35Z</time>
      </trkpt>
      <trkpt lat="45.65271" lon="5.72331">
        <ele>654.8</ele>
        <time>2011-06-19T10:02:36Z</time>
      </trkpt>
      <trkpt lat="45.65271" lon="5.7233">
        <ele>654.31</ele>
        <time>2011-06-19T10:02:37Z</time>
      </trkpt>
      <trkpt lat="45.6527" lon="5.72328">
        <ele>655.28</ele>
        <time>2011-06-19T10:02:38Z</time>
      </trkpt>
      <trkpt lat="45.6527" lon="5.72327">
        <ele>655.28</ele>
        <time>2011-06-19T10:02:39Z</time>
      </trkpt>
      <trkpt lat="45.6527" lon="5.72325">
        <ele>655.28</ele>
        <time>2011-06-19T10:02:40Z</time>
      </trkpt>
      <trkpt lat="45.65271" lon="5.72324">
        <ele>655.76</ele>
        <time>2011-06-19T10:02:41Z</time>
      </trkpt>
      <trkpt lat="45.65271" lon="5.72322">
        <ele>655.76</ele>
        <time>2011-06-19T10:02:42Z</time>
      </trkpt>
      <trkpt lat="45.65273" lon="5.72316">
        <ele>656.72</ele>
        <time>2011-06-19T10:02:46Z</time>
      </trkpt>
      <trkpt lat="45.65273" lon="5.72314">
        <ele>657.2</ele>
        <time>2011-06-19T10:02:47Z</time>
      </trkpt>
      <trkpt lat="45.65277" lon="5.723">
        <ele>658.64</ele>
        <time>2011-06-19T10:03:01Z</time>
      </trkpt>
      <trkpt lat="45.65277" lon="5.72297">
        <ele>659.12</ele>
        <time>2011-06-19T10:03:08Z</time>
      </trkpt>
      <trkpt lat="45.65278" lon="5.72263">
        <ele>660.56</ele>
        <time>2011-06-19T10:03:23Z</time>
      </trkpt>
      <trkpt lat="45.65276" lon="5.72233">
        <ele>663.45</ele>
        <time>2011-06-19T10:03:36Z</time>
      </trkpt>
      <trkpt lat="45.65277" lon="5.72216">
        <ele>665.85</ele>
        <time>2011-06-19T10:03:45Z</time>
      </trkpt>
      <trkpt lat="45.65276" lon="5.72214">
        <ele>665.85</ele>
        <time>2011-06-19T10:03:46Z</time>
      </trkpt>
      <trkpt lat="45.65271" lon="5.72203">
        <ele>666.81</ele>
        <time>2011-06-19T10:03:53Z</time>
      </trkpt>
      <trkpt lat="45.65264" lon="5.722">
        <ele>667.77</ele>
        <time>2011-06-19T10:03:59Z</time>
      </trkpt>
      <trkpt lat="45.65257" lon="5.72202">
        <ele>668.73</ele>
        <time>2011-06-19T10:04:05Z</time>
      </trkpt>
      <trkpt lat="45.65236" lon="5.72195">
        <ele>672.1</ele>
        <time>2011-06-19T10:04:21Z</time>
      </trkpt>
      <trkpt lat="45.65217" lon="5.72189">
        <ele>674.98</ele>
        <time>2011-06-19T10:04:36Z</time>
      </trkpt>
      <trkpt lat="45.65196" lon="5.72172">
        <ele>677.39</ele>
        <time>2011-06-19T10:04:52Z</time>
      </trkpt>
      <trkpt lat="45.65172" lon="5.7217">
        <ele>678.83</ele>
        <time>2011-06-19T10:05:06Z</time>
      </trkpt>
      <trkpt lat="45.6513" lon="5.72182">
        <ele>680.27</ele>
        <time>2011-06-19T10:05:23Z</time>
      </trkpt>
      <trkpt lat="45.6508" lon="5.72191">
        <ele>682.19</ele>
        <time>2011-06-19T10:05:40Z</time>
      </trkpt>
      <trkpt lat="45.65036" lon="5.72207">
        <ele>683.63</ele>
        <time>2011-06-19T10:05:55Z</time>
      </trkpt>
      <trkpt lat="45.64998" lon="5.72221">
        <ele>682.19</ele>
        <time>2011-06-19T10:06:05Z</time>
      </trkpt>
      <trkpt lat="45.64994" lon="5.72223">
        <ele>681.71</ele>
        <time>2011-06-19T10:06:06Z</time>
      </trkpt>
      <trkpt lat="45.64989" lon="5.72223">
        <ele>681.71</ele>
        <time>2011-06-19T10:06:07Z</time>
      </trkpt>
      <trkpt lat="45.64936" lon="5.72219">
        <ele>681.71</ele>
        <time>2011-06-19T10:06:20Z</time>
      </trkpt>
      <trkpt lat="45.64879" lon="5.72208">
        <ele>678.35</ele>
        <time>2011-06-19T10:06:33Z</time>
      </trkpt>
      <trkpt lat="45.64858" lon="5.72211">
        <ele>678.35</ele>
        <time>2011-06-19T10:06:37Z</time>
      </trkpt>
      <trkpt lat="45.64854" lon="5.72214">
        <ele>677.87</ele>
        <time>2011-06-19T10:06:38Z</time>
      </trkpt>
      <trkpt lat="45.6485" lon="5.72217">
        <ele>677.39</ele>
        <time>2011-06-19T10:06:39Z</time>
      </trkpt>
      <trkpt lat="45.64846" lon="5.7222">
        <ele>676.91</ele>
        <time>2011-06-19T10:06:40Z</time>
      </trkpt>
      <trkpt lat="45.64842" lon="5.72224">
        <ele>676.91</ele>
        <time>2011-06-19T10:06:41Z</time>
      </trkpt>
      <trkpt lat="45.64821" lon="5.72242">
        <ele>675.46</ele>
        <time>2011-06-19T10:06:46Z</time>
      </trkpt>
      <trkpt lat="45.64803" lon="5.72257">
        <ele>674.5</ele>
        <time>2011-06-19T10:06:50Z</time>
      </trkpt>
      <trkpt lat="45.64798" lon="5.72261">
        <ele>674.02</ele>
        <time>2011-06-19T10:06:51Z</time>
      </trkpt>
      <trkpt lat="45.64793" lon="5.72264">
        <ele>673.54</ele>
        <time>2011-06-19T10:06:52Z</time>
      </trkpt>
      <trkpt lat="45.64788" lon="5.72265">
        <ele>673.54</ele>
        <time>2011-06-19T10:06:53Z</time>
      </trkpt>
      <trkpt lat="45.64783" lon="5.72266">
        <ele>673.06</ele>
        <time>2011-06-19T10:06:54Z</time>
      </trkpt>
      <trkpt lat="45.64777" lon="5.72265">
        <ele>673.54</ele>
        <time>2011-06-19T10:06:55Z</time>
      </trkpt>
      <trkpt lat="45.64761" lon="5.72264">
        <ele>672.58</ele>
        <time>2011-06-19T10:06:58Z</time>
      </trkpt>
      <trkpt lat="45.64745" lon="5.72263">
        <ele>673.06</ele>
        <time>2011-06-19T10:07:01Z</time>
      </trkpt>
      <trkpt lat="45.6474" lon="5.72262">
        <ele>673.06</ele>
        <time>2011-06-19T10:07:02Z</time>
      </trkpt>
      <trkpt lat="45.64729" lon="5.72262">
        <ele>672.58</ele>
        <time>2011-06-19T10:07:04Z</time>
      </trkpt>
      <trkpt lat="45.64704" lon="5.72263">
        <ele>673.54</ele>
        <time>2011-06-19T10:07:11Z</time>
      </trkpt>
      <trkpt lat="45.6469" lon="5.72251">
        <ele>676.42</ele>
        <time>2011-06-19T10:07:20Z</time>
      </trkpt>
      <trkpt lat="45.64689" lon="5.7225">
        <ele>676.42</ele>
        <time>2011-06-19T10:07:21Z</time>
      </trkpt>
      <trkpt lat="45.64688" lon="5.72249">
        <ele>676.91</ele>
        <time>2011-06-19T10:07:22Z</time>
      </trkpt>
      <trkpt lat="45.64687" lon="5.72248">
        <ele>676.91</ele>
        <time>2011-06-19T10:07:23Z</time>
      </trkpt>
      <trkpt lat="45.64686" lon="5.72246">
        <ele>677.39</ele>
        <time>2011-06-19T10:07:24Z</time>
      </trkpt>
      <trkpt lat="45.64685" lon="5.72245">
        <ele>677.39</ele>
        <time>2011-06-19T10:07:25Z</time>
      </trkpt>
      <trkpt lat="45.64684" lon="5.72243">
        <ele>677.87</ele>
        <time>2011-06-19T10:07:26Z</time>
      </trkpt>
      <trkpt lat="45.64684" lon="5.72241">
        <ele>677.39</ele>
        <time>2011-06-19T10:07:27Z</time>
      </trkpt>
      <trkpt lat="45.64683" lon="5.72239">
        <ele>678.35</ele>
        <time>2011-06-19T10:07:28Z</time>
      </trkpt>
      <trkpt lat="45.64683" lon="5.72235">
        <ele>678.83</ele>
        <time>2011-06-19T10:07:30Z</time>
      </trkpt>
      <trkpt lat="45.64683" lon="5.72233">
        <ele>678.83</ele>
        <time>2011-06-19T10:07:31Z</time>
      </trkpt>
      <trkpt lat="45.64684" lon="5.72231">
        <ele>679.31</ele>
        <time>2011-06-19T10:07:32Z</time>
      </trkpt>
      <trkpt lat="45.64686" lon="5.7223">
        <ele>679.31</ele>
        <time>2011-06-19T10:07:33Z</time>
      </trkpt>
      <trkpt lat="45.64687" lon="5.7223">
        <ele>679.31</ele>
        <time>2011-06-19T10:07:34Z</time>
      </trkpt>
      <trkpt lat="45.64689" lon="5.72229">
        <ele>679.31</ele>
        <time>2011-06-19T10:07:35Z</time>
      </trkpt>
      <trkpt lat="45.6469" lon="5.72229">
        <ele>679.31</ele>
        <time>2011-06-19T10:07:36Z</time>
      </trkpt>
      <trkpt lat="45.64692" lon="5.72229">
        <ele>679.79</ele>
        <time>2011-06-19T10:07:37Z</time>
      </trkpt>
      <trkpt lat="45.64693" lon="5.72228">
        <ele>680.27</ele>
        <time>2011-06-19T10:07:38Z</time>
      </trkpt>
      <trkpt lat="45.64694" lon="5.72228">
        <ele>680.27</ele>
        <time>2011-06-19T10:07:39Z</time>
      </trkpt>
      <trkpt lat="45.64695" lon="5.72228">
        <ele>680.75</ele>
        <time>2011-06-19T10:07:40Z</time>
      </trkpt>
      <trkpt lat="45.64697" lon="5.72227">
        <ele>680.75</ele>
        <time>2011-06-19T10:07:41Z</time>
      </trkpt>
      <trkpt lat="45.64698" lon="5.72227">
        <ele>681.23</ele>
        <time>2011-06-19T10:07:42Z</time>
      </trkpt>
      <trkpt lat="45.64699" lon="5.72226">
        <ele>680.75</ele>
        <time>2011-06-19T10:07:43Z</time>
      </trkpt>
      <trkpt lat="45.64701" lon="5.72225">
        <ele>681.23</ele>
        <time>2011-06-19T10:07:44Z</time>
      </trkpt>
      <trkpt lat="45.64703" lon="5.72225">
        <ele>681.71</ele>
        <time>2011-06-19T10:07:45Z</time>
      </trkpt>
      <trkpt lat="45.64725" lon="5.72221">
        <ele>683.63</ele>
        <time>2011-06-19T10:07:59Z</time>
      </trkpt>
      <trkpt lat="45.64727" lon="5.7222">
        <ele>683.15</ele>
        <time>2011-06-19T10:08:01Z</time>
      </trkpt>
      <trkpt lat="45.64731" lon="5.72219">
        <ele>683.63</ele>
        <time>2011-06-19T10:08:04Z</time>
      </trkpt>
      <trkpt lat="45.64732" lon="5.72219">
        <ele>684.12</ele>
        <time>2011-06-19T10:08:05Z</time>
      </trkpt>
      <trkpt lat="45.64735" lon="5.72219">
        <ele>684.6</ele>
        <time>2011-06-19T10:08:06Z</time>
      </trkpt>
      <trkpt lat="45.64755" lon="5.72203">
        <ele>687</ele>
        <time>2011-06-19T10:08:20Z</time>
      </trkpt>
      <trkpt lat="45.64768" lon="5.72187">
        <ele>688.44</ele>
        <time>2011-06-19T10:08:33Z</time>
      </trkpt>
      <trkpt lat="45.6478" lon="5.72169">
        <ele>690.84</ele>
        <time>2011-06-19T10:08:46Z</time>
      </trkpt>
      <trkpt lat="45.64783" lon="5.72161">
        <ele>691.33</ele>
        <time>2011-06-19T10:08:50Z</time>
      </trkpt>
      <trkpt lat="45.64783" lon="5.72154">
        <ele>691.81</ele>
        <time>2011-06-19T10:08:54Z</time>
      </trkpt>
      <trkpt lat="45.64782" lon="5.72152">
        <ele>692.29</ele>
        <time>2011-06-19T10:08:55Z</time>
      </trkpt>
      <trkpt lat="45.64782" lon="5.72143">
        <ele>693.25</ele>
        <time>2011-06-19T10:09:00Z</time>
      </trkpt>
      <trkpt lat="45.64782" lon="5.72138">
        <ele>693.73</ele>
        <time>2011-06-19T10:09:04Z</time>
      </trkpt>
      <trkpt lat="45.64777" lon="5.7213">
        <ele>695.65</ele>
        <time>2011-06-19T10:09:15Z</time>
      </trkpt>
      <trkpt lat="45.64771" lon="5.72114">
        <ele>697.57</ele>
        <time>2011-06-19T10:09:31Z</time>
      </trkpt>
      <trkpt lat="45.64768" lon="5.72104">
        <ele>700.46</ele>
        <time>2011-06-19T10:09:46Z</time>
      </trkpt>
      <trkpt lat="45.64768" lon="5.72101">
        <ele>699.98</ele>
        <time>2011-06-19T10:10:00Z</time>
      </trkpt>
      <trkpt lat="45.64767" lon="5.721">
        <ele>700.94</ele>
        <time>2011-06-19T10:10:01Z</time>
      </trkpt>
      <trkpt lat="45.64756" lon="5.72083">
        <ele>704.3</ele>
        <time>2011-06-19T10:10:15Z</time>
      </trkpt>
      <trkpt lat="45.64746" lon="5.72065">
        <ele>706.71</ele>
        <time>2011-06-19T10:10:28Z</time>
      </trkpt>
      <trkpt lat="45.64738" lon="5.72055">
        <ele>708.63</ele>
        <time>2011-06-19T10:10:41Z</time>
      </trkpt>
      <trkpt lat="45.64736" lon="5.72052">
        <ele>709.11</ele>
        <time>2011-06-19T10:10:49Z</time>
      </trkpt>
      <trkpt lat="45.64725" lon="5.72042">
        <ele>711.03</ele>
        <time>2011-06-19T10:10:57Z</time>
      </trkpt>
      <trkpt lat="45.647" lon="5.72022">
        <ele>713.92</ele>
        <time>2011-06-19T10:11:15Z</time>
      </trkpt>
      <trkpt lat="45.64676" lon="5.72003">
        <ele>713.92</ele>
        <time>2011-06-19T10:11:29Z</time>
      </trkpt>
      <trkpt lat="45.64648" lon="5.71977">
        <ele>713.92</ele>
        <time>2011-06-19T10:11:42Z</time>
      </trkpt>
      <trkpt lat="45.64624" lon="5.71958">
        <ele>716.8</ele>
        <time>2011-06-19T10:11:56Z</time>
      </trkpt>
      <trkpt lat="45.64613" lon="5.7196">
        <ele>719.2</ele>
        <time>2011-06-19T10:12:09Z</time>
      </trkpt>
      <trkpt lat="45.6461" lon="5.71964">
        <ele>720.16</ele>
        <time>2011-06-19T10:12:18Z</time>
      </trkpt>
      <trkpt lat="45.64599" lon="5.71963">
        <ele>722.57</ele>
        <time>2011-06-19T10:12:32Z</time>
      </trkpt>
      <trkpt lat="45.64596" lon="5.71961">
        <ele>723.05</ele>
        <time>2011-06-19T10:12:36Z</time>
      </trkpt>
      <trkpt lat="45.64589" lon="5.71959">
        <ele>724.49</ele>
        <time>2011-06-19T10:12:52Z</time>
      </trkpt>
      <trkpt lat="45.64587" lon="5.71958">
        <ele>725.45</ele>
        <time>2011-06-19T10:12:55Z</time>
      </trkpt>
      <trkpt lat="45.64564" lon="5.71941">
        <ele>726.89</ele>
        <time>2011-06-19T10:13:10Z</time>
      </trkpt>
      <trkpt lat="45.64533" lon="5.71935">
        <ele>725.45</ele>
        <time>2011-06-19T10:13:22Z</time>
      </trkpt>
      <trkpt lat="45.64486" lon="5.71947">
        <ele>724.97</ele>
        <time>2011-06-19T10:13:32Z</time>
      </trkpt>
      <trkpt lat="45.64442" lon="5.71952">
        <ele>722.09</ele>
        <time>2011-06-19T10:13:42Z</time>
      </trkpt>
      <trkpt lat="45.64409" lon="5.71959">
        <ele>723.05</ele>
        <time>2011-06-19T10:13:48Z</time>
      </trkpt>
      <trkpt lat="45.64404" lon="5.71961">
        <ele>723.05</ele>
        <time>2011-06-19T10:13:49Z</time>
      </trkpt>
      <trkpt lat="45.644" lon="5.71964">
        <ele>723.05</ele>
        <time>2011-06-19T10:13:50Z</time>
      </trkpt>
      <trkpt lat="45.64396" lon="5.71966">
        <ele>724.01</ele>
        <time>2011-06-19T10:13:51Z</time>
      </trkpt>
      <trkpt lat="45.64392" lon="5.71969">
        <ele>723.05</ele>
        <time>2011-06-19T10:13:52Z</time>
      </trkpt>
      <trkpt lat="45.64389" lon="5.71972">
        <ele>723.53</ele>
        <time>2011-06-19T10:13:53Z</time>
      </trkpt>
      <trkpt lat="45.64362" lon="5.71964">
        <ele>725.45</ele>
        <time>2011-06-19T10:14:05Z</time>
      </trkpt>
      <trkpt lat="45.64359" lon="5.71957">
        <ele>726.41</ele>
        <time>2011-06-19T10:14:09Z</time>
      </trkpt>
      <trkpt lat="45.64359" lon="5.71954">
        <ele>726.89</ele>
        <time>2011-06-19T10:14:10Z</time>
      </trkpt>
      <trkpt lat="45.64357" lon="5.71951">
        <ele>727.37</ele>
        <time>2011-06-19T10:14:11Z</time>
      </trkpt>
      <trkpt lat="45.64357" lon="5.71949">
        <ele>727.86</ele>
        <time>2011-06-19T10:14:12Z</time>
      </trkpt>
      <trkpt lat="45.64356" lon="5.71947">
        <ele>727.37</ele>
        <time>2011-06-19T10:14:13Z</time>
      </trkpt>
      <trkpt lat="45.64341" lon="5.71928">
        <ele>729.78</ele>
        <time>2011-06-19T10:14:26Z</time>
      </trkpt>
      <trkpt lat="45.64339" lon="5.71922">
        <ele>729.78</ele>
        <time>2011-06-19T10:14:30Z</time>
      </trkpt>
      <trkpt lat="45.64341" lon="5.71916">
        <ele>731.22</ele>
        <time>2011-06-19T10:14:34Z</time>
      </trkpt>
      <trkpt lat="45.64341" lon="5.71914">
        <ele>731.7</ele>
        <time>2011-06-19T10:14:35Z</time>
      </trkpt>
      <trkpt lat="45.64343" lon="5.7191">
        <ele>731.7</ele>
        <time>2011-06-19T10:14:37Z</time>
      </trkpt>
      <trkpt lat="45.64344" lon="5.71908">
        <ele>732.18</ele>
        <time>2011-06-19T10:14:38Z</time>
      </trkpt>
      <trkpt lat="45.6436" lon="5.71881">
        <ele>733.62</ele>
        <time>2011-06-19T10:14:53Z</time>
      </trkpt>
      <trkpt lat="45.64368" lon="5.71857">
        <ele>735.55</ele>
        <time>2011-06-19T10:15:06Z</time>
      </trkpt>
      <trkpt lat="45.6437" lon="5.71854">
        <ele>736.03</ele>
        <time>2011-06-19T10:15:08Z</time>
      </trkpt>
      <trkpt lat="45.64373" lon="5.71848">
        <ele>736.51</ele>
        <time>2011-06-19T10:15:12Z</time>
      </trkpt>
      <trkpt lat="45.64374" lon="5.71847">
        <ele>737.47</ele>
        <time>2011-06-19T10:15:13Z</time>
      </trkpt>
      <trkpt lat="45.64385" lon="5.71829">
        <ele>738.91</ele>
        <time>2011-06-19T10:15:26Z</time>
      </trkpt>
      <trkpt lat="45.64386" lon="5.71827">
        <ele>739.39</ele>
        <time>2011-06-19T10:15:27Z</time>
      </trkpt>
      <trkpt lat="45.64387" lon="5.71826">
        <ele>739.39</ele>
        <time>2011-06-19T10:15:28Z</time>
      </trkpt>
      <trkpt lat="45.64397" lon="5.71813">
        <ele>741.79</ele>
        <time>2011-06-19T10:15:41Z</time>
      </trkpt>
      <trkpt lat="45.64397" lon="5.71811">
        <ele>742.28</ele>
        <time>2011-06-19T10:15:42Z</time>
      </trkpt>
      <trkpt lat="45.64398" lon="5.7181">
        <ele>742.76</ele>
        <time>2011-06-19T10:15:43Z</time>
      </trkpt>
      <trkpt lat="45.64399" lon="5.71809">
        <ele>742.76</ele>
        <time>2011-06-19T10:15:44Z</time>
      </trkpt>
      <trkpt lat="45.64399" lon="5.71807">
        <ele>742.76</ele>
        <time>2011-06-19T10:15:45Z</time>
      </trkpt>
      <trkpt lat="45.64407" lon="5.71798">
        <ele>744.68</ele>
        <time>2011-06-19T10:15:54Z</time>
      </trkpt>
      <trkpt lat="45.6442" lon="5.71793">
        <ele>746.6</ele>
        <time>2011-06-19T10:16:06Z</time>
      </trkpt>
      <trkpt lat="45.6444" lon="5.71782">
        <ele>749</ele>
        <time>2011-06-19T10:16:21Z</time>
      </trkpt>
      <trkpt lat="45.64456" lon="5.71764">
        <ele>751.41</ele>
        <time>2011-06-19T10:16:35Z</time>
      </trkpt>
      <trkpt lat="45.64468" lon="5.71752">
        <ele>752.85</ele>
        <time>2011-06-19T10:16:47Z</time>
      </trkpt>
      <trkpt lat="45.64469" lon="5.71751">
        <ele>753.81</ele>
        <time>2011-06-19T10:16:48Z</time>
      </trkpt>
      <trkpt lat="45.6447" lon="5.7175">
        <ele>753.81</ele>
        <time>2011-06-19T10:16:49Z</time>
      </trkpt>
      <trkpt lat="45.64486" lon="5.7174">
        <ele>756.21</ele>
        <time>2011-06-19T10:17:03Z</time>
      </trkpt>
      <trkpt lat="45.64503" lon="5.7173">
        <ele>758.14</ele>
        <time>2011-06-19T10:17:16Z</time>
      </trkpt>
      <trkpt lat="45.64514" lon="5.71714">
        <ele>760.06</ele>
        <time>2011-06-19T10:17:29Z</time>
      </trkpt>
      <trkpt lat="45.64516" lon="5.71711">
        <ele>760.54</ele>
        <time>2011-06-19T10:17:31Z</time>
      </trkpt>
      <trkpt lat="45.64516" lon="5.7171">
        <ele>761.02</ele>
        <time>2011-06-19T10:17:32Z</time>
      </trkpt>
      <trkpt lat="45.64518" lon="5.71708">
        <ele>761.02</ele>
        <time>2011-06-19T10:17:33Z</time>
      </trkpt>
      <trkpt lat="45.64518" lon="5.71706">
        <ele>761.02</ele>
        <time>2011-06-19T10:17:34Z</time>
      </trkpt>
      <trkpt lat="45.6452" lon="5.71705">
        <ele>761.02</ele>
        <time>2011-06-19T10:17:35Z</time>
      </trkpt>
      <trkpt lat="45.64521" lon="5.71704">
        <ele>761.5</ele>
        <time>2011-06-19T10:17:36Z</time>
      </trkpt>
      <trkpt lat="45.64535" lon="5.71683">
        <ele>763.42</ele>
        <time>2011-06-19T10:17:51Z</time>
      </trkpt>
      <trkpt lat="45.64544" lon="5.71661">
        <ele>766.79</ele>
        <time>2011-06-19T10:18:05Z</time>
      </trkpt>
      <trkpt lat="45.64546" lon="5.71637">
        <ele>769.19</ele>
        <time>2011-06-19T10:18:21Z</time>
      </trkpt>
      <trkpt lat="45.64547" lon="5.7163">
        <ele>769.19</ele>
        <time>2011-06-19T10:18:25Z</time>
      </trkpt>
      <trkpt lat="45.64542" lon="5.71603">
        <ele>771.6</ele>
        <time>2011-06-19T10:18:37Z</time>
      </trkpt>
      <trkpt lat="45.64542" lon="5.71601">
        <ele>772.56</ele>
        <time>2011-06-19T10:18:38Z</time>
      </trkpt>
      <trkpt lat="45.64542" lon="5.71598">
        <ele>772.56</ele>
        <time>2011-06-19T10:18:39Z</time>
      </trkpt>
      <trkpt lat="45.64541" lon="5.71596">
        <ele>773.04</ele>
        <time>2011-06-19T10:18:40Z</time>
      </trkpt>
      <trkpt lat="45.64541" lon="5.71594">
        <ele>773.04</ele>
        <time>2011-06-19T10:18:41Z</time>
      </trkpt>
      <trkpt lat="45.6454" lon="5.71592">
        <ele>773.52</ele>
        <time>2011-06-19T10:18:42Z</time>
      </trkpt>
      <trkpt lat="45.64539" lon="5.7159">
        <ele>773.04</ele>
        <time>2011-06-19T10:18:43Z</time>
      </trkpt>
      <trkpt lat="45.64539" lon="5.71588">
        <ele>773.52</ele>
        <time>2011-06-19T10:18:44Z</time>
      </trkpt>
      <trkpt lat="45.64531" lon="5.71557">
        <ele>773.52</ele>
        <time>2011-06-19T10:18:57Z</time>
      </trkpt>
      <trkpt lat="45.64531" lon="5.71556">
        <ele>774</ele>
        <time>2011-06-19T10:18:58Z</time>
      </trkpt>
      <trkpt lat="45.64531" lon="5.71556">
        <ele>774</ele>
        <time>2011-06-19T10:19:29Z</time>
      </trkpt>
      <trkpt lat="45.64531" lon="5.71556">
        <ele>774</ele>
        <time>2011-06-19T10:19:54Z</time>
      </trkpt>
      <trkpt lat="45.64531" lon="5.71555">
        <ele>773.52</ele>
        <time>2011-06-19T10:20:24Z</time>
      </trkpt>
      <trkpt lat="45.64531" lon="5.71555">
        <ele>773.52</ele>
        <time>2011-06-19T10:20:51Z</time>
      </trkpt>
      <trkpt lat="45.64531" lon="5.71555">
        <ele>773.52</ele>
        <time>2011-06-19T10:21:29Z</time>
      </trkpt>
      <trkpt lat="45.64531" lon="5.71554">
        <ele>773.52</ele>
        <time>2011-06-19T10:22:05Z</time>
      </trkpt>
      <trkpt lat="45.64531" lon="5.71554">
        <ele>773.52</ele>
        <time>2011-06-19T10:22:43Z</time>
      </trkpt>
      <trkpt lat="45.64531" lon="5.71554">
        <ele>773.52</ele>
        <time>2011-06-19T10:23:21Z</time>
      </trkpt>
      <trkpt lat="45.64531" lon="5.71554">
        <ele>773.52</ele>
        <time>2011-06-19T10:23:55Z</time>
      </trkpt>
      <trkpt lat="45.64531" lon="5.71554">
        <ele>773.52</ele>
        <time>2011-06-19T10:24:23Z</time>
      </trkpt>
      <trkpt lat="45.64531" lon="5.7155">
        <ele>773.52</ele>
        <time>2011-06-19T10:24:39Z</time>
      </trkpt>
      <trkpt lat="45.64516" lon="5.71517">
        <ele>774</ele>
        <time>2011-06-19T10:24:54Z</time>
      </trkpt>
      <trkpt lat="45.64503" lon="5.7151">
        <ele>774.48</ele>
        <time>2011-06-19T10:25:02Z</time>
      </trkpt>
      <trkpt lat="45.64501" lon="5.71511">
        <ele>774</ele>
        <time>2011-06-19T10:25:03Z</time>
      </trkpt>
      <trkpt lat="45.64499" lon="5.71512">
        <ele>774.48</ele>
        <time>2011-06-19T10:25:04Z</time>
      </trkpt>
      <trkpt lat="45.6448" lon="5.71524">
        <ele>776.4</ele>
        <time>2011-06-19T10:25:17Z</time>
      </trkpt>
      <trkpt lat="45.64462" lon="5.71525">
        <ele>777.36</ele>
        <time>2011-06-19T10:25:27Z</time>
      </trkpt>
      <trkpt lat="45.64461" lon="5.71523">
        <ele>776.88</ele>
        <time>2011-06-19T10:25:28Z</time>
      </trkpt>
      <trkpt lat="45.6446" lon="5.71521">
        <ele>777.84</ele>
        <time>2011-06-19T10:25:29Z</time>
      </trkpt>
      <trkpt lat="45.64459" lon="5.71519">
        <ele>777.84</ele>
        <time>2011-06-19T10:25:30Z</time>
      </trkpt>
      <trkpt lat="45.64458" lon="5.71517">
        <ele>778.32</ele>
        <time>2011-06-19T10:25:31Z</time>
      </trkpt>
      <trkpt lat="45.64456" lon="5.71515">
        <ele>778.32</ele>
        <time>2011-06-19T10:25:32Z</time>
      </trkpt>
      <trkpt lat="45.64418" lon="5.71504">
        <ele>776.4</ele>
        <time>2011-06-19T10:25:46Z</time>
      </trkpt>
      <trkpt lat="45.644" lon="5.71452">
        <ele>774.48</ele>
        <time>2011-06-19T10:25:59Z</time>
      </trkpt>
      <trkpt lat="45.64376" lon="5.71435">
        <ele>775.44</ele>
        <time>2011-06-19T10:26:10Z</time>
      </trkpt>
      <trkpt lat="45.64373" lon="5.71432">
        <ele>776.4</ele>
        <time>2011-06-19T10:26:16Z</time>
      </trkpt>
      <trkpt lat="45.64372" lon="5.71432">
        <ele>775.44</ele>
        <time>2011-06-19T10:26:17Z</time>
      </trkpt>
      <trkpt lat="45.64371" lon="5.71431">
        <ele>775.44</ele>
        <time>2011-06-19T10:26:18Z</time>
      </trkpt>
      <trkpt lat="45.64357" lon="5.71419">
        <ele>776.4</ele>
        <time>2011-06-19T10:26:33Z</time>
      </trkpt>
      <trkpt lat="45.64347" lon="5.71405">
        <ele>778.81</ele>
        <time>2011-06-19T10:26:47Z</time>
      </trkpt>
      <trkpt lat="45.64342" lon="5.71402">
        <ele>780.25</ele>
        <time>2011-06-19T10:27:01Z</time>
      </trkpt>
      <trkpt lat="45.64338" lon="5.71402">
        <ele>780.25</ele>
        <time>2011-06-19T10:27:05Z</time>
      </trkpt>
      <trkpt lat="45.64336" lon="5.71403">
        <ele>780.25</ele>
        <time>2011-06-19T10:27:06Z</time>
      </trkpt>
      <trkpt lat="45.64334" lon="5.71403">
        <ele>780.25</ele>
        <time>2011-06-19T10:27:07Z</time>
      </trkpt>
      <trkpt lat="45.64332" lon="5.71404">
        <ele>780.25</ele>
        <time>2011-06-19T10:27:08Z</time>
      </trkpt>
      <trkpt lat="45.6433" lon="5.71404">
        <ele>780.25</ele>
        <time>2011-06-19T10:27:09Z</time>
      </trkpt>
      <trkpt lat="45.64327" lon="5.71405">
        <ele>779.77</ele>
        <time>2011-06-19T10:27:10Z</time>
      </trkpt>
      <trkpt lat="45.64325" lon="5.71406">
        <ele>780.73</ele>
        <time>2011-06-19T10:27:11Z</time>
      </trkpt>
      <trkpt lat="45.64288" lon="5.71426">
        <ele>776.88</ele>
        <time>2011-06-19T10:27:23Z</time>
      </trkpt>
      <trkpt lat="45.64284" lon="5.71428">
        <ele>776.88</ele>
        <time>2011-06-19T10:27:24Z</time>
      </trkpt>
      <trkpt lat="45.64235" lon="5.71475">
        <ele>776.4</ele>
        <time>2011-06-19T10:27:38Z</time>
      </trkpt>
      <trkpt lat="45.6423" lon="5.71531">
        <ele>774.48</ele>
        <time>2011-06-19T10:27:49Z</time>
      </trkpt>
      <trkpt lat="45.64232" lon="5.7154">
        <ele>774</ele>
        <time>2011-06-19T10:27:51Z</time>
      </trkpt>
      <trkpt lat="45.64231" lon="5.71563">
        <ele>769.67</ele>
        <time>2011-06-19T10:27:55Z</time>
      </trkpt>
      <trkpt lat="45.64229" lon="5.71576">
        <ele>768.71</ele>
        <time>2011-06-19T10:27:57Z</time>
      </trkpt>
      <trkpt lat="45.64228" lon="5.71582">
        <ele>768.23</ele>
        <time>2011-06-19T10:27:58Z</time>
      </trkpt>
      <trkpt lat="45.6421" lon="5.71622">
        <ele>765.35</ele>
        <time>2011-06-19T10:28:08Z</time>
      </trkpt>
      <trkpt lat="45.64174" lon="5.71622">
        <ele>762.46</ele>
        <time>2011-06-19T10:28:21Z</time>
      </trkpt>
      <trkpt lat="45.64128" lon="5.71636">
        <ele>758.62</ele>
        <time>2011-06-19T10:28:29Z</time>
      </trkpt>
      <trkpt lat="45.64112" lon="5.71654">
        <ele>755.25</ele>
        <time>2011-06-19T10:28:33Z</time>
      </trkpt>
      <trkpt lat="45.64104" lon="5.71673">
        <ele>753.33</ele>
        <time>2011-06-19T10:28:35Z</time>
      </trkpt>
      <trkpt lat="45.64093" lon="5.71707">
        <ele>749.97</ele>
        <time>2011-06-19T10:28:39Z</time>
      </trkpt>
      <trkpt lat="45.64084" lon="5.71725">
        <ele>747.08</ele>
        <time>2011-06-19T10:28:43Z</time>
      </trkpt>
      <trkpt lat="45.64077" lon="5.71747">
        <ele>743.72</ele>
        <time>2011-06-19T10:28:47Z</time>
      </trkpt>
      <trkpt lat="45.64074" lon="5.71762">
        <ele>742.76</ele>
        <time>2011-06-19T10:28:49Z</time>
      </trkpt>
      <trkpt lat="45.64072" lon="5.71769">
        <ele>740.83</ele>
        <time>2011-06-19T10:28:50Z</time>
      </trkpt>
      <trkpt lat="45.64061" lon="5.71783">
        <ele>740.35</ele>
        <time>2011-06-19T10:28:54Z</time>
      </trkpt>
      <trkpt lat="45.64059" lon="5.71782">
        <ele>739.87</ele>
        <time>2011-06-19T10:28:55Z</time>
      </trkpt>
      <trkpt lat="45.64058" lon="5.71782">
        <ele>739.87</ele>
        <time>2011-06-19T10:28:56Z</time>
      </trkpt>
      <trkpt lat="45.64058" lon="5.71784">
        <ele>740.35</ele>
        <time>2011-06-19T10:28:57Z</time>
      </trkpt>
      <trkpt lat="45.64057" lon="5.71786">
        <ele>739.87</ele>
        <time>2011-06-19T10:28:58Z</time>
      </trkpt>
      <trkpt lat="45.64056" lon="5.71788">
        <ele>739.87</ele>
        <time>2011-06-19T10:28:59Z</time>
      </trkpt>
      <trkpt lat="45.64053" lon="5.7179">
        <ele>739.39</ele>
        <time>2011-06-19T10:29:00Z</time>
      </trkpt>
      <trkpt lat="45.6405" lon="5.7179">
        <ele>739.39</ele>
        <time>2011-06-19T10:29:01Z</time>
      </trkpt>
      <trkpt lat="45.64028" lon="5.71794">
        <ele>738.43</ele>
        <time>2011-06-19T10:29:07Z</time>
      </trkpt>
      <trkpt lat="45.64025" lon="5.71792">
        <ele>738.43</ele>
        <time>2011-06-19T10:29:08Z</time>
      </trkpt>
      <trkpt lat="45.64023" lon="5.7179">
        <ele>738.91</ele>
        <time>2011-06-19T10:29:09Z</time>
      </trkpt>
      <trkpt lat="45.63998" lon="5.71761">
        <ele>742.28</ele>
        <time>2011-06-19T10:29:23Z</time>
      </trkpt>
      <trkpt lat="45.63966" lon="5.71729">
        <ele>745.16</ele>
        <time>2011-06-19T10:29:40Z</time>
      </trkpt>
      <trkpt lat="45.63936" lon="5.71701">
        <ele>748.04</ele>
        <time>2011-06-19T10:29:56Z</time>
      </trkpt>
      <trkpt lat="45.63908" lon="5.71681">
        <ele>751.41</ele>
        <time>2011-06-19T10:30:11Z</time>
      </trkpt>
      <trkpt lat="45.63881" lon="5.71668">
        <ele>754.77</ele>
        <time>2011-06-19T10:30:26Z</time>
      </trkpt>
      <trkpt lat="45.63856" lon="5.71678">
        <ele>757.66</ele>
        <time>2011-06-19T10:30:41Z</time>
      </trkpt>
      <trkpt lat="45.63835" lon="5.71675">
        <ele>760.54</ele>
        <time>2011-06-19T10:30:54Z</time>
      </trkpt>
      <trkpt lat="45.63833" lon="5.71672">
        <ele>760.54</ele>
        <time>2011-06-19T10:30:56Z</time>
      </trkpt>
      <trkpt lat="45.63832" lon="5.7167">
        <ele>760.54</ele>
        <time>2011-06-19T10:30:57Z</time>
      </trkpt>
      <trkpt lat="45.63826" lon="5.71638">
        <ele>763.9</ele>
        <time>2011-06-19T10:31:10Z</time>
      </trkpt>
      <trkpt lat="45.63823" lon="5.71601">
        <ele>765.83</ele>
        <time>2011-06-19T10:31:24Z</time>
      </trkpt>
      <trkpt lat="45.638" lon="5.71579">
        <ele>765.83</ele>
        <time>2011-06-19T10:31:36Z</time>
      </trkpt>
      <trkpt lat="45.63763" lon="5.71553">
        <ele>765.83</ele>
        <time>2011-06-19T10:31:50Z</time>
      </trkpt>
      <trkpt lat="45.63761" lon="5.71523">
        <ele>768.23</ele>
        <time>2011-06-19T10:32:03Z</time>
      </trkpt>
      <trkpt lat="45.63759" lon="5.71483">
        <ele>766.79</ele>
        <time>2011-06-19T10:32:12Z</time>
      </trkpt>
      <trkpt lat="45.63749" lon="5.71433">
        <ele>766.79</ele>
        <time>2011-06-19T10:32:24Z</time>
      </trkpt>
      <trkpt lat="45.63737" lon="5.71413">
        <ele>768.71</ele>
        <time>2011-06-19T10:32:38Z</time>
      </trkpt>
      <trkpt lat="45.63736" lon="5.71395">
        <ele>771.11</ele>
        <time>2011-06-19T10:32:53Z</time>
      </trkpt>
      <trkpt lat="45.63739" lon="5.71379">
        <ele>773.52</ele>
        <time>2011-06-19T10:33:09Z</time>
      </trkpt>
      <trkpt lat="45.63739" lon="5.71377">
        <ele>774</ele>
        <time>2011-06-19T10:33:10Z</time>
      </trkpt>
      <trkpt lat="45.63731" lon="5.71362">
        <ele>776.4</ele>
        <time>2011-06-19T10:33:27Z</time>
      </trkpt>
      <trkpt lat="45.63721" lon="5.71347">
        <ele>778.81</ele>
        <time>2011-06-19T10:33:43Z</time>
      </trkpt>
      <trkpt lat="45.63719" lon="5.7134">
        <ele>780.25</ele>
        <time>2011-06-19T10:33:59Z</time>
      </trkpt>
      <trkpt lat="45.6371" lon="5.71324">
        <ele>783.13</ele>
        <time>2011-06-19T10:34:13Z</time>
      </trkpt>
      <trkpt lat="45.63697" lon="5.71316">
        <ele>786.02</ele>
        <time>2011-06-19T10:34:26Z</time>
      </trkpt>
      <trkpt lat="45.63696" lon="5.71316">
        <ele>786.02</ele>
        <time>2011-06-19T10:34:27Z</time>
      </trkpt>
      <trkpt lat="45.63685" lon="5.71314">
        <ele>787.46</ele>
        <time>2011-06-19T10:34:36Z</time>
      </trkpt>
      <trkpt lat="45.63674" lon="5.7132">
        <ele>790.34</ele>
        <time>2011-06-19T10:34:48Z</time>
      </trkpt>
      <trkpt lat="45.63671" lon="5.71324">
        <ele>790.82</ele>
        <time>2011-06-19T10:34:52Z</time>
      </trkpt>
      <trkpt lat="45.63658" lon="5.71333">
        <ele>793.22</ele>
        <time>2011-06-19T10:35:07Z</time>
      </trkpt>
      <trkpt lat="45.63657" lon="5.71326">
        <ele>794.19</ele>
        <time>2011-06-19T10:35:12Z</time>
      </trkpt>
      <trkpt lat="45.63656" lon="5.71303">
        <ele>797.07</ele>
        <time>2011-06-19T10:35:27Z</time>
      </trkpt>
      <trkpt lat="45.63655" lon="5.7129">
        <ele>798.51</ele>
        <time>2011-06-19T10:35:36Z</time>
      </trkpt>
      <trkpt lat="45.63646" lon="5.71268">
        <ele>800.44</ele>
        <time>2011-06-19T10:35:50Z</time>
      </trkpt>
      <trkpt lat="45.63635" lon="5.71256">
        <ele>801.88</ele>
        <time>2011-06-19T10:36:00Z</time>
      </trkpt>
      <trkpt lat="45.63601" lon="5.71257">
        <ele>799.47</ele>
        <time>2011-06-19T10:36:15Z</time>
      </trkpt>
      <trkpt lat="45.63593" lon="5.71252">
        <ele>797.07</ele>
        <time>2011-06-19T10:36:18Z</time>
      </trkpt>
      <trkpt lat="45.63564" lon="5.71258">
        <ele>793.71</ele>
        <time>2011-06-19T10:36:28Z</time>
      </trkpt>
      <trkpt lat="45.63505" lon="5.71236">
        <ele>790.34</ele>
        <time>2011-06-19T10:36:33Z</time>
      </trkpt>
      <trkpt lat="45.63496" lon="5.71248">
        <ele>789.38</ele>
        <time>2011-06-19T10:36:35Z</time>
      </trkpt>
      <trkpt lat="45.63481" lon="5.71267">
        <ele>788.42</ele>
        <time>2011-06-19T10:36:38Z</time>
      </trkpt>
      <trkpt lat="45.6348" lon="5.71271">
        <ele>788.42</ele>
        <time>2011-06-19T10:36:39Z</time>
      </trkpt>
      <trkpt lat="45.63473" lon="5.71275">
        <ele>788.42</ele>
        <time>2011-06-19T10:36:41Z</time>
      </trkpt>
      <trkpt lat="45.63466" lon="5.71273">
        <ele>787.94</ele>
        <time>2011-06-19T10:36:43Z</time>
      </trkpt>
      <trkpt lat="45.6343" lon="5.71291">
        <ele>785.53</ele>
        <time>2011-06-19T10:36:54Z</time>
      </trkpt>
      <trkpt lat="45.63414" lon="5.71301">
        <ele>783.61</ele>
        <time>2011-06-19T10:36:58Z</time>
      </trkpt>
      <trkpt lat="45.63397" lon="5.71317">
        <ele>781.21</ele>
        <time>2011-06-19T10:37:03Z</time>
      </trkpt>
      <trkpt lat="45.63379" lon="5.71332">
        <ele>782.65</ele>
        <time>2011-06-19T10:37:09Z</time>
      </trkpt>
      <trkpt lat="45.63364" lon="5.71319">
        <ele>778.32</ele>
        <time>2011-06-19T10:37:13Z</time>
      </trkpt>
      <trkpt lat="45.63351" lon="5.71324">
        <ele>774.96</ele>
        <time>2011-06-19T10:37:16Z</time>
      </trkpt>
      <trkpt lat="45.63334" lon="5.71342">
        <ele>772.08</ele>
        <time>2011-06-19T10:37:19Z</time>
      </trkpt>
      <trkpt lat="45.63325" lon="5.71356">
        <ele>770.15</ele>
        <time>2011-06-19T10:37:21Z</time>
      </trkpt>
      <trkpt lat="45.63305" lon="5.71416">
        <ele>768.71</ele>
        <time>2011-06-19T10:37:30Z</time>
      </trkpt>
      <trkpt lat="45.63312" lon="5.71447">
        <ele>768.23</ele>
        <time>2011-06-19T10:37:35Z</time>
      </trkpt>
      <trkpt lat="45.63323" lon="5.71482">
        <ele>767.27</ele>
        <time>2011-06-19T10:37:41Z</time>
      </trkpt>
      <trkpt lat="45.63327" lon="5.71511">
        <ele>765.35</ele>
        <time>2011-06-19T10:37:45Z</time>
      </trkpt>
      <trkpt lat="45.63325" lon="5.71553">
        <ele>761.5</ele>
        <time>2011-06-19T10:37:51Z</time>
      </trkpt>
      <trkpt lat="45.63323" lon="5.71567">
        <ele>758.62</ele>
        <time>2011-06-19T10:37:54Z</time>
      </trkpt>
      <trkpt lat="45.6332" lon="5.71603">
        <ele>754.29</ele>
        <time>2011-06-19T10:37:59Z</time>
      </trkpt>
      <trkpt lat="45.63319" lon="5.71615">
        <ele>753.81</ele>
        <time>2011-06-19T10:38:01Z</time>
      </trkpt>
      <trkpt lat="45.63318" lon="5.7165">
        <ele>750.93</ele>
        <time>2011-06-19T10:38:05Z</time>
      </trkpt>
      <trkpt lat="45.63318" lon="5.71666">
        <ele>750.93</ele>
        <time>2011-06-19T10:38:07Z</time>
      </trkpt>
      <trkpt lat="45.63315" lon="5.71704">
        <ele>749</ele>
        <time>2011-06-19T10:38:11Z</time>
      </trkpt>
      <trkpt lat="45.63315" lon="5.71721">
        <ele>748.04</ele>
        <time>2011-06-19T10:38:13Z</time>
      </trkpt>
      <trkpt lat="45.63313" lon="5.71737">
        <ele>748.04</ele>
        <time>2011-06-19T10:38:15Z</time>
      </trkpt>
      <trkpt lat="45.63308" lon="5.71768">
        <ele>745.16</ele>
        <time>2011-06-19T10:38:19Z</time>
      </trkpt>
      <trkpt lat="45.63294" lon="5.7181">
        <ele>742.28</ele>
        <time>2011-06-19T10:38:25Z</time>
      </trkpt>
      <trkpt lat="45.63283" lon="5.71827">
        <ele>740.83</ele>
        <time>2011-06-19T10:38:28Z</time>
      </trkpt>
      <trkpt lat="45.63278" lon="5.71837">
        <ele>739.87</ele>
        <time>2011-06-19T10:38:30Z</time>
      </trkpt>
      <trkpt lat="45.6327" lon="5.7186">
        <ele>736.99</ele>
        <time>2011-06-19T10:38:35Z</time>
      </trkpt>
      <trkpt lat="45.63263" lon="5.71875">
        <ele>735.07</ele>
        <time>2011-06-19T10:38:38Z</time>
      </trkpt>
      <trkpt lat="45.63261" lon="5.71878">
        <ele>734.58</ele>
        <time>2011-06-19T10:38:39Z</time>
      </trkpt>
      <trkpt lat="45.63248" lon="5.71896">
        <ele>731.7</ele>
        <time>2011-06-19T10:38:44Z</time>
      </trkpt>
      <trkpt lat="45.6324" lon="5.71908">
        <ele>731.22</ele>
        <time>2011-06-19T10:38:46Z</time>
      </trkpt>
      <trkpt lat="45.63216" lon="5.71928">
        <ele>729.78</ele>
        <time>2011-06-19T10:38:51Z</time>
      </trkpt>
      <trkpt lat="45.63207" lon="5.71937">
        <ele>729.3</ele>
        <time>2011-06-19T10:38:53Z</time>
      </trkpt>
      <trkpt lat="45.63193" lon="5.71962">
        <ele>727.37</ele>
        <time>2011-06-19T10:38:58Z</time>
      </trkpt>
      <trkpt lat="45.63186" lon="5.71969">
        <ele>725.93</ele>
        <time>2011-06-19T10:39:00Z</time>
      </trkpt>
      <trkpt lat="45.63178" lon="5.71979">
        <ele>724.49</ele>
        <time>2011-06-19T10:39:02Z</time>
      </trkpt>
      <trkpt lat="45.63156" lon="5.71998">
        <ele>722.09</ele>
        <time>2011-06-19T10:39:06Z</time>
      </trkpt>
      <trkpt lat="45.6314" lon="5.72008">
        <ele>721.13</ele>
        <time>2011-06-19T10:39:09Z</time>
      </trkpt>
      <trkpt lat="45.63134" lon="5.7201">
        <ele>720.65</ele>
        <time>2011-06-19T10:39:10Z</time>
      </trkpt>
      <trkpt lat="45.63125" lon="5.72015">
        <ele>719.68</ele>
        <time>2011-06-19T10:39:12Z</time>
      </trkpt>
      <trkpt lat="45.6312" lon="5.72019">
        <ele>719.2</ele>
        <time>2011-06-19T10:39:13Z</time>
      </trkpt>
      <trkpt lat="45.63116" lon="5.72021">
        <ele>718.72</ele>
        <time>2011-06-19T10:39:14Z</time>
      </trkpt>
      <trkpt lat="45.6309" lon="5.72026">
        <ele>716.32</ele>
        <time>2011-06-19T10:39:18Z</time>
      </trkpt>
      <trkpt lat="45.63057" lon="5.72032">
        <ele>714.88</ele>
        <time>2011-06-19T10:39:24Z</time>
      </trkpt>
      <trkpt lat="45.63046" lon="5.72041">
        <ele>713.44</ele>
        <time>2011-06-19T10:39:27Z</time>
      </trkpt>
      <trkpt lat="45.63041" lon="5.72044">
        <ele>711.99</ele>
        <time>2011-06-19T10:39:28Z</time>
      </trkpt>
      <trkpt lat="45.63036" lon="5.72046">
        <ele>711.51</ele>
        <time>2011-06-19T10:39:29Z</time>
      </trkpt>
      <trkpt lat="45.63032" lon="5.7205">
        <ele>711.03</ele>
        <time>2011-06-19T10:39:30Z</time>
      </trkpt>
      <trkpt lat="45.63024" lon="5.72057">
        <ele>710.07</ele>
        <time>2011-06-19T10:39:32Z</time>
      </trkpt>
      <trkpt lat="45.6302" lon="5.72061">
        <ele>709.11</ele>
        <time>2011-06-19T10:39:33Z</time>
      </trkpt>
      <trkpt lat="45.63017" lon="5.72065">
        <ele>708.15</ele>
        <time>2011-06-19T10:39:34Z</time>
      </trkpt>
      <trkpt lat="45.63008" lon="5.72084">
        <ele>705.75</ele>
        <time>2011-06-19T10:39:37Z</time>
      </trkpt>
      <trkpt lat="45.63005" lon="5.7209">
        <ele>705.26</ele>
        <time>2011-06-19T10:39:38Z</time>
      </trkpt>
      <trkpt lat="45.63002" lon="5.72096">
        <ele>705.26</ele>
        <time>2011-06-19T10:39:39Z</time>
      </trkpt>
      <trkpt lat="45.62999" lon="5.72101">
        <ele>703.82</ele>
        <time>2011-06-19T10:39:40Z</time>
      </trkpt>
      <trkpt lat="45.62996" lon="5.72105">
        <ele>703.82</ele>
        <time>2011-06-19T10:39:41Z</time>
      </trkpt>
      <trkpt lat="45.62991" lon="5.72109">
        <ele>702.86</ele>
        <time>2011-06-19T10:39:43Z</time>
      </trkpt>
      <trkpt lat="45.62988" lon="5.72103">
        <ele>703.34</ele>
        <time>2011-06-19T10:39:47Z</time>
      </trkpt>
      <trkpt lat="45.62981" lon="5.7209">
        <ele>704.3</ele>
        <time>2011-06-19T10:39:54Z</time>
      </trkpt>
      <trkpt lat="45.6297" lon="5.72092">
        <ele>705.75</ele>
        <time>2011-06-19T10:40:02Z</time>
      </trkpt>
      <trkpt lat="45.62957" lon="5.72093">
        <ele>707.67</ele>
        <time>2011-06-19T10:40:10Z</time>
      </trkpt>
      <trkpt lat="45.62951" lon="5.7209">
        <ele>708.63</ele>
        <time>2011-06-19T10:40:16Z</time>
      </trkpt>
      <trkpt lat="45.62933" lon="5.72091">
        <ele>712.47</ele>
        <time>2011-06-19T10:40:31Z</time>
      </trkpt>
      <trkpt lat="45.62933" lon="5.72091">
        <ele>712.47</ele>
        <time>2011-06-19T10:40:32Z</time>
      </trkpt>
      <trkpt lat="45.62917" lon="5.72086">
        <ele>715.84</ele>
        <time>2011-06-19T10:40:48Z</time>
      </trkpt>
      <trkpt lat="45.62911" lon="5.72088">
        <ele>716.32</ele>
        <time>2011-06-19T10:40:54Z</time>
      </trkpt>
      <trkpt lat="45.62893" lon="5.72101">
        <ele>719.68</ele>
        <time>2011-06-19T10:41:10Z</time>
      </trkpt>
      <trkpt lat="45.6289" lon="5.72103">
        <ele>720.16</ele>
        <time>2011-06-19T10:41:12Z</time>
      </trkpt>
      <trkpt lat="45.62873" lon="5.72106">
        <ele>722.57</ele>
        <time>2011-06-19T10:41:26Z</time>
      </trkpt>
      <trkpt lat="45.62871" lon="5.72106">
        <ele>723.05</ele>
        <time>2011-06-19T10:41:28Z</time>
      </trkpt>
      <trkpt lat="45.62871" lon="5.72097">
        <ele>723.53</ele>
        <time>2011-06-19T10:41:34Z</time>
      </trkpt>
      <trkpt lat="45.62883" lon="5.72087">
        <ele>725.45</ele>
        <time>2011-06-19T10:41:45Z</time>
      </trkpt>
      <trkpt lat="45.6289" lon="5.72084">
        <ele>726.89</ele>
        <time>2011-06-19T10:41:51Z</time>
      </trkpt>
      <trkpt lat="45.62891" lon="5.72082">
        <ele>727.37</ele>
        <time>2011-06-19T10:41:53Z</time>
      </trkpt>
      <trkpt lat="45.62891" lon="5.72074">
        <ele>728.34</ele>
        <time>2011-06-19T10:41:58Z</time>
      </trkpt>
      <trkpt lat="45.62877" lon="5.72069">
        <ele>730.26</ele>
        <time>2011-06-19T10:42:09Z</time>
      </trkpt>
      <trkpt lat="45.62872" lon="5.72067">
        <ele>731.22</ele>
        <time>2011-06-19T10:42:14Z</time>
      </trkpt>
      <trkpt lat="45.62853" lon="5.72055">
        <ele>733.62</ele>
        <time>2011-06-19T10:42:31Z</time>
      </trkpt>
      <trkpt lat="45.62844" lon="5.72049">
        <ele>736.03</ele>
        <time>2011-06-19T10:42:40Z</time>
      </trkpt>
      <trkpt lat="45.6283" lon="5.72037">
        <ele>738.91</ele>
        <time>2011-06-19T10:42:55Z</time>
      </trkpt>
      <trkpt lat="45.62824" lon="5.72033">
        <ele>739.87</ele>
        <time>2011-06-19T10:43:01Z</time>
      </trkpt>
      <trkpt lat="45.62808" lon="5.72032">
        <ele>742.28</ele>
        <time>2011-06-19T10:43:13Z</time>
      </trkpt>
      <trkpt lat="45.62798" lon="5.7203">
        <ele>742.28</ele>
        <time>2011-06-19T10:43:19Z</time>
      </trkpt>
      <trkpt lat="45.62793" lon="5.72019">
        <ele>743.24</ele>
        <time>2011-06-19T10:43:25Z</time>
      </trkpt>
      <trkpt lat="45.62794" lon="5.71988">
        <ele>744.68</ele>
        <time>2011-06-19T10:43:40Z</time>
      </trkpt>
      <trkpt lat="45.62814" lon="5.71971">
        <ele>745.64</ele>
        <time>2011-06-19T10:43:53Z</time>
      </trkpt>
      <trkpt lat="45.62846" lon="5.7195">
        <ele>747.08</ele>
        <time>2011-06-19T10:44:07Z</time>
      </trkpt>
      <trkpt lat="45.62873" lon="5.71933">
        <ele>747.56</ele>
        <time>2011-06-19T10:44:19Z</time>
      </trkpt>
      <trkpt lat="45.62908" lon="5.71909">
        <ele>750.93</ele>
        <time>2011-06-19T10:44:36Z</time>
      </trkpt>
      <trkpt lat="45.62932" lon="5.71895">
        <ele>753.33</ele>
        <time>2011-06-19T10:44:51Z</time>
      </trkpt>
      <trkpt lat="45.62956" lon="5.71875">
        <ele>756.69</ele>
        <time>2011-06-19T10:45:08Z</time>
      </trkpt>
      <trkpt lat="45.62961" lon="5.7187">
        <ele>757.66</ele>
        <time>2011-06-19T10:45:12Z</time>
      </trkpt>
      <trkpt lat="45.62973" lon="5.71856">
        <ele>758.62</ele>
        <time>2011-06-19T10:45:22Z</time>
      </trkpt>
      <trkpt lat="45.62995" lon="5.71838">
        <ele>761.98</ele>
        <time>2011-06-19T10:45:37Z</time>
      </trkpt>
      <trkpt lat="45.63005" lon="5.71828">
        <ele>762.94</ele>
        <time>2011-06-19T10:45:45Z</time>
      </trkpt>
      <trkpt lat="45.6301" lon="5.71823">
        <ele>763.42</ele>
        <time>2011-06-19T10:45:49Z</time>
      </trkpt>
      <trkpt lat="45.63029" lon="5.71804">
        <ele>765.83</ele>
        <time>2011-06-19T10:46:03Z</time>
      </trkpt>
      <trkpt lat="45.6305" lon="5.71781">
        <ele>767.75</ele>
        <time>2011-06-19T10:46:18Z</time>
      </trkpt>
      <trkpt lat="45.63066" lon="5.71759">
        <ele>770.15</ele>
        <time>2011-06-19T10:46:33Z</time>
      </trkpt>
      <trkpt lat="45.63075" lon="5.7174">
        <ele>772.56</ele>
        <time>2011-06-19T10:46:46Z</time>
      </trkpt>
      <trkpt lat="45.63077" lon="5.7173">
        <ele>775.44</ele>
        <time>2011-06-19T10:47:00Z</time>
      </trkpt>
      <trkpt lat="45.63071" lon="5.71718">
        <ele>778.81</ele>
        <time>2011-06-19T10:47:14Z</time>
      </trkpt>
      <trkpt lat="45.63063" lon="5.71703">
        <ele>780.73</ele>
        <time>2011-06-19T10:47:31Z</time>
      </trkpt>
      <trkpt lat="45.63056" lon="5.7169">
        <ele>784.09</ele>
        <time>2011-06-19T10:47:46Z</time>
      </trkpt>
      <trkpt lat="45.63056" lon="5.71681">
        <ele>785.05</ele>
        <time>2011-06-19T10:47:52Z</time>
      </trkpt>
      <trkpt lat="45.63051" lon="5.71662">
        <ele>787.94</ele>
        <time>2011-06-19T10:48:07Z</time>
      </trkpt>
      <trkpt lat="45.63046" lon="5.71642">
        <ele>790.34</ele>
        <time>2011-06-19T10:48:23Z</time>
      </trkpt>
      <trkpt lat="45.63043" lon="5.71639">
        <ele>790.82</ele>
        <time>2011-06-19T10:48:35Z</time>
      </trkpt>
      <trkpt lat="45.63043" lon="5.71639">
        <ele>790.82</ele>
        <time>2011-06-19T10:49:19Z</time>
      </trkpt>
      <trkpt lat="45.63042" lon="5.71639">
        <ele>790.82</ele>
        <time>2011-06-19T10:49:58Z</time>
      </trkpt>
      <trkpt lat="45.63042" lon="5.71638">
        <ele>791.3</ele>
        <time>2011-06-19T10:50:41Z</time>
      </trkpt>
      <trkpt lat="45.63042" lon="5.71637">
        <ele>790.82</ele>
        <time>2011-06-19T10:51:09Z</time>
      </trkpt>
      <trkpt lat="45.63042" lon="5.71636">
        <ele>790.82</ele>
        <time>2011-06-19T10:51:34Z</time>
      </trkpt>
      <trkpt lat="45.63039" lon="5.71631">
        <ele>790.34</ele>
        <time>2011-06-19T10:51:49Z</time>
      </trkpt>
      <trkpt lat="45.63025" lon="5.71613">
        <ele>789.38</ele>
        <time>2011-06-19T10:51:55Z</time>
      </trkpt>
      <trkpt lat="45.63" lon="5.71581">
        <ele>791.3</ele>
        <time>2011-06-19T10:52:08Z</time>
      </trkpt>
      <trkpt lat="45.62996" lon="5.71576">
        <ele>792.26</ele>
        <time>2011-06-19T10:52:12Z</time>
      </trkpt>
      <trkpt lat="45.62977" lon="5.71567">
        <ele>795.15</ele>
        <time>2011-06-19T10:52:26Z</time>
      </trkpt>
      <trkpt lat="45.6296" lon="5.71573">
        <ele>797.55</ele>
        <time>2011-06-19T10:52:40Z</time>
      </trkpt>
      <trkpt lat="45.62944" lon="5.71564">
        <ele>799.95</ele>
        <time>2011-06-19T10:52:55Z</time>
      </trkpt>
      <trkpt lat="45.6294" lon="5.71554">
        <ele>801.4</ele>
        <time>2011-06-19T10:53:03Z</time>
      </trkpt>
      <trkpt lat="45.62936" lon="5.7152">
        <ele>803.32</ele>
        <time>2011-06-19T10:53:19Z</time>
      </trkpt>
      <trkpt lat="45.62933" lon="5.71485">
        <ele>804.76</ele>
        <time>2011-06-19T10:53:33Z</time>
      </trkpt>
      <trkpt lat="45.62929" lon="5.7147">
        <ele>806.2</ele>
        <time>2011-06-19T10:53:39Z</time>
      </trkpt>
      <trkpt lat="45.62925" lon="5.71445">
        <ele>808.61</ele>
        <time>2011-06-19T10:53:53Z</time>
      </trkpt>
      <trkpt lat="45.62906" lon="5.71436">
        <ele>810.53</ele>
        <time>2011-06-19T10:54:07Z</time>
      </trkpt>
      <trkpt lat="45.62903" lon="5.71437">
        <ele>811.01</ele>
        <time>2011-06-19T10:54:10Z</time>
      </trkpt>
      <trkpt lat="45.62889" lon="5.71458">
        <ele>812.93</ele>
        <time>2011-06-19T10:54:25Z</time>
      </trkpt>
      <trkpt lat="45.62884" lon="5.71458">
        <ele>813.41</ele>
        <time>2011-06-19T10:54:28Z</time>
      </trkpt>
      <trkpt lat="45.62881" lon="5.71456">
        <ele>814.85</ele>
        <time>2011-06-19T10:54:31Z</time>
      </trkpt>
      <trkpt lat="45.62876" lon="5.71449">
        <ele>815.34</ele>
        <time>2011-06-19T10:54:36Z</time>
      </trkpt>
      <trkpt lat="45.62857" lon="5.71433">
        <ele>818.22</ele>
        <time>2011-06-19T10:54:51Z</time>
      </trkpt>
      <trkpt lat="45.6284" lon="5.71431">
        <ele>820.62</ele>
        <time>2011-06-19T10:55:05Z</time>
      </trkpt>
      <trkpt lat="45.62821" lon="5.71429">
        <ele>822.55</ele>
        <time>2011-06-19T10:55:20Z</time>
      </trkpt>
      <trkpt lat="45.62809" lon="5.71448">
        <ele>823.99</ele>
        <time>2011-06-19T10:55:34Z</time>
      </trkpt>
      <trkpt lat="45.62791" lon="5.71488">
        <ele>823.51</ele>
        <time>2011-06-19T10:55:46Z</time>
      </trkpt>
      <trkpt lat="45.62763" lon="5.71498">
        <ele>825.43</ele>
        <time>2011-06-19T10:56:00Z</time>
      </trkpt>
      <trkpt lat="45.62745" lon="5.71507">
        <ele>827.83</ele>
        <time>2011-06-19T10:56:13Z</time>
      </trkpt>
      <trkpt lat="45.62742" lon="5.71508">
        <ele>828.31</ele>
        <time>2011-06-19T10:56:15Z</time>
      </trkpt>
      <trkpt lat="45.62716" lon="5.71511">
        <ele>827.35</ele>
        <time>2011-06-19T10:56:31Z</time>
      </trkpt>
      <trkpt lat="45.6271" lon="5.71514">
        <ele>826.39</ele>
        <time>2011-06-19T10:56:33Z</time>
      </trkpt>
      <trkpt lat="45.62701" lon="5.71515">
        <ele>827.35</ele>
        <time>2011-06-19T10:56:36Z</time>
      </trkpt>
      <trkpt lat="45.62697" lon="5.71515">
        <ele>827.83</ele>
        <time>2011-06-19T10:56:38Z</time>
      </trkpt>
      <trkpt lat="45.62679" lon="5.71493">
        <ele>830.72</ele>
        <time>2011-06-19T10:56:51Z</time>
      </trkpt>
      <trkpt lat="45.62655" lon="5.7147">
        <ele>830.24</ele>
        <time>2011-06-19T10:57:04Z</time>
      </trkpt>
      <trkpt lat="45.62622" lon="5.71447">
        <ele>830.24</ele>
        <time>2011-06-19T10:57:17Z</time>
      </trkpt>
      <trkpt lat="45.62608" lon="5.7143">
        <ele>826.87</ele>
        <time>2011-06-19T10:57:22Z</time>
      </trkpt>
      <trkpt lat="45.62605" lon="5.71425">
        <ele>826.87</ele>
        <time>2011-06-19T10:57:23Z</time>
      </trkpt>
      <trkpt lat="45.62563" lon="5.71392">
        <ele>827.83</ele>
        <time>2011-06-19T10:57:35Z</time>
      </trkpt>
      <trkpt lat="45.62524" lon="5.71395">
        <ele>828.31</ele>
        <time>2011-06-19T10:57:49Z</time>
      </trkpt>
      <trkpt lat="45.625" lon="5.71411">
        <ele>826.39</ele>
        <time>2011-06-19T10:57:56Z</time>
      </trkpt>
      <trkpt lat="45.62452" lon="5.71423">
        <ele>826.87</ele>
        <time>2011-06-19T10:58:09Z</time>
      </trkpt>
      <trkpt lat="45.62419" lon="5.71432">
        <ele>825.91</ele>
        <time>2011-06-19T10:58:21Z</time>
      </trkpt>
      <trkpt lat="45.62384" lon="5.71478">
        <ele>825.91</ele>
        <time>2011-06-19T10:58:36Z</time>
      </trkpt>
      <trkpt lat="45.62372" lon="5.71496">
        <ele>824.47</ele>
        <time>2011-06-19T10:58:39Z</time>
      </trkpt>
      <trkpt lat="45.62357" lon="5.71521">
        <ele>822.55</ele>
        <time>2011-06-19T10:58:43Z</time>
      </trkpt>
      <trkpt lat="45.62345" lon="5.71538">
        <ele>820.62</ele>
        <time>2011-06-19T10:58:46Z</time>
      </trkpt>
      <trkpt lat="45.62335" lon="5.7156">
        <ele>819.18</ele>
        <time>2011-06-19T10:58:50Z</time>
      </trkpt>
      <trkpt lat="45.62325" lon="5.71588">
        <ele>817.26</ele>
        <time>2011-06-19T10:58:54Z</time>
      </trkpt>
      <trkpt lat="45.62324" lon="5.71596">
        <ele>816.78</ele>
        <time>2011-06-19T10:58:55Z</time>
      </trkpt>
      <trkpt lat="45.6232" lon="5.71617">
        <ele>815.82</ele>
        <time>2011-06-19T10:58:58Z</time>
      </trkpt>
      <trkpt lat="45.6232" lon="5.7163">
        <ele>813.89</ele>
        <time>2011-06-19T10:59:00Z</time>
      </trkpt>
      <trkpt lat="45.6231" lon="5.7168">
        <ele>809.09</ele>
        <time>2011-06-19T10:59:06Z</time>
      </trkpt>
      <trkpt lat="45.62306" lon="5.71705">
        <ele>807.64</ele>
        <time>2011-06-19T10:59:09Z</time>
      </trkpt>
      <trkpt lat="45.62304" lon="5.71723">
        <ele>806.68</ele>
        <time>2011-06-19T10:59:11Z</time>
      </trkpt>
      <trkpt lat="45.62302" lon="5.71732">
        <ele>806.2</ele>
        <time>2011-06-19T10:59:12Z</time>
      </trkpt>
      <trkpt lat="45.62302" lon="5.71746">
        <ele>805.24</ele>
        <time>2011-06-19T10:59:14Z</time>
      </trkpt>
      <trkpt lat="45.623" lon="5.71766">
        <ele>804.76</ele>
        <time>2011-06-19T10:59:16Z</time>
      </trkpt>
      <trkpt lat="45.62301" lon="5.71794">
        <ele>803.32</ele>
        <time>2011-06-19T10:59:20Z</time>
      </trkpt>
      <trkpt lat="45.62296" lon="5.71802">
        <ele>802.84</ele>
        <time>2011-06-19T10:59:22Z</time>
      </trkpt>
      <trkpt lat="45.62285" lon="5.71819">
        <ele>801.4</ele>
        <time>2011-06-19T10:59:28Z</time>
      </trkpt>
      <trkpt lat="45.62252" lon="5.7182">
        <ele>798.03</ele>
        <time>2011-06-19T10:59:37Z</time>
      </trkpt>
      <trkpt lat="45.62239" lon="5.71828">
        <ele>794.19</ele>
        <time>2011-06-19T10:59:41Z</time>
      </trkpt>
      <trkpt lat="45.62225" lon="5.71838">
        <ele>790.34</ele>
        <time>2011-06-19T10:59:46Z</time>
      </trkpt>
      <trkpt lat="45.62222" lon="5.71841">
        <ele>789.86</ele>
        <time>2011-06-19T10:59:47Z</time>
      </trkpt>
      <trkpt lat="45.62199" lon="5.71846">
        <ele>786.02</ele>
        <time>2011-06-19T10:59:54Z</time>
      </trkpt>
      <trkpt lat="45.62196" lon="5.71849">
        <ele>786.02</ele>
        <time>2011-06-19T10:59:55Z</time>
      </trkpt>
      <trkpt lat="45.62193" lon="5.71853">
        <ele>785.53</ele>
        <time>2011-06-19T10:59:56Z</time>
      </trkpt>
      <trkpt lat="45.6219" lon="5.71858">
        <ele>784.09</ele>
        <time>2011-06-19T10:59:57Z</time>
      </trkpt>
      <trkpt lat="45.62187" lon="5.71862">
        <ele>784.09</ele>
        <time>2011-06-19T10:59:58Z</time>
      </trkpt>
      <trkpt lat="45.62183" lon="5.71866">
        <ele>782.17</ele>
        <time>2011-06-19T10:59:59Z</time>
      </trkpt>
      <trkpt lat="45.62178" lon="5.71868">
        <ele>782.17</ele>
        <time>2011-06-19T11:00:00Z</time>
      </trkpt>
      <trkpt lat="45.62165" lon="5.71874">
        <ele>779.29</ele>
        <time>2011-06-19T11:00:03Z</time>
      </trkpt>
      <trkpt lat="45.62151" lon="5.71846">
        <ele>778.32</ele>
        <time>2011-06-19T11:00:11Z</time>
      </trkpt>
      <trkpt lat="45.62128" lon="5.71811">
        <ele>778.32</ele>
        <time>2011-06-19T11:00:21Z</time>
      </trkpt>
      <trkpt lat="45.6209" lon="5.71772">
        <ele>777.84</ele>
        <time>2011-06-19T11:00:34Z</time>
      </trkpt>
      <trkpt lat="45.62075" lon="5.71745">
        <ele>776.4</ele>
        <time>2011-06-19T11:00:39Z</time>
      </trkpt>
      <trkpt lat="45.62073" lon="5.7174">
        <ele>777.36</ele>
        <time>2011-06-19T11:00:40Z</time>
      </trkpt>
      <trkpt lat="45.62057" lon="5.71688">
        <ele>777.84</ele>
        <time>2011-06-19T11:00:52Z</time>
      </trkpt>
      <trkpt lat="45.62046" lon="5.71675">
        <ele>778.32</ele>
        <time>2011-06-19T11:01:03Z</time>
      </trkpt>
      <trkpt lat="45.62045" lon="5.71673">
        <ele>777.36</ele>
        <time>2011-06-19T11:01:17Z</time>
      </trkpt>
      <trkpt lat="45.62049" lon="5.71675">
        <ele>776.88</ele>
        <time>2011-06-19T11:01:31Z</time>
      </trkpt>
      <trkpt lat="45.6205" lon="5.71674">
        <ele>777.36</ele>
        <time>2011-06-19T11:01:47Z</time>
      </trkpt>
      <trkpt lat="45.62051" lon="5.71673">
        <ele>777.84</ele>
        <time>2011-06-19T11:02:05Z</time>
      </trkpt>
      <trkpt lat="45.6205" lon="5.71673">
        <ele>777.36</ele>
        <time>2011-06-19T11:02:30Z</time>
      </trkpt>
      <trkpt lat="45.62051" lon="5.71673">
        <ele>777.36</ele>
        <time>2011-06-19T11:02:45Z</time>
      </trkpt>
      <trkpt lat="45.6205" lon="5.71674">
        <ele>777.36</ele>
        <time>2011-06-19T11:03:06Z</time>
      </trkpt>
      <trkpt lat="45.6205" lon="5.71674">
        <ele>777.36</ele>
        <time>2011-06-19T11:03:26Z</time>
      </trkpt>
      <trkpt lat="45.6205" lon="5.71675">
        <ele>778.32</ele>
        <time>2011-06-19T11:03:46Z</time>
      </trkpt>
      <trkpt lat="45.6205" lon="5.71675">
        <ele>777.84</ele>
        <time>2011-06-19T11:04:15Z</time>
      </trkpt>
      <trkpt lat="45.62049" lon="5.71675">
        <ele>777.36</ele>
        <time>2011-06-19T11:04:35Z</time>
      </trkpt>
      <trkpt lat="45.62049" lon="5.71675">
        <ele>777.36</ele>
        <time>2011-06-19T11:04:56Z</time>
      </trkpt>
      <trkpt lat="45.62049" lon="5.71674">
        <ele>777.36</ele>
        <time>2011-06-19T11:05:11Z</time>
      </trkpt>
      <trkpt lat="45.6205" lon="5.7167">
        <ele>777.84</ele>
        <time>2011-06-19T11:05:28Z</time>
      </trkpt>
      <trkpt lat="45.62049" lon="5.71671">
        <ele>777.36</ele>
        <time>2011-06-19T11:05:55Z</time>
      </trkpt>
      <trkpt lat="45.62048" lon="5.71674">
        <ele>778.32</ele>
        <time>2011-06-19T11:06:12Z</time>
      </trkpt>
      <trkpt lat="45.62048" lon="5.71674">
        <ele>778.32</ele>
        <time>2011-06-19T11:06:33Z</time>
      </trkpt>
      <trkpt lat="45.62048" lon="5.71674">
        <ele>778.81</ele>
        <time>2011-06-19T11:06:58Z</time>
      </trkpt>
      <trkpt lat="45.62047" lon="5.71673">
        <ele>778.81</ele>
        <time>2011-06-19T11:07:23Z</time>
      </trkpt>
      <trkpt lat="45.62049" lon="5.71673">
        <ele>778.81</ele>
        <time>2011-06-19T11:07:41Z</time>
      </trkpt>
      <trkpt lat="45.6205" lon="5.71673">
        <ele>779.29</ele>
        <time>2011-06-19T11:07:58Z</time>
      </trkpt>
      <trkpt lat="45.6205" lon="5.71671">
        <ele>778.81</ele>
        <time>2011-06-19T11:08:09Z</time>
      </trkpt>
      <trkpt lat="45.6205" lon="5.71671">
        <ele>779.29</ele>
        <time>2011-06-19T11:08:35Z</time>
      </trkpt>
      <trkpt lat="45.6205" lon="5.71671">
        <ele>779.77</ele>
        <time>2011-06-19T11:09:07Z</time>
      </trkpt>
      <trkpt lat="45.6205" lon="5.71671">
        <ele>779.29</ele>
        <time>2011-06-19T11:09:22Z</time>
      </trkpt>
      <trkpt lat="45.6205" lon="5.71669">
        <ele>780.25</ele>
        <time>2011-06-19T11:09:53Z</time>
      </trkpt>
      <trkpt lat="45.62049" lon="5.71672">
        <ele>779.77</ele>
        <time>2011-06-19T11:10:10Z</time>
      </trkpt>
      <trkpt lat="45.62049" lon="5.71673">
        <ele>780.73</ele>
        <time>2011-06-19T11:10:29Z</time>
      </trkpt>
      <trkpt lat="45.62049" lon="5.71673">
        <ele>780.25</ele>
        <time>2011-06-19T11:11:01Z</time>
      </trkpt>
      <trkpt lat="45.62049" lon="5.71673">
        <ele>776.88</ele>
        <time>2011-06-19T11:11:09Z</time>
      </trkpt>
      <trkpt lat="45.62049" lon="5.71673">
        <ele>781.21</ele>
        <time>2011-06-19T11:11:10Z</time>
      </trkpt>
      <trkpt lat="45.62048" lon="5.71673">
        <ele>784.57</ele>
        <time>2011-06-19T11:11:30Z</time>
      </trkpt>
      <trkpt lat="45.62048" lon="5.71673">
        <ele>780.73</ele>
        <time>2011-06-19T11:11:31Z</time>
      </trkpt>
      <trkpt lat="45.62048" lon="5.71673">
        <ele>780.25</ele>
        <time>2011-06-19T11:11:35Z</time>
      </trkpt>
      <trkpt lat="45.62048" lon="5.71673">
        <ele>780.73</ele>
        <time>2011-06-19T11:12:04Z</time>
      </trkpt>
      <trkpt lat="45.62048" lon="5.71673">
        <ele>780.73</ele>
        <time>2011-06-19T11:12:40Z</time>
      </trkpt>
      <trkpt lat="45.62048" lon="5.71672">
        <ele>780.73</ele>
        <time>2011-06-19T11:13:06Z</time>
      </trkpt>
      <trkpt lat="45.62048" lon="5.71672">
        <ele>781.69</ele>
        <time>2011-06-19T11:13:38Z</time>
      </trkpt>
      <trkpt lat="45.62048" lon="5.71672">
        <ele>781.21</ele>
        <time>2011-06-19T11:14:06Z</time>
      </trkpt>
      <trkpt lat="45.62048" lon="5.7167">
        <ele>781.69</ele>
        <time>2011-06-19T11:14:34Z</time>
      </trkpt>
      <trkpt lat="45.62048" lon="5.7167">
        <ele>781.69</ele>
        <time>2011-06-19T11:14:58Z</time>
      </trkpt>
      <trkpt lat="45.62048" lon="5.71672">
        <ele>781.69</ele>
        <time>2011-06-19T11:15:01Z</time>
      </trkpt>
      <trkpt lat="45.62048" lon="5.71673">
        <ele>782.17</ele>
        <time>2011-06-19T11:15:21Z</time>
      </trkpt>
      <trkpt lat="45.62048" lon="5.71673">
        <ele>782.17</ele>
        <time>2011-06-19T11:15:42Z</time>
      </trkpt>
      <trkpt lat="45.62044" lon="5.71674">
        <ele>782.65</ele>
        <time>2011-06-19T11:15:46Z</time>
      </trkpt>
      <trkpt lat="45.62042" lon="5.71675">
        <ele>782.65</ele>
        <time>2011-06-19T11:15:47Z</time>
      </trkpt>
      <trkpt lat="45.6204" lon="5.71675">
        <ele>782.17</ele>
        <time>2011-06-19T11:15:48Z</time>
      </trkpt>
      <trkpt lat="45.62038" lon="5.71674">
        <ele>782.65</ele>
        <time>2011-06-19T11:15:49Z</time>
      </trkpt>
      <trkpt lat="45.62035" lon="5.71673">
        <ele>782.17</ele>
        <time>2011-06-19T11:15:50Z</time>
      </trkpt>
      <trkpt lat="45.62027" lon="5.71673">
        <ele>782.17</ele>
        <time>2011-06-19T11:16:03Z</time>
      </trkpt>
      <trkpt lat="45.62024" lon="5.71673">
        <ele>781.69</ele>
        <time>2011-06-19T11:16:20Z</time>
      </trkpt>
      <trkpt lat="45.62022" lon="5.71673">
        <ele>781.69</ele>
        <time>2011-06-19T11:16:21Z</time>
      </trkpt>
      <trkpt lat="45.62006" lon="5.71682">
        <ele>778.32</ele>
        <time>2011-06-19T11:16:29Z</time>
      </trkpt>
      <trkpt lat="45.62005" lon="5.71685">
        <ele>778.32</ele>
        <time>2011-06-19T11:16:30Z</time>
      </trkpt>
      <trkpt lat="45.62005" lon="5.71688">
        <ele>777.36</ele>
        <time>2011-06-19T11:16:31Z</time>
      </trkpt>
      <trkpt lat="45.62004" lon="5.71692">
        <ele>776.4</ele>
        <time>2011-06-19T11:16:32Z</time>
      </trkpt>
      <trkpt lat="45.62004" lon="5.71695">
        <ele>775.92</ele>
        <time>2011-06-19T11:16:33Z</time>
      </trkpt>
      <trkpt lat="45.62001" lon="5.71708">
        <ele>774</ele>
        <time>2011-06-19T11:16:38Z</time>
      </trkpt>
      <trkpt lat="45.61995" lon="5.71713">
        <ele>772.08</ele>
        <time>2011-06-19T11:16:42Z</time>
      </trkpt>
      <trkpt lat="45.61978" lon="5.7173">
        <ele>771.11</ele>
        <time>2011-06-19T11:16:44Z</time>
      </trkpt>
      <trkpt lat="45.61971" lon="5.71738">
        <ele>770.63</ele>
        <time>2011-06-19T11:16:45Z</time>
      </trkpt>
      <trkpt lat="45.61957" lon="5.71751">
        <ele>769.19</ele>
        <time>2011-06-19T11:16:47Z</time>
      </trkpt>
      <trkpt lat="45.61857" lon="5.71817">
        <ele>767.75</ele>
        <time>2011-06-19T11:16:55Z</time>
      </trkpt>
      <trkpt lat="45.61845" lon="5.71818">
        <ele>767.75</ele>
        <time>2011-06-19T11:16:56Z</time>
      </trkpt>
      <trkpt lat="45.61757" lon="5.71794">
        <ele>765.35</ele>
        <time>2011-06-19T11:17:08Z</time>
      </trkpt>
      <trkpt lat="45.61713" lon="5.71788">
        <ele>764.87</ele>
        <time>2011-06-19T11:17:15Z</time>
      </trkpt>
      <trkpt lat="45.61708" lon="5.7179">
        <ele>764.87</ele>
        <time>2011-06-19T11:17:16Z</time>
      </trkpt>
      <trkpt lat="45.61702" lon="5.71792">
        <ele>765.35</ele>
        <time>2011-06-19T11:17:17Z</time>
      </trkpt>
      <trkpt lat="45.61678" lon="5.71806">
        <ele>765.35</ele>
        <time>2011-06-19T11:17:22Z</time>
      </trkpt>
      <trkpt lat="45.61673" lon="5.71806">
        <ele>765.35</ele>
        <time>2011-06-19T11:17:23Z</time>
      </trkpt>
      <trkpt lat="45.61599" lon="5.718">
        <ele>765.83</ele>
        <time>2011-06-19T11:17:38Z</time>
      </trkpt>
      <trkpt lat="45.61589" lon="5.71802">
        <ele>766.31</ele>
        <time>2011-06-19T11:17:40Z</time>
      </trkpt>
      <trkpt lat="45.61584" lon="5.71804">
        <ele>766.79</ele>
        <time>2011-06-19T11:17:41Z</time>
      </trkpt>
      <trkpt lat="45.6158" lon="5.71807">
        <ele>766.79</ele>
        <time>2011-06-19T11:17:42Z</time>
      </trkpt>
      <trkpt lat="45.61575" lon="5.71811">
        <ele>766.31</ele>
        <time>2011-06-19T11:17:43Z</time>
      </trkpt>
      <trkpt lat="45.61571" lon="5.71815">
        <ele>766.31</ele>
        <time>2011-06-19T11:17:44Z</time>
      </trkpt>
      <trkpt lat="45.61567" lon="5.71819">
        <ele>766.79</ele>
        <time>2011-06-19T11:17:45Z</time>
      </trkpt>
      <trkpt lat="45.61564" lon="5.71823">
        <ele>766.79</ele>
        <time>2011-06-19T11:17:46Z</time>
      </trkpt>
      <trkpt lat="45.6156" lon="5.71827">
        <ele>766.79</ele>
        <time>2011-06-19T11:17:47Z</time>
      </trkpt>
      <trkpt lat="45.61512" lon="5.71875">
        <ele>768.23</ele>
        <time>2011-06-19T11:18:01Z</time>
      </trkpt>
      <trkpt lat="45.61477" lon="5.71911">
        <ele>768.71</ele>
        <time>2011-06-19T11:18:11Z</time>
      </trkpt>
      <trkpt lat="45.61459" lon="5.71943">
        <ele>765.35</ele>
        <time>2011-06-19T11:18:16Z</time>
      </trkpt>
      <trkpt lat="45.61441" lon="5.71964">
        <ele>761.5</ele>
        <time>2011-06-19T11:18:19Z</time>
      </trkpt>
      <trkpt lat="45.61423" lon="5.71977">
        <ele>759.58</ele>
        <time>2011-06-19T11:18:21Z</time>
      </trkpt>
      <trkpt lat="45.61389" lon="5.71995">
        <ele>756.69</ele>
        <time>2011-06-19T11:18:24Z</time>
      </trkpt>
      <trkpt lat="45.61378" lon="5.72">
        <ele>756.21</ele>
        <time>2011-06-19T11:18:25Z</time>
      </trkpt>
      <trkpt lat="45.61366" lon="5.72003">
        <ele>755.25</ele>
        <time>2011-06-19T11:18:26Z</time>
      </trkpt>
      <trkpt lat="45.61356" lon="5.72005">
        <ele>755.25</ele>
        <time>2011-06-19T11:18:27Z</time>
      </trkpt>
      <trkpt lat="45.61325" lon="5.72012">
        <ele>751.41</ele>
        <time>2011-06-19T11:18:30Z</time>
      </trkpt>
      <trkpt lat="45.61314" lon="5.72016">
        <ele>751.41</ele>
        <time>2011-06-19T11:18:31Z</time>
      </trkpt>
      <trkpt lat="45.61227" lon="5.72043">
        <ele>748.52</ele>
        <time>2011-06-19T11:18:40Z</time>
      </trkpt>
      <trkpt lat="45.61219" lon="5.72044">
        <ele>749</ele>
        <time>2011-06-19T11:18:41Z</time>
      </trkpt>
      <trkpt lat="45.6121" lon="5.72045">
        <ele>748.52</ele>
        <time>2011-06-19T11:18:42Z</time>
      </trkpt>
      <trkpt lat="45.61115" lon="5.72032">
        <ele>747.56</ele>
        <time>2011-06-19T11:18:53Z</time>
      </trkpt>
      <trkpt lat="45.61107" lon="5.72033">
        <ele>747.08</ele>
        <time>2011-06-19T11:18:54Z</time>
      </trkpt>
      <trkpt lat="45.61099" lon="5.72035">
        <ele>747.08</ele>
        <time>2011-06-19T11:18:55Z</time>
      </trkpt>
      <trkpt lat="45.61091" lon="5.72037">
        <ele>747.08</ele>
        <time>2011-06-19T11:18:56Z</time>
      </trkpt>
      <trkpt lat="45.61083" lon="5.7204">
        <ele>747.56</ele>
        <time>2011-06-19T11:18:57Z</time>
      </trkpt>
      <trkpt lat="45.61075" lon="5.7204">
        <ele>747.08</ele>
        <time>2011-06-19T11:18:58Z</time>
      </trkpt>
      <trkpt lat="45.61068" lon="5.7204">
        <ele>747.08</ele>
        <time>2011-06-19T11:18:59Z</time>
      </trkpt>
      <trkpt lat="45.61053" lon="5.72039">
        <ele>746.6</ele>
        <time>2011-06-19T11:19:01Z</time>
      </trkpt>
      <trkpt lat="45.61045" lon="5.72038">
        <ele>747.08</ele>
        <time>2011-06-19T11:19:02Z</time>
      </trkpt>
      <trkpt lat="45.61018" lon="5.72032">
        <ele>747.56</ele>
        <time>2011-06-19T11:19:06Z</time>
      </trkpt>
      <trkpt lat="45.61012" lon="5.72033">
        <ele>747.08</ele>
        <time>2011-06-19T11:19:07Z</time>
      </trkpt>
      <trkpt lat="45.61007" lon="5.72034">
        <ele>747.56</ele>
        <time>2011-06-19T11:19:08Z</time>
      </trkpt>
      <trkpt lat="45.60991" lon="5.7204">
        <ele>748.52</ele>
        <time>2011-06-19T11:19:11Z</time>
      </trkpt>
      <trkpt lat="45.60974" lon="5.72044">
        <ele>748.04</ele>
        <time>2011-06-19T11:19:14Z</time>
      </trkpt>
      <trkpt lat="45.60968" lon="5.72046">
        <ele>747.56</ele>
        <time>2011-06-19T11:19:15Z</time>
      </trkpt>
      <trkpt lat="45.60936" lon="5.72049">
        <ele>749.97</ele>
        <time>2011-06-19T11:19:24Z</time>
      </trkpt>
      <trkpt lat="45.60915" lon="5.72019">
        <ele>750.93</ele>
        <time>2011-06-19T11:19:36Z</time>
      </trkpt>
      <trkpt lat="45.60912" lon="5.72">
        <ele>751.41</ele>
        <time>2011-06-19T11:19:41Z</time>
      </trkpt>
      <trkpt lat="45.6091" lon="5.71998">
        <ele>751.89</ele>
        <time>2011-06-19T11:19:42Z</time>
      </trkpt>
      <trkpt lat="45.60908" lon="5.71997">
        <ele>751.89</ele>
        <time>2011-06-19T11:19:43Z</time>
      </trkpt>
      <trkpt lat="45.60882" lon="5.71982">
        <ele>753.33</ele>
        <time>2011-06-19T11:19:56Z</time>
      </trkpt>
      <trkpt lat="45.60872" lon="5.71979">
        <ele>749.97</ele>
        <time>2011-06-19T11:19:59Z</time>
      </trkpt>
      <trkpt lat="45.60854" lon="5.71968">
        <ele>747.56</ele>
        <time>2011-06-19T11:20:03Z</time>
      </trkpt>
      <trkpt lat="45.60847" lon="5.71965">
        <ele>747.08</ele>
        <time>2011-06-19T11:20:04Z</time>
      </trkpt>
      <trkpt lat="45.60841" lon="5.71964">
        <ele>746.6</ele>
        <time>2011-06-19T11:20:05Z</time>
      </trkpt>
      <trkpt lat="45.60814" lon="5.71963">
        <ele>747.08</ele>
        <time>2011-06-19T11:20:10Z</time>
      </trkpt>
      <trkpt lat="45.60801" lon="5.71974">
        <ele>748.04</ele>
        <time>2011-06-19T11:20:14Z</time>
      </trkpt>
      <trkpt lat="45.60796" lon="5.72022">
        <ele>749</ele>
        <time>2011-06-19T11:20:26Z</time>
      </trkpt>
      <trkpt lat="45.60795" lon="5.72031">
        <ele>749.49</ele>
        <time>2011-06-19T11:20:28Z</time>
      </trkpt>
      <trkpt lat="45.60804" lon="5.72063">
        <ele>751.41</ele>
        <time>2011-06-19T11:20:37Z</time>
      </trkpt>
      <trkpt lat="45.60805" lon="5.72095">
        <ele>753.81</ele>
        <time>2011-06-19T11:20:50Z</time>
      </trkpt>
      <trkpt lat="45.60795" lon="5.72127">
        <ele>755.73</ele>
        <time>2011-06-19T11:21:03Z</time>
      </trkpt>
      <trkpt lat="45.60801" lon="5.72184">
        <ele>757.18</ele>
        <time>2011-06-19T11:21:16Z</time>
      </trkpt>
      <trkpt lat="45.60797" lon="5.72235">
        <ele>757.18</ele>
        <time>2011-06-19T11:21:28Z</time>
      </trkpt>
      <trkpt lat="45.60783" lon="5.72291">
        <ele>757.66</ele>
        <time>2011-06-19T11:21:40Z</time>
      </trkpt>
      <trkpt lat="45.60763" lon="5.72308">
        <ele>754.29</ele>
        <time>2011-06-19T11:21:49Z</time>
      </trkpt>
      <trkpt lat="45.60742" lon="5.72303">
        <ele>750.93</ele>
        <time>2011-06-19T11:21:53Z</time>
      </trkpt>
      <trkpt lat="45.60719" lon="5.72301">
        <ele>746.6</ele>
        <time>2011-06-19T11:21:57Z</time>
      </trkpt>
      <trkpt lat="45.60713" lon="5.723">
        <ele>746.6</ele>
        <time>2011-06-19T11:21:58Z</time>
      </trkpt>
      <trkpt lat="45.60702" lon="5.72302">
        <ele>743.24</ele>
        <time>2011-06-19T11:22:00Z</time>
      </trkpt>
      <trkpt lat="45.60683" lon="5.72308">
        <ele>738.91</ele>
        <time>2011-06-19T11:22:04Z</time>
      </trkpt>
      <trkpt lat="45.60679" lon="5.72309">
        <ele>737.95</ele>
        <time>2011-06-19T11:22:05Z</time>
      </trkpt>
      <trkpt lat="45.60665" lon="5.72321">
        <ele>733.62</ele>
        <time>2011-06-19T11:22:08Z</time>
      </trkpt>
      <trkpt lat="45.60644" lon="5.72335">
        <ele>730.26</ele>
        <time>2011-06-19T11:22:12Z</time>
      </trkpt>
      <trkpt lat="45.60629" lon="5.72333">
        <ele>726.89</ele>
        <time>2011-06-19T11:22:15Z</time>
      </trkpt>
      <trkpt lat="45.60623" lon="5.7233">
        <ele>726.41</ele>
        <time>2011-06-19T11:22:16Z</time>
      </trkpt>
      <trkpt lat="45.60617" lon="5.72326">
        <ele>725.93</ele>
        <time>2011-06-19T11:22:17Z</time>
      </trkpt>
      <trkpt lat="45.60605" lon="5.72319">
        <ele>722.57</ele>
        <time>2011-06-19T11:22:20Z</time>
      </trkpt>
      <trkpt lat="45.60593" lon="5.72315">
        <ele>717.76</ele>
        <time>2011-06-19T11:22:23Z</time>
      </trkpt>
      <trkpt lat="45.60589" lon="5.72314">
        <ele>717.76</ele>
        <time>2011-06-19T11:22:24Z</time>
      </trkpt>
      <trkpt lat="45.60576" lon="5.72314">
        <ele>714.88</ele>
        <time>2011-06-19T11:22:27Z</time>
      </trkpt>
      <trkpt lat="45.60556" lon="5.72316">
        <ele>711.99</ele>
        <time>2011-06-19T11:22:32Z</time>
      </trkpt>
      <trkpt lat="45.60548" lon="5.72346">
        <ele>713.92</ele>
        <time>2011-06-19T11:22:44Z</time>
      </trkpt>
      <trkpt lat="45.60553" lon="5.72357">
        <ele>714.4</ele>
        <time>2011-06-19T11:22:47Z</time>
      </trkpt>
      <trkpt lat="45.60567" lon="5.724">
        <ele>716.32</ele>
        <time>2011-06-19T11:23:01Z</time>
      </trkpt>
      <trkpt lat="45.60565" lon="5.72403">
        <ele>716.32</ele>
        <time>2011-06-19T11:23:02Z</time>
      </trkpt>
      <trkpt lat="45.60563" lon="5.72405">
        <ele>716.8</ele>
        <time>2011-06-19T11:23:03Z</time>
      </trkpt>
      <trkpt lat="45.60561" lon="5.72406">
        <ele>716.8</ele>
        <time>2011-06-19T11:23:04Z</time>
      </trkpt>
      <trkpt lat="45.6056" lon="5.72408">
        <ele>717.28</ele>
        <time>2011-06-19T11:23:05Z</time>
      </trkpt>
      <trkpt lat="45.60558" lon="5.72409">
        <ele>716.8</ele>
        <time>2011-06-19T11:23:06Z</time>
      </trkpt>
      <trkpt lat="45.60556" lon="5.72411">
        <ele>717.28</ele>
        <time>2011-06-19T11:23:07Z</time>
      </trkpt>
      <trkpt lat="45.60554" lon="5.72412">
        <ele>717.28</ele>
        <time>2011-06-19T11:23:08Z</time>
      </trkpt>
      <trkpt lat="45.60519" lon="5.72423">
        <ele>718.24</ele>
        <time>2011-06-19T11:23:22Z</time>
      </trkpt>
      <trkpt lat="45.60479" lon="5.72411">
        <ele>718.72</ele>
        <time>2011-06-19T11:23:36Z</time>
      </trkpt>
      <trkpt lat="45.60429" lon="5.72425">
        <ele>719.68</ele>
        <time>2011-06-19T11:23:49Z</time>
      </trkpt>
      <trkpt lat="45.6039" lon="5.72468">
        <ele>720.65</ele>
        <time>2011-06-19T11:24:03Z</time>
      </trkpt>
      <trkpt lat="45.60383" lon="5.72515">
        <ele>721.61</ele>
        <time>2011-06-19T11:24:14Z</time>
      </trkpt>
      <trkpt lat="45.60405" lon="5.72573">
        <ele>723.05</ele>
        <time>2011-06-19T11:24:29Z</time>
      </trkpt>
      <trkpt lat="45.6043" lon="5.7262">
        <ele>724.97</ele>
        <time>2011-06-19T11:24:43Z</time>
      </trkpt>
      <trkpt lat="45.60436" lon="5.72668">
        <ele>726.89</ele>
        <time>2011-06-19T11:24:56Z</time>
      </trkpt>
      <trkpt lat="45.60424" lon="5.72715">
        <ele>728.34</ele>
        <time>2011-06-19T11:25:09Z</time>
      </trkpt>
      <trkpt lat="45.60429" lon="5.7273">
        <ele>729.3</ele>
        <time>2011-06-19T11:25:14Z</time>
      </trkpt>
      <trkpt lat="45.6043" lon="5.72732">
        <ele>728.82</ele>
        <time>2011-06-19T11:25:15Z</time>
      </trkpt>
      <trkpt lat="45.60432" lon="5.72733">
        <ele>729.3</ele>
        <time>2011-06-19T11:25:16Z</time>
      </trkpt>
      <trkpt lat="45.60447" lon="5.72763">
        <ele>730.74</ele>
        <time>2011-06-19T11:25:27Z</time>
      </trkpt>
      <trkpt lat="45.6045" lon="5.72809">
        <ele>731.7</ele>
        <time>2011-06-19T11:25:39Z</time>
      </trkpt>
      <trkpt lat="45.6042" lon="5.72835">
        <ele>731.7</ele>
        <time>2011-06-19T11:25:53Z</time>
      </trkpt>
      <trkpt lat="45.60412" lon="5.72833">
        <ele>732.18</ele>
        <time>2011-06-19T11:25:55Z</time>
      </trkpt>
      <trkpt lat="45.60406" lon="5.72829">
        <ele>733.14</ele>
        <time>2011-06-19T11:25:59Z</time>
      </trkpt>
      <trkpt lat="45.60369" lon="5.72799">
        <ele>734.1</ele>
        <time>2011-06-19T11:26:11Z</time>
      </trkpt>
      <trkpt lat="45.60324" lon="5.72796">
        <ele>734.1</ele>
        <time>2011-06-19T11:26:23Z</time>
      </trkpt>
      <trkpt lat="45.6029" lon="5.72794">
        <ele>734.1</ele>
        <time>2011-06-19T11:26:32Z</time>
      </trkpt>
      <trkpt lat="45.60286" lon="5.72796">
        <ele>734.1</ele>
        <time>2011-06-19T11:26:33Z</time>
      </trkpt>
      <trkpt lat="45.60281" lon="5.72797">
        <ele>734.1</ele>
        <time>2011-06-19T11:26:34Z</time>
      </trkpt>
      <trkpt lat="45.60278" lon="5.72798">
        <ele>734.1</ele>
        <time>2011-06-19T11:26:35Z</time>
      </trkpt>
      <trkpt lat="45.60274" lon="5.72798">
        <ele>734.1</ele>
        <time>2011-06-19T11:26:36Z</time>
      </trkpt>
      <trkpt lat="45.60255" lon="5.72806">
        <ele>730.74</ele>
        <time>2011-06-19T11:26:42Z</time>
      </trkpt>
      <trkpt lat="45.60202" lon="5.72811">
        <ele>729.3</ele>
        <time>2011-06-19T11:26:52Z</time>
      </trkpt>
      <trkpt lat="45.60183" lon="5.72807">
        <ele>727.86</ele>
        <time>2011-06-19T11:26:55Z</time>
      </trkpt>
      <trkpt lat="45.60177" lon="5.72808">
        <ele>726.41</ele>
        <time>2011-06-19T11:26:56Z</time>
      </trkpt>
      <trkpt lat="45.60172" lon="5.7281">
        <ele>726.89</ele>
        <time>2011-06-19T11:26:57Z</time>
      </trkpt>
      <trkpt lat="45.60151" lon="5.72817">
        <ele>723.53</ele>
        <time>2011-06-19T11:27:01Z</time>
      </trkpt>
      <trkpt lat="45.6013" lon="5.72833">
        <ele>720.65</ele>
        <time>2011-06-19T11:27:07Z</time>
      </trkpt>
      <trkpt lat="45.60126" lon="5.72833">
        <ele>720.65</ele>
        <time>2011-06-19T11:27:08Z</time>
      </trkpt>
      <trkpt lat="45.60122" lon="5.72833">
        <ele>720.16</ele>
        <time>2011-06-19T11:27:09Z</time>
      </trkpt>
      <trkpt lat="45.60117" lon="5.72833">
        <ele>720.65</ele>
        <time>2011-06-19T11:27:10Z</time>
      </trkpt>
      <trkpt lat="45.60113" lon="5.72832">
        <ele>720.65</ele>
        <time>2011-06-19T11:27:11Z</time>
      </trkpt>
      <trkpt lat="45.60109" lon="5.7283">
        <ele>721.13</ele>
        <time>2011-06-19T11:27:12Z</time>
      </trkpt>
      <trkpt lat="45.60088" lon="5.72817">
        <ele>724.49</ele>
        <time>2011-06-19T11:27:22Z</time>
      </trkpt>
      <trkpt lat="45.60087" lon="5.72813">
        <ele>724.97</ele>
        <time>2011-06-19T11:27:24Z</time>
      </trkpt>
      <trkpt lat="45.60085" lon="5.72806">
        <ele>725.93</ele>
        <time>2011-06-19T11:27:28Z</time>
      </trkpt>
      <trkpt lat="45.60072" lon="5.7278">
        <ele>726.41</ele>
        <time>2011-06-19T11:27:42Z</time>
      </trkpt>
      <trkpt lat="45.60064" lon="5.72772">
        <ele>727.37</ele>
        <time>2011-06-19T11:27:48Z</time>
      </trkpt>
      <trkpt lat="45.60063" lon="5.72771">
        <ele>727.37</ele>
        <time>2011-06-19T11:27:49Z</time>
      </trkpt>
      <trkpt lat="45.60061" lon="5.72767">
        <ele>727.86</ele>
        <time>2011-06-19T11:27:54Z</time>
      </trkpt>
      <trkpt lat="45.6006" lon="5.72767">
        <ele>728.34</ele>
        <time>2011-06-19T11:27:55Z</time>
      </trkpt>
      <trkpt lat="45.60059" lon="5.72766">
        <ele>728.34</ele>
        <time>2011-06-19T11:27:56Z</time>
      </trkpt>
      <trkpt lat="45.60057" lon="5.72765">
        <ele>728.82</ele>
        <time>2011-06-19T11:27:57Z</time>
      </trkpt>
      <trkpt lat="45.60056" lon="5.72764">
        <ele>728.82</ele>
        <time>2011-06-19T11:27:58Z</time>
      </trkpt>
      <trkpt lat="45.60055" lon="5.72763">
        <ele>729.3</ele>
        <time>2011-06-19T11:27:59Z</time>
      </trkpt>
      <trkpt lat="45.60054" lon="5.72761">
        <ele>729.3</ele>
        <time>2011-06-19T11:28:00Z</time>
      </trkpt>
      <trkpt lat="45.6005" lon="5.72758">
        <ele>729.3</ele>
        <time>2011-06-19T11:28:01Z</time>
      </trkpt>
      <trkpt lat="45.60039" lon="5.72752">
        <ele>731.7</ele>
        <time>2011-06-19T11:28:13Z</time>
      </trkpt>
      <trkpt lat="45.60032" lon="5.72741">
        <ele>732.66</ele>
        <time>2011-06-19T11:28:24Z</time>
      </trkpt>
      <trkpt lat="45.6003" lon="5.7274">
        <ele>732.66</ele>
        <time>2011-06-19T11:28:25Z</time>
      </trkpt>
      <trkpt lat="45.59999" lon="5.72709">
        <ele>730.26</ele>
        <time>2011-06-19T11:28:38Z</time>
      </trkpt>
      <trkpt lat="45.5998" lon="5.72657">
        <ele>729.78</ele>
        <time>2011-06-19T11:28:50Z</time>
      </trkpt>
      <trkpt lat="45.59973" lon="5.72641">
        <ele>728.82</ele>
        <time>2011-06-19T11:28:54Z</time>
      </trkpt>
      <trkpt lat="45.59964" lon="5.72625">
        <ele>725.45</ele>
        <time>2011-06-19T11:28:59Z</time>
      </trkpt>
      <trkpt lat="45.59962" lon="5.72621">
        <ele>724.97</ele>
        <time>2011-06-19T11:29:00Z</time>
      </trkpt>
      <trkpt lat="45.59951" lon="5.72614">
        <ele>722.09</ele>
        <time>2011-06-19T11:29:05Z</time>
      </trkpt>
      <trkpt lat="45.59946" lon="5.72613">
        <ele>720.16</ele>
        <time>2011-06-19T11:29:08Z</time>
      </trkpt>
      <trkpt lat="45.59936" lon="5.72621">
        <ele>715.36</ele>
        <time>2011-06-19T11:29:13Z</time>
      </trkpt>
      <trkpt lat="45.59922" lon="5.72631">
        <ele>711.99</ele>
        <time>2011-06-19T11:29:18Z</time>
      </trkpt>
      <trkpt lat="45.59918" lon="5.72629">
        <ele>711.99</ele>
        <time>2011-06-19T11:29:19Z</time>
      </trkpt>
      <trkpt lat="45.59893" lon="5.72626">
        <ele>708.63</ele>
        <time>2011-06-19T11:29:25Z</time>
      </trkpt>
      <trkpt lat="45.59885" lon="5.72626">
        <ele>708.15</ele>
        <time>2011-06-19T11:29:27Z</time>
      </trkpt>
      <trkpt lat="45.59871" lon="5.72641">
        <ele>704.78</ele>
        <time>2011-06-19T11:29:35Z</time>
      </trkpt>
      <trkpt lat="45.59869" lon="5.72647">
        <ele>703.82</ele>
        <time>2011-06-19T11:29:37Z</time>
      </trkpt>
      <trkpt lat="45.59859" lon="5.72657">
        <ele>700.46</ele>
        <time>2011-06-19T11:29:42Z</time>
      </trkpt>
      <trkpt lat="45.59855" lon="5.72657">
        <ele>699.5</ele>
        <time>2011-06-19T11:29:44Z</time>
      </trkpt>
      <trkpt lat="45.59849" lon="5.72654">
        <ele>695.17</ele>
        <time>2011-06-19T11:29:55Z</time>
      </trkpt>
      <trkpt lat="45.59851" lon="5.72663">
        <ele>691.81</ele>
        <time>2011-06-19T11:30:01Z</time>
      </trkpt>
      <trkpt lat="45.59851" lon="5.72674">
        <ele>690.36</ele>
        <time>2011-06-19T11:30:03Z</time>
      </trkpt>
      <trkpt lat="45.59848" lon="5.72707">
        <ele>686.52</ele>
        <time>2011-06-19T11:30:08Z</time>
      </trkpt>
      <trkpt lat="45.59859" lon="5.72767">
        <ele>682.67</ele>
        <time>2011-06-19T11:30:16Z</time>
      </trkpt>
      <trkpt lat="45.59866" lon="5.72789">
        <ele>678.83</ele>
        <time>2011-06-19T11:30:20Z</time>
      </trkpt>
      <trkpt lat="45.59868" lon="5.72794">
        <ele>678.83</ele>
        <time>2011-06-19T11:30:21Z</time>
      </trkpt>
      <trkpt lat="45.59874" lon="5.7281">
        <ele>675.46</ele>
        <time>2011-06-19T11:30:24Z</time>
      </trkpt>
      <trkpt lat="45.59898" lon="5.72849">
        <ele>672.58</ele>
        <time>2011-06-19T11:30:31Z</time>
      </trkpt>
      <trkpt lat="45.599" lon="5.72868">
        <ele>668.73</ele>
        <time>2011-06-19T11:30:35Z</time>
      </trkpt>
      <trkpt lat="45.59901" lon="5.72874">
        <ele>667.77</ele>
        <time>2011-06-19T11:30:36Z</time>
      </trkpt>
      <trkpt lat="45.59902" lon="5.72887">
        <ele>664.41</ele>
        <time>2011-06-19T11:30:39Z</time>
      </trkpt>
      <trkpt lat="45.59895" lon="5.72887">
        <ele>662.97</ele>
        <time>2011-06-19T11:30:41Z</time>
      </trkpt>
      <trkpt lat="45.59858" lon="5.72884">
        <ele>659.12</ele>
        <time>2011-06-19T11:30:45Z</time>
      </trkpt>
      <trkpt lat="45.59858" lon="5.72891">
        <ele>657.68</ele>
        <time>2011-06-19T11:30:47Z</time>
      </trkpt>
      <trkpt lat="45.59864" lon="5.72908">
        <ele>654.31</ele>
        <time>2011-06-19T11:30:50Z</time>
      </trkpt>
      <trkpt lat="45.59869" lon="5.72933">
        <ele>650.95</ele>
        <time>2011-06-19T11:30:54Z</time>
      </trkpt>
      <trkpt lat="45.59868" lon="5.72951">
        <ele>647.59</ele>
        <time>2011-06-19T11:30:58Z</time>
      </trkpt>
      <trkpt lat="45.59868" lon="5.72957">
        <ele>645.66</ele>
        <time>2011-06-19T11:31:00Z</time>
      </trkpt>
      <trkpt lat="45.5982" lon="5.72963">
        <ele>641.82</ele>
        <time>2011-06-19T11:31:08Z</time>
      </trkpt>
      <trkpt lat="45.598" lon="5.72968">
        <ele>638.45</ele>
        <time>2011-06-19T11:31:12Z</time>
      </trkpt>
      <trkpt lat="45.598" lon="5.7297">
        <ele>637.97</ele>
        <time>2011-06-19T11:31:13Z</time>
      </trkpt>
      <trkpt lat="45.59802" lon="5.72986">
        <ele>634.61</ele>
        <time>2011-06-19T11:31:17Z</time>
      </trkpt>
      <trkpt lat="45.59802" lon="5.73">
        <ele>631.72</ele>
        <time>2011-06-19T11:31:20Z</time>
      </trkpt>
      <trkpt lat="45.59794" lon="5.73018">
        <ele>628.36</ele>
        <time>2011-06-19T11:31:25Z</time>
      </trkpt>
      <trkpt lat="45.59781" lon="5.73025">
        <ele>624.51</ele>
        <time>2011-06-19T11:31:28Z</time>
      </trkpt>
      <trkpt lat="45.59753" lon="5.73021">
        <ele>620.67</ele>
        <time>2011-06-19T11:31:33Z</time>
      </trkpt>
      <trkpt lat="45.59747" lon="5.73041">
        <ele>617.3</ele>
        <time>2011-06-19T11:31:37Z</time>
      </trkpt>
      <trkpt lat="45.59742" lon="5.7306">
        <ele>614.9</ele>
        <time>2011-06-19T11:31:40Z</time>
      </trkpt>
      <trkpt lat="45.59737" lon="5.73076">
        <ele>611.54</ele>
        <time>2011-06-19T11:31:44Z</time>
      </trkpt>
      <trkpt lat="45.59724" lon="5.73093">
        <ele>608.17</ele>
        <time>2011-06-19T11:31:50Z</time>
      </trkpt>
      <trkpt lat="45.59715" lon="5.73107">
        <ele>604.81</ele>
        <time>2011-06-19T11:31:54Z</time>
      </trkpt>
      <trkpt lat="45.59711" lon="5.73126">
        <ele>602.4</ele>
        <time>2011-06-19T11:31:57Z</time>
      </trkpt>
      <trkpt lat="45.59708" lon="5.73131">
        <ele>601.92</ele>
        <time>2011-06-19T11:31:58Z</time>
      </trkpt>
      <trkpt lat="45.59704" lon="5.73135">
        <ele>601.44</ele>
        <time>2011-06-19T11:31:59Z</time>
      </trkpt>
      <trkpt lat="45.597" lon="5.73137">
        <ele>600.48</ele>
        <time>2011-06-19T11:32:00Z</time>
      </trkpt>
      <trkpt lat="45.59695" lon="5.73138">
        <ele>599.52</ele>
        <time>2011-06-19T11:32:01Z</time>
      </trkpt>
      <trkpt lat="45.59691" lon="5.73139">
        <ele>599.52</ele>
        <time>2011-06-19T11:32:02Z</time>
      </trkpt>
      <trkpt lat="45.59687" lon="5.73139">
        <ele>599.04</ele>
        <time>2011-06-19T11:32:03Z</time>
      </trkpt>
      <trkpt lat="45.59684" lon="5.73139">
        <ele>598.56</ele>
        <time>2011-06-19T11:32:04Z</time>
      </trkpt>
      <trkpt lat="45.59676" lon="5.73143">
        <ele>595.67</ele>
        <time>2011-06-19T11:32:07Z</time>
      </trkpt>
      <trkpt lat="45.59674" lon="5.73167">
        <ele>591.83</ele>
        <time>2011-06-19T11:32:13Z</time>
      </trkpt>
      <trkpt lat="45.59695" lon="5.73194">
        <ele>588.95</ele>
        <time>2011-06-19T11:32:19Z</time>
      </trkpt>
      <trkpt lat="45.59747" lon="5.73213">
        <ele>587.5</ele>
        <time>2011-06-19T11:32:28Z</time>
      </trkpt>
      <trkpt lat="45.59793" lon="5.73215">
        <ele>587.5</ele>
        <time>2011-06-19T11:32:36Z</time>
      </trkpt>
      <trkpt lat="45.59818" lon="5.73212">
        <ele>587.5</ele>
        <time>2011-06-19T11:32:41Z</time>
      </trkpt>
      <trkpt lat="45.59831" lon="5.7321">
        <ele>587.98</ele>
        <time>2011-06-19T11:32:44Z</time>
      </trkpt>
      <trkpt lat="45.59835" lon="5.7321">
        <ele>587.5</ele>
        <time>2011-06-19T11:32:45Z</time>
      </trkpt>
      <trkpt lat="45.59862" lon="5.7322">
        <ele>587.5</ele>
        <time>2011-06-19T11:32:51Z</time>
      </trkpt>
      <trkpt lat="45.59866" lon="5.73223">
        <ele>587.5</ele>
        <time>2011-06-19T11:32:52Z</time>
      </trkpt>
      <trkpt lat="45.5991" lon="5.73261">
        <ele>587.5</ele>
        <time>2011-06-19T11:33:04Z</time>
      </trkpt>
      <trkpt lat="45.59914" lon="5.73263">
        <ele>588.46</ele>
        <time>2011-06-19T11:33:05Z</time>
      </trkpt>
      <trkpt lat="45.59934" lon="5.73272">
        <ele>588.95</ele>
        <time>2011-06-19T11:33:10Z</time>
      </trkpt>
      <trkpt lat="45.59999" lon="5.73297">
        <ele>591.83</ele>
        <time>2011-06-19T11:33:28Z</time>
      </trkpt>
      <trkpt lat="45.60041" lon="5.73327">
        <ele>595.19</ele>
        <time>2011-06-19T11:33:43Z</time>
      </trkpt>
      <trkpt lat="45.60059" lon="5.7335">
        <ele>594.23</ele>
        <time>2011-06-19T11:33:54Z</time>
      </trkpt>
      <trkpt lat="45.60059" lon="5.73356">
        <ele>593.75</ele>
        <time>2011-06-19T11:33:55Z</time>
      </trkpt>
      <trkpt lat="45.60059" lon="5.73363">
        <ele>593.27</ele>
        <time>2011-06-19T11:33:56Z</time>
      </trkpt>
      <trkpt lat="45.60059" lon="5.73371">
        <ele>592.79</ele>
        <time>2011-06-19T11:33:57Z</time>
      </trkpt>
      <trkpt lat="45.6006" lon="5.73378">
        <ele>592.31</ele>
        <time>2011-06-19T11:33:58Z</time>
      </trkpt>
      <trkpt lat="45.6006" lon="5.73391">
        <ele>591.35</ele>
        <time>2011-06-19T11:34:00Z</time>
      </trkpt>
      <trkpt lat="45.60059" lon="5.73397">
        <ele>591.35</ele>
        <time>2011-06-19T11:34:01Z</time>
      </trkpt>
      <trkpt lat="45.60056" lon="5.7341">
        <ele>590.39</ele>
        <time>2011-06-19T11:34:03Z</time>
      </trkpt>
      <trkpt lat="45.60054" lon="5.73416">
        <ele>589.91</ele>
        <time>2011-06-19T11:34:04Z</time>
      </trkpt>
      <trkpt lat="45.60048" lon="5.73428">
        <ele>589.43</ele>
        <time>2011-06-19T11:34:06Z</time>
      </trkpt>
      <trkpt lat="45.60046" lon="5.73434">
        <ele>589.43</ele>
        <time>2011-06-19T11:34:07Z</time>
      </trkpt>
      <trkpt lat="45.60026" lon="5.73502">
        <ele>588.46</ele>
        <time>2011-06-19T11:34:19Z</time>
      </trkpt>
      <trkpt lat="45.60022" lon="5.73504">
        <ele>587.98</ele>
        <time>2011-06-19T11:34:20Z</time>
      </trkpt>
      <trkpt lat="45.60017" lon="5.73504">
        <ele>587.5</ele>
        <time>2011-06-19T11:34:21Z</time>
      </trkpt>
      <trkpt lat="45.60012" lon="5.73505">
        <ele>587.5</ele>
        <time>2011-06-19T11:34:22Z</time>
      </trkpt>
      <trkpt lat="45.60008" lon="5.73508">
        <ele>586.54</ele>
        <time>2011-06-19T11:34:23Z</time>
      </trkpt>
      <trkpt lat="45.60004" lon="5.73513">
        <ele>586.54</ele>
        <time>2011-06-19T11:34:24Z</time>
      </trkpt>
      <trkpt lat="45.60003" lon="5.7352">
        <ele>587.02</ele>
        <time>2011-06-19T11:34:25Z</time>
      </trkpt>
      <trkpt lat="45.60001" lon="5.73526">
        <ele>587.02</ele>
        <time>2011-06-19T11:34:26Z</time>
      </trkpt>
      <trkpt lat="45.59999" lon="5.73533">
        <ele>586.54</ele>
        <time>2011-06-19T11:34:27Z</time>
      </trkpt>
      <trkpt lat="45.59992" lon="5.73552">
        <ele>587.02</ele>
        <time>2011-06-19T11:34:30Z</time>
      </trkpt>
      <trkpt lat="45.59988" lon="5.73557">
        <ele>586.54</ele>
        <time>2011-06-19T11:34:31Z</time>
      </trkpt>
      <trkpt lat="45.59983" lon="5.73562">
        <ele>586.54</ele>
        <time>2011-06-19T11:34:32Z</time>
      </trkpt>
      <trkpt lat="45.59979" lon="5.73565">
        <ele>586.54</ele>
        <time>2011-06-19T11:34:33Z</time>
      </trkpt>
      <trkpt lat="45.59974" lon="5.73569">
        <ele>586.06</ele>
        <time>2011-06-19T11:34:34Z</time>
      </trkpt>
      <trkpt lat="45.5997" lon="5.73572">
        <ele>585.1</ele>
        <time>2011-06-19T11:34:35Z</time>
      </trkpt>
      <trkpt lat="45.59966" lon="5.73574">
        <ele>585.1</ele>
        <time>2011-06-19T11:34:36Z</time>
      </trkpt>
      <trkpt lat="45.59961" lon="5.73577">
        <ele>584.62</ele>
        <time>2011-06-19T11:34:37Z</time>
      </trkpt>
      <trkpt lat="45.59956" lon="5.73579">
        <ele>584.14</ele>
        <time>2011-06-19T11:34:38Z</time>
      </trkpt>
      <trkpt lat="45.59951" lon="5.73583">
        <ele>582.7</ele>
        <time>2011-06-19T11:34:39Z</time>
      </trkpt>
      <trkpt lat="45.59934" lon="5.73593">
        <ele>580.29</ele>
        <time>2011-06-19T11:34:42Z</time>
      </trkpt>
      <trkpt lat="45.59919" lon="5.73588">
        <ele>579.81</ele>
        <time>2011-06-19T11:34:43Z</time>
      </trkpt>
      <trkpt lat="45.59887" lon="5.73588">
        <ele>577.89</ele>
        <time>2011-06-19T11:34:47Z</time>
      </trkpt>
      <trkpt lat="45.59879" lon="5.73591">
        <ele>577.89</ele>
        <time>2011-06-19T11:34:48Z</time>
      </trkpt>
      <trkpt lat="45.59872" lon="5.73595">
        <ele>577.41</ele>
        <time>2011-06-19T11:34:49Z</time>
      </trkpt>
      <trkpt lat="45.59866" lon="5.736">
        <ele>577.41</ele>
        <time>2011-06-19T11:34:50Z</time>
      </trkpt>
      <trkpt lat="45.5986" lon="5.73606">
        <ele>576.93</ele>
        <time>2011-06-19T11:34:51Z</time>
      </trkpt>
      <trkpt lat="45.59856" lon="5.73613">
        <ele>577.41</ele>
        <time>2011-06-19T11:34:52Z</time>
      </trkpt>
      <trkpt lat="45.59846" lon="5.73633">
        <ele>577.89</ele>
        <time>2011-06-19T11:34:55Z</time>
      </trkpt>
      <trkpt lat="45.59842" lon="5.73638">
        <ele>577.89</ele>
        <time>2011-06-19T11:34:56Z</time>
      </trkpt>
      <trkpt lat="45.59838" lon="5.73643">
        <ele>578.37</ele>
        <time>2011-06-19T11:34:57Z</time>
      </trkpt>
      <trkpt lat="45.59831" lon="5.7365">
        <ele>579.33</ele>
        <time>2011-06-19T11:34:59Z</time>
      </trkpt>
      <trkpt lat="45.59827" lon="5.73654">
        <ele>579.81</ele>
        <time>2011-06-19T11:35:00Z</time>
      </trkpt>
      <trkpt lat="45.59823" lon="5.73658">
        <ele>580.29</ele>
        <time>2011-06-19T11:35:01Z</time>
      </trkpt>
      <trkpt lat="45.5982" lon="5.73662">
        <ele>580.77</ele>
        <time>2011-06-19T11:35:02Z</time>
      </trkpt>
      <trkpt lat="45.59817" lon="5.73666">
        <ele>580.77</ele>
        <time>2011-06-19T11:35:03Z</time>
      </trkpt>
      <trkpt lat="45.59814" lon="5.7367">
        <ele>581.25</ele>
        <time>2011-06-19T11:35:04Z</time>
      </trkpt>
      <trkpt lat="45.59812" lon="5.73675">
        <ele>582.22</ele>
        <time>2011-06-19T11:35:05Z</time>
      </trkpt>
      <trkpt lat="45.5981" lon="5.73679">
        <ele>582.22</ele>
        <time>2011-06-19T11:35:06Z</time>
      </trkpt>
      <trkpt lat="45.59807" lon="5.73684">
        <ele>582.7</ele>
        <time>2011-06-19T11:35:07Z</time>
      </trkpt>
      <trkpt lat="45.59805" lon="5.73688">
        <ele>582.7</ele>
        <time>2011-06-19T11:35:08Z</time>
      </trkpt>
      <trkpt lat="45.59803" lon="5.73693">
        <ele>583.18</ele>
        <time>2011-06-19T11:35:09Z</time>
      </trkpt>
      <trkpt lat="45.598" lon="5.73696">
        <ele>583.18</ele>
        <time>2011-06-19T11:35:10Z</time>
      </trkpt>
      <trkpt lat="45.59797" lon="5.73699">
        <ele>582.7</ele>
        <time>2011-06-19T11:35:11Z</time>
      </trkpt>
      <trkpt lat="45.59793" lon="5.73702">
        <ele>583.18</ele>
        <time>2011-06-19T11:35:12Z</time>
      </trkpt>
      <trkpt lat="45.59784" lon="5.73707">
        <ele>582.7</ele>
        <time>2011-06-19T11:35:14Z</time>
      </trkpt>
      <trkpt lat="45.59776" lon="5.73709">
        <ele>582.7</ele>
        <time>2011-06-19T11:35:16Z</time>
      </trkpt>
      <trkpt lat="45.59772" lon="5.7371">
        <ele>582.7</ele>
        <time>2011-06-19T11:35:17Z</time>
      </trkpt>
      <trkpt lat="45.59767" lon="5.7371">
        <ele>582.7</ele>
        <time>2011-06-19T11:35:18Z</time>
      </trkpt>
      <trkpt lat="45.59763" lon="5.7371">
        <ele>582.7</ele>
        <time>2011-06-19T11:35:19Z</time>
      </trkpt>
      <trkpt lat="45.59758" lon="5.7371">
        <ele>582.22</ele>
        <time>2011-06-19T11:35:20Z</time>
      </trkpt>
      <trkpt lat="45.59728" lon="5.73711">
        <ele>581.73</ele>
        <time>2011-06-19T11:35:26Z</time>
      </trkpt>
      <trkpt lat="45.59723" lon="5.73713">
        <ele>581.73</ele>
        <time>2011-06-19T11:35:27Z</time>
      </trkpt>
      <trkpt lat="45.59697" lon="5.73731">
        <ele>580.77</ele>
        <time>2011-06-19T11:35:32Z</time>
      </trkpt>
      <trkpt lat="45.59692" lon="5.73737">
        <ele>580.29</ele>
        <time>2011-06-19T11:35:33Z</time>
      </trkpt>
      <trkpt lat="45.59687" lon="5.73743">
        <ele>579.81</ele>
        <time>2011-06-19T11:35:34Z</time>
      </trkpt>
      <trkpt lat="45.59663" lon="5.73798">
        <ele>579.33</ele>
        <time>2011-06-19T11:35:42Z</time>
      </trkpt>
      <trkpt lat="45.59641" lon="5.73812">
        <ele>582.22</ele>
        <time>2011-06-19T11:35:51Z</time>
      </trkpt>
      <trkpt lat="45.59623" lon="5.73786">
        <ele>585.1</ele>
        <time>2011-06-19T11:36:04Z</time>
      </trkpt>
      <trkpt lat="45.59602" lon="5.73759">
        <ele>586.06</ele>
        <time>2011-06-19T11:36:17Z</time>
      </trkpt>
      <trkpt lat="45.59541" lon="5.73745">
        <ele>583.18</ele>
        <time>2011-06-19T11:36:32Z</time>
      </trkpt>
      <trkpt lat="45.59533" lon="5.73746">
        <ele>583.18</ele>
        <time>2011-06-19T11:36:34Z</time>
      </trkpt>
      <trkpt lat="45.59529" lon="5.73749">
        <ele>583.18</ele>
        <time>2011-06-19T11:36:35Z</time>
      </trkpt>
      <trkpt lat="45.59525" lon="5.73755">
        <ele>582.7</ele>
        <time>2011-06-19T11:36:36Z</time>
      </trkpt>
      <trkpt lat="45.59523" lon="5.73762">
        <ele>582.22</ele>
        <time>2011-06-19T11:36:37Z</time>
      </trkpt>
      <trkpt lat="45.59522" lon="5.7377">
        <ele>581.73</ele>
        <time>2011-06-19T11:36:38Z</time>
      </trkpt>
      <trkpt lat="45.59522" lon="5.73778">
        <ele>581.25</ele>
        <time>2011-06-19T11:36:39Z</time>
      </trkpt>
      <trkpt lat="45.59519" lon="5.73797">
        <ele>579.81</ele>
        <time>2011-06-19T11:36:41Z</time>
      </trkpt>
      <trkpt lat="45.59516" lon="5.73805">
        <ele>579.33</ele>
        <time>2011-06-19T11:36:42Z</time>
      </trkpt>
      <trkpt lat="45.59512" lon="5.7381">
        <ele>578.85</ele>
        <time>2011-06-19T11:36:43Z</time>
      </trkpt>
      <trkpt lat="45.59506" lon="5.73812">
        <ele>578.85</ele>
        <time>2011-06-19T11:36:44Z</time>
      </trkpt>
      <trkpt lat="45.595" lon="5.73813">
        <ele>577.89</ele>
        <time>2011-06-19T11:36:45Z</time>
      </trkpt>
      <trkpt lat="45.59494" lon="5.73814">
        <ele>576.93</ele>
        <time>2011-06-19T11:36:46Z</time>
      </trkpt>
      <trkpt lat="45.59488" lon="5.73814">
        <ele>576.45</ele>
        <time>2011-06-19T11:36:47Z</time>
      </trkpt>
      <trkpt lat="45.59481" lon="5.73814">
        <ele>575.49</ele>
        <time>2011-06-19T11:36:48Z</time>
      </trkpt>
      <trkpt lat="45.59474" lon="5.73812">
        <ele>575.01</ele>
        <time>2011-06-19T11:36:49Z</time>
      </trkpt>
      <trkpt lat="45.59453" lon="5.73806">
        <ele>573.56</ele>
        <time>2011-06-19T11:36:52Z</time>
      </trkpt>
      <trkpt lat="45.59446" lon="5.73806">
        <ele>572.6</ele>
        <time>2011-06-19T11:36:53Z</time>
      </trkpt>
      <trkpt lat="45.59438" lon="5.73807">
        <ele>572.6</ele>
        <time>2011-06-19T11:36:54Z</time>
      </trkpt>
      <trkpt lat="45.59431" lon="5.7381">
        <ele>570.68</ele>
        <time>2011-06-19T11:36:55Z</time>
      </trkpt>
      <trkpt lat="45.59425" lon="5.73813">
        <ele>569.72</ele>
        <time>2011-06-19T11:36:56Z</time>
      </trkpt>
      <trkpt lat="45.59414" lon="5.73817">
        <ele>568.76</ele>
        <time>2011-06-19T11:36:58Z</time>
      </trkpt>
      <trkpt lat="45.59408" lon="5.73816">
        <ele>567.32</ele>
        <time>2011-06-19T11:36:59Z</time>
      </trkpt>
      <trkpt lat="45.59404" lon="5.73811">
        <ele>567.32</ele>
        <time>2011-06-19T11:37:00Z</time>
      </trkpt>
      <trkpt lat="45.59393" lon="5.73793">
        <ele>566.35</ele>
        <time>2011-06-19T11:37:03Z</time>
      </trkpt>
      <trkpt lat="45.59388" lon="5.73789">
        <ele>565.87</ele>
        <time>2011-06-19T11:37:04Z</time>
      </trkpt>
      <trkpt lat="45.59382" lon="5.73786">
        <ele>566.35</ele>
        <time>2011-06-19T11:37:05Z</time>
      </trkpt>
      <trkpt lat="45.59377" lon="5.73785">
        <ele>565.87</ele>
        <time>2011-06-19T11:37:06Z</time>
      </trkpt>
      <trkpt lat="45.59371" lon="5.73786">
        <ele>566.35</ele>
        <time>2011-06-19T11:37:07Z</time>
      </trkpt>
      <trkpt lat="45.59365" lon="5.73788">
        <ele>565.87</ele>
        <time>2011-06-19T11:37:08Z</time>
      </trkpt>
      <trkpt lat="45.59359" lon="5.7379">
        <ele>565.87</ele>
        <time>2011-06-19T11:37:09Z</time>
      </trkpt>
      <trkpt lat="45.59354" lon="5.73792">
        <ele>565.87</ele>
        <time>2011-06-19T11:37:10Z</time>
      </trkpt>
      <trkpt lat="45.59319" lon="5.73804">
        <ele>566.35</ele>
        <time>2011-06-19T11:37:17Z</time>
      </trkpt>
      <trkpt lat="45.59315" lon="5.73806">
        <ele>566.35</ele>
        <time>2011-06-19T11:37:18Z</time>
      </trkpt>
      <trkpt lat="45.59311" lon="5.73809">
        <ele>566.35</ele>
        <time>2011-06-19T11:37:19Z</time>
      </trkpt>
      <trkpt lat="45.59308" lon="5.73813">
        <ele>566.35</ele>
        <time>2011-06-19T11:37:20Z</time>
      </trkpt>
      <trkpt lat="45.59305" lon="5.73817">
        <ele>565.87</ele>
        <time>2011-06-19T11:37:21Z</time>
      </trkpt>
      <trkpt lat="45.59302" lon="5.73822">
        <ele>565.87</ele>
        <time>2011-06-19T11:37:22Z</time>
      </trkpt>
      <trkpt lat="45.59299" lon="5.73828">
        <ele>565.87</ele>
        <time>2011-06-19T11:37:23Z</time>
      </trkpt>
      <trkpt lat="45.59296" lon="5.73833">
        <ele>565.39</ele>
        <time>2011-06-19T11:37:24Z</time>
      </trkpt>
      <trkpt lat="45.59293" lon="5.73836">
        <ele>566.35</ele>
        <time>2011-06-19T11:37:25Z</time>
      </trkpt>
      <trkpt lat="45.59289" lon="5.7384">
        <ele>566.35</ele>
        <time>2011-06-19T11:37:26Z</time>
      </trkpt>
      <trkpt lat="45.59285" lon="5.73843">
        <ele>566.83</ele>
        <time>2011-06-19T11:37:27Z</time>
      </trkpt>
      <trkpt lat="45.59281" lon="5.73845">
        <ele>566.83</ele>
        <time>2011-06-19T11:37:28Z</time>
      </trkpt>
      <trkpt lat="45.59243" lon="5.73871">
        <ele>568.28</ele>
        <time>2011-06-19T11:37:41Z</time>
      </trkpt>
      <trkpt lat="45.59205" lon="5.73893">
        <ele>570.2</ele>
        <time>2011-06-19T11:37:55Z</time>
      </trkpt>
      <trkpt lat="45.59205" lon="5.73896">
        <ele>570.68</ele>
        <time>2011-06-19T11:37:56Z</time>
      </trkpt>
      <trkpt lat="45.59205" lon="5.73901">
        <ele>570.68</ele>
        <time>2011-06-19T11:37:57Z</time>
      </trkpt>
      <trkpt lat="45.59207" lon="5.73905">
        <ele>570.68</ele>
        <time>2011-06-19T11:37:58Z</time>
      </trkpt>
      <trkpt lat="45.59208" lon="5.73909">
        <ele>570.2</ele>
        <time>2011-06-19T11:37:59Z</time>
      </trkpt>
      <trkpt lat="45.59218" lon="5.73935">
        <ele>570.2</ele>
        <time>2011-06-19T11:38:04Z</time>
      </trkpt>
      <trkpt lat="45.59221" lon="5.73939">
        <ele>570.2</ele>
        <time>2011-06-19T11:38:05Z</time>
      </trkpt>
      <trkpt lat="45.59224" lon="5.73943">
        <ele>570.2</ele>
        <time>2011-06-19T11:38:06Z</time>
      </trkpt>
      <trkpt lat="45.5926" lon="5.73992">
        <ele>571.16</ele>
        <time>2011-06-19T11:38:17Z</time>
      </trkpt>
      <trkpt lat="45.5929" lon="5.74071">
        <ele>574.04</ele>
        <time>2011-06-19T11:38:33Z</time>
      </trkpt>
      <trkpt lat="45.59311" lon="5.74158">
        <ele>575.97</ele>
        <time>2011-06-19T11:38:50Z</time>
      </trkpt>
      <trkpt lat="45.59309" lon="5.74181">
        <ele>576.45</ele>
        <time>2011-06-19T11:38:54Z</time>
      </trkpt>
      <trkpt lat="45.59309" lon="5.74186">
        <ele>576.93</ele>
        <time>2011-06-19T11:38:55Z</time>
      </trkpt>
      <trkpt lat="45.59308" lon="5.74192">
        <ele>576.45</ele>
        <time>2011-06-19T11:38:56Z</time>
      </trkpt>
      <trkpt lat="45.59308" lon="5.74198">
        <ele>576.93</ele>
        <time>2011-06-19T11:38:57Z</time>
      </trkpt>
      <trkpt lat="45.59306" lon="5.74204">
        <ele>576.93</ele>
        <time>2011-06-19T11:38:58Z</time>
      </trkpt>
      <trkpt lat="45.59302" lon="5.74223">
        <ele>576.45</ele>
        <time>2011-06-19T11:39:01Z</time>
      </trkpt>
      <trkpt lat="45.5929" lon="5.74264">
        <ele>575.49</ele>
        <time>2011-06-19T11:39:07Z</time>
      </trkpt>
      <trkpt lat="45.59287" lon="5.74279">
        <ele>575.49</ele>
        <time>2011-06-19T11:39:09Z</time>
      </trkpt>
      <trkpt lat="45.59287" lon="5.74286">
        <ele>575.01</ele>
        <time>2011-06-19T11:39:10Z</time>
      </trkpt>
      <trkpt lat="45.59288" lon="5.74292">
        <ele>575.01</ele>
        <time>2011-06-19T11:39:11Z</time>
      </trkpt>
      <trkpt lat="45.59288" lon="5.74298">
        <ele>575.01</ele>
        <time>2011-06-19T11:39:12Z</time>
      </trkpt>
      <trkpt lat="45.59288" lon="5.74304">
        <ele>574.04</ele>
        <time>2011-06-19T11:39:13Z</time>
      </trkpt>
      <trkpt lat="45.59288" lon="5.74309">
        <ele>573.56</ele>
        <time>2011-06-19T11:39:14Z</time>
      </trkpt>
      <trkpt lat="45.59287" lon="5.74328">
        <ele>571.16</ele>
        <time>2011-06-19T11:39:17Z</time>
      </trkpt>
      <trkpt lat="45.59288" lon="5.74335">
        <ele>570.2</ele>
        <time>2011-06-19T11:39:18Z</time>
      </trkpt>
      <trkpt lat="45.59288" lon="5.74342">
        <ele>568.76</ele>
        <time>2011-06-19T11:39:19Z</time>
      </trkpt>
      <trkpt lat="45.59285" lon="5.74356">
        <ele>567.32</ele>
        <time>2011-06-19T11:39:21Z</time>
      </trkpt>
      <trkpt lat="45.59282" lon="5.74359">
        <ele>566.83</ele>
        <time>2011-06-19T11:39:22Z</time>
      </trkpt>
      <trkpt lat="45.59278" lon="5.74361">
        <ele>565.87</ele>
        <time>2011-06-19T11:39:23Z</time>
      </trkpt>
      <trkpt lat="45.59273" lon="5.7436">
        <ele>564.91</ele>
        <time>2011-06-19T11:39:24Z</time>
      </trkpt>
      <trkpt lat="45.59269" lon="5.74359">
        <ele>564.43</ele>
        <time>2011-06-19T11:39:25Z</time>
      </trkpt>
      <trkpt lat="45.59264" lon="5.74359">
        <ele>563.95</ele>
        <time>2011-06-19T11:39:26Z</time>
      </trkpt>
      <trkpt lat="45.5926" lon="5.7436">
        <ele>563.95</ele>
        <time>2011-06-19T11:39:27Z</time>
      </trkpt>
      <trkpt lat="45.59256" lon="5.74361">
        <ele>563.47</ele>
        <time>2011-06-19T11:39:28Z</time>
      </trkpt>
      <trkpt lat="45.59247" lon="5.74365">
        <ele>562.51</ele>
        <time>2011-06-19T11:39:30Z</time>
      </trkpt>
      <trkpt lat="45.59238" lon="5.74369">
        <ele>561.07</ele>
        <time>2011-06-19T11:39:32Z</time>
      </trkpt>
      <trkpt lat="45.59193" lon="5.74394">
        <ele>559.14</ele>
        <time>2011-06-19T11:39:41Z</time>
      </trkpt>
      <trkpt lat="45.59188" lon="5.74398">
        <ele>558.66</ele>
        <time>2011-06-19T11:39:42Z</time>
      </trkpt>
      <trkpt lat="45.59181" lon="5.74411">
        <ele>557.7</ele>
        <time>2011-06-19T11:39:45Z</time>
      </trkpt>
      <trkpt lat="45.59182" lon="5.74417">
        <ele>558.18</ele>
        <time>2011-06-19T11:39:46Z</time>
      </trkpt>
      <trkpt lat="45.59184" lon="5.74422">
        <ele>557.7</ele>
        <time>2011-06-19T11:39:47Z</time>
      </trkpt>
      <trkpt lat="45.59185" lon="5.74428">
        <ele>557.7</ele>
        <time>2011-06-19T11:39:48Z</time>
      </trkpt>
      <trkpt lat="45.59187" lon="5.74435">
        <ele>557.7</ele>
        <time>2011-06-19T11:39:49Z</time>
      </trkpt>
      <trkpt lat="45.59189" lon="5.74441">
        <ele>557.7</ele>
        <time>2011-06-19T11:39:50Z</time>
      </trkpt>
      <trkpt lat="45.5919" lon="5.74446">
        <ele>557.7</ele>
        <time>2011-06-19T11:39:51Z</time>
      </trkpt>
      <trkpt lat="45.5919" lon="5.74452">
        <ele>557.7</ele>
        <time>2011-06-19T11:39:52Z</time>
      </trkpt>
      <trkpt lat="45.59193" lon="5.74487">
        <ele>555.78</ele>
        <time>2011-06-19T11:39:57Z</time>
      </trkpt>
      <trkpt lat="45.59193" lon="5.74494">
        <ele>556.26</ele>
        <time>2011-06-19T11:39:58Z</time>
      </trkpt>
      <trkpt lat="45.59195" lon="5.74564">
        <ele>555.78</ele>
        <time>2011-06-19T11:40:07Z</time>
      </trkpt>
      <trkpt lat="45.59196" lon="5.74571">
        <ele>556.26</ele>
        <time>2011-06-19T11:40:08Z</time>
      </trkpt>
      <trkpt lat="45.59195" lon="5.74577">
        <ele>555.78</ele>
        <time>2011-06-19T11:40:09Z</time>
      </trkpt>
      <trkpt lat="45.59193" lon="5.74594">
        <ele>555.78</ele>
        <time>2011-06-19T11:40:12Z</time>
      </trkpt>
      <trkpt lat="45.59193" lon="5.746">
        <ele>556.26</ele>
        <time>2011-06-19T11:40:13Z</time>
      </trkpt>
      <trkpt lat="45.59192" lon="5.74613">
        <ele>555.3</ele>
        <time>2011-06-19T11:40:15Z</time>
      </trkpt>
      <trkpt lat="45.5919" lon="5.7462">
        <ele>555.78</ele>
        <time>2011-06-19T11:40:16Z</time>
      </trkpt>
      <trkpt lat="45.59187" lon="5.74635">
        <ele>554.82</ele>
        <time>2011-06-19T11:40:18Z</time>
      </trkpt>
      <trkpt lat="45.59171" lon="5.74705">
        <ele>554.82</ele>
        <time>2011-06-19T11:40:28Z</time>
      </trkpt>
      <trkpt lat="45.59154" lon="5.74766">
        <ele>557.22</ele>
        <time>2011-06-19T11:40:41Z</time>
      </trkpt>
      <trkpt lat="45.59153" lon="5.74783">
        <ele>556.26</ele>
        <time>2011-06-19T11:40:44Z</time>
      </trkpt>
      <trkpt lat="45.59153" lon="5.7479">
        <ele>556.26</ele>
        <time>2011-06-19T11:40:45Z</time>
      </trkpt>
      <trkpt lat="45.59152" lon="5.74796">
        <ele>555.78</ele>
        <time>2011-06-19T11:40:46Z</time>
      </trkpt>
      <trkpt lat="45.59149" lon="5.74801">
        <ele>556.26</ele>
        <time>2011-06-19T11:40:47Z</time>
      </trkpt>
      <trkpt lat="45.59146" lon="5.74805">
        <ele>556.74</ele>
        <time>2011-06-19T11:40:48Z</time>
      </trkpt>
      <trkpt lat="45.59143" lon="5.74809">
        <ele>556.74</ele>
        <time>2011-06-19T11:40:49Z</time>
      </trkpt>
      <trkpt lat="45.5914" lon="5.74813">
        <ele>557.22</ele>
        <time>2011-06-19T11:40:50Z</time>
      </trkpt>
      <trkpt lat="45.59127" lon="5.74827">
        <ele>557.7</ele>
        <time>2011-06-19T11:40:54Z</time>
      </trkpt>
      <trkpt lat="45.59121" lon="5.74835">
        <ele>557.22</ele>
        <time>2011-06-19T11:40:56Z</time>
      </trkpt>
      <trkpt lat="45.59113" lon="5.74844">
        <ele>556.26</ele>
        <time>2011-06-19T11:40:58Z</time>
      </trkpt>
      <trkpt lat="45.5911" lon="5.74849">
        <ele>556.74</ele>
        <time>2011-06-19T11:40:59Z</time>
      </trkpt>
      <trkpt lat="45.59094" lon="5.74882">
        <ele>554.34</ele>
        <time>2011-06-19T11:41:04Z</time>
      </trkpt>
      <trkpt lat="45.59092" lon="5.7489">
        <ele>553.86</ele>
        <time>2011-06-19T11:41:05Z</time>
      </trkpt>
      <trkpt lat="45.59089" lon="5.74913">
        <ele>550.01</ele>
        <time>2011-06-19T11:41:08Z</time>
      </trkpt>
      <trkpt lat="45.59087" lon="5.74919">
        <ele>549.53</ele>
        <time>2011-06-19T11:41:09Z</time>
      </trkpt>
      <trkpt lat="45.59083" lon="5.7493">
        <ele>548.09</ele>
        <time>2011-06-19T11:41:11Z</time>
      </trkpt>
      <trkpt lat="45.59075" lon="5.74943">
        <ele>545.2</ele>
        <time>2011-06-19T11:41:15Z</time>
      </trkpt>
      <trkpt lat="45.59071" lon="5.74948">
        <ele>544.24</ele>
        <time>2011-06-19T11:41:17Z</time>
      </trkpt>
      <trkpt lat="45.59068" lon="5.74949">
        <ele>543.76</ele>
        <time>2011-06-19T11:41:18Z</time>
      </trkpt>
      <trkpt lat="45.59067" lon="5.74949">
        <ele>541.84</ele>
        <time>2011-06-19T11:41:21Z</time>
      </trkpt>
      <trkpt lat="45.59066" lon="5.7495">
        <ele>542.8</ele>
        <time>2011-06-19T11:41:22Z</time>
      </trkpt>
      <trkpt lat="45.59065" lon="5.74951">
        <ele>541.84</ele>
        <time>2011-06-19T11:41:23Z</time>
      </trkpt>
      <trkpt lat="45.59063" lon="5.74953">
        <ele>541.36</ele>
        <time>2011-06-19T11:41:24Z</time>
      </trkpt>
      <trkpt lat="45.5906" lon="5.74955">
        <ele>540.88</ele>
        <time>2011-06-19T11:41:25Z</time>
      </trkpt>
      <trkpt lat="45.59058" lon="5.74957">
        <ele>540.4</ele>
        <time>2011-06-19T11:41:26Z</time>
      </trkpt>
      <trkpt lat="45.59056" lon="5.74959">
        <ele>539.44</ele>
        <time>2011-06-19T11:41:27Z</time>
      </trkpt>
      <trkpt lat="45.59053" lon="5.74961">
        <ele>539.44</ele>
        <time>2011-06-19T11:41:28Z</time>
      </trkpt>
      <trkpt lat="45.59043" lon="5.74966">
        <ele>537.51</ele>
        <time>2011-06-19T11:41:31Z</time>
      </trkpt>
      <trkpt lat="45.59038" lon="5.74967">
        <ele>536.55</ele>
        <time>2011-06-19T11:41:32Z</time>
      </trkpt>
      <trkpt lat="45.59033" lon="5.74966">
        <ele>535.59</ele>
        <time>2011-06-19T11:41:33Z</time>
      </trkpt>
      <trkpt lat="45.59028" lon="5.74965">
        <ele>535.59</ele>
        <time>2011-06-19T11:41:34Z</time>
      </trkpt>
      <trkpt lat="45.59004" lon="5.74961">
        <ele>531.75</ele>
        <time>2011-06-19T11:41:38Z</time>
      </trkpt>
      <trkpt lat="45.58998" lon="5.74959">
        <ele>531.27</ele>
        <time>2011-06-19T11:41:39Z</time>
      </trkpt>
      <trkpt lat="45.58992" lon="5.74956">
        <ele>530.79</ele>
        <time>2011-06-19T11:41:40Z</time>
      </trkpt>
      <trkpt lat="45.58971" lon="5.74944">
        <ele>527.42</ele>
        <time>2011-06-19T11:41:43Z</time>
      </trkpt>
      <trkpt lat="45.58958" lon="5.74937">
        <ele>524.06</ele>
        <time>2011-06-19T11:41:45Z</time>
      </trkpt>
      <trkpt lat="45.58938" lon="5.74926">
        <ele>521.17</ele>
        <time>2011-06-19T11:41:48Z</time>
      </trkpt>
      <trkpt lat="45.58918" lon="5.74917">
        <ele>517.33</ele>
        <time>2011-06-19T11:41:51Z</time>
      </trkpt>
      <trkpt lat="45.58911" lon="5.74914">
        <ele>516.85</ele>
        <time>2011-06-19T11:41:52Z</time>
      </trkpt>
      <trkpt lat="45.58897" lon="5.74907">
        <ele>514.92</ele>
        <time>2011-06-19T11:41:54Z</time>
      </trkpt>
      <trkpt lat="45.58868" lon="5.74892">
        <ele>513</ele>
        <time>2011-06-19T11:41:58Z</time>
      </trkpt>
      <trkpt lat="45.58861" lon="5.74889">
        <ele>511.56</ele>
        <time>2011-06-19T11:41:59Z</time>
      </trkpt>
      <trkpt lat="45.58854" lon="5.74889">
        <ele>511.56</ele>
        <time>2011-06-19T11:42:00Z</time>
      </trkpt>
      <trkpt lat="45.58834" lon="5.74889">
        <ele>509.64</ele>
        <time>2011-06-19T11:42:03Z</time>
      </trkpt>
      <trkpt lat="45.58829" lon="5.74891">
        <ele>508.67</ele>
        <time>2011-06-19T11:42:04Z</time>
      </trkpt>
      <trkpt lat="45.58825" lon="5.74896">
        <ele>508.19</ele>
        <time>2011-06-19T11:42:05Z</time>
      </trkpt>
      <trkpt lat="45.58821" lon="5.74901">
        <ele>507.71</ele>
        <time>2011-06-19T11:42:06Z</time>
      </trkpt>
      <trkpt lat="45.58816" lon="5.74903">
        <ele>506.75</ele>
        <time>2011-06-19T11:42:07Z</time>
      </trkpt>
      <trkpt lat="45.5881" lon="5.74905">
        <ele>506.27</ele>
        <time>2011-06-19T11:42:08Z</time>
      </trkpt>
      <trkpt lat="45.58799" lon="5.7491">
        <ele>505.79</ele>
        <time>2011-06-19T11:42:10Z</time>
      </trkpt>
      <trkpt lat="45.58796" lon="5.74914">
        <ele>504.83</ele>
        <time>2011-06-19T11:42:11Z</time>
      </trkpt>
      <trkpt lat="45.58794" lon="5.7492">
        <ele>504.35</ele>
        <time>2011-06-19T11:42:12Z</time>
      </trkpt>
      <trkpt lat="45.58793" lon="5.74928">
        <ele>503.87</ele>
        <time>2011-06-19T11:42:13Z</time>
      </trkpt>
      <trkpt lat="45.58791" lon="5.74937">
        <ele>503.39</ele>
        <time>2011-06-19T11:42:14Z</time>
      </trkpt>
      <trkpt lat="45.58791" lon="5.74947">
        <ele>502.43</ele>
        <time>2011-06-19T11:42:15Z</time>
      </trkpt>
      <trkpt lat="45.58789" lon="5.74957">
        <ele>501.95</ele>
        <time>2011-06-19T11:42:16Z</time>
      </trkpt>
      <trkpt lat="45.58784" lon="5.74988">
        <ele>499.54</ele>
        <time>2011-06-19T11:42:19Z</time>
      </trkpt>
      <trkpt lat="45.5878" lon="5.75019">
        <ele>496.66</ele>
        <time>2011-06-19T11:42:22Z</time>
      </trkpt>
      <trkpt lat="45.58776" lon="5.75049">
        <ele>492.33</ele>
        <time>2011-06-19T11:42:25Z</time>
      </trkpt>
      <trkpt lat="45.58774" lon="5.75059">
        <ele>491.85</ele>
        <time>2011-06-19T11:42:26Z</time>
      </trkpt>
      <trkpt lat="45.58771" lon="5.75068">
        <ele>490.89</ele>
        <time>2011-06-19T11:42:27Z</time>
      </trkpt>
      <trkpt lat="45.58768" lon="5.75077">
        <ele>488.97</ele>
        <time>2011-06-19T11:42:28Z</time>
      </trkpt>
      <trkpt lat="45.58763" lon="5.7509">
        <ele>487.53</ele>
        <time>2011-06-19T11:42:30Z</time>
      </trkpt>
      <trkpt lat="45.58762" lon="5.75097">
        <ele>486.56</ele>
        <time>2011-06-19T11:42:31Z</time>
      </trkpt>
      <trkpt lat="45.58763" lon="5.75104">
        <ele>486.08</ele>
        <time>2011-06-19T11:42:32Z</time>
      </trkpt>
      <trkpt lat="45.58765" lon="5.75111">
        <ele>486.08</ele>
        <time>2011-06-19T11:42:33Z</time>
      </trkpt>
      <trkpt lat="45.58768" lon="5.75119">
        <ele>485.6</ele>
        <time>2011-06-19T11:42:34Z</time>
      </trkpt>
      <trkpt lat="45.58772" lon="5.75128">
        <ele>485.6</ele>
        <time>2011-06-19T11:42:35Z</time>
      </trkpt>
      <trkpt lat="45.5878" lon="5.75144">
        <ele>483.68</ele>
        <time>2011-06-19T11:42:37Z</time>
      </trkpt>
      <trkpt lat="45.58783" lon="5.75153">
        <ele>482.72</ele>
        <time>2011-06-19T11:42:38Z</time>
      </trkpt>
      <trkpt lat="45.58794" lon="5.75202">
        <ele>479.35</ele>
        <time>2011-06-19T11:42:42Z</time>
      </trkpt>
      <trkpt lat="45.58802" lon="5.75258">
        <ele>475.99</ele>
        <time>2011-06-19T11:42:46Z</time>
      </trkpt>
      <trkpt lat="45.58805" lon="5.75283">
        <ele>474.07</ele>
        <time>2011-06-19T11:42:48Z</time>
      </trkpt>
      <trkpt lat="45.5881" lon="5.75317">
        <ele>472.14</ele>
        <time>2011-06-19T11:42:54Z</time>
      </trkpt>
      <trkpt lat="45.58812" lon="5.75327">
        <ele>471.66</ele>
        <time>2011-06-19T11:42:56Z</time>
      </trkpt>
      <trkpt lat="45.5881" lon="5.75331">
        <ele>471.18</ele>
        <time>2011-06-19T11:42:57Z</time>
      </trkpt>
      <trkpt lat="45.58807" lon="5.75334">
        <ele>471.18</ele>
        <time>2011-06-19T11:42:58Z</time>
      </trkpt>
      <trkpt lat="45.58804" lon="5.75337">
        <ele>471.66</ele>
        <time>2011-06-19T11:42:59Z</time>
      </trkpt>
      <trkpt lat="45.588" lon="5.7534">
        <ele>471.66</ele>
        <time>2011-06-19T11:43:00Z</time>
      </trkpt>
      <trkpt lat="45.58796" lon="5.75345">
        <ele>471.66</ele>
        <time>2011-06-19T11:43:01Z</time>
      </trkpt>
      <trkpt lat="45.58793" lon="5.75351">
        <ele>471.18</ele>
        <time>2011-06-19T11:43:02Z</time>
      </trkpt>
      <trkpt lat="45.5879" lon="5.75359">
        <ele>470.7</ele>
        <time>2011-06-19T11:43:03Z</time>
      </trkpt>
      <trkpt lat="45.58788" lon="5.75369">
        <ele>469.74</ele>
        <time>2011-06-19T11:43:04Z</time>
      </trkpt>
      <trkpt lat="45.58787" lon="5.75379">
        <ele>469.26</ele>
        <time>2011-06-19T11:43:05Z</time>
      </trkpt>
      <trkpt lat="45.58786" lon="5.75391">
        <ele>468.3</ele>
        <time>2011-06-19T11:43:06Z</time>
      </trkpt>
      <trkpt lat="45.58786" lon="5.75403">
        <ele>467.34</ele>
        <time>2011-06-19T11:43:07Z</time>
      </trkpt>
      <trkpt lat="45.58788" lon="5.75415">
        <ele>467.34</ele>
        <time>2011-06-19T11:43:08Z</time>
      </trkpt>
      <trkpt lat="45.5879" lon="5.75426">
        <ele>465.9</ele>
        <time>2011-06-19T11:43:09Z</time>
      </trkpt>
      <trkpt lat="45.58792" lon="5.75437">
        <ele>464.93</ele>
        <time>2011-06-19T11:43:10Z</time>
      </trkpt>
      <trkpt lat="45.58794" lon="5.75448">
        <ele>463.49</ele>
        <time>2011-06-19T11:43:11Z</time>
      </trkpt>
      <trkpt lat="45.58794" lon="5.75458">
        <ele>463.01</ele>
        <time>2011-06-19T11:43:12Z</time>
      </trkpt>
      <trkpt lat="45.58793" lon="5.75466">
        <ele>463.01</ele>
        <time>2011-06-19T11:43:13Z</time>
      </trkpt>
      <trkpt lat="45.58789" lon="5.75472">
        <ele>461.09</ele>
        <time>2011-06-19T11:43:14Z</time>
      </trkpt>
      <trkpt lat="45.58783" lon="5.75474">
        <ele>460.13</ele>
        <time>2011-06-19T11:43:15Z</time>
      </trkpt>
      <trkpt lat="45.58776" lon="5.75475">
        <ele>460.61</ele>
        <time>2011-06-19T11:43:16Z</time>
      </trkpt>
      <trkpt lat="45.5877" lon="5.75476">
        <ele>460.13</ele>
        <time>2011-06-19T11:43:17Z</time>
      </trkpt>
      <trkpt lat="45.58763" lon="5.75478">
        <ele>460.13</ele>
        <time>2011-06-19T11:43:18Z</time>
      </trkpt>
      <trkpt lat="45.58756" lon="5.7548">
        <ele>460.13</ele>
        <time>2011-06-19T11:43:19Z</time>
      </trkpt>
      <trkpt lat="45.5875" lon="5.75483">
        <ele>460.13</ele>
        <time>2011-06-19T11:43:20Z</time>
      </trkpt>
      <trkpt lat="45.58745" lon="5.75487">
        <ele>460.13</ele>
        <time>2011-06-19T11:43:21Z</time>
      </trkpt>
      <trkpt lat="45.58741" lon="5.75491">
        <ele>460.13</ele>
        <time>2011-06-19T11:43:22Z</time>
      </trkpt>
      <trkpt lat="45.58737" lon="5.75496">
        <ele>460.61</ele>
        <time>2011-06-19T11:43:23Z</time>
      </trkpt>
      <trkpt lat="45.58733" lon="5.755">
        <ele>460.61</ele>
        <time>2011-06-19T11:43:24Z</time>
      </trkpt>
      <trkpt lat="45.58717" lon="5.75521">
        <ele>463.97</ele>
        <time>2011-06-19T11:43:31Z</time>
      </trkpt>
      <trkpt lat="45.587" lon="5.75543">
        <ele>467.34</ele>
        <time>2011-06-19T11:43:42Z</time>
      </trkpt>
      <trkpt lat="45.58691" lon="5.75577">
        <ele>470.22</ele>
        <time>2011-06-19T11:43:54Z</time>
      </trkpt>
      <trkpt lat="45.58692" lon="5.7558">
        <ele>470.22</ele>
        <time>2011-06-19T11:43:55Z</time>
      </trkpt>
      <trkpt lat="45.58692" lon="5.75583">
        <ele>470.22</ele>
        <time>2011-06-19T11:43:56Z</time>
      </trkpt>
      <trkpt lat="45.58693" lon="5.75586">
        <ele>470.7</ele>
        <time>2011-06-19T11:43:57Z</time>
      </trkpt>
      <trkpt lat="45.58693" lon="5.75589">
        <ele>470.7</ele>
        <time>2011-06-19T11:43:58Z</time>
      </trkpt>
      <trkpt lat="45.58694" lon="5.75592">
        <ele>471.18</ele>
        <time>2011-06-19T11:43:59Z</time>
      </trkpt>
      <trkpt lat="45.58695" lon="5.75595">
        <ele>471.66</ele>
        <time>2011-06-19T11:44:00Z</time>
      </trkpt>
      <trkpt lat="45.58694" lon="5.75597">
        <ele>472.14</ele>
        <time>2011-06-19T11:44:01Z</time>
      </trkpt>
      <trkpt lat="45.58701" lon="5.75639">
        <ele>471.18</ele>
        <time>2011-06-19T11:44:14Z</time>
      </trkpt>
      <trkpt lat="45.58716" lon="5.75701">
        <ele>470.22</ele>
        <time>2011-06-19T11:44:26Z</time>
      </trkpt>
      <trkpt lat="45.58721" lon="5.75765">
        <ele>471.18</ele>
        <time>2011-06-19T11:44:39Z</time>
      </trkpt>
      <trkpt lat="45.5872" lon="5.75813">
        <ele>473.59</ele>
        <time>2011-06-19T11:44:53Z</time>
      </trkpt>
      <trkpt lat="45.58718" lon="5.75869">
        <ele>473.59</ele>
        <time>2011-06-19T11:45:05Z</time>
      </trkpt>
      <trkpt lat="45.58718" lon="5.75894">
        <ele>475.03</ele>
        <time>2011-06-19T11:45:17Z</time>
      </trkpt>
      <trkpt lat="45.58715" lon="5.75925">
        <ele>478.39</ele>
        <time>2011-06-19T11:45:32Z</time>
      </trkpt>
      <trkpt lat="45.5872" lon="5.75965">
        <ele>478.39</ele>
        <time>2011-06-19T11:45:47Z</time>
      </trkpt>
      <trkpt lat="45.58726" lon="5.76046">
        <ele>478.87</ele>
        <time>2011-06-19T11:46:02Z</time>
      </trkpt>
      <trkpt lat="45.58722" lon="5.7609">
        <ele>481.28</ele>
        <time>2011-06-19T11:46:14Z</time>
      </trkpt>
      <trkpt lat="45.58716" lon="5.76132">
        <ele>482.72</ele>
        <time>2011-06-19T11:46:26Z</time>
      </trkpt>
      <trkpt lat="45.58727" lon="5.76192">
        <ele>480.8</ele>
        <time>2011-06-19T11:46:38Z</time>
      </trkpt>
      <trkpt lat="45.58739" lon="5.76266">
        <ele>479.84</ele>
        <time>2011-06-19T11:46:52Z</time>
      </trkpt>
      <trkpt lat="45.58746" lon="5.76341">
        <ele>479.35</ele>
        <time>2011-06-19T11:47:05Z</time>
      </trkpt>
      <trkpt lat="45.58752" lon="5.76422">
        <ele>478.39</ele>
        <time>2011-06-19T11:47:18Z</time>
      </trkpt>
      <trkpt lat="45.58757" lon="5.76501">
        <ele>476.95</ele>
        <time>2011-06-19T11:47:32Z</time>
      </trkpt>
      <trkpt lat="45.58758" lon="5.76524">
        <ele>475.99</ele>
        <time>2011-06-19T11:47:37Z</time>
      </trkpt>
      <trkpt lat="45.58764" lon="5.76551">
        <ele>475.03</ele>
        <time>2011-06-19T11:47:41Z</time>
      </trkpt>
      <trkpt lat="45.58765" lon="5.76573">
        <ele>475.03</ele>
        <time>2011-06-19T11:47:44Z</time>
      </trkpt>
      <trkpt lat="45.58764" lon="5.76578">
        <ele>475.03</ele>
        <time>2011-06-19T11:47:45Z</time>
      </trkpt>
      <trkpt lat="45.58761" lon="5.7658">
        <ele>474.55</ele>
        <time>2011-06-19T11:47:46Z</time>
      </trkpt>
      <trkpt lat="45.58757" lon="5.76579">
        <ele>475.03</ele>
        <time>2011-06-19T11:47:47Z</time>
      </trkpt>
      <trkpt lat="45.58755" lon="5.76576">
        <ele>475.03</ele>
        <time>2011-06-19T11:47:48Z</time>
      </trkpt>
      <trkpt lat="45.58752" lon="5.76574">
        <ele>475.03</ele>
        <time>2011-06-19T11:47:49Z</time>
      </trkpt>
      <trkpt lat="45.58748" lon="5.76571">
        <ele>475.03</ele>
        <time>2011-06-19T11:47:50Z</time>
      </trkpt>
      <trkpt lat="45.587" lon="5.76538">
        <ele>475.99</ele>
        <time>2011-06-19T11:48:02Z</time>
      </trkpt>
      <trkpt lat="45.58697" lon="5.76534">
        <ele>475.51</ele>
        <time>2011-06-19T11:48:03Z</time>
      </trkpt>
      <trkpt lat="45.58647" lon="5.76472">
        <ele>477.43</ele>
        <time>2011-06-19T11:48:19Z</time>
      </trkpt>
      <trkpt lat="45.58612" lon="5.76443">
        <ele>475.03</ele>
        <time>2011-06-19T11:48:27Z</time>
      </trkpt>
      <trkpt lat="45.58605" lon="5.76441">
        <ele>475.51</ele>
        <time>2011-06-19T11:48:28Z</time>
      </trkpt>
      <trkpt lat="45.58598" lon="5.76441">
        <ele>475.03</ele>
        <time>2011-06-19T11:48:29Z</time>
      </trkpt>
      <trkpt lat="45.58592" lon="5.76444">
        <ele>474.07</ele>
        <time>2011-06-19T11:48:30Z</time>
      </trkpt>
      <trkpt lat="45.58584" lon="5.76447">
        <ele>474.07</ele>
        <time>2011-06-19T11:48:31Z</time>
      </trkpt>
      <trkpt lat="45.5854" lon="5.76467">
        <ele>471.18</ele>
        <time>2011-06-19T11:48:37Z</time>
      </trkpt>
      <trkpt lat="45.5851" lon="5.76474">
        <ele>470.22</ele>
        <time>2011-06-19T11:48:41Z</time>
      </trkpt>
      <trkpt lat="45.58485" lon="5.76473">
        <ele>472.63</ele>
        <time>2011-06-19T11:48:45Z</time>
      </trkpt>
      <trkpt lat="45.58441" lon="5.76474">
        <ele>475.51</ele>
        <time>2011-06-19T11:48:55Z</time>
      </trkpt>
      <trkpt lat="45.584" lon="5.76494">
        <ele>476.95</ele>
        <time>2011-06-19T11:49:09Z</time>
      </trkpt>
      <trkpt lat="45.584" lon="5.765">
        <ele>476.95</ele>
        <time>2011-06-19T11:49:10Z</time>
      </trkpt>
      <trkpt lat="45.58401" lon="5.76515">
        <ele>475.99</ele>
        <time>2011-06-19T11:49:12Z</time>
      </trkpt>
      <trkpt lat="45.58411" lon="5.76579">
        <ele>472.63</ele>
        <time>2011-06-19T11:49:19Z</time>
      </trkpt>
      <trkpt lat="45.58415" lon="5.76603">
        <ele>471.18</ele>
        <time>2011-06-19T11:49:22Z</time>
      </trkpt>
      <trkpt lat="45.58421" lon="5.7665">
        <ele>468.3</ele>
        <time>2011-06-19T11:49:27Z</time>
      </trkpt>
      <trkpt lat="45.58422" lon="5.7666">
        <ele>467.82</ele>
        <time>2011-06-19T11:49:28Z</time>
      </trkpt>
      <trkpt lat="45.58421" lon="5.7667">
        <ele>467.34</ele>
        <time>2011-06-19T11:49:29Z</time>
      </trkpt>
      <trkpt lat="45.58419" lon="5.76689">
        <ele>465.9</ele>
        <time>2011-06-19T11:49:31Z</time>
      </trkpt>
      <trkpt lat="45.58418" lon="5.76697">
        <ele>465.42</ele>
        <time>2011-06-19T11:49:32Z</time>
      </trkpt>
      <trkpt lat="45.5841" lon="5.7673">
        <ele>463.49</ele>
        <time>2011-06-19T11:49:36Z</time>
      </trkpt>
      <trkpt lat="45.58402" lon="5.7676">
        <ele>460.61</ele>
        <time>2011-06-19T11:49:41Z</time>
      </trkpt>
      <trkpt lat="45.5837" lon="5.76775">
        <ele>457.24</ele>
        <time>2011-06-19T11:49:51Z</time>
      </trkpt>
      <trkpt lat="45.58366" lon="5.76778">
        <ele>456.76</ele>
        <time>2011-06-19T11:49:52Z</time>
      </trkpt>
      <trkpt lat="45.58362" lon="5.76783">
        <ele>456.76</ele>
        <time>2011-06-19T11:49:53Z</time>
      </trkpt>
      <trkpt lat="45.5836" lon="5.76789">
        <ele>456.76</ele>
        <time>2011-06-19T11:49:54Z</time>
      </trkpt>
      <trkpt lat="45.58361" lon="5.76797">
        <ele>455.8</ele>
        <time>2011-06-19T11:49:55Z</time>
      </trkpt>
      <trkpt lat="45.58365" lon="5.76803">
        <ele>455.32</ele>
        <time>2011-06-19T11:49:56Z</time>
      </trkpt>
      <trkpt lat="45.58369" lon="5.7681">
        <ele>454.84</ele>
        <time>2011-06-19T11:49:57Z</time>
      </trkpt>
      <trkpt lat="45.58372" lon="5.76817">
        <ele>453.88</ele>
        <time>2011-06-19T11:49:58Z</time>
      </trkpt>
      <trkpt lat="45.58374" lon="5.76824">
        <ele>453.4</ele>
        <time>2011-06-19T11:49:59Z</time>
      </trkpt>
      <trkpt lat="45.58374" lon="5.76831">
        <ele>452.92</ele>
        <time>2011-06-19T11:50:00Z</time>
      </trkpt>
      <trkpt lat="45.58373" lon="5.7684">
        <ele>451.96</ele>
        <time>2011-06-19T11:50:01Z</time>
      </trkpt>
      <trkpt lat="45.58369" lon="5.76848">
        <ele>451.48</ele>
        <time>2011-06-19T11:50:02Z</time>
      </trkpt>
      <trkpt lat="45.58365" lon="5.76857">
        <ele>451</ele>
        <time>2011-06-19T11:50:03Z</time>
      </trkpt>
      <trkpt lat="45.58356" lon="5.76873">
        <ele>449.07</ele>
        <time>2011-06-19T11:50:05Z</time>
      </trkpt>
      <trkpt lat="45.5835" lon="5.76877">
        <ele>448.59</ele>
        <time>2011-06-19T11:50:06Z</time>
      </trkpt>
      <trkpt lat="45.58336" lon="5.76885">
        <ele>447.15</ele>
        <time>2011-06-19T11:50:08Z</time>
      </trkpt>
      <trkpt lat="45.58331" lon="5.76893">
        <ele>445.23</ele>
        <time>2011-06-19T11:50:09Z</time>
      </trkpt>
      <trkpt lat="45.58328" lon="5.76903">
        <ele>444.75</ele>
        <time>2011-06-19T11:50:10Z</time>
      </trkpt>
      <trkpt lat="45.58327" lon="5.76914">
        <ele>444.75</ele>
        <time>2011-06-19T11:50:11Z</time>
      </trkpt>
      <trkpt lat="45.58327" lon="5.76926">
        <ele>444.27</ele>
        <time>2011-06-19T11:50:12Z</time>
      </trkpt>
      <trkpt lat="45.58328" lon="5.76938">
        <ele>443.79</ele>
        <time>2011-06-19T11:50:13Z</time>
      </trkpt>
      <trkpt lat="45.58328" lon="5.76964">
        <ele>441.86</ele>
        <time>2011-06-19T11:50:16Z</time>
      </trkpt>
      <trkpt lat="45.58326" lon="5.76968">
        <ele>441.86</ele>
        <time>2011-06-19T11:50:17Z</time>
      </trkpt>
      <trkpt lat="45.58323" lon="5.7697">
        <ele>441.38</ele>
        <time>2011-06-19T11:50:18Z</time>
      </trkpt>
      <trkpt lat="45.58319" lon="5.76967">
        <ele>441.86</ele>
        <time>2011-06-19T11:50:19Z</time>
      </trkpt>
      <trkpt lat="45.58316" lon="5.76963">
        <ele>441.38</ele>
        <time>2011-06-19T11:50:20Z</time>
      </trkpt>
      <trkpt lat="45.58312" lon="5.76958">
        <ele>441.38</ele>
        <time>2011-06-19T11:50:21Z</time>
      </trkpt>
      <trkpt lat="45.58255" lon="5.76871">
        <ele>441.38</ele>
        <time>2011-06-19T11:50:38Z</time>
      </trkpt>
      <trkpt lat="45.58252" lon="5.76866">
        <ele>441.38</ele>
        <time>2011-06-19T11:50:39Z</time>
      </trkpt>
      <trkpt lat="45.58209" lon="5.76818">
        <ele>442.34</ele>
        <time>2011-06-19T11:50:51Z</time>
      </trkpt>
      <trkpt lat="45.58195" lon="5.76811">
        <ele>442.34</ele>
        <time>2011-06-19T11:50:55Z</time>
      </trkpt>
      <trkpt lat="45.58191" lon="5.76813">
        <ele>442.34</ele>
        <time>2011-06-19T11:50:56Z</time>
      </trkpt>
      <trkpt lat="45.58188" lon="5.76818">
        <ele>442.34</ele>
        <time>2011-06-19T11:50:57Z</time>
      </trkpt>
      <trkpt lat="45.58186" lon="5.76824">
        <ele>441.38</ele>
        <time>2011-06-19T11:50:58Z</time>
      </trkpt>
      <trkpt lat="45.58183" lon="5.76831">
        <ele>441.38</ele>
        <time>2011-06-19T11:50:59Z</time>
      </trkpt>
      <trkpt lat="45.58138" lon="5.76945">
        <ele>439.46</ele>
        <time>2011-06-19T11:51:14Z</time>
      </trkpt>
      <trkpt lat="45.58123" lon="5.76978">
        <ele>438.98</ele>
        <time>2011-06-19T11:51:19Z</time>
      </trkpt>
      <trkpt lat="45.58121" lon="5.76985">
        <ele>438.5</ele>
        <time>2011-06-19T11:51:20Z</time>
      </trkpt>
      <trkpt lat="45.58117" lon="5.76999">
        <ele>438.5</ele>
        <time>2011-06-19T11:51:22Z</time>
      </trkpt>
      <trkpt lat="45.58112" lon="5.77013">
        <ele>439.46</ele>
        <time>2011-06-19T11:51:24Z</time>
      </trkpt>
      <trkpt lat="45.581" lon="5.77041">
        <ele>440.42</ele>
        <time>2011-06-19T11:51:29Z</time>
      </trkpt>
      <trkpt lat="45.58065" lon="5.771">
        <ele>443.31</ele>
        <time>2011-06-19T11:51:44Z</time>
      </trkpt>
      <trkpt lat="45.58052" lon="5.7712">
        <ele>444.75</ele>
        <time>2011-06-19T11:51:51Z</time>
      </trkpt>
      <trkpt lat="45.58051" lon="5.77124">
        <ele>445.23</ele>
        <time>2011-06-19T11:51:52Z</time>
      </trkpt>
      <trkpt lat="45.58052" lon="5.77127">
        <ele>445.23</ele>
        <time>2011-06-19T11:51:53Z</time>
      </trkpt>
      <trkpt lat="45.58053" lon="5.7713">
        <ele>445.23</ele>
        <time>2011-06-19T11:51:54Z</time>
      </trkpt>
      <trkpt lat="45.58056" lon="5.77132">
        <ele>445.71</ele>
        <time>2011-06-19T11:51:55Z</time>
      </trkpt>
      <trkpt lat="45.58058" lon="5.77135">
        <ele>445.23</ele>
        <time>2011-06-19T11:51:56Z</time>
      </trkpt>
      <trkpt lat="45.58061" lon="5.77138">
        <ele>445.71</ele>
        <time>2011-06-19T11:51:57Z</time>
      </trkpt>
      <trkpt lat="45.58092" lon="5.77183">
        <ele>447.15</ele>
        <time>2011-06-19T11:52:12Z</time>
      </trkpt>
      <trkpt lat="45.58114" lon="5.77216">
        <ele>447.63</ele>
        <time>2011-06-19T11:52:24Z</time>
      </trkpt>
      <trkpt lat="45.58128" lon="5.77232">
        <ele>448.59</ele>
        <time>2011-06-19T11:52:36Z</time>
      </trkpt>
      <trkpt lat="45.58132" lon="5.77232">
        <ele>448.59</ele>
        <time>2011-06-19T11:52:47Z</time>
      </trkpt>
      <trkpt lat="45.58133" lon="5.77233">
        <ele>448.11</ele>
        <time>2011-06-19T11:52:51Z</time>
      </trkpt>
      <trkpt lat="45.58135" lon="5.77234">
        <ele>448.11</ele>
        <time>2011-06-19T11:52:52Z</time>
      </trkpt>
      <trkpt lat="45.58152" lon="5.77247">
        <ele>448.11</ele>
        <time>2011-06-19T11:53:03Z</time>
      </trkpt>
      <trkpt lat="45.58189" lon="5.7728">
        <ele>447.15</ele>
        <time>2011-06-19T11:53:15Z</time>
      </trkpt>
      <trkpt lat="45.58228" lon="5.77311">
        <ele>447.63</ele>
        <time>2011-06-19T11:53:28Z</time>
      </trkpt>
      <trkpt lat="45.58263" lon="5.77337">
        <ele>445.71</ele>
        <time>2011-06-19T11:53:39Z</time>
      </trkpt>
      <trkpt lat="45.58289" lon="5.77364">
        <ele>447.63</ele>
        <time>2011-06-19T11:53:52Z</time>
      </trkpt>
      <trkpt lat="45.5831" lon="5.77392">
        <ele>451</ele>
        <time>2011-06-19T11:54:07Z</time>
      </trkpt>
      <trkpt lat="45.58327" lon="5.77423">
        <ele>453.4</ele>
        <time>2011-06-19T11:54:21Z</time>
      </trkpt>
      <trkpt lat="45.58363" lon="5.77441">
        <ele>453.4</ele>
        <time>2011-06-19T11:54:36Z</time>
      </trkpt>
      <trkpt lat="45.58428" lon="5.77457">
        <ele>451.48</ele>
        <time>2011-06-19T11:54:51Z</time>
      </trkpt>
      <trkpt lat="45.58465" lon="5.77478">
        <ele>451</ele>
        <time>2011-06-19T11:55:02Z</time>
      </trkpt>
      <trkpt lat="45.58487" lon="5.7748">
        <ele>451</ele>
        <time>2011-06-19T11:55:08Z</time>
      </trkpt>
      <trkpt lat="45.58492" lon="5.77479">
        <ele>450.52</ele>
        <time>2011-06-19T11:55:09Z</time>
      </trkpt>
      <trkpt lat="45.58506" lon="5.77474">
        <ele>449.07</ele>
        <time>2011-06-19T11:55:12Z</time>
      </trkpt>
      <trkpt lat="45.5851" lon="5.77473">
        <ele>449.55</ele>
        <time>2011-06-19T11:55:13Z</time>
      </trkpt>
      <trkpt lat="45.58514" lon="5.77471">
        <ele>449.07</ele>
        <time>2011-06-19T11:55:14Z</time>
      </trkpt>
      <trkpt lat="45.58584" lon="5.7745">
        <ele>448.11</ele>
        <time>2011-06-19T11:55:29Z</time>
      </trkpt>
      <trkpt lat="45.58648" lon="5.77435">
        <ele>447.63</ele>
        <time>2011-06-19T11:55:43Z</time>
      </trkpt>
      <trkpt lat="45.58677" lon="5.77434">
        <ele>447.15</ele>
        <time>2011-06-19T11:55:49Z</time>
      </trkpt>
      <trkpt lat="45.58681" lon="5.77436">
        <ele>447.15</ele>
        <time>2011-06-19T11:55:50Z</time>
      </trkpt>
      <trkpt lat="45.58685" lon="5.77439">
        <ele>446.67</ele>
        <time>2011-06-19T11:55:51Z</time>
      </trkpt>
      <trkpt lat="45.58714" lon="5.77466">
        <ele>447.15</ele>
        <time>2011-06-19T11:55:59Z</time>
      </trkpt>
      <trkpt lat="45.5873" lon="5.77487">
        <ele>447.63</ele>
        <time>2011-06-19T11:56:04Z</time>
      </trkpt>
      <trkpt lat="45.58786" lon="5.7752">
        <ele>450.52</ele>
        <time>2011-06-19T11:56:20Z</time>
      </trkpt>
      <trkpt lat="45.58826" lon="5.77527">
        <ele>452.44</ele>
        <time>2011-06-19T11:56:33Z</time>
      </trkpt>
      <trkpt lat="45.58867" lon="5.77544">
        <ele>455.32</ele>
        <time>2011-06-19T11:56:48Z</time>
      </trkpt>
      <trkpt lat="45.58904" lon="5.77616">
        <ele>455.8</ele>
        <time>2011-06-19T11:57:05Z</time>
      </trkpt>
      <trkpt lat="45.58927" lon="5.77669">
        <ele>458.69</ele>
        <time>2011-06-19T11:57:18Z</time>
      </trkpt>
      <trkpt lat="45.58942" lon="5.77706">
        <ele>461.09</ele>
        <time>2011-06-19T11:57:31Z</time>
      </trkpt>
      <trkpt lat="45.58954" lon="5.77735">
        <ele>459.17</ele>
        <time>2011-06-19T11:57:37Z</time>
      </trkpt>
      <trkpt lat="45.58955" lon="5.77743">
        <ele>457.72</ele>
        <time>2011-06-19T11:57:38Z</time>
      </trkpt>
      <trkpt lat="45.58956" lon="5.77749">
        <ele>457.72</ele>
        <time>2011-06-19T11:57:39Z</time>
      </trkpt>
      <trkpt lat="45.58949" lon="5.77784">
        <ele>453.88</ele>
        <time>2011-06-19T11:57:46Z</time>
      </trkpt>
      <trkpt lat="45.58924" lon="5.77817">
        <ele>453.88</ele>
        <time>2011-06-19T11:57:53Z</time>
      </trkpt>
      <trkpt lat="45.5892" lon="5.77821">
        <ele>454.36</ele>
        <time>2011-06-19T11:57:54Z</time>
      </trkpt>
      <trkpt lat="45.58881" lon="5.77879">
        <ele>453.88</ele>
        <time>2011-06-19T11:58:08Z</time>
      </trkpt>
      <trkpt lat="45.58872" lon="5.77919">
        <ele>451.96</ele>
        <time>2011-06-19T11:58:14Z</time>
      </trkpt>
      <trkpt lat="45.58843" lon="5.77948">
        <ele>452.44</ele>
        <time>2011-06-19T11:58:25Z</time>
      </trkpt>
      <trkpt lat="45.588" lon="5.77986">
        <ele>451.96</ele>
        <time>2011-06-19T11:58:40Z</time>
      </trkpt>
      <trkpt lat="45.58772" lon="5.78022">
        <ele>451</ele>
        <time>2011-06-19T11:58:52Z</time>
      </trkpt>
      <trkpt lat="45.58732" lon="5.7806">
        <ele>450.52</ele>
        <time>2011-06-19T11:59:04Z</time>
      </trkpt>
      <trkpt lat="45.58698" lon="5.78082">
        <ele>447.63</ele>
        <time>2011-06-19T11:59:12Z</time>
      </trkpt>
      <trkpt lat="45.5865" lon="5.78127">
        <ele>447.63</ele>
        <time>2011-06-19T11:59:26Z</time>
      </trkpt>
      <trkpt lat="45.58631" lon="5.78142">
        <ele>447.15</ele>
        <time>2011-06-19T11:59:31Z</time>
      </trkpt>
      <trkpt lat="45.58594" lon="5.78171">
        <ele>446.67</ele>
        <time>2011-06-19T11:59:41Z</time>
      </trkpt>
      <trkpt lat="45.58563" lon="5.78217">
        <ele>444.75</ele>
        <time>2011-06-19T11:59:54Z</time>
      </trkpt>
      <trkpt lat="45.58542" lon="5.78222">
        <ele>444.27</ele>
        <time>2011-06-19T12:00:06Z</time>
      </trkpt>
      <trkpt lat="45.5853" lon="5.78241">
        <ele>442.34</ele>
        <time>2011-06-19T12:00:13Z</time>
      </trkpt>
      <trkpt lat="45.58524" lon="5.78251">
        <ele>440.42</ele>
        <time>2011-06-19T12:00:16Z</time>
      </trkpt>
      <trkpt lat="45.58494" lon="5.78263">
        <ele>439.94</ele>
        <time>2011-06-19T12:00:29Z</time>
      </trkpt>
      <trkpt lat="45.58489" lon="5.78271">
        <ele>440.42</ele>
        <time>2011-06-19T12:00:33Z</time>
      </trkpt>
      <trkpt lat="45.58495" lon="5.78281">
        <ele>440.42</ele>
        <time>2011-06-19T12:00:37Z</time>
      </trkpt>
      <trkpt lat="45.58499" lon="5.78317">
        <ele>442.82</ele>
        <time>2011-06-19T12:00:52Z</time>
      </trkpt>
      <trkpt lat="45.58496" lon="5.78329">
        <ele>444.27</ele>
        <time>2011-06-19T12:01:03Z</time>
      </trkpt>
      <trkpt lat="45.58489" lon="5.78341">
        <ele>444.27</ele>
        <time>2011-06-19T12:01:18Z</time>
      </trkpt>
      <trkpt lat="45.58477" lon="5.78363">
        <ele>444.75</ele>
        <time>2011-06-19T12:01:32Z</time>
      </trkpt>
      <trkpt lat="45.58475" lon="5.78364">
        <ele>444.75</ele>
        <time>2011-06-19T12:01:43Z</time>
      </trkpt>
      <trkpt lat="45.58466" lon="5.78373">
        <ele>445.71</ele>
        <time>2011-06-19T12:01:57Z</time>
      </trkpt>
      <trkpt lat="45.58453" lon="5.78392">
        <ele>447.15</ele>
        <time>2011-06-19T12:02:10Z</time>
      </trkpt>
      <trkpt lat="45.58452" lon="5.78394">
        <ele>447.63</ele>
        <time>2011-06-19T12:02:11Z</time>
      </trkpt>
      <trkpt lat="45.5844" lon="5.78414">
        <ele>448.11</ele>
        <time>2011-06-19T12:02:24Z</time>
      </trkpt>
      <trkpt lat="45.58416" lon="5.78433">
        <ele>449.07</ele>
        <time>2011-06-19T12:02:39Z</time>
      </trkpt>
      <trkpt lat="45.58394" lon="5.78445">
        <ele>450.03</ele>
        <time>2011-06-19T12:02:49Z</time>
      </trkpt>
      <trkpt lat="45.58386" lon="5.78453">
        <ele>450.52</ele>
        <time>2011-06-19T12:02:54Z</time>
      </trkpt>
      <trkpt lat="45.58367" lon="5.78459">
        <ele>451</ele>
        <time>2011-06-19T12:03:05Z</time>
      </trkpt>
      <trkpt lat="45.58349" lon="5.78462">
        <ele>450.52</ele>
        <time>2011-06-19T12:03:12Z</time>
      </trkpt>
      <trkpt lat="45.58344" lon="5.78472">
        <ele>450.52</ele>
        <time>2011-06-19T12:03:19Z</time>
      </trkpt>
      <trkpt lat="45.58346" lon="5.78475">
        <ele>450.52</ele>
        <time>2011-06-19T12:03:24Z</time>
      </trkpt>
      <trkpt lat="45.58347" lon="5.7848">
        <ele>450.52</ele>
        <time>2011-06-19T12:03:29Z</time>
      </trkpt>
      <trkpt lat="45.58363" lon="5.78517">
        <ele>447.63</ele>
        <time>2011-06-19T12:03:40Z</time>
      </trkpt>
      <trkpt lat="45.58365" lon="5.78522">
        <ele>446.67</ele>
        <time>2011-06-19T12:03:41Z</time>
      </trkpt>
      <trkpt lat="45.58373" lon="5.78541">
        <ele>444.75</ele>
        <time>2011-06-19T12:03:44Z</time>
      </trkpt>
      <trkpt lat="45.58374" lon="5.78547">
        <ele>443.79</ele>
        <time>2011-06-19T12:03:45Z</time>
      </trkpt>
      <trkpt lat="45.58374" lon="5.78552">
        <ele>443.79</ele>
        <time>2011-06-19T12:03:46Z</time>
      </trkpt>
      <trkpt lat="45.58374" lon="5.78558">
        <ele>443.31</ele>
        <time>2011-06-19T12:03:47Z</time>
      </trkpt>
      <trkpt lat="45.58375" lon="5.78564">
        <ele>442.82</ele>
        <time>2011-06-19T12:03:48Z</time>
      </trkpt>
      <trkpt lat="45.58376" lon="5.78569">
        <ele>442.34</ele>
        <time>2011-06-19T12:03:49Z</time>
      </trkpt>
      <trkpt lat="45.58378" lon="5.78576">
        <ele>441.86</ele>
        <time>2011-06-19T12:03:50Z</time>
      </trkpt>
      <trkpt lat="45.58381" lon="5.78582">
        <ele>440.9</ele>
        <time>2011-06-19T12:03:51Z</time>
      </trkpt>
      <trkpt lat="45.58384" lon="5.78589">
        <ele>440.42</ele>
        <time>2011-06-19T12:03:52Z</time>
      </trkpt>
      <trkpt lat="45.58387" lon="5.78596">
        <ele>438.98</ele>
        <time>2011-06-19T12:03:53Z</time>
      </trkpt>
      <trkpt lat="45.5839" lon="5.78603">
        <ele>438.98</ele>
        <time>2011-06-19T12:03:54Z</time>
      </trkpt>
      <trkpt lat="45.58394" lon="5.78608">
        <ele>438.02</ele>
        <time>2011-06-19T12:03:55Z</time>
      </trkpt>
      <trkpt lat="45.58398" lon="5.78614">
        <ele>437.06</ele>
        <time>2011-06-19T12:03:56Z</time>
      </trkpt>
      <trkpt lat="45.58402" lon="5.7862">
        <ele>436.1</ele>
        <time>2011-06-19T12:03:57Z</time>
      </trkpt>
      <trkpt lat="45.58406" lon="5.78625">
        <ele>435.13</ele>
        <time>2011-06-19T12:03:58Z</time>
      </trkpt>
      <trkpt lat="45.58408" lon="5.7863">
        <ele>434.17</ele>
        <time>2011-06-19T12:03:59Z</time>
      </trkpt>
      <trkpt lat="45.5841" lon="5.78636">
        <ele>433.69</ele>
        <time>2011-06-19T12:04:00Z</time>
      </trkpt>
      <trkpt lat="45.58412" lon="5.78642">
        <ele>433.21</ele>
        <time>2011-06-19T12:04:01Z</time>
      </trkpt>
      <trkpt lat="45.58414" lon="5.78648">
        <ele>432.73</ele>
        <time>2011-06-19T12:04:02Z</time>
      </trkpt>
      <trkpt lat="45.58415" lon="5.78654">
        <ele>432.73</ele>
        <time>2011-06-19T12:04:03Z</time>
      </trkpt>
      <trkpt lat="45.5842" lon="5.78671">
        <ele>430.81</ele>
        <time>2011-06-19T12:04:06Z</time>
      </trkpt>
      <trkpt lat="45.58423" lon="5.78678">
        <ele>429.37</ele>
        <time>2011-06-19T12:04:08Z</time>
      </trkpt>
      <trkpt lat="45.58425" lon="5.78682">
        <ele>428.89</ele>
        <time>2011-06-19T12:04:09Z</time>
      </trkpt>
      <trkpt lat="45.58427" lon="5.78686">
        <ele>428.4</ele>
        <time>2011-06-19T12:04:10Z</time>
      </trkpt>
      <trkpt lat="45.58429" lon="5.78691">
        <ele>427.44</ele>
        <time>2011-06-19T12:04:11Z</time>
      </trkpt>
      <trkpt lat="45.58431" lon="5.78696">
        <ele>426.96</ele>
        <time>2011-06-19T12:04:12Z</time>
      </trkpt>
      <trkpt lat="45.58432" lon="5.78701">
        <ele>426</ele>
        <time>2011-06-19T12:04:13Z</time>
      </trkpt>
      <trkpt lat="45.58433" lon="5.78706">
        <ele>425.04</ele>
        <time>2011-06-19T12:04:14Z</time>
      </trkpt>
      <trkpt lat="45.5844" lon="5.78733">
        <ele>422.16</ele>
        <time>2011-06-19T12:04:20Z</time>
      </trkpt>
      <trkpt lat="45.58442" lon="5.78744">
        <ele>421.19</ele>
        <time>2011-06-19T12:04:23Z</time>
      </trkpt>
      <trkpt lat="45.58448" lon="5.78769">
        <ele>418.31</ele>
        <time>2011-06-19T12:04:27Z</time>
      </trkpt>
      <trkpt lat="45.58449" lon="5.78775">
        <ele>418.31</ele>
        <time>2011-06-19T12:04:28Z</time>
      </trkpt>
      <trkpt lat="45.58451" lon="5.78782">
        <ele>417.83</ele>
        <time>2011-06-19T12:04:29Z</time>
      </trkpt>
      <trkpt lat="45.58453" lon="5.78788">
        <ele>417.35</ele>
        <time>2011-06-19T12:04:30Z</time>
      </trkpt>
      <trkpt lat="45.58456" lon="5.78794">
        <ele>415.91</ele>
        <time>2011-06-19T12:04:31Z</time>
      </trkpt>
      <trkpt lat="45.58459" lon="5.78799">
        <ele>415.91</ele>
        <time>2011-06-19T12:04:32Z</time>
      </trkpt>
      <trkpt lat="45.5846" lon="5.78805">
        <ele>415.43</ele>
        <time>2011-06-19T12:04:33Z</time>
      </trkpt>
      <trkpt lat="45.5846" lon="5.78811">
        <ele>414.95</ele>
        <time>2011-06-19T12:04:34Z</time>
      </trkpt>
      <trkpt lat="45.58456" lon="5.78817">
        <ele>414.95</ele>
        <time>2011-06-19T12:04:35Z</time>
      </trkpt>
      <trkpt lat="45.58428" lon="5.78846">
        <ele>413.02</ele>
        <time>2011-06-19T12:04:41Z</time>
      </trkpt>
      <trkpt lat="45.58416" lon="5.78855">
        <ele>412.06</ele>
        <time>2011-06-19T12:04:43Z</time>
      </trkpt>
      <trkpt lat="45.58411" lon="5.7886">
        <ele>411.58</ele>
        <time>2011-06-19T12:04:44Z</time>
      </trkpt>
      <trkpt lat="45.58406" lon="5.78866">
        <ele>411.1</ele>
        <time>2011-06-19T12:04:45Z</time>
      </trkpt>
      <trkpt lat="45.58397" lon="5.78878">
        <ele>409.66</ele>
        <time>2011-06-19T12:04:47Z</time>
      </trkpt>
      <trkpt lat="45.58393" lon="5.78883">
        <ele>409.66</ele>
        <time>2011-06-19T12:04:48Z</time>
      </trkpt>
      <trkpt lat="45.58389" lon="5.78888">
        <ele>409.18</ele>
        <time>2011-06-19T12:04:49Z</time>
      </trkpt>
      <trkpt lat="45.58387" lon="5.78895">
        <ele>409.18</ele>
        <time>2011-06-19T12:04:50Z</time>
      </trkpt>
      <trkpt lat="45.58383" lon="5.78902">
        <ele>408.22</ele>
        <time>2011-06-19T12:04:51Z</time>
      </trkpt>
      <trkpt lat="45.5838" lon="5.7891">
        <ele>407.26</ele>
        <time>2011-06-19T12:04:52Z</time>
      </trkpt>
      <trkpt lat="45.58377" lon="5.78919">
        <ele>407.26</ele>
        <time>2011-06-19T12:04:53Z</time>
      </trkpt>
      <trkpt lat="45.58376" lon="5.7893">
        <ele>406.29</ele>
        <time>2011-06-19T12:04:54Z</time>
      </trkpt>
      <trkpt lat="45.58374" lon="5.78942">
        <ele>405.33</ele>
        <time>2011-06-19T12:04:55Z</time>
      </trkpt>
      <trkpt lat="45.58374" lon="5.78955">
        <ele>404.85</ele>
        <time>2011-06-19T12:04:56Z</time>
      </trkpt>
      <trkpt lat="45.58374" lon="5.78969">
        <ele>403.89</ele>
        <time>2011-06-19T12:04:57Z</time>
      </trkpt>
      <trkpt lat="45.58373" lon="5.78984">
        <ele>402.45</ele>
        <time>2011-06-19T12:04:58Z</time>
      </trkpt>
      <trkpt lat="45.58371" lon="5.78997">
        <ele>401.01</ele>
        <time>2011-06-19T12:04:59Z</time>
      </trkpt>
      <trkpt lat="45.58366" lon="5.79009">
        <ele>400.53</ele>
        <time>2011-06-19T12:05:00Z</time>
      </trkpt>
      <trkpt lat="45.58361" lon="5.79021">
        <ele>399.57</ele>
        <time>2011-06-19T12:05:01Z</time>
      </trkpt>
      <trkpt lat="45.58354" lon="5.79032">
        <ele>398.6</ele>
        <time>2011-06-19T12:05:02Z</time>
      </trkpt>
      <trkpt lat="45.58347" lon="5.79044">
        <ele>397.16</ele>
        <time>2011-06-19T12:05:03Z</time>
      </trkpt>
      <trkpt lat="45.5834" lon="5.79054">
        <ele>395.72</ele>
        <time>2011-06-19T12:05:04Z</time>
      </trkpt>
      <trkpt lat="45.58332" lon="5.79063">
        <ele>395.24</ele>
        <time>2011-06-19T12:05:05Z</time>
      </trkpt>
      <trkpt lat="45.58324" lon="5.79071">
        <ele>394.28</ele>
        <time>2011-06-19T12:05:06Z</time>
      </trkpt>
      <trkpt lat="45.58316" lon="5.79078">
        <ele>393.8</ele>
        <time>2011-06-19T12:05:07Z</time>
      </trkpt>
      <trkpt lat="45.58307" lon="5.79083">
        <ele>393.32</ele>
        <time>2011-06-19T12:05:08Z</time>
      </trkpt>
      <trkpt lat="45.58299" lon="5.79088">
        <ele>392.84</ele>
        <time>2011-06-19T12:05:09Z</time>
      </trkpt>
      <trkpt lat="45.58218" lon="5.79149">
        <ele>390.91</ele>
        <time>2011-06-19T12:05:20Z</time>
      </trkpt>
      <trkpt lat="45.58211" lon="5.79152">
        <ele>390.91</ele>
        <time>2011-06-19T12:05:21Z</time>
      </trkpt>
      <trkpt lat="45.58205" lon="5.79152">
        <ele>390.43</ele>
        <time>2011-06-19T12:05:22Z</time>
      </trkpt>
      <trkpt lat="45.58201" lon="5.7915">
        <ele>390.43</ele>
        <time>2011-06-19T12:05:23Z</time>
      </trkpt>
      <trkpt lat="45.58197" lon="5.79144">
        <ele>389.95</ele>
        <time>2011-06-19T12:05:24Z</time>
      </trkpt>
      <trkpt lat="45.58194" lon="5.79138">
        <ele>389.95</ele>
        <time>2011-06-19T12:05:25Z</time>
      </trkpt>
      <trkpt lat="45.58192" lon="5.79132">
        <ele>389.95</ele>
        <time>2011-06-19T12:05:26Z</time>
      </trkpt>
      <trkpt lat="45.5819" lon="5.79125">
        <ele>389.95</ele>
        <time>2011-06-19T12:05:27Z</time>
      </trkpt>
      <trkpt lat="45.58187" lon="5.79121">
        <ele>389.95</ele>
        <time>2011-06-19T12:05:28Z</time>
      </trkpt>
      <trkpt lat="45.58184" lon="5.79117">
        <ele>389.47</ele>
        <time>2011-06-19T12:05:29Z</time>
      </trkpt>
      <trkpt lat="45.5818" lon="5.79113">
        <ele>389.95</ele>
        <time>2011-06-19T12:05:30Z</time>
      </trkpt>
      <trkpt lat="45.58178" lon="5.79109">
        <ele>389.47</ele>
        <time>2011-06-19T12:05:31Z</time>
      </trkpt>
      <trkpt lat="45.58162" lon="5.79093">
        <ele>389.95</ele>
        <time>2011-06-19T12:05:41Z</time>
      </trkpt>
      <trkpt lat="45.58157" lon="5.7909">
        <ele>389.95</ele>
        <time>2011-06-19T12:05:52Z</time>
      </trkpt>
      <trkpt lat="45.58157" lon="5.7909">
        <ele>389.47</ele>
        <time>2011-06-19T12:06:14Z</time>
      </trkpt>
      <trkpt lat="45.58157" lon="5.7909">
        <ele>389.47</ele>
        <time>2011-06-19T12:06:15Z</time>
      </trkpt>
      <trkpt lat="45.58155" lon="5.79089">
        <ele>388.99</ele>
        <time>2011-06-19T12:06:30Z</time>
      </trkpt>
      <trkpt lat="45.58155" lon="5.79089">
        <ele>388.03</ele>
        <time>2011-06-19T12:07:07Z</time>
      </trkpt>
      <trkpt lat="45.58155" lon="5.79089">
        <ele>388.03</ele>
        <time>2011-06-19T12:07:40Z</time>
      </trkpt>
      <trkpt lat="45.58155" lon="5.79089">
        <ele>389.47</ele>
        <time>2011-06-19T12:08:10Z</time>
      </trkpt>
      <trkpt lat="45.58155" lon="5.7909">
        <ele>389.47</ele>
        <time>2011-06-19T12:08:41Z</time>
      </trkpt>
      <trkpt lat="45.58154" lon="5.7909">
        <ele>388.99</ele>
        <time>2011-06-19T12:09:14Z</time>
      </trkpt>
      <trkpt lat="45.58154" lon="5.7909">
        <ele>388.99</ele>
        <time>2011-06-19T12:09:43Z</time>
      </trkpt>
      <trkpt lat="45.58154" lon="5.7909">
        <ele>388.99</ele>
        <time>2011-06-19T12:10:13Z</time>
      </trkpt>
      <trkpt lat="45.58153" lon="5.7909">
        <ele>393.32</ele>
        <time>2011-06-19T12:10:28Z</time>
      </trkpt>
      <trkpt lat="45.58153" lon="5.7909">
        <ele>392.36</ele>
        <time>2011-06-19T12:10:29Z</time>
      </trkpt>
      <trkpt lat="45.58153" lon="5.7909">
        <ele>388.51</ele>
        <time>2011-06-19T12:10:30Z</time>
      </trkpt>
      <trkpt lat="45.58153" lon="5.7909">
        <ele>391.39</ele>
        <time>2011-06-19T12:10:31Z</time>
      </trkpt>
      <trkpt lat="45.58151" lon="5.7909">
        <ele>390.43</ele>
        <time>2011-06-19T12:10:37Z</time>
      </trkpt>
      <trkpt lat="45.58149" lon="5.7909">
        <ele>389.95</ele>
        <time>2011-06-19T12:10:38Z</time>
      </trkpt>
      <trkpt lat="45.58129" lon="5.79105">
        <ele>389.47</ele>
        <time>2011-06-19T12:10:47Z</time>
      </trkpt>
      <trkpt lat="45.58122" lon="5.79104">
        <ele>388.99</ele>
        <time>2011-06-19T12:10:50Z</time>
      </trkpt>
      <trkpt lat="45.58114" lon="5.79105">
        <ele>388.03</ele>
        <time>2011-06-19T12:10:54Z</time>
      </trkpt>
      <trkpt lat="45.58106" lon="5.7911">
        <ele>388.99</ele>
        <time>2011-06-19T12:10:58Z</time>
      </trkpt>
      <trkpt lat="45.58096" lon="5.79127">
        <ele>388.99</ele>
        <time>2011-06-19T12:11:08Z</time>
      </trkpt>
      <trkpt lat="45.58096" lon="5.79143">
        <ele>388.99</ele>
        <time>2011-06-19T12:11:16Z</time>
      </trkpt>
      <trkpt lat="45.5808" lon="5.7917">
        <ele>388.51</ele>
        <time>2011-06-19T12:11:30Z</time>
      </trkpt>
      <trkpt lat="45.58048" lon="5.79188">
        <ele>388.51</ele>
        <time>2011-06-19T12:11:43Z</time>
      </trkpt>
      <trkpt lat="45.58047" lon="5.79184">
        <ele>389.47</ele>
        <time>2011-06-19T12:11:57Z</time>
      </trkpt>
      <trkpt lat="45.58045" lon="5.79183">
        <ele>387.07</ele>
        <time>2011-06-19T12:12:01Z</time>
      </trkpt>
      <trkpt lat="45.58045" lon="5.79183">
        <ele>392.36</ele>
        <time>2011-06-19T12:12:02Z</time>
      </trkpt>
      <trkpt lat="45.58045" lon="5.79183">
        <ele>385.63</ele>
        <time>2011-06-19T12:12:03Z</time>
      </trkpt>
      <trkpt lat="45.58045" lon="5.79183">
        <ele>388.99</ele>
        <time>2011-06-19T12:12:04Z</time>
      </trkpt>
      <trkpt lat="45.58044" lon="5.79183">
        <ele>389.47</ele>
        <time>2011-06-19T12:12:06Z</time>
      </trkpt>
      <trkpt lat="45.58042" lon="5.79185">
        <ele>389.47</ele>
        <time>2011-06-19T12:12:14Z</time>
      </trkpt>
      <trkpt lat="45.58038" lon="5.79194">
        <ele>387.07</ele>
        <time>2011-06-19T12:12:19Z</time>
      </trkpt>
      <trkpt lat="45.58009" lon="5.79205">
        <ele>387.07</ele>
        <time>2011-06-19T12:12:31Z</time>
      </trkpt>
      <trkpt lat="45.57971" lon="5.79198">
        <ele>388.03</ele>
        <time>2011-06-19T12:12:45Z</time>
      </trkpt>
      <trkpt lat="45.57938" lon="5.79219">
        <ele>387.07</ele>
        <time>2011-06-19T12:12:58Z</time>
      </trkpt>
      <trkpt lat="45.57901" lon="5.79246">
        <ele>387.07</ele>
        <time>2011-06-19T12:13:12Z</time>
      </trkpt>
      <trkpt lat="45.57866" lon="5.79276">
        <ele>386.59</ele>
        <time>2011-06-19T12:13:25Z</time>
      </trkpt>
      <trkpt lat="45.57845" lon="5.79323">
        <ele>388.03</ele>
        <time>2011-06-19T12:13:38Z</time>
      </trkpt>
      <trkpt lat="45.57816" lon="5.79326">
        <ele>387.55</ele>
        <time>2011-06-19T12:13:51Z</time>
      </trkpt>
      <trkpt lat="45.57799" lon="5.79311">
        <ele>387.55</ele>
        <time>2011-06-19T12:14:03Z</time>
      </trkpt>
      <trkpt lat="45.57797" lon="5.7931">
        <ele>387.07</ele>
        <time>2011-06-19T12:14:05Z</time>
      </trkpt>
      <trkpt lat="45.57791" lon="5.79314">
        <ele>386.59</ele>
        <time>2011-06-19T12:14:10Z</time>
      </trkpt>
      <trkpt lat="45.57792" lon="5.79321">
        <ele>388.03</ele>
        <time>2011-06-19T12:14:18Z</time>
      </trkpt>
      <trkpt lat="45.57789" lon="5.7933">
        <ele>388.03</ele>
        <time>2011-06-19T12:14:23Z</time>
      </trkpt>
      <trkpt lat="45.57753" lon="5.7933">
        <ele>388.99</ele>
        <time>2011-06-19T12:14:35Z</time>
      </trkpt>
      <trkpt lat="45.57711" lon="5.79332">
        <ele>388.99</ele>
        <time>2011-06-19T12:14:47Z</time>
      </trkpt>
      <trkpt lat="45.57651" lon="5.79333">
        <ele>388.51</ele>
        <time>2011-06-19T12:15:02Z</time>
      </trkpt>
      <trkpt lat="45.57643" lon="5.79333">
        <ele>388.51</ele>
        <time>2011-06-19T12:15:04Z</time>
      </trkpt>
      <trkpt lat="45.57639" lon="5.79334">
        <ele>388.51</ele>
        <time>2011-06-19T12:15:05Z</time>
      </trkpt>
      <trkpt lat="45.57556" lon="5.79336">
        <ele>388.51</ele>
        <time>2011-06-19T12:15:22Z</time>
      </trkpt>
      <trkpt lat="45.57476" lon="5.79339">
        <ele>388.03</ele>
        <time>2011-06-19T12:15:37Z</time>
      </trkpt>
      <trkpt lat="45.57446" lon="5.79341">
        <ele>388.03</ele>
        <time>2011-06-19T12:15:43Z</time>
      </trkpt>
      <trkpt lat="45.57441" lon="5.79342">
        <ele>388.03</ele>
        <time>2011-06-19T12:15:44Z</time>
      </trkpt>
      <trkpt lat="45.57375" lon="5.79346">
        <ele>387.55</ele>
        <time>2011-06-19T12:15:57Z</time>
      </trkpt>
      <trkpt lat="45.5736" lon="5.7935">
        <ele>387.55</ele>
        <time>2011-06-19T12:16:00Z</time>
      </trkpt>
      <trkpt lat="45.57333" lon="5.79351">
        <ele>387.55</ele>
        <time>2011-06-19T12:16:05Z</time>
      </trkpt>
      <trkpt lat="45.57261" lon="5.79346">
        <ele>386.59</ele>
        <time>2011-06-19T12:16:18Z</time>
      </trkpt>
      <trkpt lat="45.57155" lon="5.79355">
        <ele>386.59</ele>
        <time>2011-06-19T12:16:36Z</time>
      </trkpt>
      <trkpt lat="45.57094" lon="5.79414">
        <ele>386.11</ele>
        <time>2011-06-19T12:16:49Z</time>
      </trkpt>
      <trkpt lat="45.5707" lon="5.79437">
        <ele>385.63</ele>
        <time>2011-06-19T12:16:54Z</time>
      </trkpt>
      <trkpt lat="45.57048" lon="5.7945">
        <ele>386.11</ele>
        <time>2011-06-19T12:16:58Z</time>
      </trkpt>
      <trkpt lat="45.56979" lon="5.79449">
        <ele>385.63</ele>
        <time>2011-06-19T12:17:10Z</time>
      </trkpt>
      <trkpt lat="45.56861" lon="5.79418">
        <ele>385.63</ele>
        <time>2011-06-19T12:17:30Z</time>
      </trkpt>
      <trkpt lat="45.56767" lon="5.79398">
        <ele>385.63</ele>
        <time>2011-06-19T12:17:47Z</time>
      </trkpt>
      <trkpt lat="45.5669" lon="5.79415">
        <ele>386.11</ele>
        <time>2011-06-19T12:18:01Z</time>
      </trkpt>
      <trkpt lat="45.56615" lon="5.79441">
        <ele>385.63</ele>
        <time>2011-06-19T12:18:15Z</time>
      </trkpt>
      <trkpt lat="45.56544" lon="5.79462">
        <ele>388.03</ele>
        <time>2011-06-19T12:18:29Z</time>
      </trkpt>
      <trkpt lat="45.56539" lon="5.79462">
        <ele>387.55</ele>
        <time>2011-06-19T12:18:38Z</time>
      </trkpt>
      <trkpt lat="45.56517" lon="5.79462">
        <ele>387.55</ele>
        <time>2011-06-19T12:18:48Z</time>
      </trkpt>
      <trkpt lat="45.5648" lon="5.79474">
        <ele>387.55</ele>
        <time>2011-06-19T12:18:58Z</time>
      </trkpt>
      <trkpt lat="45.56479" lon="5.79478">
        <ele>387.07</ele>
        <time>2011-06-19T12:18:59Z</time>
      </trkpt>
      <trkpt lat="45.56481" lon="5.79483">
        <ele>386.59</ele>
        <time>2011-06-19T12:19:00Z</time>
      </trkpt>
      <trkpt lat="45.56484" lon="5.79489">
        <ele>385.63</ele>
        <time>2011-06-19T12:19:01Z</time>
      </trkpt>
      <trkpt lat="45.56486" lon="5.79495">
        <ele>385.15</ele>
        <time>2011-06-19T12:19:02Z</time>
      </trkpt>
      <trkpt lat="45.56487" lon="5.79501">
        <ele>384.66</ele>
        <time>2011-06-19T12:19:03Z</time>
      </trkpt>
      <trkpt lat="45.56485" lon="5.79504">
        <ele>384.66</ele>
        <time>2011-06-19T12:19:04Z</time>
      </trkpt>
      <trkpt lat="45.56483" lon="5.79506">
        <ele>384.18</ele>
        <time>2011-06-19T12:19:05Z</time>
      </trkpt>
      <trkpt lat="45.56482" lon="5.79509">
        <ele>384.18</ele>
        <time>2011-06-19T12:19:06Z</time>
      </trkpt>
      <trkpt lat="45.56481" lon="5.79512">
        <ele>383.7</ele>
        <time>2011-06-19T12:19:07Z</time>
      </trkpt>
      <trkpt lat="45.56481" lon="5.79514">
        <ele>384.18</ele>
        <time>2011-06-19T12:19:08Z</time>
      </trkpt>
      <trkpt lat="45.56481" lon="5.79517">
        <ele>384.18</ele>
        <time>2011-06-19T12:19:09Z</time>
      </trkpt>
      <trkpt lat="45.5648" lon="5.79519">
        <ele>383.7</ele>
        <time>2011-06-19T12:19:10Z</time>
      </trkpt>
      <trkpt lat="45.56476" lon="5.79541">
        <ele>382.74</ele>
        <time>2011-06-19T12:19:22Z</time>
      </trkpt>
      <trkpt lat="45.56472" lon="5.79597">
        <ele>382.26</ele>
        <time>2011-06-19T12:19:37Z</time>
      </trkpt>
      <trkpt lat="45.56447" lon="5.79602">
        <ele>381.78</ele>
        <time>2011-06-19T12:19:50Z</time>
      </trkpt>
      <trkpt lat="45.56446" lon="5.79604">
        <ele>381.78</ele>
        <time>2011-06-19T12:19:51Z</time>
      </trkpt>
      <trkpt lat="45.56444" lon="5.79605">
        <ele>375.53</ele>
        <time>2011-06-19T12:20:05Z</time>
      </trkpt>
      <trkpt lat="45.56444" lon="5.79605">
        <ele>387.07</ele>
        <time>2011-06-19T12:20:06Z</time>
      </trkpt>
      <trkpt lat="45.56444" lon="5.79605">
        <ele>381.78</ele>
        <time>2011-06-19T12:20:07Z</time>
      </trkpt>
      <trkpt lat="45.56444" lon="5.79605">
        <ele>381.3</ele>
        <time>2011-06-19T12:20:29Z</time>
      </trkpt>
      <trkpt lat="45.56444" lon="5.79605">
        <ele>380.82</ele>
        <time>2011-06-19T12:20:44Z</time>
      </trkpt>
    </trkseg>
  </trk>
</gpx>